<?xml version="1.0" encoding="UTF-8"?>
<gpx version="1.1" creator="https://www.youtrack.es" xsi:schemaLocation="http://www.topografix.com/GPX/1/1 http://www.topografix.com/GPX/1/1/gpx.xsd http://www.garmin.com/xmlschemas/GpxExtensions/v3 http://www.garmin.com/xmlschemas/GpxExtensionsv3.xsd http://www.garmin.com/xmlschemas/TrackPointExtension/v1 http://www.garmin.com/xmlschemas/TrackPointExtensionv1.xsd" xmlns:gpxtpx="http://www.garmin.com/xmlschemas/TrackPointExtension/v1" xmlns:gpxx="http://www.garmin.com/xmlschemas/GpxExtensions/v3" xmlns:xsi="http://www.w3.org/2001/XMLSchema-instance">
  <metadata>
    <author>
      <name>Jordi Cuadras</name>
      <email id="kbronell" domain="gmail.com"/>
    </author>
    <link href="https://www.youtrack.es">
      <text>YouTrack.es</text>
    </link>
    <time>2026-05-08T20:52:34Z</time>
  </metadata>
  <trk>
    <src>https://www.youtrack.es</src>
    <link href="https://www.youtrack.es/ruta/21733-ribes-montserrat--final--1">
      <text>YouTrack.es</text>
    </link>
    <trkseg>
      <trkpt lat="41.262505" lon="1.773436">
        <ele>105.064</ele>
        <time>2017-04-29T06:40:04Z</time>
      </trkpt>
      <trkpt lat="41.262457" lon="1.773549">
        <ele>101.006</ele>
        <time>2017-04-29T06:41:09Z</time>
      </trkpt>
      <trkpt lat="41.2625" lon="1.773673">
        <ele>101.016</ele>
        <time>2017-04-29T06:41:22Z</time>
      </trkpt>
      <trkpt lat="41.262523" lon="1.773809">
        <ele>102.008</ele>
        <time>2017-04-29T06:41:28Z</time>
      </trkpt>
      <trkpt lat="41.262538" lon="1.773938">
        <ele>101.067</ele>
        <time>2017-04-29T06:41:33Z</time>
      </trkpt>
      <trkpt lat="41.262568" lon="1.774061">
        <ele>105.043</ele>
        <time>2017-04-29T06:41:39Z</time>
      </trkpt>
      <trkpt lat="41.262592" lon="1.774198">
        <ele>108.01</ele>
        <time>2017-04-29T06:41:44Z</time>
      </trkpt>
      <trkpt lat="41.262616" lon="1.774322">
        <ele>108.083</ele>
        <time>2017-04-29T06:41:49Z</time>
      </trkpt>
      <trkpt lat="41.262643" lon="1.774446">
        <ele>108.052</ele>
        <time>2017-04-29T06:41:54Z</time>
      </trkpt>
      <trkpt lat="41.262663" lon="1.774575">
        <ele>107.042</ele>
        <time>2017-04-29T06:41:59Z</time>
      </trkpt>
      <trkpt lat="41.262685" lon="1.774703">
        <ele>105.093</ele>
        <time>2017-04-29T06:42:04Z</time>
      </trkpt>
      <trkpt lat="41.262707" lon="1.774824">
        <ele>104.05</ele>
        <time>2017-04-29T06:42:08Z</time>
      </trkpt>
      <trkpt lat="41.26272" lon="1.774947">
        <ele>101.041</ele>
        <time>2017-04-29T06:42:12Z</time>
      </trkpt>
      <trkpt lat="41.262751" lon="1.775087">
        <ele>100.081</ele>
        <time>2017-04-29T06:42:17Z</time>
      </trkpt>
      <trkpt lat="41.262785" lon="1.775212">
        <ele>101.009</ele>
        <time>2017-04-29T06:42:22Z</time>
      </trkpt>
      <trkpt lat="41.262789" lon="1.775332">
        <ele>102.008</ele>
        <time>2017-04-29T06:42:27Z</time>
      </trkpt>
      <trkpt lat="41.262826" lon="1.775473">
        <ele>103.045</ele>
        <time>2017-04-29T06:42:32Z</time>
      </trkpt>
      <trkpt lat="41.262846" lon="1.775605">
        <ele>103.051</ele>
        <time>2017-04-29T06:42:37Z</time>
      </trkpt>
      <trkpt lat="41.262877" lon="1.775738">
        <ele>105.068</ele>
        <time>2017-04-29T06:42:42Z</time>
      </trkpt>
      <trkpt lat="41.262883" lon="1.775866">
        <ele>105.031</ele>
        <time>2017-04-29T06:42:46Z</time>
      </trkpt>
      <trkpt lat="41.262884" lon="1.775997">
        <ele>109.03</ele>
        <time>2017-04-29T06:42:52Z</time>
      </trkpt>
      <trkpt lat="41.262902" lon="1.776116">
        <ele>110.06</ele>
        <time>2017-04-29T06:42:56Z</time>
      </trkpt>
      <trkpt lat="41.26294" lon="1.776242">
        <ele>111.051</ele>
        <time>2017-04-29T06:43:01Z</time>
      </trkpt>
      <trkpt lat="41.262978" lon="1.776376">
        <ele>113.018</ele>
        <time>2017-04-29T06:43:06Z</time>
      </trkpt>
      <trkpt lat="41.263005" lon="1.776504">
        <ele>114.029</ele>
        <time>2017-04-29T06:43:11Z</time>
      </trkpt>
      <trkpt lat="41.263034" lon="1.776638">
        <ele>116.0</ele>
        <time>2017-04-29T06:43:16Z</time>
      </trkpt>
      <trkpt lat="41.263058" lon="1.776757">
        <ele>117.02</ele>
        <time>2017-04-29T06:43:20Z</time>
      </trkpt>
      <trkpt lat="41.263088" lon="1.776888">
        <ele>118.008</ele>
        <time>2017-04-29T06:43:25Z</time>
      </trkpt>
      <trkpt lat="41.263141" lon="1.77699">
        <ele>118.033</ele>
        <time>2017-04-29T06:43:29Z</time>
      </trkpt>
      <trkpt lat="41.26323" lon="1.77707">
        <ele>119.019</ele>
        <time>2017-04-29T06:43:34Z</time>
      </trkpt>
      <trkpt lat="41.263271" lon="1.777187">
        <ele>120.096</ele>
        <time>2017-04-29T06:43:38Z</time>
      </trkpt>
      <trkpt lat="41.263322" lon="1.777319">
        <ele>120.069</ele>
        <time>2017-04-29T06:43:43Z</time>
      </trkpt>
      <trkpt lat="41.263338" lon="1.777446">
        <ele>122.048</ele>
        <time>2017-04-29T06:43:47Z</time>
      </trkpt>
      <trkpt lat="41.263342" lon="1.777586">
        <ele>123.028</ele>
        <time>2017-04-29T06:43:51Z</time>
      </trkpt>
      <trkpt lat="41.263329" lon="1.777705">
        <ele>123.019</ele>
        <time>2017-04-29T06:43:54Z</time>
      </trkpt>
      <trkpt lat="41.263302" lon="1.777843">
        <ele>124.016</ele>
        <time>2017-04-29T06:43:58Z</time>
      </trkpt>
      <trkpt lat="41.263259" lon="1.777981">
        <ele>125.085</ele>
        <time>2017-04-29T06:44:02Z</time>
      </trkpt>
      <trkpt lat="41.263233" lon="1.778127">
        <ele>126.089</ele>
        <time>2017-04-29T06:44:06Z</time>
      </trkpt>
      <trkpt lat="41.263223" lon="1.778265">
        <ele>127.017</ele>
        <time>2017-04-29T06:44:10Z</time>
      </trkpt>
      <trkpt lat="41.263222" lon="1.778388">
        <ele>126.008</ele>
        <time>2017-04-29T06:44:13Z</time>
      </trkpt>
      <trkpt lat="41.263235" lon="1.778533">
        <ele>126.029</ele>
        <time>2017-04-29T06:44:17Z</time>
      </trkpt>
      <trkpt lat="41.263243" lon="1.778671">
        <ele>126.085</ele>
        <time>2017-04-29T06:44:21Z</time>
      </trkpt>
      <trkpt lat="41.263256" lon="1.778811">
        <ele>125.022</ele>
        <time>2017-04-29T06:44:25Z</time>
      </trkpt>
      <trkpt lat="41.263272" lon="1.778961">
        <ele>125.065</ele>
        <time>2017-04-29T06:44:29Z</time>
      </trkpt>
      <trkpt lat="41.263284" lon="1.779113">
        <ele>125.044</ele>
        <time>2017-04-29T06:44:33Z</time>
      </trkpt>
      <trkpt lat="41.263295" lon="1.779264">
        <ele>124.044</ele>
        <time>2017-04-29T06:44:37Z</time>
      </trkpt>
      <trkpt lat="41.263306" lon="1.779419">
        <ele>124.045</ele>
        <time>2017-04-29T06:44:41Z</time>
      </trkpt>
      <trkpt lat="41.263318" lon="1.779548">
        <ele>125.082</ele>
        <time>2017-04-29T06:44:44Z</time>
      </trkpt>
      <trkpt lat="41.263331" lon="1.77967">
        <ele>125.072</ele>
        <time>2017-04-29T06:44:47Z</time>
      </trkpt>
      <trkpt lat="41.263349" lon="1.779798">
        <ele>124.013</ele>
        <time>2017-04-29T06:44:50Z</time>
      </trkpt>
      <trkpt lat="41.263365" lon="1.779923">
        <ele>124.014</ele>
        <time>2017-04-29T06:44:53Z</time>
      </trkpt>
      <trkpt lat="41.263376" lon="1.780045">
        <ele>123.008</ele>
        <time>2017-04-29T06:44:56Z</time>
      </trkpt>
      <trkpt lat="41.263383" lon="1.780201">
        <ele>124.058</ele>
        <time>2017-04-29T06:45:00Z</time>
      </trkpt>
      <trkpt lat="41.263396" lon="1.780344">
        <ele>124.034</ele>
        <time>2017-04-29T06:45:04Z</time>
      </trkpt>
      <trkpt lat="41.263434" lon="1.780457">
        <ele>126.031</ele>
        <time>2017-04-29T06:45:08Z</time>
      </trkpt>
      <trkpt lat="41.263496" lon="1.780573">
        <ele>125.044</ele>
        <time>2017-04-29T06:45:12Z</time>
      </trkpt>
      <trkpt lat="41.26358" lon="1.780656">
        <ele>126.023</ele>
        <time>2017-04-29T06:45:16Z</time>
      </trkpt>
      <trkpt lat="41.263666" lon="1.780745">
        <ele>129.043</ele>
        <time>2017-04-29T06:45:20Z</time>
      </trkpt>
      <trkpt lat="41.263767" lon="1.780815">
        <ele>130.034</ele>
        <time>2017-04-29T06:45:24Z</time>
      </trkpt>
      <trkpt lat="41.263844" lon="1.780895">
        <ele>128.081</ele>
        <time>2017-04-29T06:45:27Z</time>
      </trkpt>
      <trkpt lat="41.263887" lon="1.781013">
        <ele>127.064</ele>
        <time>2017-04-29T06:45:30Z</time>
      </trkpt>
      <trkpt lat="41.263902" lon="1.781135">
        <ele>127.006</ele>
        <time>2017-04-29T06:45:33Z</time>
      </trkpt>
      <trkpt lat="41.263933" lon="1.781275">
        <ele>129.016</ele>
        <time>2017-04-29T06:45:37Z</time>
      </trkpt>
      <trkpt lat="41.264014" lon="1.781364">
        <ele>128.008</ele>
        <time>2017-04-29T06:45:41Z</time>
      </trkpt>
      <trkpt lat="41.264115" lon="1.781409">
        <ele>129.017</ele>
        <time>2017-04-29T06:45:45Z</time>
      </trkpt>
      <trkpt lat="41.264216" lon="1.781378">
        <ele>131.033</ele>
        <time>2017-04-29T06:45:49Z</time>
      </trkpt>
      <trkpt lat="41.264331" lon="1.781317">
        <ele>130.01</ele>
        <time>2017-04-29T06:45:53Z</time>
      </trkpt>
      <trkpt lat="41.264445" lon="1.7813">
        <ele>130.053</ele>
        <time>2017-04-29T06:45:56Z</time>
      </trkpt>
      <trkpt lat="41.264566" lon="1.781315">
        <ele>131.062</ele>
        <time>2017-04-29T06:45:59Z</time>
      </trkpt>
      <trkpt lat="41.264677" lon="1.781351">
        <ele>132.032</ele>
        <time>2017-04-29T06:46:02Z</time>
      </trkpt>
      <trkpt lat="41.264773" lon="1.781378">
        <ele>132.073</ele>
        <time>2017-04-29T06:46:05Z</time>
      </trkpt>
      <trkpt lat="41.264883" lon="1.78139">
        <ele>131.07</ele>
        <time>2017-04-29T06:46:08Z</time>
      </trkpt>
      <trkpt lat="41.264988" lon="1.781404">
        <ele>133.041</ele>
        <time>2017-04-29T06:46:11Z</time>
      </trkpt>
      <trkpt lat="41.26509" lon="1.781423">
        <ele>132.081</ele>
        <time>2017-04-29T06:46:14Z</time>
      </trkpt>
      <trkpt lat="41.265195" lon="1.78144">
        <ele>132.009</ele>
        <time>2017-04-29T06:46:17Z</time>
      </trkpt>
      <trkpt lat="41.265297" lon="1.781483">
        <ele>132.008</ele>
        <time>2017-04-29T06:46:20Z</time>
      </trkpt>
      <trkpt lat="41.265388" lon="1.781552">
        <ele>131.095</ele>
        <time>2017-04-29T06:46:23Z</time>
      </trkpt>
      <trkpt lat="41.265462" lon="1.781636">
        <ele>132.061</ele>
        <time>2017-04-29T06:46:26Z</time>
      </trkpt>
      <trkpt lat="41.265529" lon="1.781725">
        <ele>132.048</ele>
        <time>2017-04-29T06:46:29Z</time>
      </trkpt>
      <trkpt lat="41.265611" lon="1.781837">
        <ele>134.081</ele>
        <time>2017-04-29T06:46:32Z</time>
      </trkpt>
      <trkpt lat="41.265674" lon="1.781963">
        <ele>135.06</ele>
        <time>2017-04-29T06:46:36Z</time>
      </trkpt>
      <trkpt lat="41.265733" lon="1.782087">
        <ele>134.05</ele>
        <time>2017-04-29T06:46:39Z</time>
      </trkpt>
      <trkpt lat="41.265813" lon="1.78221">
        <ele>133.081</ele>
        <time>2017-04-29T06:46:42Z</time>
      </trkpt>
      <trkpt lat="41.265887" lon="1.782354">
        <ele>133.098</ele>
        <time>2017-04-29T06:46:45Z</time>
      </trkpt>
      <trkpt lat="41.265936" lon="1.782482">
        <ele>131.061</ele>
        <time>2017-04-29T06:46:47Z</time>
      </trkpt>
      <trkpt lat="41.26599" lon="1.782617">
        <ele>130.021</ele>
        <time>2017-04-29T06:46:49Z</time>
      </trkpt>
      <trkpt lat="41.26607" lon="1.782738">
        <ele>128.013</ele>
        <time>2017-04-29T06:46:51Z</time>
      </trkpt>
      <trkpt lat="41.266152" lon="1.782884">
        <ele>127.008</ele>
        <time>2017-04-29T06:46:53Z</time>
      </trkpt>
      <trkpt lat="41.266236" lon="1.783051">
        <ele>126.077</ele>
        <time>2017-04-29T06:46:55Z</time>
      </trkpt>
      <trkpt lat="41.2663" lon="1.783251">
        <ele>126.023</ele>
        <time>2017-04-29T06:46:57Z</time>
      </trkpt>
      <trkpt lat="41.266333" lon="1.783456">
        <ele>125.01</ele>
        <time>2017-04-29T06:46:59Z</time>
      </trkpt>
      <trkpt lat="41.266363" lon="1.78366">
        <ele>125.043</ele>
        <time>2017-04-29T06:47:01Z</time>
      </trkpt>
      <trkpt lat="41.266383" lon="1.783865">
        <ele>123.032</ele>
        <time>2017-04-29T06:47:03Z</time>
      </trkpt>
      <trkpt lat="41.266415" lon="1.784061">
        <ele>121.062</ele>
        <time>2017-04-29T06:47:06Z</time>
      </trkpt>
      <trkpt lat="41.266453" lon="1.784269">
        <ele>122.043</ele>
        <time>2017-04-29T06:47:08Z</time>
      </trkpt>
      <trkpt lat="41.266499" lon="1.784475">
        <ele>122.09</ele>
        <time>2017-04-29T06:47:10Z</time>
      </trkpt>
      <trkpt lat="41.266563" lon="1.784689">
        <ele>122.014</ele>
        <time>2017-04-29T06:47:12Z</time>
      </trkpt>
      <trkpt lat="41.266621" lon="1.784899">
        <ele>122.054</ele>
        <time>2017-04-29T06:47:14Z</time>
      </trkpt>
      <trkpt lat="41.266681" lon="1.785107">
        <ele>120.009</ele>
        <time>2017-04-29T06:47:16Z</time>
      </trkpt>
      <trkpt lat="41.26674" lon="1.785319">
        <ele>116.008</ele>
        <time>2017-04-29T06:47:18Z</time>
      </trkpt>
      <trkpt lat="41.266789" lon="1.785512">
        <ele>116.012</ele>
        <time>2017-04-29T06:47:20Z</time>
      </trkpt>
      <trkpt lat="41.266837" lon="1.785699">
        <ele>117.028</ele>
        <time>2017-04-29T06:47:22Z</time>
      </trkpt>
      <trkpt lat="41.266903" lon="1.785874">
        <ele>117.065</ele>
        <time>2017-04-29T06:47:24Z</time>
      </trkpt>
      <trkpt lat="41.26698" lon="1.786017">
        <ele>118.038</ele>
        <time>2017-04-29T06:47:26Z</time>
      </trkpt>
      <trkpt lat="41.267053" lon="1.786168">
        <ele>118.037</ele>
        <time>2017-04-29T06:47:28Z</time>
      </trkpt>
      <trkpt lat="41.267129" lon="1.786294">
        <ele>118.027</ele>
        <time>2017-04-29T06:47:30Z</time>
      </trkpt>
      <trkpt lat="41.267207" lon="1.786376">
        <ele>119.028</ele>
        <time>2017-04-29T06:47:32Z</time>
      </trkpt>
      <trkpt lat="41.267287" lon="1.786466">
        <ele>118.045</ele>
        <time>2017-04-29T06:47:34Z</time>
      </trkpt>
      <trkpt lat="41.267367" lon="1.786535">
        <ele>118.096</ele>
        <time>2017-04-29T06:47:36Z</time>
      </trkpt>
      <trkpt lat="41.267469" lon="1.786647">
        <ele>118.031</ele>
        <time>2017-04-29T06:47:39Z</time>
      </trkpt>
      <trkpt lat="41.267559" lon="1.786706">
        <ele>118.024</ele>
        <time>2017-04-29T06:47:41Z</time>
      </trkpt>
      <trkpt lat="41.267664" lon="1.786768">
        <ele>118.008</ele>
        <time>2017-04-29T06:47:43Z</time>
      </trkpt>
      <trkpt lat="41.267752" lon="1.786845">
        <ele>117.05</ele>
        <time>2017-04-29T06:47:45Z</time>
      </trkpt>
      <trkpt lat="41.267832" lon="1.786926">
        <ele>117.056</ele>
        <time>2017-04-29T06:47:47Z</time>
      </trkpt>
      <trkpt lat="41.267917" lon="1.787007">
        <ele>118.023</ele>
        <time>2017-04-29T06:47:49Z</time>
      </trkpt>
      <trkpt lat="41.268008" lon="1.787086">
        <ele>118.076</ele>
        <time>2017-04-29T06:47:51Z</time>
      </trkpt>
      <trkpt lat="41.268088" lon="1.787177">
        <ele>119.045</ele>
        <time>2017-04-29T06:47:53Z</time>
      </trkpt>
      <trkpt lat="41.268178" lon="1.787258">
        <ele>120.085</ele>
        <time>2017-04-29T06:47:55Z</time>
      </trkpt>
      <trkpt lat="41.268278" lon="1.787296">
        <ele>120.036</ele>
        <time>2017-04-29T06:47:57Z</time>
      </trkpt>
      <trkpt lat="41.268382" lon="1.787302">
        <ele>121.033</ele>
        <time>2017-04-29T06:47:59Z</time>
      </trkpt>
      <trkpt lat="41.268491" lon="1.787277">
        <ele>120.057</ele>
        <time>2017-04-29T06:48:01Z</time>
      </trkpt>
      <trkpt lat="41.268601" lon="1.787288">
        <ele>120.0</ele>
        <time>2017-04-29T06:48:03Z</time>
      </trkpt>
      <trkpt lat="41.268704" lon="1.787297">
        <ele>117.02</ele>
        <time>2017-04-29T06:48:05Z</time>
      </trkpt>
      <trkpt lat="41.268804" lon="1.787318">
        <ele>118.008</ele>
        <time>2017-04-29T06:48:07Z</time>
      </trkpt>
      <trkpt lat="41.268903" lon="1.787341">
        <ele>117.096</ele>
        <time>2017-04-29T06:48:09Z</time>
      </trkpt>
      <trkpt lat="41.268995" lon="1.787387">
        <ele>116.042</ele>
        <time>2017-04-29T06:48:11Z</time>
      </trkpt>
      <trkpt lat="41.269087" lon="1.787454">
        <ele>117.089</ele>
        <time>2017-04-29T06:48:13Z</time>
      </trkpt>
      <trkpt lat="41.269187" lon="1.787508">
        <ele>115.042</ele>
        <time>2017-04-29T06:48:15Z</time>
      </trkpt>
      <trkpt lat="41.269293" lon="1.78754">
        <ele>115.051</ele>
        <time>2017-04-29T06:48:17Z</time>
      </trkpt>
      <trkpt lat="41.269385" lon="1.787584">
        <ele>115.011</ele>
        <time>2017-04-29T06:48:19Z</time>
      </trkpt>
      <trkpt lat="41.269479" lon="1.787615">
        <ele>116.012</ele>
        <time>2017-04-29T06:48:21Z</time>
      </trkpt>
      <trkpt lat="41.269581" lon="1.787636">
        <ele>116.049</ele>
        <time>2017-04-29T06:48:23Z</time>
      </trkpt>
      <trkpt lat="41.269677" lon="1.787655">
        <ele>117.016</ele>
        <time>2017-04-29T06:48:25Z</time>
      </trkpt>
      <trkpt lat="41.269772" lon="1.787674">
        <ele>118.076</ele>
        <time>2017-04-29T06:48:27Z</time>
      </trkpt>
      <trkpt lat="41.269881" lon="1.787657">
        <ele>118.013</ele>
        <time>2017-04-29T06:48:29Z</time>
      </trkpt>
      <trkpt lat="41.269989" lon="1.787644">
        <ele>117.008</ele>
        <time>2017-04-29T06:48:31Z</time>
      </trkpt>
      <trkpt lat="41.270116" lon="1.787605">
        <ele>118.032</ele>
        <time>2017-04-29T06:48:33Z</time>
      </trkpt>
      <trkpt lat="41.270256" lon="1.787548">
        <ele>116.058</ele>
        <time>2017-04-29T06:48:35Z</time>
      </trkpt>
      <trkpt lat="41.270386" lon="1.787493">
        <ele>115.075</ele>
        <time>2017-04-29T06:48:37Z</time>
      </trkpt>
      <trkpt lat="41.270518" lon="1.787419">
        <ele>114.078</ele>
        <time>2017-04-29T06:48:39Z</time>
      </trkpt>
      <trkpt lat="41.270635" lon="1.787335">
        <ele>114.047</ele>
        <time>2017-04-29T06:48:41Z</time>
      </trkpt>
      <trkpt lat="41.270759" lon="1.787247">
        <ele>114.017</ele>
        <time>2017-04-29T06:48:43Z</time>
      </trkpt>
      <trkpt lat="41.270868" lon="1.787157">
        <ele>114.098</ele>
        <time>2017-04-29T06:48:45Z</time>
      </trkpt>
      <trkpt lat="41.270975" lon="1.787049">
        <ele>114.085</ele>
        <time>2017-04-29T06:48:47Z</time>
      </trkpt>
      <trkpt lat="41.271078" lon="1.786964">
        <ele>115.097</ele>
        <time>2017-04-29T06:48:49Z</time>
      </trkpt>
      <trkpt lat="41.27118" lon="1.786876">
        <ele>115.023</ele>
        <time>2017-04-29T06:48:51Z</time>
      </trkpt>
      <trkpt lat="41.271288" lon="1.786782">
        <ele>115.025</ele>
        <time>2017-04-29T06:48:53Z</time>
      </trkpt>
      <trkpt lat="41.271395" lon="1.786707">
        <ele>114.008</ele>
        <time>2017-04-29T06:48:55Z</time>
      </trkpt>
      <trkpt lat="41.271501" lon="1.786611">
        <ele>114.01</ele>
        <time>2017-04-29T06:48:57Z</time>
      </trkpt>
      <trkpt lat="41.271611" lon="1.786541">
        <ele>114.026</ele>
        <time>2017-04-29T06:48:59Z</time>
      </trkpt>
      <trkpt lat="41.271726" lon="1.786456">
        <ele>114.043</ele>
        <time>2017-04-29T06:49:01Z</time>
      </trkpt>
      <trkpt lat="41.271854" lon="1.78637">
        <ele>114.066</ele>
        <time>2017-04-29T06:49:03Z</time>
      </trkpt>
      <trkpt lat="41.271966" lon="1.786313">
        <ele>114.075</ele>
        <time>2017-04-29T06:49:05Z</time>
      </trkpt>
      <trkpt lat="41.272104" lon="1.786275">
        <ele>112.035</ele>
        <time>2017-04-29T06:49:07Z</time>
      </trkpt>
      <trkpt lat="41.272254" lon="1.786273">
        <ele>114.036</ele>
        <time>2017-04-29T06:49:09Z</time>
      </trkpt>
      <trkpt lat="41.272384" lon="1.786347">
        <ele>113.073</ele>
        <time>2017-04-29T06:49:11Z</time>
      </trkpt>
      <trkpt lat="41.272504" lon="1.786457">
        <ele>113.061</ele>
        <time>2017-04-29T06:49:13Z</time>
      </trkpt>
      <trkpt lat="41.27262" lon="1.786583">
        <ele>112.021</ele>
        <time>2017-04-29T06:49:15Z</time>
      </trkpt>
      <trkpt lat="41.272739" lon="1.786709">
        <ele>113.013</ele>
        <time>2017-04-29T06:49:17Z</time>
      </trkpt>
      <trkpt lat="41.272868" lon="1.786839">
        <ele>111.008</ele>
        <time>2017-04-29T06:49:19Z</time>
      </trkpt>
      <trkpt lat="41.27299" lon="1.786976">
        <ele>109.047</ele>
        <time>2017-04-29T06:49:21Z</time>
      </trkpt>
      <trkpt lat="41.273106" lon="1.787107">
        <ele>108.023</ele>
        <time>2017-04-29T06:49:23Z</time>
      </trkpt>
      <trkpt lat="41.27321" lon="1.787217">
        <ele>107.01</ele>
        <time>2017-04-29T06:49:25Z</time>
      </trkpt>
      <trkpt lat="41.273318" lon="1.787324">
        <ele>107.073</ele>
        <time>2017-04-29T06:49:27Z</time>
      </trkpt>
      <trkpt lat="41.273427" lon="1.787423">
        <ele>108.012</ele>
        <time>2017-04-29T06:49:29Z</time>
      </trkpt>
      <trkpt lat="41.273535" lon="1.787505">
        <ele>107.012</ele>
        <time>2017-04-29T06:49:31Z</time>
      </trkpt>
      <trkpt lat="41.273646" lon="1.787588">
        <ele>108.093</ele>
        <time>2017-04-29T06:49:33Z</time>
      </trkpt>
      <trkpt lat="41.273759" lon="1.787682">
        <ele>108.07</ele>
        <time>2017-04-29T06:49:35Z</time>
      </trkpt>
      <trkpt lat="41.273881" lon="1.787759">
        <ele>107.096</ele>
        <time>2017-04-29T06:49:37Z</time>
      </trkpt>
      <trkpt lat="41.273991" lon="1.787848">
        <ele>107.031</ele>
        <time>2017-04-29T06:49:39Z</time>
      </trkpt>
      <trkpt lat="41.274103" lon="1.787941">
        <ele>108.024</ele>
        <time>2017-04-29T06:49:41Z</time>
      </trkpt>
      <trkpt lat="41.274213" lon="1.788033">
        <ele>109.008</ele>
        <time>2017-04-29T06:49:43Z</time>
      </trkpt>
      <trkpt lat="41.274318" lon="1.78811">
        <ele>109.03</ele>
        <time>2017-04-29T06:49:45Z</time>
      </trkpt>
      <trkpt lat="41.274413" lon="1.788177">
        <ele>110.086</ele>
        <time>2017-04-29T06:49:47Z</time>
      </trkpt>
      <trkpt lat="41.274503" lon="1.788246">
        <ele>111.083</ele>
        <time>2017-04-29T06:49:49Z</time>
      </trkpt>
      <trkpt lat="41.274586" lon="1.788306">
        <ele>112.046</ele>
        <time>2017-04-29T06:49:51Z</time>
      </trkpt>
      <trkpt lat="41.274711" lon="1.788365">
        <ele>110.025</ele>
        <time>2017-04-29T06:49:54Z</time>
      </trkpt>
      <trkpt lat="41.274832" lon="1.788376">
        <ele>110.085</ele>
        <time>2017-04-29T06:49:57Z</time>
      </trkpt>
      <trkpt lat="41.274953" lon="1.788387">
        <ele>107.076</ele>
        <time>2017-04-29T06:50:00Z</time>
      </trkpt>
      <trkpt lat="41.27506" lon="1.788344">
        <ele>107.023</ele>
        <time>2017-04-29T06:50:03Z</time>
      </trkpt>
      <trkpt lat="41.275155" lon="1.788292">
        <ele>111.052</ele>
        <time>2017-04-29T06:50:06Z</time>
      </trkpt>
      <trkpt lat="41.275237" lon="1.788167">
        <ele>111.053</ele>
        <time>2017-04-29T06:50:09Z</time>
      </trkpt>
      <trkpt lat="41.275307" lon="1.788035">
        <ele>111.008</ele>
        <time>2017-04-29T06:50:12Z</time>
      </trkpt>
      <trkpt lat="41.275367" lon="1.787901">
        <ele>112.008</ele>
        <time>2017-04-29T06:50:15Z</time>
      </trkpt>
      <trkpt lat="41.275416" lon="1.787784">
        <ele>111.056</ele>
        <time>2017-04-29T06:50:18Z</time>
      </trkpt>
      <trkpt lat="41.275482" lon="1.787659">
        <ele>112.062</ele>
        <time>2017-04-29T06:50:21Z</time>
      </trkpt>
      <trkpt lat="41.275535" lon="1.787528">
        <ele>113.059</ele>
        <time>2017-04-29T06:50:24Z</time>
      </trkpt>
      <trkpt lat="41.275597" lon="1.787414">
        <ele>113.092</ele>
        <time>2017-04-29T06:50:27Z</time>
      </trkpt>
      <trkpt lat="41.275645" lon="1.787294">
        <ele>115.021</ele>
        <time>2017-04-29T06:50:30Z</time>
      </trkpt>
      <trkpt lat="41.275693" lon="1.787159">
        <ele>116.031</ele>
        <time>2017-04-29T06:50:33Z</time>
      </trkpt>
      <trkpt lat="41.275749" lon="1.787027">
        <ele>118.012</ele>
        <time>2017-04-29T06:50:36Z</time>
      </trkpt>
      <trkpt lat="41.275793" lon="1.78689">
        <ele>118.029</ele>
        <time>2017-04-29T06:50:39Z</time>
      </trkpt>
      <trkpt lat="41.27585" lon="1.786759">
        <ele>118.037</ele>
        <time>2017-04-29T06:50:42Z</time>
      </trkpt>
      <trkpt lat="41.275903" lon="1.786637">
        <ele>118.049</ele>
        <time>2017-04-29T06:50:45Z</time>
      </trkpt>
      <trkpt lat="41.275959" lon="1.786497">
        <ele>118.013</ele>
        <time>2017-04-29T06:50:48Z</time>
      </trkpt>
      <trkpt lat="41.276009" lon="1.786395">
        <ele>119.008</ele>
        <time>2017-04-29T06:50:50Z</time>
      </trkpt>
      <trkpt lat="41.276083" lon="1.786242">
        <ele>120.054</ele>
        <time>2017-04-29T06:50:53Z</time>
      </trkpt>
      <trkpt lat="41.276129" lon="1.786137">
        <ele>120.02</ele>
        <time>2017-04-29T06:50:55Z</time>
      </trkpt>
      <trkpt lat="41.276186" lon="1.786037">
        <ele>122.027</ele>
        <time>2017-04-29T06:50:57Z</time>
      </trkpt>
      <trkpt lat="41.276254" lon="1.785922">
        <ele>122.08</ele>
        <time>2017-04-29T06:50:59Z</time>
      </trkpt>
      <trkpt lat="41.276318" lon="1.785808">
        <ele>121.049</ele>
        <time>2017-04-29T06:51:01Z</time>
      </trkpt>
      <trkpt lat="41.276396" lon="1.785691">
        <ele>121.039</ele>
        <time>2017-04-29T06:51:03Z</time>
      </trkpt>
      <trkpt lat="41.276462" lon="1.785603">
        <ele>119.08</ele>
        <time>2017-04-29T06:51:05Z</time>
      </trkpt>
      <trkpt lat="41.276549" lon="1.785517">
        <ele>119.077</ele>
        <time>2017-04-29T06:51:07Z</time>
      </trkpt>
      <trkpt lat="41.276641" lon="1.785465">
        <ele>118.022</ele>
        <time>2017-04-29T06:51:08Z</time>
      </trkpt>
      <trkpt lat="41.276742" lon="1.785413">
        <ele>118.062</ele>
        <time>2017-04-29T06:51:10Z</time>
      </trkpt>
      <trkpt lat="41.276842" lon="1.785377">
        <ele>117.008</ele>
        <time>2017-04-29T06:51:12Z</time>
      </trkpt>
      <trkpt lat="41.276946" lon="1.785344">
        <ele>116.008</ele>
        <time>2017-04-29T06:51:14Z</time>
      </trkpt>
      <trkpt lat="41.277043" lon="1.785301">
        <ele>116.083</ele>
        <time>2017-04-29T06:51:16Z</time>
      </trkpt>
      <trkpt lat="41.277148" lon="1.785272">
        <ele>117.019</ele>
        <time>2017-04-29T06:51:18Z</time>
      </trkpt>
      <trkpt lat="41.277249" lon="1.785238">
        <ele>118.026</ele>
        <time>2017-04-29T06:51:20Z</time>
      </trkpt>
      <trkpt lat="41.277348" lon="1.785205">
        <ele>120.099</ele>
        <time>2017-04-29T06:51:22Z</time>
      </trkpt>
      <trkpt lat="41.277447" lon="1.78517">
        <ele>121.088</ele>
        <time>2017-04-29T06:51:24Z</time>
      </trkpt>
      <trkpt lat="41.277554" lon="1.785129">
        <ele>121.068</ele>
        <time>2017-04-29T06:51:26Z</time>
      </trkpt>
      <trkpt lat="41.277655" lon="1.785099">
        <ele>120.099</ele>
        <time>2017-04-29T06:51:28Z</time>
      </trkpt>
      <trkpt lat="41.277757" lon="1.785066">
        <ele>121.056</ele>
        <time>2017-04-29T06:51:30Z</time>
      </trkpt>
      <trkpt lat="41.277859" lon="1.785043">
        <ele>121.068</ele>
        <time>2017-04-29T06:51:32Z</time>
      </trkpt>
      <trkpt lat="41.277952" lon="1.785006">
        <ele>122.042</ele>
        <time>2017-04-29T06:51:34Z</time>
      </trkpt>
      <trkpt lat="41.278048" lon="1.784972">
        <ele>124.026</ele>
        <time>2017-04-29T06:51:36Z</time>
      </trkpt>
      <trkpt lat="41.278146" lon="1.784939">
        <ele>125.008</ele>
        <time>2017-04-29T06:51:38Z</time>
      </trkpt>
      <trkpt lat="41.278269" lon="1.784886">
        <ele>124.057</ele>
        <time>2017-04-29T06:51:42Z</time>
      </trkpt>
      <trkpt lat="41.278354" lon="1.784825">
        <ele>124.093</ele>
        <time>2017-04-29T06:51:44Z</time>
      </trkpt>
      <trkpt lat="41.27844" lon="1.784753">
        <ele>123.02</ele>
        <time>2017-04-29T06:51:46Z</time>
      </trkpt>
      <trkpt lat="41.278521" lon="1.784675">
        <ele>122.083</ele>
        <time>2017-04-29T06:51:48Z</time>
      </trkpt>
      <trkpt lat="41.278606" lon="1.78459">
        <ele>123.072</ele>
        <time>2017-04-29T06:51:50Z</time>
      </trkpt>
      <trkpt lat="41.278701" lon="1.784506">
        <ele>123.082</ele>
        <time>2017-04-29T06:51:52Z</time>
      </trkpt>
      <trkpt lat="41.27881" lon="1.784393">
        <ele>122.053</ele>
        <time>2017-04-29T06:51:54Z</time>
      </trkpt>
      <trkpt lat="41.278905" lon="1.784305">
        <ele>122.03</ele>
        <time>2017-04-29T06:51:56Z</time>
      </trkpt>
      <trkpt lat="41.279004" lon="1.784223">
        <ele>121.042</ele>
        <time>2017-04-29T06:51:58Z</time>
      </trkpt>
      <trkpt lat="41.279108" lon="1.784142">
        <ele>122.022</ele>
        <time>2017-04-29T06:52:00Z</time>
      </trkpt>
      <trkpt lat="41.279213" lon="1.78411">
        <ele>123.014</ele>
        <time>2017-04-29T06:52:02Z</time>
      </trkpt>
      <trkpt lat="41.279321" lon="1.784082">
        <ele>123.008</ele>
        <time>2017-04-29T06:52:04Z</time>
      </trkpt>
      <trkpt lat="41.27943" lon="1.784047">
        <ele>124.055</ele>
        <time>2017-04-29T06:52:06Z</time>
      </trkpt>
      <trkpt lat="41.279551" lon="1.784017">
        <ele>123.071</ele>
        <time>2017-04-29T06:52:08Z</time>
      </trkpt>
      <trkpt lat="41.279671" lon="1.784003">
        <ele>123.078</ele>
        <time>2017-04-29T06:52:10Z</time>
      </trkpt>
      <trkpt lat="41.279795" lon="1.783987">
        <ele>123.091</ele>
        <time>2017-04-29T06:52:12Z</time>
      </trkpt>
      <trkpt lat="41.279918" lon="1.783983">
        <ele>124.06</ele>
        <time>2017-04-29T06:52:14Z</time>
      </trkpt>
      <trkpt lat="41.280043" lon="1.783929">
        <ele>124.07</ele>
        <time>2017-04-29T06:52:16Z</time>
      </trkpt>
      <trkpt lat="41.280137" lon="1.783806">
        <ele>124.071</ele>
        <time>2017-04-29T06:52:18Z</time>
      </trkpt>
      <trkpt lat="41.280174" lon="1.783631">
        <ele>122.058</ele>
        <time>2017-04-29T06:52:20Z</time>
      </trkpt>
      <trkpt lat="41.280179" lon="1.783472">
        <ele>119.084</ele>
        <time>2017-04-29T06:52:22Z</time>
      </trkpt>
      <trkpt lat="41.280168" lon="1.783285">
        <ele>119.007</ele>
        <time>2017-04-29T06:52:24Z</time>
      </trkpt>
      <trkpt lat="41.280225" lon="1.783132">
        <ele>117.017</ele>
        <time>2017-04-29T06:52:26Z</time>
      </trkpt>
      <trkpt lat="41.280343" lon="1.783058">
        <ele>119.008</ele>
        <time>2017-04-29T06:52:28Z</time>
      </trkpt>
      <trkpt lat="41.280463" lon="1.783027">
        <ele>119.069</ele>
        <time>2017-04-29T06:52:30Z</time>
      </trkpt>
      <trkpt lat="41.280574" lon="1.78304">
        <ele>120.015</ele>
        <time>2017-04-29T06:52:32Z</time>
      </trkpt>
      <trkpt lat="41.280697" lon="1.783035">
        <ele>121.062</ele>
        <time>2017-04-29T06:52:34Z</time>
      </trkpt>
      <trkpt lat="41.280805" lon="1.783066">
        <ele>122.045</ele>
        <time>2017-04-29T06:52:36Z</time>
      </trkpt>
      <trkpt lat="41.280925" lon="1.783055">
        <ele>123.054</ele>
        <time>2017-04-29T06:52:38Z</time>
      </trkpt>
      <trkpt lat="41.281036" lon="1.783036">
        <ele>122.044</ele>
        <time>2017-04-29T06:52:40Z</time>
      </trkpt>
      <trkpt lat="41.28116" lon="1.783032">
        <ele>122.095</ele>
        <time>2017-04-29T06:52:42Z</time>
      </trkpt>
      <trkpt lat="41.281271" lon="1.783024">
        <ele>123.062</ele>
        <time>2017-04-29T06:52:44Z</time>
      </trkpt>
      <trkpt lat="41.28138" lon="1.78304">
        <ele>121.097</ele>
        <time>2017-04-29T06:52:46Z</time>
      </trkpt>
      <trkpt lat="41.281495" lon="1.783034">
        <ele>121.023</ele>
        <time>2017-04-29T06:52:48Z</time>
      </trkpt>
      <trkpt lat="41.281608" lon="1.783027">
        <ele>120.025</ele>
        <time>2017-04-29T06:52:50Z</time>
      </trkpt>
      <trkpt lat="41.28172" lon="1.783023">
        <ele>120.008</ele>
        <time>2017-04-29T06:52:52Z</time>
      </trkpt>
      <trkpt lat="41.281809" lon="1.783063">
        <ele>120.05</ele>
        <time>2017-04-29T06:52:54Z</time>
      </trkpt>
      <trkpt lat="41.281922" lon="1.783063">
        <ele>119.086</ele>
        <time>2017-04-29T06:52:56Z</time>
      </trkpt>
      <trkpt lat="41.282033" lon="1.783076">
        <ele>120.033</ele>
        <time>2017-04-29T06:52:58Z</time>
      </trkpt>
      <trkpt lat="41.28214" lon="1.783092">
        <ele>120.036</ele>
        <time>2017-04-29T06:53:00Z</time>
      </trkpt>
      <trkpt lat="41.282251" lon="1.783086">
        <ele>119.075</ele>
        <time>2017-04-29T06:53:02Z</time>
      </trkpt>
      <trkpt lat="41.282355" lon="1.783088">
        <ele>119.075</ele>
        <time>2017-04-29T06:53:04Z</time>
      </trkpt>
      <trkpt lat="41.28247" lon="1.783047">
        <ele>117.036</ele>
        <time>2017-04-29T06:53:06Z</time>
      </trkpt>
      <trkpt lat="41.282561" lon="1.782981">
        <ele>117.093</ele>
        <time>2017-04-29T06:53:08Z</time>
      </trkpt>
      <trkpt lat="41.282644" lon="1.782859">
        <ele>116.031</ele>
        <time>2017-04-29T06:53:10Z</time>
      </trkpt>
      <trkpt lat="41.282692" lon="1.782734">
        <ele>114.061</ele>
        <time>2017-04-29T06:53:12Z</time>
      </trkpt>
      <trkpt lat="41.282711" lon="1.782597">
        <ele>114.007</ele>
        <time>2017-04-29T06:53:14Z</time>
      </trkpt>
      <trkpt lat="41.282716" lon="1.782455">
        <ele>114.008</ele>
        <time>2017-04-29T06:53:16Z</time>
      </trkpt>
      <trkpt lat="41.282709" lon="1.782334">
        <ele>114.094</ele>
        <time>2017-04-29T06:53:18Z</time>
      </trkpt>
      <trkpt lat="41.282698" lon="1.782212">
        <ele>114.05</ele>
        <time>2017-04-29T06:53:20Z</time>
      </trkpt>
      <trkpt lat="41.282697" lon="1.782073">
        <ele>113.097</ele>
        <time>2017-04-29T06:53:22Z</time>
      </trkpt>
      <trkpt lat="41.282683" lon="1.781936">
        <ele>111.08</ele>
        <time>2017-04-29T06:53:24Z</time>
      </trkpt>
      <trkpt lat="41.282669" lon="1.781807">
        <ele>112.069</ele>
        <time>2017-04-29T06:53:26Z</time>
      </trkpt>
      <trkpt lat="41.282654" lon="1.781659">
        <ele>112.069</ele>
        <time>2017-04-29T06:53:28Z</time>
      </trkpt>
      <trkpt lat="41.282623" lon="1.781531">
        <ele>113.03</ele>
        <time>2017-04-29T06:53:30Z</time>
      </trkpt>
      <trkpt lat="41.282578" lon="1.781426">
        <ele>115.037</ele>
        <time>2017-04-29T06:53:32Z</time>
      </trkpt>
      <trkpt lat="41.282538" lon="1.781297">
        <ele>116.013</ele>
        <time>2017-04-29T06:53:34Z</time>
      </trkpt>
      <trkpt lat="41.282496" lon="1.78118">
        <ele>118.043</ele>
        <time>2017-04-29T06:53:36Z</time>
      </trkpt>
      <trkpt lat="41.282458" lon="1.781057">
        <ele>120.007</ele>
        <time>2017-04-29T06:53:38Z</time>
      </trkpt>
      <trkpt lat="41.28241" lon="1.78095">
        <ele>121.008</ele>
        <time>2017-04-29T06:53:40Z</time>
      </trkpt>
      <trkpt lat="41.282359" lon="1.780846">
        <ele>123.062</ele>
        <time>2017-04-29T06:53:42Z</time>
      </trkpt>
      <trkpt lat="41.282315" lon="1.780687">
        <ele>123.048</ele>
        <time>2017-04-29T06:53:45Z</time>
      </trkpt>
      <trkpt lat="41.282276" lon="1.780517">
        <ele>125.025</ele>
        <time>2017-04-29T06:53:48Z</time>
      </trkpt>
      <trkpt lat="41.282254" lon="1.78038">
        <ele>126.028</ele>
        <time>2017-04-29T06:53:50Z</time>
      </trkpt>
      <trkpt lat="41.28226" lon="1.780236">
        <ele>125.077</ele>
        <time>2017-04-29T06:53:52Z</time>
      </trkpt>
      <trkpt lat="41.282256" lon="1.780112">
        <ele>125.017</ele>
        <time>2017-04-29T06:53:54Z</time>
      </trkpt>
      <trkpt lat="41.28225" lon="1.77999">
        <ele>125.068</ele>
        <time>2017-04-29T06:53:56Z</time>
      </trkpt>
      <trkpt lat="41.282251" lon="1.779869">
        <ele>124.035</ele>
        <time>2017-04-29T06:53:58Z</time>
      </trkpt>
      <trkpt lat="41.282254" lon="1.779734">
        <ele>125.035</ele>
        <time>2017-04-29T06:54:00Z</time>
      </trkpt>
      <trkpt lat="41.282259" lon="1.779602">
        <ele>125.086</ele>
        <time>2017-04-29T06:54:02Z</time>
      </trkpt>
      <trkpt lat="41.282257" lon="1.779429">
        <ele>125.014</ele>
        <time>2017-04-29T06:54:05Z</time>
      </trkpt>
      <trkpt lat="41.282261" lon="1.779292">
        <ele>125.008</ele>
        <time>2017-04-29T06:54:07Z</time>
      </trkpt>
      <trkpt lat="41.282286" lon="1.779161">
        <ele>126.064</ele>
        <time>2017-04-29T06:54:09Z</time>
      </trkpt>
      <trkpt lat="41.282318" lon="1.77901">
        <ele>126.01</ele>
        <time>2017-04-29T06:54:11Z</time>
      </trkpt>
      <trkpt lat="41.282342" lon="1.778879">
        <ele>126.097</ele>
        <time>2017-04-29T06:54:13Z</time>
      </trkpt>
      <trkpt lat="41.282368" lon="1.778752">
        <ele>125.08</ele>
        <time>2017-04-29T06:54:15Z</time>
      </trkpt>
      <trkpt lat="41.282397" lon="1.778633">
        <ele>126.049</ele>
        <time>2017-04-29T06:54:17Z</time>
      </trkpt>
      <trkpt lat="41.282429" lon="1.778468">
        <ele>125.079</ele>
        <time>2017-04-29T06:54:20Z</time>
      </trkpt>
      <trkpt lat="41.282442" lon="1.77835">
        <ele>126.03</ele>
        <time>2017-04-29T06:54:22Z</time>
      </trkpt>
      <trkpt lat="41.282459" lon="1.778231">
        <ele>128.037</ele>
        <time>2017-04-29T06:54:24Z</time>
      </trkpt>
      <trkpt lat="41.282491" lon="1.778076">
        <ele>127.084</ele>
        <time>2017-04-29T06:54:27Z</time>
      </trkpt>
      <trkpt lat="41.282557" lon="1.777925">
        <ele>127.007</ele>
        <time>2017-04-29T06:54:30Z</time>
      </trkpt>
      <trkpt lat="41.28262" lon="1.777824">
        <ele>126.017</ele>
        <time>2017-04-29T06:54:32Z</time>
      </trkpt>
      <trkpt lat="41.282714" lon="1.777692">
        <ele>123.008</ele>
        <time>2017-04-29T06:54:34Z</time>
      </trkpt>
      <trkpt lat="41.282816" lon="1.777559">
        <ele>121.029</ele>
        <time>2017-04-29T06:54:36Z</time>
      </trkpt>
      <trkpt lat="41.282912" lon="1.777414">
        <ele>122.055</ele>
        <time>2017-04-29T06:54:38Z</time>
      </trkpt>
      <trkpt lat="41.282961" lon="1.777253">
        <ele>123.092</ele>
        <time>2017-04-29T06:54:40Z</time>
      </trkpt>
      <trkpt lat="41.283022" lon="1.777141">
        <ele>122.045</ele>
        <time>2017-04-29T06:54:42Z</time>
      </trkpt>
      <trkpt lat="41.283127" lon="1.777066">
        <ele>121.044</ele>
        <time>2017-04-29T06:54:44Z</time>
      </trkpt>
      <trkpt lat="41.283221" lon="1.777024">
        <ele>120.024</ele>
        <time>2017-04-29T06:54:46Z</time>
      </trkpt>
      <trkpt lat="41.283345" lon="1.776995">
        <ele>123.085</ele>
        <time>2017-04-29T06:54:49Z</time>
      </trkpt>
      <trkpt lat="41.283466" lon="1.777021">
        <ele>124.012</ele>
        <time>2017-04-29T06:54:52Z</time>
      </trkpt>
      <trkpt lat="41.283578" lon="1.777095">
        <ele>123.015</ele>
        <time>2017-04-29T06:54:55Z</time>
      </trkpt>
      <trkpt lat="41.283695" lon="1.777149">
        <ele>124.065</ele>
        <time>2017-04-29T06:54:58Z</time>
      </trkpt>
      <trkpt lat="41.283809" lon="1.777188">
        <ele>125.011</ele>
        <time>2017-04-29T06:55:01Z</time>
      </trkpt>
      <trkpt lat="41.283908" lon="1.777266">
        <ele>125.008</ele>
        <time>2017-04-29T06:55:04Z</time>
      </trkpt>
      <trkpt lat="41.284" lon="1.777337">
        <ele>125.062</ele>
        <time>2017-04-29T06:55:07Z</time>
      </trkpt>
      <trkpt lat="41.284073" lon="1.777409">
        <ele>125.088</ele>
        <time>2017-04-29T06:55:09Z</time>
      </trkpt>
      <trkpt lat="41.284169" lon="1.777499">
        <ele>126.015</ele>
        <time>2017-04-29T06:55:12Z</time>
      </trkpt>
      <trkpt lat="41.284283" lon="1.777558">
        <ele>130.058</ele>
        <time>2017-04-29T06:55:15Z</time>
      </trkpt>
      <trkpt lat="41.284392" lon="1.777638">
        <ele>130.047</ele>
        <time>2017-04-29T06:55:18Z</time>
      </trkpt>
      <trkpt lat="41.284461" lon="1.777718">
        <ele>129.057</ele>
        <time>2017-04-29T06:55:20Z</time>
      </trkpt>
      <trkpt lat="41.284568" lon="1.777824">
        <ele>131.078</ele>
        <time>2017-04-29T06:55:23Z</time>
      </trkpt>
      <trkpt lat="41.284649" lon="1.777951">
        <ele>129.045</ele>
        <time>2017-04-29T06:55:26Z</time>
      </trkpt>
      <trkpt lat="41.284729" lon="1.778069">
        <ele>129.084</ele>
        <time>2017-04-29T06:55:29Z</time>
      </trkpt>
      <trkpt lat="41.284806" lon="1.778184">
        <ele>129.007</ele>
        <time>2017-04-29T06:55:32Z</time>
      </trkpt>
      <trkpt lat="41.284883" lon="1.778322">
        <ele>128.017</ele>
        <time>2017-04-29T06:55:35Z</time>
      </trkpt>
      <trkpt lat="41.284961" lon="1.778453">
        <ele>127.008</ele>
        <time>2017-04-29T06:55:38Z</time>
      </trkpt>
      <trkpt lat="41.285029" lon="1.778577">
        <ele>126.059</ele>
        <time>2017-04-29T06:55:41Z</time>
      </trkpt>
      <trkpt lat="41.285097" lon="1.778704">
        <ele>128.025</ele>
        <time>2017-04-29T06:55:43Z</time>
      </trkpt>
      <trkpt lat="41.285171" lon="1.778845">
        <ele>128.082</ele>
        <time>2017-04-29T06:55:46Z</time>
      </trkpt>
      <trkpt lat="41.285234" lon="1.778956">
        <ele>128.055</ele>
        <time>2017-04-29T06:55:50Z</time>
      </trkpt>
      <trkpt lat="41.285292" lon="1.779068">
        <ele>127.094</ele>
        <time>2017-04-29T06:57:06Z</time>
      </trkpt>
      <trkpt lat="41.285351" lon="1.779164">
        <ele>129.094</ele>
        <time>2017-04-29T06:57:11Z</time>
      </trkpt>
      <trkpt lat="41.285426" lon="1.779287">
        <ele>130.035</ele>
        <time>2017-04-29T06:57:15Z</time>
      </trkpt>
      <trkpt lat="41.285478" lon="1.779386">
        <ele>131.092</ele>
        <time>2017-04-29T06:57:18Z</time>
      </trkpt>
      <trkpt lat="41.28555" lon="1.779508">
        <ele>130.091</ele>
        <time>2017-04-29T06:57:22Z</time>
      </trkpt>
      <trkpt lat="41.285608" lon="1.779635">
        <ele>133.081</ele>
        <time>2017-04-29T06:57:26Z</time>
      </trkpt>
      <trkpt lat="41.285656" lon="1.779747">
        <ele>132.019</ele>
        <time>2017-04-29T06:57:29Z</time>
      </trkpt>
      <trkpt lat="41.285715" lon="1.779847">
        <ele>133.008</ele>
        <time>2017-04-29T06:57:33Z</time>
      </trkpt>
      <trkpt lat="41.285775" lon="1.779968">
        <ele>132.05</ele>
        <time>2017-04-29T06:57:36Z</time>
      </trkpt>
      <trkpt lat="41.285825" lon="1.780086">
        <ele>130.056</ele>
        <time>2017-04-29T06:57:39Z</time>
      </trkpt>
      <trkpt lat="41.285891" lon="1.780214">
        <ele>132.083</ele>
        <time>2017-04-29T06:57:43Z</time>
      </trkpt>
      <trkpt lat="41.285951" lon="1.780328">
        <ele>134.076</ele>
        <time>2017-04-29T06:57:46Z</time>
      </trkpt>
      <trkpt lat="41.286018" lon="1.780435">
        <ele>133.075</ele>
        <time>2017-04-29T06:57:49Z</time>
      </trkpt>
      <trkpt lat="41.286083" lon="1.78053">
        <ele>131.095</ele>
        <time>2017-04-29T06:57:52Z</time>
      </trkpt>
      <trkpt lat="41.286162" lon="1.780622">
        <ele>129.076</ele>
        <time>2017-04-29T06:57:55Z</time>
      </trkpt>
      <trkpt lat="41.28624" lon="1.7807">
        <ele>128.043</ele>
        <time>2017-04-29T06:57:58Z</time>
      </trkpt>
      <trkpt lat="41.28632" lon="1.780789">
        <ele>126.093</ele>
        <time>2017-04-29T06:58:01Z</time>
      </trkpt>
      <trkpt lat="41.286404" lon="1.780859">
        <ele>125.065</ele>
        <time>2017-04-29T06:58:04Z</time>
      </trkpt>
      <trkpt lat="41.286495" lon="1.78094">
        <ele>123.021</ele>
        <time>2017-04-29T06:58:07Z</time>
      </trkpt>
      <trkpt lat="41.286583" lon="1.781014">
        <ele>123.008</ele>
        <time>2017-04-29T06:58:10Z</time>
      </trkpt>
      <trkpt lat="41.286667" lon="1.7811">
        <ele>121.03</ele>
        <time>2017-04-29T06:58:13Z</time>
      </trkpt>
      <trkpt lat="41.286755" lon="1.781148">
        <ele>122.066</ele>
        <time>2017-04-29T06:58:16Z</time>
      </trkpt>
      <trkpt lat="41.286861" lon="1.781183">
        <ele>125.023</ele>
        <time>2017-04-29T06:58:19Z</time>
      </trkpt>
      <trkpt lat="41.286992" lon="1.781176">
        <ele>125.086</ele>
        <time>2017-04-29T06:58:23Z</time>
      </trkpt>
      <trkpt lat="41.287102" lon="1.781099">
        <ele>127.055</ele>
        <time>2017-04-29T06:58:26Z</time>
      </trkpt>
      <trkpt lat="41.287201" lon="1.780999">
        <ele>128.065</ele>
        <time>2017-04-29T06:58:29Z</time>
      </trkpt>
      <trkpt lat="41.287293" lon="1.780894">
        <ele>129.066</ele>
        <time>2017-04-29T06:58:32Z</time>
      </trkpt>
      <trkpt lat="41.287375" lon="1.780773">
        <ele>127.013</ele>
        <time>2017-04-29T06:58:35Z</time>
      </trkpt>
      <trkpt lat="41.287458" lon="1.780671">
        <ele>128.072</ele>
        <time>2017-04-29T06:58:38Z</time>
      </trkpt>
      <trkpt lat="41.287525" lon="1.780575">
        <ele>127.013</ele>
        <time>2017-04-29T06:58:41Z</time>
      </trkpt>
      <trkpt lat="41.287603" lon="1.780459">
        <ele>127.014</ele>
        <time>2017-04-29T06:58:44Z</time>
      </trkpt>
      <trkpt lat="41.287673" lon="1.780353">
        <ele>128.008</ele>
        <time>2017-04-29T06:58:47Z</time>
      </trkpt>
      <trkpt lat="41.287753" lon="1.780232">
        <ele>128.058</ele>
        <time>2017-04-29T06:58:50Z</time>
      </trkpt>
      <trkpt lat="41.287826" lon="1.780126">
        <ele>128.074</ele>
        <time>2017-04-29T06:58:53Z</time>
      </trkpt>
      <trkpt lat="41.287894" lon="1.780021">
        <ele>129.041</ele>
        <time>2017-04-29T06:58:56Z</time>
      </trkpt>
      <trkpt lat="41.28799" lon="1.779938">
        <ele>128.064</ele>
        <time>2017-04-29T06:59:00Z</time>
      </trkpt>
      <trkpt lat="41.288098" lon="1.779897">
        <ele>129.023</ele>
        <time>2017-04-29T06:59:04Z</time>
      </trkpt>
      <trkpt lat="41.288208" lon="1.779878">
        <ele>130.073</ele>
        <time>2017-04-29T06:59:08Z</time>
      </trkpt>
      <trkpt lat="41.288328" lon="1.779859">
        <ele>132.044</ele>
        <time>2017-04-29T06:59:12Z</time>
      </trkpt>
      <trkpt lat="41.288429" lon="1.779854">
        <ele>134.071</ele>
        <time>2017-04-29T06:59:15Z</time>
      </trkpt>
      <trkpt lat="41.28852" lon="1.779856">
        <ele>136.091</ele>
        <time>2017-04-29T06:59:18Z</time>
      </trkpt>
      <trkpt lat="41.288617" lon="1.779849">
        <ele>139.081</ele>
        <time>2017-04-29T06:59:21Z</time>
      </trkpt>
      <trkpt lat="41.288707" lon="1.779833">
        <ele>139.019</ele>
        <time>2017-04-29T06:59:24Z</time>
      </trkpt>
      <trkpt lat="41.2888" lon="1.779814">
        <ele>139.008</ele>
        <time>2017-04-29T06:59:27Z</time>
      </trkpt>
      <trkpt lat="41.288912" lon="1.779829">
        <ele>139.06</ele>
        <time>2017-04-29T06:59:31Z</time>
      </trkpt>
      <trkpt lat="41.289013" lon="1.779808">
        <ele>139.096</ele>
        <time>2017-04-29T06:59:35Z</time>
      </trkpt>
      <trkpt lat="41.289132" lon="1.779776">
        <ele>139.093</ele>
        <time>2017-04-29T06:59:40Z</time>
      </trkpt>
      <trkpt lat="41.289254" lon="1.779777">
        <ele>140.036</ele>
        <time>2017-04-29T06:59:43Z</time>
      </trkpt>
      <trkpt lat="41.289356" lon="1.77978">
        <ele>140.065</ele>
        <time>2017-04-29T06:59:46Z</time>
      </trkpt>
      <trkpt lat="41.289467" lon="1.779778">
        <ele>140.045</ele>
        <time>2017-04-29T06:59:49Z</time>
      </trkpt>
      <trkpt lat="41.289585" lon="1.779792">
        <ele>138.026</ele>
        <time>2017-04-29T06:59:52Z</time>
      </trkpt>
      <trkpt lat="41.289705" lon="1.779788">
        <ele>138.053</ele>
        <time>2017-04-29T06:59:55Z</time>
      </trkpt>
      <trkpt lat="41.28982" lon="1.779805">
        <ele>138.075</ele>
        <time>2017-04-29T06:59:58Z</time>
      </trkpt>
      <trkpt lat="41.289948" lon="1.779816">
        <ele>136.028</ele>
        <time>2017-04-29T07:00:01Z</time>
      </trkpt>
      <trkpt lat="41.290069" lon="1.779821">
        <ele>137.02</ele>
        <time>2017-04-29T07:00:04Z</time>
      </trkpt>
      <trkpt lat="41.290182" lon="1.779847">
        <ele>136.008</ele>
        <time>2017-04-29T07:00:07Z</time>
      </trkpt>
      <trkpt lat="41.290282" lon="1.779881">
        <ele>134.078</ele>
        <time>2017-04-29T07:00:10Z</time>
      </trkpt>
      <trkpt lat="41.290393" lon="1.779912">
        <ele>135.034</ele>
        <time>2017-04-29T07:00:13Z</time>
      </trkpt>
      <trkpt lat="41.290502" lon="1.779956">
        <ele>134.071</ele>
        <time>2017-04-29T07:00:16Z</time>
      </trkpt>
      <trkpt lat="41.290608" lon="1.780002">
        <ele>133.084</ele>
        <time>2017-04-29T07:00:19Z</time>
      </trkpt>
      <trkpt lat="41.290703" lon="1.780056">
        <ele>132.023</ele>
        <time>2017-04-29T07:00:22Z</time>
      </trkpt>
      <trkpt lat="41.290819" lon="1.780103">
        <ele>131.063</ele>
        <time>2017-04-29T07:00:25Z</time>
      </trkpt>
      <trkpt lat="41.290908" lon="1.78019">
        <ele>131.044</ele>
        <time>2017-04-29T07:00:28Z</time>
      </trkpt>
      <trkpt lat="41.291003" lon="1.780244">
        <ele>130.041</ele>
        <time>2017-04-29T07:00:31Z</time>
      </trkpt>
      <trkpt lat="41.291099" lon="1.780305">
        <ele>130.039</ele>
        <time>2017-04-29T07:00:34Z</time>
      </trkpt>
      <trkpt lat="41.29119" lon="1.780375">
        <ele>128.001</ele>
        <time>2017-04-29T07:00:37Z</time>
      </trkpt>
      <trkpt lat="41.291288" lon="1.780446">
        <ele>129.021</ele>
        <time>2017-04-29T07:00:40Z</time>
      </trkpt>
      <trkpt lat="41.291384" lon="1.780524">
        <ele>128.008</ele>
        <time>2017-04-29T07:00:43Z</time>
      </trkpt>
      <trkpt lat="41.291491" lon="1.780569">
        <ele>127.034</ele>
        <time>2017-04-29T07:00:46Z</time>
      </trkpt>
      <trkpt lat="41.291583" lon="1.780587">
        <ele>126.01</ele>
        <time>2017-04-29T07:00:48Z</time>
      </trkpt>
      <trkpt lat="41.291672" lon="1.780633">
        <ele>126.077</ele>
        <time>2017-04-29T07:00:50Z</time>
      </trkpt>
      <trkpt lat="41.291793" lon="1.780707">
        <ele>126.06</ele>
        <time>2017-04-29T07:00:53Z</time>
      </trkpt>
      <trkpt lat="41.291906" lon="1.780771">
        <ele>126.029</ele>
        <time>2017-04-29T07:00:56Z</time>
      </trkpt>
      <trkpt lat="41.292008" lon="1.78086">
        <ele>125.029</ele>
        <time>2017-04-29T07:00:59Z</time>
      </trkpt>
      <trkpt lat="41.292141" lon="1.780907">
        <ele>124.06</ele>
        <time>2017-04-29T07:01:03Z</time>
      </trkpt>
      <trkpt lat="41.292242" lon="1.780949">
        <ele>124.017</ele>
        <time>2017-04-29T07:01:05Z</time>
      </trkpt>
      <trkpt lat="41.292342" lon="1.780985">
        <ele>125.057</ele>
        <time>2017-04-29T07:01:07Z</time>
      </trkpt>
      <trkpt lat="41.292434" lon="1.781039">
        <ele>124.0</ele>
        <time>2017-04-29T07:01:09Z</time>
      </trkpt>
      <trkpt lat="41.292523" lon="1.781099">
        <ele>127.02</ele>
        <time>2017-04-29T07:01:13Z</time>
      </trkpt>
      <trkpt lat="41.292607" lon="1.781178">
        <ele>129.008</ele>
        <time>2017-04-29T07:01:18Z</time>
      </trkpt>
      <trkpt lat="41.29269" lon="1.781234">
        <ele>130.036</ele>
        <time>2017-04-29T07:01:22Z</time>
      </trkpt>
      <trkpt lat="41.29279" lon="1.781289">
        <ele>131.012</ele>
        <time>2017-04-29T07:01:27Z</time>
      </trkpt>
      <trkpt lat="41.292909" lon="1.781291">
        <ele>132.029</ele>
        <time>2017-04-29T07:01:31Z</time>
      </trkpt>
      <trkpt lat="41.293018" lon="1.781326">
        <ele>129.072</ele>
        <time>2017-04-29T07:01:36Z</time>
      </trkpt>
      <trkpt lat="41.293096" lon="1.781395">
        <ele>133.071</ele>
        <time>2017-04-29T07:01:45Z</time>
      </trkpt>
      <trkpt lat="41.293194" lon="1.781404">
        <ele>136.071</ele>
        <time>2017-04-29T07:02:06Z</time>
      </trkpt>
      <trkpt lat="41.293281" lon="1.781463">
        <ele>136.052</ele>
        <time>2017-04-29T07:02:18Z</time>
      </trkpt>
      <trkpt lat="41.293355" lon="1.781555">
        <ele>138.049</ele>
        <time>2017-04-29T07:02:25Z</time>
      </trkpt>
      <trkpt lat="41.293426" lon="1.781632">
        <ele>135.018</ele>
        <time>2017-04-29T07:02:30Z</time>
      </trkpt>
      <trkpt lat="41.293518" lon="1.781708">
        <ele>135.098</ele>
        <time>2017-04-29T07:02:34Z</time>
      </trkpt>
      <trkpt lat="41.293609" lon="1.781749">
        <ele>137.017</ele>
        <time>2017-04-29T07:02:38Z</time>
      </trkpt>
      <trkpt lat="41.293703" lon="1.781831">
        <ele>140.008</ele>
        <time>2017-04-29T07:02:42Z</time>
      </trkpt>
      <trkpt lat="41.293793" lon="1.781917">
        <ele>141.072</ele>
        <time>2017-04-29T07:02:45Z</time>
      </trkpt>
      <trkpt lat="41.29387" lon="1.781987">
        <ele>140.058</ele>
        <time>2017-04-29T07:02:48Z</time>
      </trkpt>
      <trkpt lat="41.293936" lon="1.782083">
        <ele>140.065</ele>
        <time>2017-04-29T07:02:51Z</time>
      </trkpt>
      <trkpt lat="41.294021" lon="1.782173">
        <ele>137.058</ele>
        <time>2017-04-29T07:02:54Z</time>
      </trkpt>
      <trkpt lat="41.294086" lon="1.782278">
        <ele>137.047</ele>
        <time>2017-04-29T07:02:57Z</time>
      </trkpt>
      <trkpt lat="41.294162" lon="1.782363">
        <ele>137.097</ele>
        <time>2017-04-29T07:03:00Z</time>
      </trkpt>
      <trkpt lat="41.294258" lon="1.782457">
        <ele>137.058</ele>
        <time>2017-04-29T07:03:03Z</time>
      </trkpt>
      <trkpt lat="41.294347" lon="1.782558">
        <ele>140.075</ele>
        <time>2017-04-29T07:03:06Z</time>
      </trkpt>
      <trkpt lat="41.294432" lon="1.782638">
        <ele>140.096</ele>
        <time>2017-04-29T07:03:09Z</time>
      </trkpt>
      <trkpt lat="41.294513" lon="1.782721">
        <ele>140.031</ele>
        <time>2017-04-29T07:03:12Z</time>
      </trkpt>
      <trkpt lat="41.294594" lon="1.782818">
        <ele>140.024</ele>
        <time>2017-04-29T07:03:15Z</time>
      </trkpt>
      <trkpt lat="41.294673" lon="1.782902">
        <ele>141.008</ele>
        <time>2017-04-29T07:03:18Z</time>
      </trkpt>
      <trkpt lat="41.294745" lon="1.782988">
        <ele>142.06</ele>
        <time>2017-04-29T07:03:21Z</time>
      </trkpt>
      <trkpt lat="41.294822" lon="1.783105">
        <ele>142.036</ele>
        <time>2017-04-29T07:03:25Z</time>
      </trkpt>
      <trkpt lat="41.294904" lon="1.783184">
        <ele>140.033</ele>
        <time>2017-04-29T07:03:29Z</time>
      </trkpt>
      <trkpt lat="41.294987" lon="1.783245">
        <ele>139.036</ele>
        <time>2017-04-29T07:03:34Z</time>
      </trkpt>
      <trkpt lat="41.294999" lon="1.783407">
        <ele>138.085</ele>
        <time>2017-04-29T07:03:38Z</time>
      </trkpt>
      <trkpt lat="41.295065" lon="1.783534">
        <ele>135.055</ele>
        <time>2017-04-29T07:03:41Z</time>
      </trkpt>
      <trkpt lat="41.295143" lon="1.783612">
        <ele>134.036</ele>
        <time>2017-04-29T07:03:44Z</time>
      </trkpt>
      <trkpt lat="41.295243" lon="1.783694">
        <ele>135.083</ele>
        <time>2017-04-29T07:03:48Z</time>
      </trkpt>
      <trkpt lat="41.295348" lon="1.783769">
        <ele>135.032</ele>
        <time>2017-04-29T07:03:52Z</time>
      </trkpt>
      <trkpt lat="41.29544" lon="1.783852">
        <ele>135.092</ele>
        <time>2017-04-29T07:03:55Z</time>
      </trkpt>
      <trkpt lat="41.295535" lon="1.783908">
        <ele>137.011</ele>
        <time>2017-04-29T07:03:58Z</time>
      </trkpt>
      <trkpt lat="41.295632" lon="1.783955">
        <ele>137.008</ele>
        <time>2017-04-29T07:04:01Z</time>
      </trkpt>
      <trkpt lat="41.29572" lon="1.784005">
        <ele>138.034</ele>
        <time>2017-04-29T07:04:04Z</time>
      </trkpt>
      <trkpt lat="41.295808" lon="1.784062">
        <ele>137.01</ele>
        <time>2017-04-29T07:04:07Z</time>
      </trkpt>
      <trkpt lat="41.295892" lon="1.784147">
        <ele>137.037</ele>
        <time>2017-04-29T07:04:10Z</time>
      </trkpt>
      <trkpt lat="41.29598" lon="1.784227">
        <ele>138.04</ele>
        <time>2017-04-29T07:04:13Z</time>
      </trkpt>
      <trkpt lat="41.29607" lon="1.784296">
        <ele>138.069</ele>
        <time>2017-04-29T07:04:16Z</time>
      </trkpt>
      <trkpt lat="41.296194" lon="1.784333">
        <ele>137.019</ele>
        <time>2017-04-29T07:04:19Z</time>
      </trkpt>
      <trkpt lat="41.296317" lon="1.784348">
        <ele>137.04</ele>
        <time>2017-04-29T07:04:22Z</time>
      </trkpt>
      <trkpt lat="41.296433" lon="1.784377">
        <ele>137.037</ele>
        <time>2017-04-29T07:04:25Z</time>
      </trkpt>
      <trkpt lat="41.296548" lon="1.784397">
        <ele>136.077</ele>
        <time>2017-04-29T07:04:28Z</time>
      </trkpt>
      <trkpt lat="41.296663" lon="1.784378">
        <ele>136.061</ele>
        <time>2017-04-29T07:04:31Z</time>
      </trkpt>
      <trkpt lat="41.296779" lon="1.784323">
        <ele>134.027</ele>
        <time>2017-04-29T07:04:34Z</time>
      </trkpt>
      <trkpt lat="41.296891" lon="1.784256">
        <ele>136.008</ele>
        <time>2017-04-29T07:04:37Z</time>
      </trkpt>
      <trkpt lat="41.296983" lon="1.784175">
        <ele>136.098</ele>
        <time>2017-04-29T07:04:40Z</time>
      </trkpt>
      <trkpt lat="41.297074" lon="1.784088">
        <ele>135.054</ele>
        <time>2017-04-29T07:04:43Z</time>
      </trkpt>
      <trkpt lat="41.297165" lon="1.78399">
        <ele>136.071</ele>
        <time>2017-04-29T07:04:46Z</time>
      </trkpt>
      <trkpt lat="41.297256" lon="1.783919">
        <ele>136.044</ele>
        <time>2017-04-29T07:04:51Z</time>
      </trkpt>
      <trkpt lat="41.29733" lon="1.783835">
        <ele>135.053</ele>
        <time>2017-04-29T07:04:55Z</time>
      </trkpt>
      <trkpt lat="41.297406" lon="1.78374">
        <ele>133.013</ele>
        <time>2017-04-29T07:05:08Z</time>
      </trkpt>
      <trkpt lat="41.297448" lon="1.783626">
        <ele>134.074</ele>
        <time>2017-04-29T07:05:16Z</time>
      </trkpt>
      <trkpt lat="41.297467" lon="1.783502">
        <ele>136.081</ele>
        <time>2017-04-29T07:05:23Z</time>
      </trkpt>
      <trkpt lat="41.297487" lon="1.783385">
        <ele>137.076</ele>
        <time>2017-04-29T07:05:28Z</time>
      </trkpt>
      <trkpt lat="41.297495" lon="1.783229">
        <ele>139.09</ele>
        <time>2017-04-29T07:05:33Z</time>
      </trkpt>
      <trkpt lat="41.297476" lon="1.783103">
        <ele>137.019</ele>
        <time>2017-04-29T07:05:37Z</time>
      </trkpt>
      <trkpt lat="41.297457" lon="1.782953">
        <ele>141.008</ele>
        <time>2017-04-29T07:05:41Z</time>
      </trkpt>
      <trkpt lat="41.297434" lon="1.782792">
        <ele>142.028</ele>
        <time>2017-04-29T07:05:45Z</time>
      </trkpt>
      <trkpt lat="41.297405" lon="1.782673">
        <ele>144.024</ele>
        <time>2017-04-29T07:05:48Z</time>
      </trkpt>
      <trkpt lat="41.297339" lon="1.782556">
        <ele>143.071</ele>
        <time>2017-04-29T07:05:52Z</time>
      </trkpt>
      <trkpt lat="41.297285" lon="1.782454">
        <ele>140.034</ele>
        <time>2017-04-29T07:05:55Z</time>
      </trkpt>
      <trkpt lat="41.297214" lon="1.782366">
        <ele>140.013</ele>
        <time>2017-04-29T07:05:58Z</time>
      </trkpt>
      <trkpt lat="41.297132" lon="1.782269">
        <ele>139.043</ele>
        <time>2017-04-29T07:06:01Z</time>
      </trkpt>
      <trkpt lat="41.297046" lon="1.782166">
        <ele>140.044</ele>
        <time>2017-04-29T07:06:04Z</time>
      </trkpt>
      <trkpt lat="41.296961" lon="1.782074">
        <ele>139.091</ele>
        <time>2017-04-29T07:06:07Z</time>
      </trkpt>
      <trkpt lat="41.296892" lon="1.78198">
        <ele>140.055</ele>
        <time>2017-04-29T07:06:10Z</time>
      </trkpt>
      <trkpt lat="41.29682" lon="1.781881">
        <ele>139.007</ele>
        <time>2017-04-29T07:06:14Z</time>
      </trkpt>
      <trkpt lat="41.296796" lon="1.781766">
        <ele>141.017</ele>
        <time>2017-04-29T07:06:18Z</time>
      </trkpt>
      <trkpt lat="41.296773" lon="1.781647">
        <ele>141.008</ele>
        <time>2017-04-29T07:06:21Z</time>
      </trkpt>
      <trkpt lat="41.296779" lon="1.781514">
        <ele>143.026</ele>
        <time>2017-04-29T07:06:25Z</time>
      </trkpt>
      <trkpt lat="41.296858" lon="1.781424">
        <ele>142.012</ele>
        <time>2017-04-29T07:06:28Z</time>
      </trkpt>
      <trkpt lat="41.296943" lon="1.781368">
        <ele>143.019</ele>
        <time>2017-04-29T07:06:31Z</time>
      </trkpt>
      <trkpt lat="41.297032" lon="1.781297">
        <ele>144.062</ele>
        <time>2017-04-29T07:06:34Z</time>
      </trkpt>
      <trkpt lat="41.29712" lon="1.781241">
        <ele>143.071</ele>
        <time>2017-04-29T07:06:37Z</time>
      </trkpt>
      <trkpt lat="41.297226" lon="1.781231">
        <ele>143.041</ele>
        <time>2017-04-29T07:06:41Z</time>
      </trkpt>
      <trkpt lat="41.297297" lon="1.781083">
        <ele>148.012</ele>
        <time>2017-04-29T07:06:44Z</time>
      </trkpt>
      <trkpt lat="41.29733" lon="1.780944">
        <ele>149.079</ele>
        <time>2017-04-29T07:06:47Z</time>
      </trkpt>
      <trkpt lat="41.297411" lon="1.780877">
        <ele>151.059</ele>
        <time>2017-04-29T07:06:51Z</time>
      </trkpt>
      <trkpt lat="41.297507" lon="1.780874">
        <ele>152.003</ele>
        <time>2017-04-29T07:06:55Z</time>
      </trkpt>
      <trkpt lat="41.297596" lon="1.780885">
        <ele>151.023</ele>
        <time>2017-04-29T07:06:58Z</time>
      </trkpt>
      <trkpt lat="41.297687" lon="1.780903">
        <ele>152.008</ele>
        <time>2017-04-29T07:07:01Z</time>
      </trkpt>
      <trkpt lat="41.297777" lon="1.780917">
        <ele>152.056</ele>
        <time>2017-04-29T07:07:04Z</time>
      </trkpt>
      <trkpt lat="41.297876" lon="1.780936">
        <ele>154.082</ele>
        <time>2017-04-29T07:07:07Z</time>
      </trkpt>
      <trkpt lat="41.297972" lon="1.780951">
        <ele>154.029</ele>
        <time>2017-04-29T07:07:10Z</time>
      </trkpt>
      <trkpt lat="41.298059" lon="1.780993">
        <ele>155.072</ele>
        <time>2017-04-29T07:07:13Z</time>
      </trkpt>
      <trkpt lat="41.298165" lon="1.781034">
        <ele>155.011</ele>
        <time>2017-04-29T07:07:17Z</time>
      </trkpt>
      <trkpt lat="41.298273" lon="1.78106">
        <ele>153.071</ele>
        <time>2017-04-29T07:07:21Z</time>
      </trkpt>
      <trkpt lat="41.298366" lon="1.781041">
        <ele>156.032</ele>
        <time>2017-04-29T07:07:25Z</time>
      </trkpt>
      <trkpt lat="41.29846" lon="1.780995">
        <ele>158.019</ele>
        <time>2017-04-29T07:07:31Z</time>
      </trkpt>
      <trkpt lat="41.298537" lon="1.780919">
        <ele>159.077</ele>
        <time>2017-04-29T07:07:36Z</time>
      </trkpt>
      <trkpt lat="41.298596" lon="1.78082">
        <ele>164.061</ele>
        <time>2017-04-29T07:07:44Z</time>
      </trkpt>
      <trkpt lat="41.298635" lon="1.780692">
        <ele>163.027</ele>
        <time>2017-04-29T07:07:51Z</time>
      </trkpt>
      <trkpt lat="41.298703" lon="1.780598">
        <ele>165.008</ele>
        <time>2017-04-29T07:07:56Z</time>
      </trkpt>
      <trkpt lat="41.298782" lon="1.780522">
        <ele>165.038</ele>
        <time>2017-04-29T07:08:01Z</time>
      </trkpt>
      <trkpt lat="41.298884" lon="1.780517">
        <ele>164.064</ele>
        <time>2017-04-29T07:08:07Z</time>
      </trkpt>
      <trkpt lat="41.298966" lon="1.780589">
        <ele>164.081</ele>
        <time>2017-04-29T07:08:12Z</time>
      </trkpt>
      <trkpt lat="41.299034" lon="1.78068">
        <ele>164.044</ele>
        <time>2017-04-29T07:08:15Z</time>
      </trkpt>
      <trkpt lat="41.299102" lon="1.780799">
        <ele>161.093</ele>
        <time>2017-04-29T07:08:19Z</time>
      </trkpt>
      <trkpt lat="41.299165" lon="1.780895">
        <ele>163.083</ele>
        <time>2017-04-29T07:08:23Z</time>
      </trkpt>
      <trkpt lat="41.299234" lon="1.780987">
        <ele>163.044</ele>
        <time>2017-04-29T07:08:27Z</time>
      </trkpt>
      <trkpt lat="41.299295" lon="1.781075">
        <ele>162.061</ele>
        <time>2017-04-29T07:08:30Z</time>
      </trkpt>
      <trkpt lat="41.299371" lon="1.781171">
        <ele>161.044</ele>
        <time>2017-04-29T07:08:33Z</time>
      </trkpt>
      <trkpt lat="41.299462" lon="1.781265">
        <ele>160.005</ele>
        <time>2017-04-29T07:08:37Z</time>
      </trkpt>
      <trkpt lat="41.299524" lon="1.78136">
        <ele>155.015</ele>
        <time>2017-04-29T07:08:40Z</time>
      </trkpt>
      <trkpt lat="41.299591" lon="1.781442">
        <ele>155.008</ele>
        <time>2017-04-29T07:08:42Z</time>
      </trkpt>
      <trkpt lat="41.299665" lon="1.781534">
        <ele>155.025</ele>
        <time>2017-04-29T07:08:44Z</time>
      </trkpt>
      <trkpt lat="41.299745" lon="1.781607">
        <ele>155.011</ele>
        <time>2017-04-29T07:08:46Z</time>
      </trkpt>
      <trkpt lat="41.299882" lon="1.781704">
        <ele>154.048</ele>
        <time>2017-04-29T07:08:49Z</time>
      </trkpt>
      <trkpt lat="41.299964" lon="1.781768">
        <ele>154.051</ele>
        <time>2017-04-29T07:08:51Z</time>
      </trkpt>
      <trkpt lat="41.300031" lon="1.781863">
        <ele>153.08</ele>
        <time>2017-04-29T07:08:53Z</time>
      </trkpt>
      <trkpt lat="41.300115" lon="1.781942">
        <ele>153.03</ele>
        <time>2017-04-29T07:08:55Z</time>
      </trkpt>
      <trkpt lat="41.300221" lon="1.782026">
        <ele>154.011</ele>
        <time>2017-04-29T07:08:58Z</time>
      </trkpt>
      <trkpt lat="41.300311" lon="1.782133">
        <ele>155.058</ele>
        <time>2017-04-29T07:09:01Z</time>
      </trkpt>
      <trkpt lat="41.300403" lon="1.782242">
        <ele>155.076</ele>
        <time>2017-04-29T07:09:04Z</time>
      </trkpt>
      <trkpt lat="41.300478" lon="1.782326">
        <ele>156.09</ele>
        <time>2017-04-29T07:09:06Z</time>
      </trkpt>
      <trkpt lat="41.300553" lon="1.782402">
        <ele>157.019</ele>
        <time>2017-04-29T07:09:08Z</time>
      </trkpt>
      <trkpt lat="41.30063" lon="1.782469">
        <ele>158.008</ele>
        <time>2017-04-29T07:09:10Z</time>
      </trkpt>
      <trkpt lat="41.300695" lon="1.782557">
        <ele>157.018</ele>
        <time>2017-04-29T07:09:12Z</time>
      </trkpt>
      <trkpt lat="41.300785" lon="1.782615">
        <ele>157.064</ele>
        <time>2017-04-29T07:09:14Z</time>
      </trkpt>
      <trkpt lat="41.300875" lon="1.782677">
        <ele>155.051</ele>
        <time>2017-04-29T07:09:16Z</time>
      </trkpt>
      <trkpt lat="41.300982" lon="1.782764">
        <ele>155.034</ele>
        <time>2017-04-29T07:09:19Z</time>
      </trkpt>
      <trkpt lat="41.301068" lon="1.782806">
        <ele>157.033</ele>
        <time>2017-04-29T07:09:22Z</time>
      </trkpt>
      <trkpt lat="41.301134" lon="1.782903">
        <ele>159.093</ele>
        <time>2017-04-29T07:09:25Z</time>
      </trkpt>
      <trkpt lat="41.301231" lon="1.782983">
        <ele>158.074</ele>
        <time>2017-04-29T07:09:28Z</time>
      </trkpt>
      <trkpt lat="41.301333" lon="1.783077">
        <ele>158.041</ele>
        <time>2017-04-29T07:09:31Z</time>
      </trkpt>
      <trkpt lat="41.301424" lon="1.783166">
        <ele>157.079</ele>
        <time>2017-04-29T07:09:34Z</time>
      </trkpt>
      <trkpt lat="41.301508" lon="1.783244">
        <ele>157.005</ele>
        <time>2017-04-29T07:09:36Z</time>
      </trkpt>
      <trkpt lat="41.301589" lon="1.783313">
        <ele>158.025</ele>
        <time>2017-04-29T07:09:38Z</time>
      </trkpt>
      <trkpt lat="41.301693" lon="1.783393">
        <ele>158.008</ele>
        <time>2017-04-29T07:09:41Z</time>
      </trkpt>
      <trkpt lat="41.301791" lon="1.783462">
        <ele>157.028</ele>
        <time>2017-04-29T07:09:44Z</time>
      </trkpt>
      <trkpt lat="41.301906" lon="1.783508">
        <ele>157.054</ele>
        <time>2017-04-29T07:09:47Z</time>
      </trkpt>
      <trkpt lat="41.302016" lon="1.783546">
        <ele>157.051</ele>
        <time>2017-04-29T07:09:50Z</time>
      </trkpt>
      <trkpt lat="41.302098" lon="1.783627">
        <ele>157.054</ele>
        <time>2017-04-29T07:09:53Z</time>
      </trkpt>
      <trkpt lat="41.302172" lon="1.783734">
        <ele>150.033</ele>
        <time>2017-04-29T07:10:06Z</time>
      </trkpt>
      <trkpt lat="41.302155" lon="1.783877">
        <ele>147.023</ele>
        <time>2017-04-29T07:10:17Z</time>
      </trkpt>
      <trkpt lat="41.30207" lon="1.783823">
        <ele>151.064</ele>
        <time>2017-04-29T07:10:25Z</time>
      </trkpt>
      <trkpt lat="41.301965" lon="1.783837">
        <ele>157.021</ele>
        <time>2017-04-29T07:10:32Z</time>
      </trkpt>
      <trkpt lat="41.302016" lon="1.783942">
        <ele>152.042</ele>
        <time>2017-04-29T07:10:44Z</time>
      </trkpt>
      <trkpt lat="41.302074" lon="1.784035">
        <ele>156.022</ele>
        <time>2017-04-29T07:10:50Z</time>
      </trkpt>
      <trkpt lat="41.302161" lon="1.78407">
        <ele>158.014</ele>
        <time>2017-04-29T07:10:54Z</time>
      </trkpt>
      <trkpt lat="41.302271" lon="1.784103">
        <ele>157.008</ele>
        <time>2017-04-29T07:10:58Z</time>
      </trkpt>
      <trkpt lat="41.302382" lon="1.784156">
        <ele>157.075</ele>
        <time>2017-04-29T07:11:02Z</time>
      </trkpt>
      <trkpt lat="41.302478" lon="1.784208">
        <ele>159.021</ele>
        <time>2017-04-29T07:11:06Z</time>
      </trkpt>
      <trkpt lat="41.302573" lon="1.784239">
        <ele>160.088</ele>
        <time>2017-04-29T07:11:09Z</time>
      </trkpt>
      <trkpt lat="41.302685" lon="1.784264">
        <ele>159.091</ele>
        <time>2017-04-29T07:11:12Z</time>
      </trkpt>
      <trkpt lat="41.302809" lon="1.784307">
        <ele>161.05</ele>
        <time>2017-04-29T07:11:15Z</time>
      </trkpt>
      <trkpt lat="41.302935" lon="1.784361">
        <ele>160.02</ele>
        <time>2017-04-29T07:11:18Z</time>
      </trkpt>
      <trkpt lat="41.303027" lon="1.784417">
        <ele>157.091</ele>
        <time>2017-04-29T07:11:20Z</time>
      </trkpt>
      <trkpt lat="41.303139" lon="1.784456">
        <ele>159.058</ele>
        <time>2017-04-29T07:11:23Z</time>
      </trkpt>
      <trkpt lat="41.30325" lon="1.784481">
        <ele>161.071</ele>
        <time>2017-04-29T07:11:26Z</time>
      </trkpt>
      <trkpt lat="41.303367" lon="1.784495">
        <ele>162.041</ele>
        <time>2017-04-29T07:11:29Z</time>
      </trkpt>
      <trkpt lat="41.303475" lon="1.784515">
        <ele>165.015</ele>
        <time>2017-04-29T07:11:32Z</time>
      </trkpt>
      <trkpt lat="41.303572" lon="1.784561">
        <ele>162.008</ele>
        <time>2017-04-29T07:11:35Z</time>
      </trkpt>
      <trkpt lat="41.303669" lon="1.784613">
        <ele>161.088</ele>
        <time>2017-04-29T07:11:38Z</time>
      </trkpt>
      <trkpt lat="41.303763" lon="1.784618">
        <ele>164.074</ele>
        <time>2017-04-29T07:11:41Z</time>
      </trkpt>
      <trkpt lat="41.303859" lon="1.784629">
        <ele>165.061</ele>
        <time>2017-04-29T07:11:44Z</time>
      </trkpt>
      <trkpt lat="41.303963" lon="1.784655">
        <ele>163.064</ele>
        <time>2017-04-29T07:11:47Z</time>
      </trkpt>
      <trkpt lat="41.304078" lon="1.784689">
        <ele>160.033</ele>
        <time>2017-04-29T07:11:50Z</time>
      </trkpt>
      <trkpt lat="41.304205" lon="1.784703">
        <ele>161.063</ele>
        <time>2017-04-29T07:11:53Z</time>
      </trkpt>
      <trkpt lat="41.30434" lon="1.784703">
        <ele>159.024</ele>
        <time>2017-04-29T07:11:55Z</time>
      </trkpt>
      <trkpt lat="41.304467" lon="1.784724">
        <ele>162.021</ele>
        <time>2017-04-29T07:11:59Z</time>
      </trkpt>
      <trkpt lat="41.304583" lon="1.784758">
        <ele>163.074</ele>
        <time>2017-04-29T07:12:02Z</time>
      </trkpt>
      <trkpt lat="41.3047" lon="1.784769">
        <ele>164.056</ele>
        <time>2017-04-29T07:12:05Z</time>
      </trkpt>
      <trkpt lat="41.304857" lon="1.784847">
        <ele>163.021</ele>
        <time>2017-04-29T07:12:09Z</time>
      </trkpt>
      <trkpt lat="41.304965" lon="1.784912">
        <ele>163.008</ele>
        <time>2017-04-29T07:12:12Z</time>
      </trkpt>
      <trkpt lat="41.30508" lon="1.784943">
        <ele>167.058</ele>
        <time>2017-04-29T07:12:16Z</time>
      </trkpt>
      <trkpt lat="41.305189" lon="1.784964">
        <ele>167.054</ele>
        <time>2017-04-29T07:12:20Z</time>
      </trkpt>
      <trkpt lat="41.305305" lon="1.785027">
        <ele>169.061</ele>
        <time>2017-04-29T07:12:24Z</time>
      </trkpt>
      <trkpt lat="41.305397" lon="1.785078">
        <ele>168.034</ele>
        <time>2017-04-29T07:12:27Z</time>
      </trkpt>
      <trkpt lat="41.305527" lon="1.78513">
        <ele>167.053</ele>
        <time>2017-04-29T07:12:30Z</time>
      </trkpt>
      <trkpt lat="41.305711" lon="1.785199">
        <ele>166.083</ele>
        <time>2017-04-29T07:12:34Z</time>
      </trkpt>
      <trkpt lat="41.305827" lon="1.785272">
        <ele>165.084</ele>
        <time>2017-04-29T07:12:37Z</time>
      </trkpt>
      <trkpt lat="41.305919" lon="1.785304">
        <ele>166.021</ele>
        <time>2017-04-29T07:12:40Z</time>
      </trkpt>
      <trkpt lat="41.306021" lon="1.785372">
        <ele>162.057</ele>
        <time>2017-04-29T07:12:44Z</time>
      </trkpt>
      <trkpt lat="41.30611" lon="1.78542">
        <ele>160.0</ele>
        <time>2017-04-29T07:12:47Z</time>
      </trkpt>
      <trkpt lat="41.306233" lon="1.785432">
        <ele>161.02</ele>
        <time>2017-04-29T07:12:50Z</time>
      </trkpt>
      <trkpt lat="41.306327" lon="1.785448">
        <ele>160.008</ele>
        <time>2017-04-29T07:12:54Z</time>
      </trkpt>
      <trkpt lat="41.306437" lon="1.785464">
        <ele>155.096</ele>
        <time>2017-04-29T07:12:59Z</time>
      </trkpt>
      <trkpt lat="41.306551" lon="1.78548">
        <ele>156.072</ele>
        <time>2017-04-29T07:13:04Z</time>
      </trkpt>
      <trkpt lat="41.306661" lon="1.785512">
        <ele>155.089</ele>
        <time>2017-04-29T07:13:09Z</time>
      </trkpt>
      <trkpt lat="41.306759" lon="1.785558">
        <ele>155.012</ele>
        <time>2017-04-29T07:13:13Z</time>
      </trkpt>
      <trkpt lat="41.306869" lon="1.7856">
        <ele>156.081</ele>
        <time>2017-04-29T07:13:17Z</time>
      </trkpt>
      <trkpt lat="41.30697" lon="1.785611">
        <ele>158.021</ele>
        <time>2017-04-29T07:13:20Z</time>
      </trkpt>
      <trkpt lat="41.307056" lon="1.785648">
        <ele>161.052</ele>
        <time>2017-04-29T07:13:25Z</time>
      </trkpt>
      <trkpt lat="41.307147" lon="1.785673">
        <ele>164.059</ele>
        <time>2017-04-29T07:13:29Z</time>
      </trkpt>
      <trkpt lat="41.307261" lon="1.785687">
        <ele>164.035</ele>
        <time>2017-04-29T07:13:33Z</time>
      </trkpt>
      <trkpt lat="41.307382" lon="1.7857">
        <ele>166.086</ele>
        <time>2017-04-29T07:13:36Z</time>
      </trkpt>
      <trkpt lat="41.307481" lon="1.785749">
        <ele>165.014</ele>
        <time>2017-04-29T07:13:41Z</time>
      </trkpt>
      <trkpt lat="41.30757" lon="1.785803">
        <ele>164.008</ele>
        <time>2017-04-29T07:13:55Z</time>
      </trkpt>
      <trkpt lat="41.30766" lon="1.785881">
        <ele>163.074</ele>
        <time>2017-04-29T07:14:02Z</time>
      </trkpt>
      <trkpt lat="41.307743" lon="1.785929">
        <ele>162.05</ele>
        <time>2017-04-29T07:14:09Z</time>
      </trkpt>
      <trkpt lat="41.307834" lon="1.785981">
        <ele>161.097</ele>
        <time>2017-04-29T07:14:16Z</time>
      </trkpt>
      <trkpt lat="41.307936" lon="1.785935">
        <ele>163.02</ele>
        <time>2017-04-29T07:14:21Z</time>
      </trkpt>
      <trkpt lat="41.308035" lon="1.785924">
        <ele>161.049</ele>
        <time>2017-04-29T07:15:14Z</time>
      </trkpt>
      <trkpt lat="41.308126" lon="1.785928">
        <ele>157.099</ele>
        <time>2017-04-29T07:15:20Z</time>
      </trkpt>
      <trkpt lat="41.308218" lon="1.785945">
        <ele>159.05</ele>
        <time>2017-04-29T07:15:24Z</time>
      </trkpt>
      <trkpt lat="41.308317" lon="1.78595">
        <ele>161.087</ele>
        <time>2017-04-29T07:15:28Z</time>
      </trkpt>
      <trkpt lat="41.308413" lon="1.785954">
        <ele>163.034</ele>
        <time>2017-04-29T07:15:32Z</time>
      </trkpt>
      <trkpt lat="41.308512" lon="1.785988">
        <ele>164.055</ele>
        <time>2017-04-29T07:15:37Z</time>
      </trkpt>
      <trkpt lat="41.308608" lon="1.786015">
        <ele>164.01</ele>
        <time>2017-04-29T07:15:41Z</time>
      </trkpt>
      <trkpt lat="41.308714" lon="1.786021">
        <ele>162.008</ele>
        <time>2017-04-29T07:15:45Z</time>
      </trkpt>
      <trkpt lat="41.308821" lon="1.786024">
        <ele>160.094</ele>
        <time>2017-04-29T07:15:49Z</time>
      </trkpt>
      <trkpt lat="41.308917" lon="1.786017">
        <ele>165.06</ele>
        <time>2017-04-29T07:15:53Z</time>
      </trkpt>
      <trkpt lat="41.309019" lon="1.786038">
        <ele>166.017</ele>
        <time>2017-04-29T07:15:57Z</time>
      </trkpt>
      <trkpt lat="41.30913" lon="1.786072">
        <ele>167.04</ele>
        <time>2017-04-29T07:16:01Z</time>
      </trkpt>
      <trkpt lat="41.309232" lon="1.786081">
        <ele>166.059</ele>
        <time>2017-04-29T07:16:05Z</time>
      </trkpt>
      <trkpt lat="41.30933" lon="1.786092">
        <ele>166.029</ele>
        <time>2017-04-29T07:16:09Z</time>
      </trkpt>
      <trkpt lat="41.309449" lon="1.786099">
        <ele>168.01</ele>
        <time>2017-04-29T07:16:13Z</time>
      </trkpt>
      <trkpt lat="41.309542" lon="1.786097">
        <ele>170.057</ele>
        <time>2017-04-29T07:16:17Z</time>
      </trkpt>
      <trkpt lat="41.309636" lon="1.78608">
        <ele>171.065</ele>
        <time>2017-04-29T07:16:21Z</time>
      </trkpt>
      <trkpt lat="41.309736" lon="1.786097">
        <ele>174.068</ele>
        <time>2017-04-29T07:16:26Z</time>
      </trkpt>
      <trkpt lat="41.309841" lon="1.78614">
        <ele>176.014</ele>
        <time>2017-04-29T07:16:31Z</time>
      </trkpt>
      <trkpt lat="41.309948" lon="1.786164">
        <ele>179.008</ele>
        <time>2017-04-29T07:16:37Z</time>
      </trkpt>
      <trkpt lat="41.31004" lon="1.786197">
        <ele>179.037</ele>
        <time>2017-04-29T07:16:42Z</time>
      </trkpt>
      <trkpt lat="41.310127" lon="1.786244">
        <ele>180.093</ele>
        <time>2017-04-29T07:16:47Z</time>
      </trkpt>
      <trkpt lat="41.310212" lon="1.786285">
        <ele>181.02</ele>
        <time>2017-04-29T07:16:52Z</time>
      </trkpt>
      <trkpt lat="41.310295" lon="1.786353">
        <ele>180.043</ele>
        <time>2017-04-29T07:17:01Z</time>
      </trkpt>
      <trkpt lat="41.31039" lon="1.786383">
        <ele>182.042</ele>
        <time>2017-04-29T07:17:09Z</time>
      </trkpt>
      <trkpt lat="41.310473" lon="1.786473">
        <ele>183.092</ele>
        <time>2017-04-29T07:17:21Z</time>
      </trkpt>
      <trkpt lat="41.310559" lon="1.786555">
        <ele>184.043</ele>
        <time>2017-04-29T07:17:26Z</time>
      </trkpt>
      <trkpt lat="41.310656" lon="1.786611">
        <ele>187.03</ele>
        <time>2017-04-29T07:17:31Z</time>
      </trkpt>
      <trkpt lat="41.310752" lon="1.786648">
        <ele>186.096</ele>
        <time>2017-04-29T07:17:36Z</time>
      </trkpt>
      <trkpt lat="41.310856" lon="1.786663">
        <ele>186.031</ele>
        <time>2017-04-29T07:17:40Z</time>
      </trkpt>
      <trkpt lat="41.310926" lon="1.786767">
        <ele>188.024</ele>
        <time>2017-04-29T07:17:43Z</time>
      </trkpt>
      <trkpt lat="41.311017" lon="1.78689">
        <ele>185.008</ele>
        <time>2017-04-29T07:17:46Z</time>
      </trkpt>
      <trkpt lat="41.311086" lon="1.786981">
        <ele>186.01</ele>
        <time>2017-04-29T07:17:48Z</time>
      </trkpt>
      <trkpt lat="41.311166" lon="1.787068">
        <ele>186.046</ele>
        <time>2017-04-29T07:17:50Z</time>
      </trkpt>
      <trkpt lat="41.311244" lon="1.787147">
        <ele>186.093</ele>
        <time>2017-04-29T07:17:52Z</time>
      </trkpt>
      <trkpt lat="41.31132" lon="1.787242">
        <ele>185.016</ele>
        <time>2017-04-29T07:17:54Z</time>
      </trkpt>
      <trkpt lat="41.311363" lon="1.787349">
        <ele>186.075</ele>
        <time>2017-04-29T07:17:56Z</time>
      </trkpt>
      <trkpt lat="41.311416" lon="1.787502">
        <ele>185.095</ele>
        <time>2017-04-29T07:17:59Z</time>
      </trkpt>
      <trkpt lat="41.311463" lon="1.787638">
        <ele>185.016</ele>
        <time>2017-04-29T07:18:02Z</time>
      </trkpt>
      <trkpt lat="41.311495" lon="1.787796">
        <ele>183.073</ele>
        <time>2017-04-29T07:18:05Z</time>
      </trkpt>
      <trkpt lat="41.31151" lon="1.787964">
        <ele>179.058</ele>
        <time>2017-04-29T07:18:08Z</time>
      </trkpt>
      <trkpt lat="41.31152" lon="1.788183">
        <ele>177.052</ele>
        <time>2017-04-29T07:18:11Z</time>
      </trkpt>
      <trkpt lat="41.311547" lon="1.788343">
        <ele>178.017</ele>
        <time>2017-04-29T07:18:14Z</time>
      </trkpt>
      <trkpt lat="41.311563" lon="1.788471">
        <ele>179.008</ele>
        <time>2017-04-29T07:18:17Z</time>
      </trkpt>
      <trkpt lat="41.311565" lon="1.78859">
        <ele>179.016</ele>
        <time>2017-04-29T07:18:20Z</time>
      </trkpt>
      <trkpt lat="41.311541" lon="1.788706">
        <ele>179.062</ele>
        <time>2017-04-29T07:18:23Z</time>
      </trkpt>
      <trkpt lat="41.311499" lon="1.788878">
        <ele>179.029</ele>
        <time>2017-04-29T07:18:26Z</time>
      </trkpt>
      <trkpt lat="41.311462" lon="1.789011">
        <ele>178.042</ele>
        <time>2017-04-29T07:18:28Z</time>
      </trkpt>
      <trkpt lat="41.311438" lon="1.789134">
        <ele>177.071</ele>
        <time>2017-04-29T07:18:30Z</time>
      </trkpt>
      <trkpt lat="41.311406" lon="1.789298">
        <ele>172.081</ele>
        <time>2017-04-29T07:18:33Z</time>
      </trkpt>
      <trkpt lat="41.311374" lon="1.78943">
        <ele>172.012</ele>
        <time>2017-04-29T07:18:35Z</time>
      </trkpt>
      <trkpt lat="41.311334" lon="1.78959">
        <ele>171.089</ele>
        <time>2017-04-29T07:18:37Z</time>
      </trkpt>
      <trkpt lat="41.311306" lon="1.789705">
        <ele>171.032</ele>
        <time>2017-04-29T07:18:39Z</time>
      </trkpt>
      <trkpt lat="41.311286" lon="1.789842">
        <ele>170.092</ele>
        <time>2017-04-29T07:18:41Z</time>
      </trkpt>
      <trkpt lat="41.311277" lon="1.789984">
        <ele>169.011</ele>
        <time>2017-04-29T07:18:43Z</time>
      </trkpt>
      <trkpt lat="41.311256" lon="1.790101">
        <ele>168.008</ele>
        <time>2017-04-29T07:18:45Z</time>
      </trkpt>
      <trkpt lat="41.311186" lon="1.79024">
        <ele>167.034</ele>
        <time>2017-04-29T07:18:48Z</time>
      </trkpt>
      <trkpt lat="41.311153" lon="1.790354">
        <ele>167.03</ele>
        <time>2017-04-29T07:18:52Z</time>
      </trkpt>
      <trkpt lat="41.311179" lon="1.79047">
        <ele>168.077</ele>
        <time>2017-04-29T07:18:55Z</time>
      </trkpt>
      <trkpt lat="41.311236" lon="1.790579">
        <ele>170.07</ele>
        <time>2017-04-29T07:18:59Z</time>
      </trkpt>
      <trkpt lat="41.311285" lon="1.790698">
        <ele>172.069</ele>
        <time>2017-04-29T07:19:04Z</time>
      </trkpt>
      <trkpt lat="41.311341" lon="1.790803">
        <ele>174.069</ele>
        <time>2017-04-29T07:19:08Z</time>
      </trkpt>
      <trkpt lat="41.311414" lon="1.790894">
        <ele>173.03</ele>
        <time>2017-04-29T07:19:12Z</time>
      </trkpt>
      <trkpt lat="41.31147" lon="1.791011">
        <ele>173.057</ele>
        <time>2017-04-29T07:19:17Z</time>
      </trkpt>
      <trkpt lat="41.311561" lon="1.790991">
        <ele>173.064</ele>
        <time>2017-04-29T07:19:22Z</time>
      </trkpt>
      <trkpt lat="41.311651" lon="1.790959">
        <ele>174.006</ele>
        <time>2017-04-29T07:19:28Z</time>
      </trkpt>
      <trkpt lat="41.311744" lon="1.790942">
        <ele>174.016</ele>
        <time>2017-04-29T07:19:35Z</time>
      </trkpt>
      <trkpt lat="41.311827" lon="1.790895">
        <ele>175.008</ele>
        <time>2017-04-29T07:19:41Z</time>
      </trkpt>
      <trkpt lat="41.311922" lon="1.790876">
        <ele>176.087</ele>
        <time>2017-04-29T07:19:49Z</time>
      </trkpt>
      <trkpt lat="41.312008" lon="1.790834">
        <ele>177.053</ele>
        <time>2017-04-29T07:19:55Z</time>
      </trkpt>
      <trkpt lat="41.312094" lon="1.790791">
        <ele>176.02</ele>
        <time>2017-04-29T07:20:03Z</time>
      </trkpt>
      <trkpt lat="41.312183" lon="1.790722">
        <ele>175.043</ele>
        <time>2017-04-29T07:20:11Z</time>
      </trkpt>
      <trkpt lat="41.312265" lon="1.790664">
        <ele>177.092</ele>
        <time>2017-04-29T07:20:17Z</time>
      </trkpt>
      <trkpt lat="41.312346" lon="1.790598">
        <ele>176.012</ele>
        <time>2017-04-29T07:20:22Z</time>
      </trkpt>
      <trkpt lat="41.312427" lon="1.790498">
        <ele>174.043</ele>
        <time>2017-04-29T07:20:26Z</time>
      </trkpt>
      <trkpt lat="41.312495" lon="1.790396">
        <ele>174.04</ele>
        <time>2017-04-29T07:20:29Z</time>
      </trkpt>
      <trkpt lat="41.312573" lon="1.790289">
        <ele>175.071</ele>
        <time>2017-04-29T07:20:32Z</time>
      </trkpt>
      <trkpt lat="41.312637" lon="1.790166">
        <ele>174.041</ele>
        <time>2017-04-29T07:20:35Z</time>
      </trkpt>
      <trkpt lat="41.3127" lon="1.79002">
        <ele>175.015</ele>
        <time>2017-04-29T07:20:38Z</time>
      </trkpt>
      <trkpt lat="41.312746" lon="1.789906">
        <ele>175.008</ele>
        <time>2017-04-29T07:20:40Z</time>
      </trkpt>
      <trkpt lat="41.312808" lon="1.789766">
        <ele>175.078</ele>
        <time>2017-04-29T07:20:43Z</time>
      </trkpt>
      <trkpt lat="41.312876" lon="1.78962">
        <ele>175.084</ele>
        <time>2017-04-29T07:20:46Z</time>
      </trkpt>
      <trkpt lat="41.312931" lon="1.78947">
        <ele>174.081</ele>
        <time>2017-04-29T07:20:49Z</time>
      </trkpt>
      <trkpt lat="41.312997" lon="1.789319">
        <ele>174.064</ele>
        <time>2017-04-29T07:20:52Z</time>
      </trkpt>
      <trkpt lat="41.313047" lon="1.789201">
        <ele>174.013</ele>
        <time>2017-04-29T07:20:55Z</time>
      </trkpt>
      <trkpt lat="41.313098" lon="1.789096">
        <ele>171.023</ele>
        <time>2017-04-29T07:20:59Z</time>
      </trkpt>
      <trkpt lat="41.313181" lon="1.789033">
        <ele>167.074</ele>
        <time>2017-04-29T07:21:11Z</time>
      </trkpt>
      <trkpt lat="41.313255" lon="1.788941">
        <ele>172.021</ele>
        <time>2017-04-29T07:21:32Z</time>
      </trkpt>
      <trkpt lat="41.313339" lon="1.788879">
        <ele>173.071</ele>
        <time>2017-04-29T07:21:38Z</time>
      </trkpt>
      <trkpt lat="41.313435" lon="1.788808">
        <ele>175.041</ele>
        <time>2017-04-29T07:21:43Z</time>
      </trkpt>
      <trkpt lat="41.313532" lon="1.788742">
        <ele>177.015</ele>
        <time>2017-04-29T07:21:48Z</time>
      </trkpt>
      <trkpt lat="41.313636" lon="1.788706">
        <ele>177.008</ele>
        <time>2017-04-29T07:21:51Z</time>
      </trkpt>
      <trkpt lat="41.313759" lon="1.788668">
        <ele>177.028</ele>
        <time>2017-04-29T07:21:54Z</time>
      </trkpt>
      <trkpt lat="41.313862" lon="1.788644">
        <ele>176.064</ele>
        <time>2017-04-29T07:21:56Z</time>
      </trkpt>
      <trkpt lat="41.313968" lon="1.788635">
        <ele>175.051</ele>
        <time>2017-04-29T07:21:58Z</time>
      </trkpt>
      <trkpt lat="41.314082" lon="1.78863">
        <ele>175.024</ele>
        <time>2017-04-29T07:22:00Z</time>
      </trkpt>
      <trkpt lat="41.314209" lon="1.788612">
        <ele>176.043</ele>
        <time>2017-04-29T07:22:02Z</time>
      </trkpt>
      <trkpt lat="41.314331" lon="1.788554">
        <ele>177.093</ele>
        <time>2017-04-29T07:22:04Z</time>
      </trkpt>
      <trkpt lat="41.31445" lon="1.78852">
        <ele>176.024</ele>
        <time>2017-04-29T07:22:06Z</time>
      </trkpt>
      <trkpt lat="41.314565" lon="1.788468">
        <ele>176.061</ele>
        <time>2017-04-29T07:22:08Z</time>
      </trkpt>
      <trkpt lat="41.314684" lon="1.788415">
        <ele>175.082</ele>
        <time>2017-04-29T07:22:10Z</time>
      </trkpt>
      <trkpt lat="41.314801" lon="1.788359">
        <ele>175.043</ele>
        <time>2017-04-29T07:22:12Z</time>
      </trkpt>
      <trkpt lat="41.314908" lon="1.788313">
        <ele>174.017</ele>
        <time>2017-04-29T07:22:14Z</time>
      </trkpt>
      <trkpt lat="41.315004" lon="1.788275">
        <ele>172.008</ele>
        <time>2017-04-29T07:22:16Z</time>
      </trkpt>
      <trkpt lat="41.315116" lon="1.788243">
        <ele>173.089</ele>
        <time>2017-04-29T07:22:18Z</time>
      </trkpt>
      <trkpt lat="41.315219" lon="1.788241">
        <ele>175.075</ele>
        <time>2017-04-29T07:22:20Z</time>
      </trkpt>
      <trkpt lat="41.315312" lon="1.788218">
        <ele>174.072</ele>
        <time>2017-04-29T07:22:22Z</time>
      </trkpt>
      <trkpt lat="41.315409" lon="1.788207">
        <ele>173.095</ele>
        <time>2017-04-29T07:22:25Z</time>
      </trkpt>
      <trkpt lat="41.315509" lon="1.788138">
        <ele>174.054</ele>
        <time>2017-04-29T07:22:28Z</time>
      </trkpt>
      <trkpt lat="41.315595" lon="1.788091">
        <ele>175.064</ele>
        <time>2017-04-29T07:22:30Z</time>
      </trkpt>
      <trkpt lat="41.315686" lon="1.788037">
        <ele>175.095</ele>
        <time>2017-04-29T07:22:33Z</time>
      </trkpt>
      <trkpt lat="41.31581" lon="1.787992">
        <ele>177.072</ele>
        <time>2017-04-29T07:22:37Z</time>
      </trkpt>
      <trkpt lat="41.315926" lon="1.787926">
        <ele>177.041</ele>
        <time>2017-04-29T07:22:40Z</time>
      </trkpt>
      <trkpt lat="41.316033" lon="1.787893">
        <ele>178.081</ele>
        <time>2017-04-29T07:22:44Z</time>
      </trkpt>
      <trkpt lat="41.316143" lon="1.787869">
        <ele>176.009</ele>
        <time>2017-04-29T07:22:48Z</time>
      </trkpt>
      <trkpt lat="41.31624" lon="1.787819">
        <ele>178.008</ele>
        <time>2017-04-29T07:22:51Z</time>
      </trkpt>
      <trkpt lat="41.316333" lon="1.787779">
        <ele>177.095</ele>
        <time>2017-04-29T07:22:54Z</time>
      </trkpt>
      <trkpt lat="41.316444" lon="1.787738">
        <ele>178.011</ele>
        <time>2017-04-29T07:22:57Z</time>
      </trkpt>
      <trkpt lat="41.316552" lon="1.787697">
        <ele>179.088</ele>
        <time>2017-04-29T07:23:00Z</time>
      </trkpt>
      <trkpt lat="41.316656" lon="1.787667">
        <ele>178.011</ele>
        <time>2017-04-29T07:23:02Z</time>
      </trkpt>
      <trkpt lat="41.316776" lon="1.787623">
        <ele>177.05</ele>
        <time>2017-04-29T07:23:05Z</time>
      </trkpt>
      <trkpt lat="41.31687" lon="1.787606">
        <ele>177.02</ele>
        <time>2017-04-29T07:23:08Z</time>
      </trkpt>
      <trkpt lat="41.316974" lon="1.787559">
        <ele>179.051</ele>
        <time>2017-04-29T07:23:11Z</time>
      </trkpt>
      <trkpt lat="41.317072" lon="1.787485">
        <ele>180.088</ele>
        <time>2017-04-29T07:23:14Z</time>
      </trkpt>
      <trkpt lat="41.317144" lon="1.787373">
        <ele>180.092</ele>
        <time>2017-04-29T07:23:17Z</time>
      </trkpt>
      <trkpt lat="41.317196" lon="1.78723">
        <ele>180.073</ele>
        <time>2017-04-29T07:23:20Z</time>
      </trkpt>
      <trkpt lat="41.317195" lon="1.787101">
        <ele>179.02</ele>
        <time>2017-04-29T07:23:23Z</time>
      </trkpt>
      <trkpt lat="41.3172" lon="1.786943">
        <ele>180.008</ele>
        <time>2017-04-29T07:23:28Z</time>
      </trkpt>
      <trkpt lat="41.31724" lon="1.786824">
        <ele>180.06</ele>
        <time>2017-04-29T07:23:31Z</time>
      </trkpt>
      <trkpt lat="41.317221" lon="1.786705">
        <ele>181.066</ele>
        <time>2017-04-29T07:23:34Z</time>
      </trkpt>
      <trkpt lat="41.317147" lon="1.786594">
        <ele>182.083</ele>
        <time>2017-04-29T07:23:38Z</time>
      </trkpt>
      <trkpt lat="41.317084" lon="1.786481">
        <ele>180.076</ele>
        <time>2017-04-29T07:23:42Z</time>
      </trkpt>
      <trkpt lat="41.317025" lon="1.78635">
        <ele>181.045</ele>
        <time>2017-04-29T07:23:47Z</time>
      </trkpt>
      <trkpt lat="41.316978" lon="1.786215">
        <ele>183.065</ele>
        <time>2017-04-29T07:23:52Z</time>
      </trkpt>
      <trkpt lat="41.316925" lon="1.786103">
        <ele>185.026</ele>
        <time>2017-04-29T07:23:57Z</time>
      </trkpt>
      <trkpt lat="41.316877" lon="1.785996">
        <ele>185.083</ele>
        <time>2017-04-29T07:24:02Z</time>
      </trkpt>
      <trkpt lat="41.316825" lon="1.785865">
        <ele>182.035</ele>
        <time>2017-04-29T07:24:08Z</time>
      </trkpt>
      <trkpt lat="41.316817" lon="1.785726">
        <ele>182.086</ele>
        <time>2017-04-29T07:24:15Z</time>
      </trkpt>
      <trkpt lat="41.316915" lon="1.785737">
        <ele>183.014</ele>
        <time>2017-04-29T07:24:23Z</time>
      </trkpt>
      <trkpt lat="41.316968" lon="1.785851">
        <ele>184.008</ele>
        <time>2017-04-29T07:24:29Z</time>
      </trkpt>
      <trkpt lat="41.31705" lon="1.785906">
        <ele>183.024</ele>
        <time>2017-04-29T07:24:34Z</time>
      </trkpt>
      <trkpt lat="41.317157" lon="1.785942">
        <ele>184.06</ele>
        <time>2017-04-29T07:24:40Z</time>
      </trkpt>
      <trkpt lat="41.317248" lon="1.78598">
        <ele>186.087</ele>
        <time>2017-04-29T07:24:45Z</time>
      </trkpt>
      <trkpt lat="41.317332" lon="1.786027">
        <ele>184.08</ele>
        <time>2017-04-29T07:24:50Z</time>
      </trkpt>
      <trkpt lat="41.317428" lon="1.786064">
        <ele>184.089</ele>
        <time>2017-04-29T07:24:54Z</time>
      </trkpt>
      <trkpt lat="41.317533" lon="1.786086">
        <ele>182.079</ele>
        <time>2017-04-29T07:24:57Z</time>
      </trkpt>
      <trkpt lat="41.317628" lon="1.786086">
        <ele>181.04</ele>
        <time>2017-04-29T07:24:59Z</time>
      </trkpt>
      <trkpt lat="41.317735" lon="1.786078">
        <ele>180.037</ele>
        <time>2017-04-29T07:25:01Z</time>
      </trkpt>
      <trkpt lat="41.317865" lon="1.78605">
        <ele>179.056</ele>
        <time>2017-04-29T07:25:03Z</time>
      </trkpt>
      <trkpt lat="41.318005" lon="1.785995">
        <ele>178.059</ele>
        <time>2017-04-29T07:25:05Z</time>
      </trkpt>
      <trkpt lat="41.31814" lon="1.78592">
        <ele>177.014</ele>
        <time>2017-04-29T07:25:07Z</time>
      </trkpt>
      <trkpt lat="41.318268" lon="1.785822">
        <ele>177.008</ele>
        <time>2017-04-29T07:25:09Z</time>
      </trkpt>
      <trkpt lat="41.318393" lon="1.785735">
        <ele>177.066</ele>
        <time>2017-04-29T07:25:11Z</time>
      </trkpt>
      <trkpt lat="41.3185" lon="1.785631">
        <ele>176.062</ele>
        <time>2017-04-29T07:25:13Z</time>
      </trkpt>
      <trkpt lat="41.318602" lon="1.785555">
        <ele>177.089</ele>
        <time>2017-04-29T07:25:15Z</time>
      </trkpt>
      <trkpt lat="41.318702" lon="1.785527">
        <ele>176.052</ele>
        <time>2017-04-29T07:25:17Z</time>
      </trkpt>
      <trkpt lat="41.318798" lon="1.785593">
        <ele>178.051</ele>
        <time>2017-04-29T07:25:20Z</time>
      </trkpt>
      <trkpt lat="41.318836" lon="1.785728">
        <ele>178.041</ele>
        <time>2017-04-29T07:25:23Z</time>
      </trkpt>
      <trkpt lat="41.318823" lon="1.785875">
        <ele>179.012</ele>
        <time>2017-04-29T07:25:27Z</time>
      </trkpt>
      <trkpt lat="41.318815" lon="1.78601">
        <ele>183.059</ele>
        <time>2017-04-29T07:25:31Z</time>
      </trkpt>
      <trkpt lat="41.318809" lon="1.786148">
        <ele>184.011</ele>
        <time>2017-04-29T07:25:34Z</time>
      </trkpt>
      <trkpt lat="41.31879" lon="1.786272">
        <ele>186.021</ele>
        <time>2017-04-29T07:25:38Z</time>
      </trkpt>
      <trkpt lat="41.31877" lon="1.786401">
        <ele>188.003</ele>
        <time>2017-04-29T07:25:41Z</time>
      </trkpt>
      <trkpt lat="41.318728" lon="1.786533">
        <ele>189.008</ele>
        <time>2017-04-29T07:25:44Z</time>
      </trkpt>
      <trkpt lat="41.31869" lon="1.786665">
        <ele>188.032</ele>
        <time>2017-04-29T07:25:47Z</time>
      </trkpt>
      <trkpt lat="41.318669" lon="1.786811">
        <ele>186.078</ele>
        <time>2017-04-29T07:25:50Z</time>
      </trkpt>
      <trkpt lat="41.318701" lon="1.786965">
        <ele>187.035</ele>
        <time>2017-04-29T07:25:53Z</time>
      </trkpt>
      <trkpt lat="41.318764" lon="1.787111">
        <ele>187.048</ele>
        <time>2017-04-29T07:25:56Z</time>
      </trkpt>
      <trkpt lat="41.318824" lon="1.787253">
        <ele>184.077</ele>
        <time>2017-04-29T07:25:59Z</time>
      </trkpt>
      <trkpt lat="41.318906" lon="1.787377">
        <ele>185.047</ele>
        <time>2017-04-29T07:26:02Z</time>
      </trkpt>
      <trkpt lat="41.319004" lon="1.787474">
        <ele>186.018</ele>
        <time>2017-04-29T07:26:05Z</time>
      </trkpt>
      <trkpt lat="41.319092" lon="1.787564">
        <ele>188.045</ele>
        <time>2017-04-29T07:26:08Z</time>
      </trkpt>
      <trkpt lat="41.319177" lon="1.787685">
        <ele>188.015</ele>
        <time>2017-04-29T07:26:11Z</time>
      </trkpt>
      <trkpt lat="41.319238" lon="1.7878">
        <ele>187.065</ele>
        <time>2017-04-29T07:26:14Z</time>
      </trkpt>
      <trkpt lat="41.31932" lon="1.787884">
        <ele>187.011</ele>
        <time>2017-04-29T07:26:17Z</time>
      </trkpt>
      <trkpt lat="41.319389" lon="1.787992">
        <ele>188.008</ele>
        <time>2017-04-29T07:26:20Z</time>
      </trkpt>
      <trkpt lat="41.319467" lon="1.788086">
        <ele>187.022</ele>
        <time>2017-04-29T07:26:23Z</time>
      </trkpt>
      <trkpt lat="41.319568" lon="1.788177">
        <ele>188.078</ele>
        <time>2017-04-29T07:26:26Z</time>
      </trkpt>
      <trkpt lat="41.319679" lon="1.788223">
        <ele>189.025</ele>
        <time>2017-04-29T07:26:29Z</time>
      </trkpt>
      <trkpt lat="41.3198" lon="1.788245">
        <ele>191.018</ele>
        <time>2017-04-29T07:26:32Z</time>
      </trkpt>
      <trkpt lat="41.319926" lon="1.788227">
        <ele>191.047</ele>
        <time>2017-04-29T07:26:35Z</time>
      </trkpt>
      <trkpt lat="41.320063" lon="1.788198">
        <ele>191.017</ele>
        <time>2017-04-29T07:26:38Z</time>
      </trkpt>
      <trkpt lat="41.320152" lon="1.788148">
        <ele>191.038</ele>
        <time>2017-04-29T07:26:40Z</time>
      </trkpt>
      <trkpt lat="41.320246" lon="1.788064">
        <ele>192.085</ele>
        <time>2017-04-29T07:26:43Z</time>
      </trkpt>
      <trkpt lat="41.320342" lon="1.788074">
        <ele>191.077</ele>
        <time>2017-04-29T07:26:47Z</time>
      </trkpt>
      <trkpt lat="41.320444" lon="1.788052">
        <ele>190.061</ele>
        <time>2017-04-29T07:26:52Z</time>
      </trkpt>
      <trkpt lat="41.320547" lon="1.788001">
        <ele>190.027</ele>
        <time>2017-04-29T07:26:57Z</time>
      </trkpt>
      <trkpt lat="41.320636" lon="1.787909">
        <ele>190.008</ele>
        <time>2017-04-29T07:27:01Z</time>
      </trkpt>
      <trkpt lat="41.320716" lon="1.787819">
        <ele>192.098</ele>
        <time>2017-04-29T07:27:05Z</time>
      </trkpt>
      <trkpt lat="41.320792" lon="1.787717">
        <ele>191.044</ele>
        <time>2017-04-29T07:27:09Z</time>
      </trkpt>
      <trkpt lat="41.320864" lon="1.787604">
        <ele>193.091</ele>
        <time>2017-04-29T07:27:13Z</time>
      </trkpt>
      <trkpt lat="41.320925" lon="1.787497">
        <ele>194.074</ele>
        <time>2017-04-29T07:27:17Z</time>
      </trkpt>
      <trkpt lat="41.320988" lon="1.787393">
        <ele>195.073</ele>
        <time>2017-04-29T07:27:21Z</time>
      </trkpt>
      <trkpt lat="41.321087" lon="1.787328">
        <ele>193.073</ele>
        <time>2017-04-29T07:27:27Z</time>
      </trkpt>
      <trkpt lat="41.321177" lon="1.787293">
        <ele>195.054</ele>
        <time>2017-04-29T07:27:31Z</time>
      </trkpt>
      <trkpt lat="41.321264" lon="1.787329">
        <ele>197.021</ele>
        <time>2017-04-29T07:27:35Z</time>
      </trkpt>
      <trkpt lat="41.321317" lon="1.787453">
        <ele>197.068</ele>
        <time>2017-04-29T07:27:40Z</time>
      </trkpt>
      <trkpt lat="41.321342" lon="1.787581">
        <ele>199.042</ele>
        <time>2017-04-29T07:27:43Z</time>
      </trkpt>
      <trkpt lat="41.321332" lon="1.78771">
        <ele>204.026</ele>
        <time>2017-04-29T07:27:47Z</time>
      </trkpt>
      <trkpt lat="41.321288" lon="1.787841">
        <ele>203.008</ele>
        <time>2017-04-29T07:27:52Z</time>
      </trkpt>
      <trkpt lat="41.321253" lon="1.787957">
        <ele>205.017</ele>
        <time>2017-04-29T07:27:57Z</time>
      </trkpt>
      <trkpt lat="41.321249" lon="1.788094">
        <ele>204.083</ele>
        <time>2017-04-29T07:28:01Z</time>
      </trkpt>
      <trkpt lat="41.321281" lon="1.788207">
        <ele>206.03</ele>
        <time>2017-04-29T07:28:05Z</time>
      </trkpt>
      <trkpt lat="41.321333" lon="1.788326">
        <ele>205.073</ele>
        <time>2017-04-29T07:28:10Z</time>
      </trkpt>
      <trkpt lat="41.321408" lon="1.788435">
        <ele>205.022</ele>
        <time>2017-04-29T07:28:15Z</time>
      </trkpt>
      <trkpt lat="41.321473" lon="1.788558">
        <ele>206.082</ele>
        <time>2017-04-29T07:28:19Z</time>
      </trkpt>
      <trkpt lat="41.321514" lon="1.78867">
        <ele>204.043</ele>
        <time>2017-04-29T07:28:22Z</time>
      </trkpt>
      <trkpt lat="41.321559" lon="1.788777">
        <ele>204.07</ele>
        <time>2017-04-29T07:28:25Z</time>
      </trkpt>
      <trkpt lat="41.321585" lon="1.788917">
        <ele>199.073</ele>
        <time>2017-04-29T07:28:28Z</time>
      </trkpt>
      <trkpt lat="41.321608" lon="1.789053">
        <ele>198.085</ele>
        <time>2017-04-29T07:28:30Z</time>
      </trkpt>
      <trkpt lat="41.321621" lon="1.789175">
        <ele>195.013</ele>
        <time>2017-04-29T07:28:32Z</time>
      </trkpt>
      <trkpt lat="41.321678" lon="1.789275">
        <ele>195.008</ele>
        <time>2017-04-29T07:28:34Z</time>
      </trkpt>
      <trkpt lat="41.321757" lon="1.789375">
        <ele>195.048</ele>
        <time>2017-04-29T07:28:37Z</time>
      </trkpt>
      <trkpt lat="41.321829" lon="1.789482">
        <ele>194.054</ele>
        <time>2017-04-29T07:28:40Z</time>
      </trkpt>
      <trkpt lat="41.321911" lon="1.789582">
        <ele>194.061</ele>
        <time>2017-04-29T07:28:43Z</time>
      </trkpt>
      <trkpt lat="41.321986" lon="1.789663">
        <ele>196.024</ele>
        <time>2017-04-29T07:28:46Z</time>
      </trkpt>
      <trkpt lat="41.322055" lon="1.789762">
        <ele>196.023</ele>
        <time>2017-04-29T07:28:50Z</time>
      </trkpt>
      <trkpt lat="41.322092" lon="1.789902">
        <ele>199.063</ele>
        <time>2017-04-29T07:28:54Z</time>
      </trkpt>
      <trkpt lat="41.32216" lon="1.790013">
        <ele>200.094</ele>
        <time>2017-04-29T07:28:58Z</time>
      </trkpt>
      <trkpt lat="41.322226" lon="1.790112">
        <ele>201.071</ele>
        <time>2017-04-29T07:29:02Z</time>
      </trkpt>
      <trkpt lat="41.322315" lon="1.790178">
        <ele>200.058</ele>
        <time>2017-04-29T07:29:06Z</time>
      </trkpt>
      <trkpt lat="41.322401" lon="1.790221">
        <ele>200.052</ele>
        <time>2017-04-29T07:29:09Z</time>
      </trkpt>
      <trkpt lat="41.322484" lon="1.790298">
        <ele>201.017</ele>
        <time>2017-04-29T07:29:13Z</time>
      </trkpt>
      <trkpt lat="41.322576" lon="1.790366">
        <ele>202.008</ele>
        <time>2017-04-29T07:29:18Z</time>
      </trkpt>
      <trkpt lat="41.322659" lon="1.790461">
        <ele>205.066</ele>
        <time>2017-04-29T07:29:23Z</time>
      </trkpt>
      <trkpt lat="41.322713" lon="1.790559">
        <ele>206.092</ele>
        <time>2017-04-29T07:29:27Z</time>
      </trkpt>
      <trkpt lat="41.322758" lon="1.790676">
        <ele>204.079</ele>
        <time>2017-04-29T07:29:30Z</time>
      </trkpt>
      <trkpt lat="41.322794" lon="1.79084">
        <ele>204.032</ele>
        <time>2017-04-29T07:29:33Z</time>
      </trkpt>
      <trkpt lat="41.322819" lon="1.791">
        <ele>205.081</ele>
        <time>2017-04-29T07:29:36Z</time>
      </trkpt>
      <trkpt lat="41.322819" lon="1.79118">
        <ele>205.081</ele>
        <time>2017-04-29T07:29:39Z</time>
      </trkpt>
      <trkpt lat="41.322845" lon="1.791314">
        <ele>204.022</ele>
        <time>2017-04-29T07:29:42Z</time>
      </trkpt>
      <trkpt lat="41.322903" lon="1.791406">
        <ele>204.099</ele>
        <time>2017-04-29T07:29:45Z</time>
      </trkpt>
      <trkpt lat="41.323015" lon="1.791418">
        <ele>204.052</ele>
        <time>2017-04-29T07:29:48Z</time>
      </trkpt>
      <trkpt lat="41.323125" lon="1.79135">
        <ele>204.053</ele>
        <time>2017-04-29T07:29:51Z</time>
      </trkpt>
      <trkpt lat="41.323187" lon="1.791246">
        <ele>204.008</ele>
        <time>2017-04-29T07:29:54Z</time>
      </trkpt>
      <trkpt lat="41.323199" lon="1.7911">
        <ele>204.008</ele>
        <time>2017-04-29T07:29:57Z</time>
      </trkpt>
      <trkpt lat="41.323191" lon="1.79094">
        <ele>203.066</ele>
        <time>2017-04-29T07:30:00Z</time>
      </trkpt>
      <trkpt lat="41.323218" lon="1.79078">
        <ele>203.012</ele>
        <time>2017-04-29T07:30:03Z</time>
      </trkpt>
      <trkpt lat="41.323276" lon="1.790685">
        <ele>203.049</ele>
        <time>2017-04-29T07:30:05Z</time>
      </trkpt>
      <trkpt lat="41.323326" lon="1.790544">
        <ele>202.052</ele>
        <time>2017-04-29T07:30:08Z</time>
      </trkpt>
      <trkpt lat="41.323285" lon="1.790395">
        <ele>201.051</ele>
        <time>2017-04-29T07:30:12Z</time>
      </trkpt>
      <trkpt lat="41.32321" lon="1.790286">
        <ele>200.031</ele>
        <time>2017-04-29T07:30:15Z</time>
      </trkpt>
      <trkpt lat="41.323108" lon="1.790174">
        <ele>200.062</ele>
        <time>2017-04-29T07:30:18Z</time>
      </trkpt>
      <trkpt lat="41.323076" lon="1.790058">
        <ele>201.039</ele>
        <time>2017-04-29T07:30:20Z</time>
      </trkpt>
      <trkpt lat="41.323103" lon="1.789941">
        <ele>200.078</ele>
        <time>2017-04-29T07:30:23Z</time>
      </trkpt>
      <trkpt lat="41.323176" lon="1.789851">
        <ele>199.033</ele>
        <time>2017-04-29T07:30:25Z</time>
      </trkpt>
      <trkpt lat="41.323252" lon="1.789761">
        <ele>198.026</ele>
        <time>2017-04-29T07:30:27Z</time>
      </trkpt>
      <trkpt lat="41.323338" lon="1.789679">
        <ele>199.008</ele>
        <time>2017-04-29T07:30:29Z</time>
      </trkpt>
      <trkpt lat="41.323428" lon="1.78959">
        <ele>200.058</ele>
        <time>2017-04-29T07:30:31Z</time>
      </trkpt>
      <trkpt lat="41.323514" lon="1.789512">
        <ele>198.084</ele>
        <time>2017-04-29T07:30:33Z</time>
      </trkpt>
      <trkpt lat="41.323612" lon="1.789449">
        <ele>197.061</ele>
        <time>2017-04-29T07:30:35Z</time>
      </trkpt>
      <trkpt lat="41.323721" lon="1.789354">
        <ele>197.084</ele>
        <time>2017-04-29T07:30:37Z</time>
      </trkpt>
      <trkpt lat="41.323822" lon="1.789273">
        <ele>196.073</ele>
        <time>2017-04-29T07:30:39Z</time>
      </trkpt>
      <trkpt lat="41.32392" lon="1.789207">
        <ele>196.083</ele>
        <time>2017-04-29T07:30:41Z</time>
      </trkpt>
      <trkpt lat="41.324014" lon="1.78913">
        <ele>196.054</ele>
        <time>2017-04-29T07:30:43Z</time>
      </trkpt>
      <trkpt lat="41.32409" lon="1.789059">
        <ele>196.081</ele>
        <time>2017-04-29T07:30:45Z</time>
      </trkpt>
      <trkpt lat="41.324194" lon="1.788991">
        <ele>195.066</ele>
        <time>2017-04-29T07:30:48Z</time>
      </trkpt>
      <trkpt lat="41.324282" lon="1.788928">
        <ele>195.029</ele>
        <time>2017-04-29T07:30:50Z</time>
      </trkpt>
      <trkpt lat="41.324359" lon="1.78886">
        <ele>195.021</ele>
        <time>2017-04-29T07:30:52Z</time>
      </trkpt>
      <trkpt lat="41.324473" lon="1.788777">
        <ele>194.008</ele>
        <time>2017-04-29T07:30:55Z</time>
      </trkpt>
      <trkpt lat="41.324547" lon="1.788708">
        <ele>194.087</ele>
        <time>2017-04-29T07:30:57Z</time>
      </trkpt>
      <trkpt lat="41.324671" lon="1.788612">
        <ele>198.093</ele>
        <time>2017-04-29T07:31:00Z</time>
      </trkpt>
      <trkpt lat="41.324743" lon="1.788531">
        <ele>199.03</ele>
        <time>2017-04-29T07:31:02Z</time>
      </trkpt>
      <trkpt lat="41.32482" lon="1.788447">
        <ele>197.013</ele>
        <time>2017-04-29T07:31:04Z</time>
      </trkpt>
      <trkpt lat="41.324912" lon="1.788361">
        <ele>198.052</ele>
        <time>2017-04-29T07:31:06Z</time>
      </trkpt>
      <trkpt lat="41.324996" lon="1.788279">
        <ele>197.052</ele>
        <time>2017-04-29T07:31:08Z</time>
      </trkpt>
      <trkpt lat="41.325078" lon="1.788202">
        <ele>197.093</ele>
        <time>2017-04-29T07:31:10Z</time>
      </trkpt>
      <trkpt lat="41.325157" lon="1.788132">
        <ele>196.07</ele>
        <time>2017-04-29T07:31:12Z</time>
      </trkpt>
      <trkpt lat="41.325245" lon="1.788081">
        <ele>196.064</ele>
        <time>2017-04-29T07:31:14Z</time>
      </trkpt>
      <trkpt lat="41.325343" lon="1.788005">
        <ele>197.006</ele>
        <time>2017-04-29T07:31:18Z</time>
      </trkpt>
      <trkpt lat="41.3254" lon="1.787909">
        <ele>197.016</ele>
        <time>2017-04-29T07:31:30Z</time>
      </trkpt>
      <trkpt lat="41.325455" lon="1.787804">
        <ele>199.008</ele>
        <time>2017-04-29T07:31:37Z</time>
      </trkpt>
      <trkpt lat="41.325518" lon="1.787718">
        <ele>199.037</ele>
        <time>2017-04-29T07:33:11Z</time>
      </trkpt>
      <trkpt lat="41.325605" lon="1.787671">
        <ele>200.043</ele>
        <time>2017-04-29T07:33:22Z</time>
      </trkpt>
      <trkpt lat="41.325701" lon="1.787622">
        <ele>202.04</ele>
        <time>2017-04-29T07:37:50Z</time>
      </trkpt>
      <trkpt lat="41.325784" lon="1.78754">
        <ele>204.013</ele>
        <time>2017-04-29T07:37:56Z</time>
      </trkpt>
      <trkpt lat="41.325873" lon="1.787468">
        <ele>203.032</ele>
        <time>2017-04-29T07:38:00Z</time>
      </trkpt>
      <trkpt lat="41.325954" lon="1.787395">
        <ele>202.092</ele>
        <time>2017-04-29T07:38:08Z</time>
      </trkpt>
      <trkpt lat="41.326019" lon="1.78731">
        <ele>199.073</ele>
        <time>2017-04-29T07:38:25Z</time>
      </trkpt>
      <trkpt lat="41.326078" lon="1.787197">
        <ele>202.03</ele>
        <time>2017-04-29T07:38:31Z</time>
      </trkpt>
      <trkpt lat="41.326103" lon="1.787056">
        <ele>202.071</ele>
        <time>2017-04-29T07:38:36Z</time>
      </trkpt>
      <trkpt lat="41.326115" lon="1.786923">
        <ele>202.041</ele>
        <time>2017-04-29T07:38:40Z</time>
      </trkpt>
      <trkpt lat="41.326096" lon="1.786773">
        <ele>202.015</ele>
        <time>2017-04-29T07:38:44Z</time>
      </trkpt>
      <trkpt lat="41.326086" lon="1.786616">
        <ele>202.008</ele>
        <time>2017-04-29T07:38:48Z</time>
      </trkpt>
      <trkpt lat="41.326073" lon="1.786487">
        <ele>202.098</ele>
        <time>2017-04-29T07:38:51Z</time>
      </trkpt>
      <trkpt lat="41.326071" lon="1.78634">
        <ele>201.054</ele>
        <time>2017-04-29T07:38:55Z</time>
      </trkpt>
      <trkpt lat="41.326071" lon="1.786191">
        <ele>202.021</ele>
        <time>2017-04-29T07:38:59Z</time>
      </trkpt>
      <trkpt lat="41.326103" lon="1.786032">
        <ele>203.074</ele>
        <time>2017-04-29T07:39:03Z</time>
      </trkpt>
      <trkpt lat="41.326148" lon="1.785899">
        <ele>201.073</ele>
        <time>2017-04-29T07:39:06Z</time>
      </trkpt>
      <trkpt lat="41.326222" lon="1.785764">
        <ele>201.013</ele>
        <time>2017-04-29T07:39:09Z</time>
      </trkpt>
      <trkpt lat="41.326313" lon="1.785641">
        <ele>201.034</ele>
        <time>2017-04-29T07:39:12Z</time>
      </trkpt>
      <trkpt lat="41.326412" lon="1.78554">
        <ele>203.071</ele>
        <time>2017-04-29T07:39:15Z</time>
      </trkpt>
      <trkpt lat="41.326523" lon="1.785514">
        <ele>205.015</ele>
        <time>2017-04-29T07:39:18Z</time>
      </trkpt>
      <trkpt lat="41.326627" lon="1.785519">
        <ele>204.065</ele>
        <time>2017-04-29T07:39:21Z</time>
      </trkpt>
      <trkpt lat="41.326734" lon="1.785558">
        <ele>204.011</ele>
        <time>2017-04-29T07:39:24Z</time>
      </trkpt>
      <trkpt lat="41.326825" lon="1.785623">
        <ele>205.008</ele>
        <time>2017-04-29T07:39:27Z</time>
      </trkpt>
      <trkpt lat="41.32691" lon="1.785695">
        <ele>205.082</ele>
        <time>2017-04-29T07:39:32Z</time>
      </trkpt>
      <trkpt lat="41.32699" lon="1.785803">
        <ele>203.078</ele>
        <time>2017-04-29T07:39:36Z</time>
      </trkpt>
      <trkpt lat="41.327065" lon="1.785907">
        <ele>202.035</ele>
        <time>2017-04-29T07:39:40Z</time>
      </trkpt>
      <trkpt lat="41.327134" lon="1.786019">
        <ele>200.038</ele>
        <time>2017-04-29T07:39:43Z</time>
      </trkpt>
      <trkpt lat="41.327207" lon="1.78613">
        <ele>200.037</ele>
        <time>2017-04-29T07:39:46Z</time>
      </trkpt>
      <trkpt lat="41.327287" lon="1.786238">
        <ele>200.057</ele>
        <time>2017-04-29T07:39:49Z</time>
      </trkpt>
      <trkpt lat="41.327372" lon="1.786356">
        <ele>201.018</ele>
        <time>2017-04-29T07:39:52Z</time>
      </trkpt>
      <trkpt lat="41.327456" lon="1.786486">
        <ele>200.055</ele>
        <time>2017-04-29T07:39:55Z</time>
      </trkpt>
      <trkpt lat="41.327537" lon="1.786628">
        <ele>200.023</ele>
        <time>2017-04-29T07:39:58Z</time>
      </trkpt>
      <trkpt lat="41.327612" lon="1.786773">
        <ele>201.083</ele>
        <time>2017-04-29T07:40:01Z</time>
      </trkpt>
      <trkpt lat="41.327651" lon="1.786908">
        <ele>201.011</ele>
        <time>2017-04-29T07:40:04Z</time>
      </trkpt>
      <trkpt lat="41.327704" lon="1.787034">
        <ele>202.008</ele>
        <time>2017-04-29T07:40:07Z</time>
      </trkpt>
      <trkpt lat="41.327729" lon="1.787169">
        <ele>202.053</ele>
        <time>2017-04-29T07:40:10Z</time>
      </trkpt>
      <trkpt lat="41.327775" lon="1.787306">
        <ele>202.099</ele>
        <time>2017-04-29T07:40:12Z</time>
      </trkpt>
      <trkpt lat="41.327844" lon="1.787442">
        <ele>201.016</ele>
        <time>2017-04-29T07:40:15Z</time>
      </trkpt>
      <trkpt lat="41.327897" lon="1.787542">
        <ele>200.079</ele>
        <time>2017-04-29T07:40:17Z</time>
      </trkpt>
      <trkpt lat="41.327971" lon="1.787639">
        <ele>199.018</ele>
        <time>2017-04-29T07:40:19Z</time>
      </trkpt>
      <trkpt lat="41.328041" lon="1.78773">
        <ele>199.048</ele>
        <time>2017-04-29T07:40:21Z</time>
      </trkpt>
      <trkpt lat="41.328096" lon="1.787833">
        <ele>200.089</ele>
        <time>2017-04-29T07:40:24Z</time>
      </trkpt>
      <trkpt lat="41.328118" lon="1.787976">
        <ele>203.076</ele>
        <time>2017-04-29T07:40:28Z</time>
      </trkpt>
      <trkpt lat="41.328138" lon="1.788128">
        <ele>203.023</ele>
        <time>2017-04-29T07:40:32Z</time>
      </trkpt>
      <trkpt lat="41.328196" lon="1.788271">
        <ele>203.083</ele>
        <time>2017-04-29T07:40:36Z</time>
      </trkpt>
      <trkpt lat="41.32824" lon="1.788397">
        <ele>203.011</ele>
        <time>2017-04-29T07:40:39Z</time>
      </trkpt>
      <trkpt lat="41.328305" lon="1.788529">
        <ele>204.008</ele>
        <time>2017-04-29T07:40:42Z</time>
      </trkpt>
      <trkpt lat="41.328387" lon="1.788635">
        <ele>203.093</ele>
        <time>2017-04-29T07:40:45Z</time>
      </trkpt>
      <trkpt lat="41.328479" lon="1.788731">
        <ele>205.089</ele>
        <time>2017-04-29T07:40:48Z</time>
      </trkpt>
      <trkpt lat="41.328596" lon="1.788828">
        <ele>204.086</ele>
        <time>2017-04-29T07:40:51Z</time>
      </trkpt>
      <trkpt lat="41.32868" lon="1.788885">
        <ele>204.019</ele>
        <time>2017-04-29T07:40:53Z</time>
      </trkpt>
      <trkpt lat="41.328771" lon="1.78893">
        <ele>203.078</ele>
        <time>2017-04-29T07:40:56Z</time>
      </trkpt>
      <trkpt lat="41.328837" lon="1.789034">
        <ele>202.048</ele>
        <time>2017-04-29T07:41:00Z</time>
      </trkpt>
      <trkpt lat="41.328924" lon="1.789122">
        <ele>205.099</ele>
        <time>2017-04-29T07:41:04Z</time>
      </trkpt>
      <trkpt lat="41.329016" lon="1.789191">
        <ele>206.076</ele>
        <time>2017-04-29T07:41:10Z</time>
      </trkpt>
      <trkpt lat="41.329082" lon="1.789286">
        <ele>206.096</ele>
        <time>2017-04-29T07:41:14Z</time>
      </trkpt>
      <trkpt lat="41.329108" lon="1.78942">
        <ele>206.031</ele>
        <time>2017-04-29T07:41:19Z</time>
      </trkpt>
      <trkpt lat="41.329098" lon="1.789565">
        <ele>207.024</ele>
        <time>2017-04-29T07:41:25Z</time>
      </trkpt>
      <trkpt lat="41.329091" lon="1.789687">
        <ele>207.008</ele>
        <time>2017-04-29T07:41:29Z</time>
      </trkpt>
      <trkpt lat="41.329072" lon="1.789816">
        <ele>207.08</ele>
        <time>2017-04-29T07:41:33Z</time>
      </trkpt>
      <trkpt lat="41.329047" lon="1.789992">
        <ele>205.046</ele>
        <time>2017-04-29T07:41:37Z</time>
      </trkpt>
      <trkpt lat="41.329038" lon="1.790147">
        <ele>206.073</ele>
        <time>2017-04-29T07:41:41Z</time>
      </trkpt>
      <trkpt lat="41.329025" lon="1.790295">
        <ele>206.086</ele>
        <time>2017-04-29T07:41:46Z</time>
      </trkpt>
      <trkpt lat="41.32904" lon="1.790439">
        <ele>206.045</ele>
        <time>2017-04-29T07:41:50Z</time>
      </trkpt>
      <trkpt lat="41.329059" lon="1.79056">
        <ele>207.035</ele>
        <time>2017-04-29T07:41:53Z</time>
      </trkpt>
      <trkpt lat="41.329104" lon="1.790667">
        <ele>209.046</ele>
        <time>2017-04-29T07:41:56Z</time>
      </trkpt>
      <trkpt lat="41.329164" lon="1.790762">
        <ele>209.063</ele>
        <time>2017-04-29T07:41:59Z</time>
      </trkpt>
      <trkpt lat="41.32922" lon="1.790871">
        <ele>209.022</ele>
        <time>2017-04-29T07:42:02Z</time>
      </trkpt>
      <trkpt lat="41.329275" lon="1.790986">
        <ele>208.062</ele>
        <time>2017-04-29T07:42:05Z</time>
      </trkpt>
      <trkpt lat="41.32933" lon="1.791108">
        <ele>209.008</ele>
        <time>2017-04-29T07:42:08Z</time>
      </trkpt>
      <trkpt lat="41.329336" lon="1.791239">
        <ele>211.008</ele>
        <time>2017-04-29T07:42:11Z</time>
      </trkpt>
      <trkpt lat="41.329258" lon="1.791327">
        <ele>210.053</ele>
        <time>2017-04-29T07:42:14Z</time>
      </trkpt>
      <trkpt lat="41.329156" lon="1.79132">
        <ele>210.019</ele>
        <time>2017-04-29T07:42:17Z</time>
      </trkpt>
      <trkpt lat="41.329076" lon="1.791221">
        <ele>213.056</ele>
        <time>2017-04-29T07:42:20Z</time>
      </trkpt>
      <trkpt lat="41.329003" lon="1.791128">
        <ele>214.019</ele>
        <time>2017-04-29T07:42:24Z</time>
      </trkpt>
      <trkpt lat="41.328913" lon="1.79107">
        <ele>214.038</ele>
        <time>2017-04-29T07:42:27Z</time>
      </trkpt>
      <trkpt lat="41.328819" lon="1.790996">
        <ele>215.078</ele>
        <time>2017-04-29T07:42:30Z</time>
      </trkpt>
      <trkpt lat="41.328736" lon="1.790903">
        <ele>217.099</ele>
        <time>2017-04-29T07:42:33Z</time>
      </trkpt>
      <trkpt lat="41.328648" lon="1.790812">
        <ele>218.076</ele>
        <time>2017-04-29T07:42:36Z</time>
      </trkpt>
      <trkpt lat="41.328568" lon="1.790728">
        <ele>219.053</ele>
        <time>2017-04-29T07:42:39Z</time>
      </trkpt>
      <trkpt lat="41.328494" lon="1.790629">
        <ele>220.004</ele>
        <time>2017-04-29T07:42:42Z</time>
      </trkpt>
      <trkpt lat="41.328404" lon="1.790584">
        <ele>218.014</ele>
        <time>2017-04-29T07:42:45Z</time>
      </trkpt>
      <trkpt lat="41.328299" lon="1.790536">
        <ele>219.008</ele>
        <time>2017-04-29T07:42:48Z</time>
      </trkpt>
      <trkpt lat="41.32818" lon="1.790512">
        <ele>218.026</ele>
        <time>2017-04-29T07:42:51Z</time>
      </trkpt>
      <trkpt lat="41.32806" lon="1.790535">
        <ele>220.012</ele>
        <time>2017-04-29T07:42:54Z</time>
      </trkpt>
      <trkpt lat="41.32795" lon="1.790583">
        <ele>219.019</ele>
        <time>2017-04-29T07:42:57Z</time>
      </trkpt>
      <trkpt lat="41.327852" lon="1.790647">
        <ele>221.092</ele>
        <time>2017-04-29T07:43:00Z</time>
      </trkpt>
      <trkpt lat="41.327757" lon="1.790713">
        <ele>224.081</ele>
        <time>2017-04-29T07:43:03Z</time>
      </trkpt>
      <trkpt lat="41.327696" lon="1.790824">
        <ele>226.041</ele>
        <time>2017-04-29T07:43:06Z</time>
      </trkpt>
      <trkpt lat="41.327663" lon="1.790959">
        <ele>227.012</ele>
        <time>2017-04-29T07:43:10Z</time>
      </trkpt>
      <trkpt lat="41.327621" lon="1.791077">
        <ele>228.059</ele>
        <time>2017-04-29T07:43:14Z</time>
      </trkpt>
      <trkpt lat="41.327631" lon="1.79122">
        <ele>228.055</ele>
        <time>2017-04-29T07:43:18Z</time>
      </trkpt>
      <trkpt lat="41.327655" lon="1.791362">
        <ele>232.007</ele>
        <time>2017-04-29T07:43:23Z</time>
      </trkpt>
      <trkpt lat="41.327703" lon="1.791479">
        <ele>231.017</ele>
        <time>2017-04-29T07:43:27Z</time>
      </trkpt>
      <trkpt lat="41.327763" lon="1.79158">
        <ele>234.008</ele>
        <time>2017-04-29T07:43:32Z</time>
      </trkpt>
      <trkpt lat="41.327844" lon="1.791658">
        <ele>235.026</ele>
        <time>2017-04-29T07:43:37Z</time>
      </trkpt>
      <trkpt lat="41.327932" lon="1.791717">
        <ele>234.092</ele>
        <time>2017-04-29T07:43:41Z</time>
      </trkpt>
      <trkpt lat="41.328028" lon="1.79176">
        <ele>238.099</ele>
        <time>2017-04-29T07:43:46Z</time>
      </trkpt>
      <trkpt lat="41.328116" lon="1.791805">
        <ele>238.092</ele>
        <time>2017-04-29T07:43:50Z</time>
      </trkpt>
      <trkpt lat="41.328205" lon="1.791833">
        <ele>237.031</ele>
        <time>2017-04-29T07:43:55Z</time>
      </trkpt>
      <trkpt lat="41.328292" lon="1.791886">
        <ele>237.011</ele>
        <time>2017-04-29T07:43:59Z</time>
      </trkpt>
      <trkpt lat="41.328377" lon="1.791975">
        <ele>235.052</ele>
        <time>2017-04-29T07:44:02Z</time>
      </trkpt>
      <trkpt lat="41.328468" lon="1.792018">
        <ele>235.089</ele>
        <time>2017-04-29T07:44:04Z</time>
      </trkpt>
      <trkpt lat="41.328575" lon="1.792019">
        <ele>235.076</ele>
        <time>2017-04-29T07:44:06Z</time>
      </trkpt>
      <trkpt lat="41.328706" lon="1.791972">
        <ele>235.09</ele>
        <time>2017-04-29T07:44:09Z</time>
      </trkpt>
      <trkpt lat="41.328817" lon="1.792016">
        <ele>234.019</ele>
        <time>2017-04-29T07:44:12Z</time>
      </trkpt>
      <trkpt lat="41.328898" lon="1.792103">
        <ele>231.008</ele>
        <time>2017-04-29T07:44:14Z</time>
      </trkpt>
      <trkpt lat="41.328998" lon="1.792166">
        <ele>230.018</ele>
        <time>2017-04-29T07:44:16Z</time>
      </trkpt>
      <trkpt lat="41.3291" lon="1.792212">
        <ele>229.094</ele>
        <time>2017-04-29T07:44:18Z</time>
      </trkpt>
      <trkpt lat="41.329188" lon="1.792277">
        <ele>229.061</ele>
        <time>2017-04-29T07:44:20Z</time>
      </trkpt>
      <trkpt lat="41.329277" lon="1.792335">
        <ele>229.044</ele>
        <time>2017-04-29T07:44:22Z</time>
      </trkpt>
      <trkpt lat="41.329388" lon="1.792399">
        <ele>229.063</ele>
        <time>2017-04-29T07:44:25Z</time>
      </trkpt>
      <trkpt lat="41.329499" lon="1.792499">
        <ele>227.033</ele>
        <time>2017-04-29T07:44:28Z</time>
      </trkpt>
      <trkpt lat="41.329575" lon="1.79263">
        <ele>225.064</ele>
        <time>2017-04-29T07:44:31Z</time>
      </trkpt>
      <trkpt lat="41.329625" lon="1.792777">
        <ele>223.081</ele>
        <time>2017-04-29T07:44:34Z</time>
      </trkpt>
      <trkpt lat="41.329631" lon="1.792924">
        <ele>222.011</ele>
        <time>2017-04-29T07:44:36Z</time>
      </trkpt>
      <trkpt lat="41.329633" lon="1.793056">
        <ele>221.021</ele>
        <time>2017-04-29T07:44:38Z</time>
      </trkpt>
      <trkpt lat="41.329638" lon="1.79321">
        <ele>220.003</ele>
        <time>2017-04-29T07:44:41Z</time>
      </trkpt>
      <trkpt lat="41.329675" lon="1.793351">
        <ele>216.008</ele>
        <time>2017-04-29T07:44:45Z</time>
      </trkpt>
      <trkpt lat="41.329742" lon="1.793474">
        <ele>217.042</ele>
        <time>2017-04-29T07:44:48Z</time>
      </trkpt>
      <trkpt lat="41.32976" lon="1.7936">
        <ele>216.048</ele>
        <time>2017-04-29T07:44:52Z</time>
      </trkpt>
      <trkpt lat="41.329774" lon="1.793734">
        <ele>217.085</ele>
        <time>2017-04-29T07:44:56Z</time>
      </trkpt>
      <trkpt lat="41.329808" lon="1.793871">
        <ele>218.018</ele>
        <time>2017-04-29T07:45:01Z</time>
      </trkpt>
      <trkpt lat="41.329883" lon="1.793967">
        <ele>221.087</ele>
        <time>2017-04-29T07:45:06Z</time>
      </trkpt>
      <trkpt lat="41.329959" lon="1.794039">
        <ele>227.087</ele>
        <time>2017-04-29T07:48:34Z</time>
      </trkpt>
      <trkpt lat="41.330026" lon="1.794118">
        <ele>230.088</ele>
        <time>2017-04-29T07:48:47Z</time>
      </trkpt>
      <trkpt lat="41.330106" lon="1.794187">
        <ele>230.035</ele>
        <time>2017-04-29T07:48:54Z</time>
      </trkpt>
      <trkpt lat="41.330175" lon="1.794272">
        <ele>233.097</ele>
        <time>2017-04-29T07:48:58Z</time>
      </trkpt>
      <trkpt lat="41.330283" lon="1.794317">
        <ele>234.023</ele>
        <time>2017-04-29T07:49:03Z</time>
      </trkpt>
      <trkpt lat="41.330394" lon="1.79436">
        <ele>235.025</ele>
        <time>2017-04-29T07:49:08Z</time>
      </trkpt>
      <trkpt lat="41.330482" lon="1.794425">
        <ele>232.008</ele>
        <time>2017-04-29T07:49:11Z</time>
      </trkpt>
      <trkpt lat="41.330602" lon="1.79448">
        <ele>232.07</ele>
        <time>2017-04-29T07:49:14Z</time>
      </trkpt>
      <trkpt lat="41.330723" lon="1.794539">
        <ele>232.016</ele>
        <time>2017-04-29T07:49:17Z</time>
      </trkpt>
      <trkpt lat="41.330816" lon="1.79459">
        <ele>231.063</ele>
        <time>2017-04-29T07:49:19Z</time>
      </trkpt>
      <trkpt lat="41.33095" lon="1.794625">
        <ele>230.056</ele>
        <time>2017-04-29T07:49:22Z</time>
      </trkpt>
      <trkpt lat="41.33105" lon="1.794621">
        <ele>230.045</ele>
        <time>2017-04-29T07:49:24Z</time>
      </trkpt>
      <trkpt lat="41.331176" lon="1.794591">
        <ele>228.015</ele>
        <time>2017-04-29T07:49:27Z</time>
      </trkpt>
      <trkpt lat="41.331284" lon="1.794608">
        <ele>228.086</ele>
        <time>2017-04-29T07:49:31Z</time>
      </trkpt>
      <trkpt lat="41.331381" lon="1.794637">
        <ele>226.013</ele>
        <time>2017-04-29T07:49:37Z</time>
      </trkpt>
      <trkpt lat="41.331479" lon="1.794638">
        <ele>227.032</ele>
        <time>2017-04-29T07:49:42Z</time>
      </trkpt>
      <trkpt lat="41.331585" lon="1.794613">
        <ele>227.092</ele>
        <time>2017-04-29T07:49:47Z</time>
      </trkpt>
      <trkpt lat="41.331689" lon="1.794588">
        <ele>230.011</ele>
        <time>2017-04-29T07:49:52Z</time>
      </trkpt>
      <trkpt lat="41.331779" lon="1.794571">
        <ele>230.008</ele>
        <time>2017-04-29T07:49:56Z</time>
      </trkpt>
      <trkpt lat="41.331878" lon="1.79452">
        <ele>230.074</ele>
        <time>2017-04-29T07:50:00Z</time>
      </trkpt>
      <trkpt lat="41.33198" lon="1.794481">
        <ele>230.02</ele>
        <time>2017-04-29T07:50:04Z</time>
      </trkpt>
      <trkpt lat="41.33206" lon="1.794394">
        <ele>229.097</ele>
        <time>2017-04-29T07:50:08Z</time>
      </trkpt>
      <trkpt lat="41.332152" lon="1.794358">
        <ele>231.09</ele>
        <time>2017-04-29T07:50:12Z</time>
      </trkpt>
      <trkpt lat="41.332242" lon="1.794347">
        <ele>231.089</ele>
        <time>2017-04-29T07:50:16Z</time>
      </trkpt>
      <trkpt lat="41.332353" lon="1.794327">
        <ele>231.069</ele>
        <time>2017-04-29T07:50:21Z</time>
      </trkpt>
      <trkpt lat="41.332468" lon="1.794335">
        <ele>230.01</ele>
        <time>2017-04-29T07:50:26Z</time>
      </trkpt>
      <trkpt lat="41.332592" lon="1.794323">
        <ele>231.027</ele>
        <time>2017-04-29T07:50:30Z</time>
      </trkpt>
      <trkpt lat="41.332691" lon="1.794318">
        <ele>232.068</ele>
        <time>2017-04-29T07:50:34Z</time>
      </trkpt>
      <trkpt lat="41.33279" lon="1.794324">
        <ele>232.042</ele>
        <time>2017-04-29T07:50:37Z</time>
      </trkpt>
      <trkpt lat="41.332909" lon="1.794307">
        <ele>231.026</ele>
        <time>2017-04-29T07:50:40Z</time>
      </trkpt>
      <trkpt lat="41.333015" lon="1.794238">
        <ele>230.008</ele>
        <time>2017-04-29T07:50:43Z</time>
      </trkpt>
      <trkpt lat="41.333104" lon="1.794171">
        <ele>231.027</ele>
        <time>2017-04-29T07:50:47Z</time>
      </trkpt>
      <trkpt lat="41.333209" lon="1.794104">
        <ele>232.013</ele>
        <time>2017-04-29T07:50:52Z</time>
      </trkpt>
      <trkpt lat="41.333257" lon="1.793995">
        <ele>232.06</ele>
        <time>2017-04-29T07:50:57Z</time>
      </trkpt>
      <trkpt lat="41.333283" lon="1.793854">
        <ele>234.063</ele>
        <time>2017-04-29T07:51:02Z</time>
      </trkpt>
      <trkpt lat="41.333297" lon="1.79373">
        <ele>236.022</ele>
        <time>2017-04-29T07:51:06Z</time>
      </trkpt>
      <trkpt lat="41.333316" lon="1.793572">
        <ele>236.092</ele>
        <time>2017-04-29T07:51:10Z</time>
      </trkpt>
      <trkpt lat="41.333329" lon="1.793439">
        <ele>236.093</ele>
        <time>2017-04-29T07:51:14Z</time>
      </trkpt>
      <trkpt lat="41.333372" lon="1.79332">
        <ele>236.09</ele>
        <time>2017-04-29T07:51:18Z</time>
      </trkpt>
      <trkpt lat="41.333437" lon="1.79322">
        <ele>238.092</ele>
        <time>2017-04-29T07:51:24Z</time>
      </trkpt>
      <trkpt lat="41.333501" lon="1.793123">
        <ele>238.073</ele>
        <time>2017-04-29T07:51:29Z</time>
      </trkpt>
      <trkpt lat="41.333575" lon="1.793013">
        <ele>242.02</ele>
        <time>2017-04-29T07:51:35Z</time>
      </trkpt>
      <trkpt lat="41.333654" lon="1.792894">
        <ele>240.008</ele>
        <time>2017-04-29T07:51:39Z</time>
      </trkpt>
      <trkpt lat="41.333739" lon="1.792839">
        <ele>233.09</ele>
        <time>2017-04-29T07:51:42Z</time>
      </trkpt>
      <trkpt lat="41.333813" lon="1.792935">
        <ele>232.046</ele>
        <time>2017-04-29T07:51:45Z</time>
      </trkpt>
      <trkpt lat="41.33389" lon="1.793026">
        <ele>231.023</ele>
        <time>2017-04-29T07:51:48Z</time>
      </trkpt>
      <trkpt lat="41.333907" lon="1.793149">
        <ele>231.076</ele>
        <time>2017-04-29T07:52:02Z</time>
      </trkpt>
      <trkpt lat="41.333967" lon="1.793244">
        <ele>233.035</ele>
        <time>2017-04-29T07:52:24Z</time>
      </trkpt>
      <trkpt lat="41.333997" lon="1.793372">
        <ele>236.035</ele>
        <time>2017-04-29T07:52:32Z</time>
      </trkpt>
      <trkpt lat="41.334066" lon="1.793453">
        <ele>244.046</ele>
        <time>2017-04-29T07:52:41Z</time>
      </trkpt>
      <trkpt lat="41.33412" lon="1.793556">
        <ele>242.053</ele>
        <time>2017-04-29T07:52:51Z</time>
      </trkpt>
      <trkpt lat="41.334188" lon="1.793663">
        <ele>241.015</ele>
        <time>2017-04-29T07:52:57Z</time>
      </trkpt>
      <trkpt lat="41.334264" lon="1.793737">
        <ele>242.065</ele>
        <time>2017-04-29T07:53:01Z</time>
      </trkpt>
      <trkpt lat="41.334345" lon="1.793852">
        <ele>240.011</ele>
        <time>2017-04-29T07:53:05Z</time>
      </trkpt>
      <trkpt lat="41.334407" lon="1.79394">
        <ele>239.008</ele>
        <time>2017-04-29T07:53:08Z</time>
      </trkpt>
      <trkpt lat="41.334489" lon="1.794026">
        <ele>239.032</ele>
        <time>2017-04-29T07:53:12Z</time>
      </trkpt>
      <trkpt lat="41.334576" lon="1.794088">
        <ele>238.028</ele>
        <time>2017-04-29T07:53:16Z</time>
      </trkpt>
      <trkpt lat="41.334682" lon="1.794153">
        <ele>238.065</ele>
        <time>2017-04-29T07:53:20Z</time>
      </trkpt>
      <trkpt lat="41.334783" lon="1.794207">
        <ele>240.048</ele>
        <time>2017-04-29T07:53:24Z</time>
      </trkpt>
      <trkpt lat="41.334882" lon="1.794246">
        <ele>241.067</ele>
        <time>2017-04-29T07:53:28Z</time>
      </trkpt>
      <trkpt lat="41.334979" lon="1.794253">
        <ele>241.087</ele>
        <time>2017-04-29T07:53:31Z</time>
      </trkpt>
      <trkpt lat="41.335091" lon="1.794194">
        <ele>240.078</ele>
        <time>2017-04-29T07:53:34Z</time>
      </trkpt>
      <trkpt lat="41.335148" lon="1.794075">
        <ele>240.025</ele>
        <time>2017-04-29T07:53:36Z</time>
      </trkpt>
      <trkpt lat="41.335172" lon="1.793945">
        <ele>239.067</ele>
        <time>2017-04-29T07:53:38Z</time>
      </trkpt>
      <trkpt lat="41.335182" lon="1.793818">
        <ele>239.081</ele>
        <time>2017-04-29T07:53:40Z</time>
      </trkpt>
      <trkpt lat="41.335207" lon="1.793652">
        <ele>239.019</ele>
        <time>2017-04-29T07:53:43Z</time>
      </trkpt>
      <trkpt lat="41.335213" lon="1.793494">
        <ele>239.008</ele>
        <time>2017-04-29T07:53:47Z</time>
      </trkpt>
      <trkpt lat="41.33522" lon="1.793335">
        <ele>238.077</ele>
        <time>2017-04-29T07:53:50Z</time>
      </trkpt>
      <trkpt lat="41.335216" lon="1.793169">
        <ele>237.063</ele>
        <time>2017-04-29T07:53:53Z</time>
      </trkpt>
      <trkpt lat="41.33522" lon="1.793">
        <ele>237.04</ele>
        <time>2017-04-29T07:53:56Z</time>
      </trkpt>
      <trkpt lat="41.335255" lon="1.792855">
        <ele>238.063</ele>
        <time>2017-04-29T07:53:59Z</time>
      </trkpt>
      <trkpt lat="41.335321" lon="1.792721">
        <ele>237.052</ele>
        <time>2017-04-29T07:54:02Z</time>
      </trkpt>
      <trkpt lat="41.335328" lon="1.792589">
        <ele>236.012</ele>
        <time>2017-04-29T07:54:05Z</time>
      </trkpt>
      <trkpt lat="41.335348" lon="1.792453">
        <ele>238.023</ele>
        <time>2017-04-29T07:54:08Z</time>
      </trkpt>
      <trkpt lat="41.335382" lon="1.792324">
        <ele>238.06</ele>
        <time>2017-04-29T07:54:11Z</time>
      </trkpt>
      <trkpt lat="41.335436" lon="1.792223">
        <ele>237.045</ele>
        <time>2017-04-29T07:54:16Z</time>
      </trkpt>
      <trkpt lat="41.335523" lon="1.792145">
        <ele>239.047</ele>
        <time>2017-04-29T07:54:20Z</time>
      </trkpt>
      <trkpt lat="41.335608" lon="1.792086">
        <ele>242.011</ele>
        <time>2017-04-29T07:54:23Z</time>
      </trkpt>
      <trkpt lat="41.335706" lon="1.792024">
        <ele>244.008</ele>
        <time>2017-04-29T07:54:26Z</time>
      </trkpt>
      <trkpt lat="41.3358" lon="1.791973">
        <ele>245.075</ele>
        <time>2017-04-29T07:54:29Z</time>
      </trkpt>
      <trkpt lat="41.335879" lon="1.791917">
        <ele>244.031</ele>
        <time>2017-04-29T07:54:32Z</time>
      </trkpt>
      <trkpt lat="41.335981" lon="1.791887">
        <ele>243.058</ele>
        <time>2017-04-29T07:54:35Z</time>
      </trkpt>
      <trkpt lat="41.336088" lon="1.791861">
        <ele>244.041</ele>
        <time>2017-04-29T07:54:38Z</time>
      </trkpt>
      <trkpt lat="41.336185" lon="1.791842">
        <ele>243.06</ele>
        <time>2017-04-29T07:54:42Z</time>
      </trkpt>
      <trkpt lat="41.336284" lon="1.791857">
        <ele>243.02</ele>
        <time>2017-04-29T07:54:45Z</time>
      </trkpt>
      <trkpt lat="41.336361" lon="1.791933">
        <ele>241.091</ele>
        <time>2017-04-29T07:54:48Z</time>
      </trkpt>
      <trkpt lat="41.336427" lon="1.792029">
        <ele>242.078</ele>
        <time>2017-04-29T07:54:51Z</time>
      </trkpt>
      <trkpt lat="41.336472" lon="1.792141">
        <ele>241.042</ele>
        <time>2017-04-29T07:54:54Z</time>
      </trkpt>
      <trkpt lat="41.336504" lon="1.792291">
        <ele>244.022</ele>
        <time>2017-04-29T07:54:57Z</time>
      </trkpt>
      <trkpt lat="41.336494" lon="1.792434">
        <ele>243.014</ele>
        <time>2017-04-29T07:55:00Z</time>
      </trkpt>
      <trkpt lat="41.336452" lon="1.792561">
        <ele>245.008</ele>
        <time>2017-04-29T07:55:03Z</time>
      </trkpt>
      <trkpt lat="41.336421" lon="1.792685">
        <ele>248.025</ele>
        <time>2017-04-29T07:55:05Z</time>
      </trkpt>
      <trkpt lat="41.336424" lon="1.792821">
        <ele>249.061</ele>
        <time>2017-04-29T07:55:08Z</time>
      </trkpt>
      <trkpt lat="41.33642" lon="1.792967">
        <ele>250.048</ele>
        <time>2017-04-29T07:55:11Z</time>
      </trkpt>
      <trkpt lat="41.33642" lon="1.793114">
        <ele>249.011</ele>
        <time>2017-04-29T07:55:14Z</time>
      </trkpt>
      <trkpt lat="41.336419" lon="1.793238">
        <ele>248.02</ele>
        <time>2017-04-29T07:55:17Z</time>
      </trkpt>
      <trkpt lat="41.336387" lon="1.79338">
        <ele>248.09</ele>
        <time>2017-04-29T07:55:22Z</time>
      </trkpt>
      <trkpt lat="41.336375" lon="1.793503">
        <ele>247.011</ele>
        <time>2017-04-29T07:55:25Z</time>
      </trkpt>
      <trkpt lat="41.336349" lon="1.793655">
        <ele>246.058</ele>
        <time>2017-04-29T07:55:29Z</time>
      </trkpt>
      <trkpt lat="41.33632" lon="1.793789">
        <ele>246.092</ele>
        <time>2017-04-29T07:55:32Z</time>
      </trkpt>
      <trkpt lat="41.336284" lon="1.79392">
        <ele>247.073</ele>
        <time>2017-04-29T07:55:35Z</time>
      </trkpt>
      <trkpt lat="41.336258" lon="1.794071">
        <ele>246.02</ele>
        <time>2017-04-29T07:55:38Z</time>
      </trkpt>
      <trkpt lat="41.336275" lon="1.794206">
        <ele>248.008</ele>
        <time>2017-04-29T07:55:41Z</time>
      </trkpt>
      <trkpt lat="41.336317" lon="1.794333">
        <ele>247.09</ele>
        <time>2017-04-29T07:55:44Z</time>
      </trkpt>
      <trkpt lat="41.336368" lon="1.794446">
        <ele>246.026</ele>
        <time>2017-04-29T07:55:48Z</time>
      </trkpt>
      <trkpt lat="41.336421" lon="1.79457">
        <ele>247.033</ele>
        <time>2017-04-29T07:55:54Z</time>
      </trkpt>
      <trkpt lat="41.336517" lon="1.794611">
        <ele>249.046</ele>
        <time>2017-04-29T07:55:58Z</time>
      </trkpt>
      <trkpt lat="41.336614" lon="1.79467">
        <ele>247.055</ele>
        <time>2017-04-29T07:56:02Z</time>
      </trkpt>
      <trkpt lat="41.336706" lon="1.79474">
        <ele>248.075</ele>
        <time>2017-04-29T07:56:06Z</time>
      </trkpt>
      <trkpt lat="41.336792" lon="1.794781">
        <ele>248.056</ele>
        <time>2017-04-29T07:56:09Z</time>
      </trkpt>
      <trkpt lat="41.336883" lon="1.794829">
        <ele>249.093</ele>
        <time>2017-04-29T07:56:12Z</time>
      </trkpt>
      <trkpt lat="41.336971" lon="1.794882">
        <ele>247.068</ele>
        <time>2017-04-29T07:56:15Z</time>
      </trkpt>
      <trkpt lat="41.337075" lon="1.794935">
        <ele>247.042</ele>
        <time>2017-04-29T07:56:18Z</time>
      </trkpt>
      <trkpt lat="41.337191" lon="1.794968">
        <ele>247.026</ele>
        <time>2017-04-29T07:56:21Z</time>
      </trkpt>
      <trkpt lat="41.337284" lon="1.795028">
        <ele>246.008</ele>
        <time>2017-04-29T07:56:24Z</time>
      </trkpt>
      <trkpt lat="41.337378" lon="1.795118">
        <ele>246.037</ele>
        <time>2017-04-29T07:56:28Z</time>
      </trkpt>
      <trkpt lat="41.337446" lon="1.795221">
        <ele>249.093</ele>
        <time>2017-04-29T07:56:32Z</time>
      </trkpt>
      <trkpt lat="41.337527" lon="1.79528">
        <ele>250.08</ele>
        <time>2017-04-29T07:56:36Z</time>
      </trkpt>
      <trkpt lat="41.337617" lon="1.795266">
        <ele>251.063</ele>
        <time>2017-04-29T07:56:40Z</time>
      </trkpt>
      <trkpt lat="41.337714" lon="1.795231">
        <ele>251.052</ele>
        <time>2017-04-29T07:56:46Z</time>
      </trkpt>
      <trkpt lat="41.33783" lon="1.795232">
        <ele>253.032</ele>
        <time>2017-04-29T07:56:51Z</time>
      </trkpt>
      <trkpt lat="41.337936" lon="1.795175">
        <ele>252.063</ele>
        <time>2017-04-29T07:56:55Z</time>
      </trkpt>
      <trkpt lat="41.337991" lon="1.795074">
        <ele>251.03</ele>
        <time>2017-04-29T07:57:01Z</time>
      </trkpt>
      <trkpt lat="41.338061" lon="1.794989">
        <ele>252.028</ele>
        <time>2017-04-29T07:57:05Z</time>
      </trkpt>
      <trkpt lat="41.338117" lon="1.794852">
        <ele>251.089</ele>
        <time>2017-04-29T07:57:09Z</time>
      </trkpt>
      <trkpt lat="41.338159" lon="1.794721">
        <ele>249.017</ele>
        <time>2017-04-29T07:57:13Z</time>
      </trkpt>
      <trkpt lat="41.33813" lon="1.794576">
        <ele>249.008</ele>
        <time>2017-04-29T07:57:17Z</time>
      </trkpt>
      <trkpt lat="41.338126" lon="1.794438">
        <ele>249.063</ele>
        <time>2017-04-29T07:57:21Z</time>
      </trkpt>
      <trkpt lat="41.338097" lon="1.794323">
        <ele>251.049</ele>
        <time>2017-04-29T07:57:24Z</time>
      </trkpt>
      <trkpt lat="41.338061" lon="1.7942">
        <ele>253.056</ele>
        <time>2017-04-29T07:57:28Z</time>
      </trkpt>
      <trkpt lat="41.338031" lon="1.794066">
        <ele>251.059</ele>
        <time>2017-04-29T07:57:32Z</time>
      </trkpt>
      <trkpt lat="41.338011" lon="1.79394">
        <ele>252.058</ele>
        <time>2017-04-29T07:57:36Z</time>
      </trkpt>
      <trkpt lat="41.338032" lon="1.79381">
        <ele>252.058</ele>
        <time>2017-04-29T07:57:40Z</time>
      </trkpt>
      <trkpt lat="41.338096" lon="1.793715">
        <ele>252.089</ele>
        <time>2017-04-29T07:57:44Z</time>
      </trkpt>
      <trkpt lat="41.338183" lon="1.793659">
        <ele>252.076</ele>
        <time>2017-04-29T07:57:49Z</time>
      </trkpt>
      <trkpt lat="41.33827" lon="1.793614">
        <ele>250.082</ele>
        <time>2017-04-29T07:58:48Z</time>
      </trkpt>
      <trkpt lat="41.338333" lon="1.793776">
        <ele>257.043</ele>
        <time>2017-04-29T08:08:32Z</time>
      </trkpt>
      <trkpt lat="41.338402" lon="1.793888">
        <ele>257.017</ele>
        <time>2017-04-29T08:08:36Z</time>
      </trkpt>
      <trkpt lat="41.338477" lon="1.793985">
        <ele>258.008</ele>
        <time>2017-04-29T08:08:41Z</time>
      </trkpt>
      <trkpt lat="41.338556" lon="1.794046">
        <ele>259.089</ele>
        <time>2017-04-29T08:08:46Z</time>
      </trkpt>
      <trkpt lat="41.338593" lon="1.793928">
        <ele>258.085</ele>
        <time>2017-04-29T08:09:22Z</time>
      </trkpt>
      <trkpt lat="41.338585" lon="1.793806">
        <ele>257.012</ele>
        <time>2017-04-29T08:09:26Z</time>
      </trkpt>
      <trkpt lat="41.338628" lon="1.79368">
        <ele>259.045</ele>
        <time>2017-04-29T08:09:31Z</time>
      </trkpt>
      <trkpt lat="41.338664" lon="1.793567">
        <ele>259.084</ele>
        <time>2017-04-29T08:09:37Z</time>
      </trkpt>
      <trkpt lat="41.338744" lon="1.793482">
        <ele>259.084</ele>
        <time>2017-04-29T08:09:42Z</time>
      </trkpt>
      <trkpt lat="41.338835" lon="1.793445">
        <ele>260.035</ele>
        <time>2017-04-29T08:09:46Z</time>
      </trkpt>
      <trkpt lat="41.338936" lon="1.793427">
        <ele>260.072</ele>
        <time>2017-04-29T08:09:51Z</time>
      </trkpt>
      <trkpt lat="41.33904" lon="1.793423">
        <ele>261.059</ele>
        <time>2017-04-29T08:09:56Z</time>
      </trkpt>
      <trkpt lat="41.33914" lon="1.793397">
        <ele>261.003</ele>
        <time>2017-04-29T08:10:01Z</time>
      </trkpt>
      <trkpt lat="41.339211" lon="1.793319">
        <ele>262.023</ele>
        <time>2017-04-29T08:10:06Z</time>
      </trkpt>
      <trkpt lat="41.339288" lon="1.793219">
        <ele>262.008</ele>
        <time>2017-04-29T08:10:10Z</time>
      </trkpt>
      <trkpt lat="41.339361" lon="1.793112">
        <ele>264.066</ele>
        <time>2017-04-29T08:10:15Z</time>
      </trkpt>
      <trkpt lat="41.339455" lon="1.793024">
        <ele>263.052</ele>
        <time>2017-04-29T08:10:19Z</time>
      </trkpt>
      <trkpt lat="41.339533" lon="1.792956">
        <ele>264.049</ele>
        <time>2017-04-29T08:10:22Z</time>
      </trkpt>
      <trkpt lat="41.339615" lon="1.79288">
        <ele>263.022</ele>
        <time>2017-04-29T08:10:26Z</time>
      </trkpt>
      <trkpt lat="41.339721" lon="1.792821">
        <ele>266.051</ele>
        <time>2017-04-29T08:10:31Z</time>
      </trkpt>
      <trkpt lat="41.33981" lon="1.792789">
        <ele>267.081</ele>
        <time>2017-04-29T08:10:34Z</time>
      </trkpt>
      <trkpt lat="41.339914" lon="1.79274">
        <ele>268.072</ele>
        <time>2017-04-29T08:10:38Z</time>
      </trkpt>
      <trkpt lat="41.34001" lon="1.792705">
        <ele>270.049</ele>
        <time>2017-04-29T08:10:42Z</time>
      </trkpt>
      <trkpt lat="41.340104" lon="1.792663">
        <ele>272.091</ele>
        <time>2017-04-29T08:10:45Z</time>
      </trkpt>
      <trkpt lat="41.340206" lon="1.792639">
        <ele>272.081</ele>
        <time>2017-04-29T08:10:48Z</time>
      </trkpt>
      <trkpt lat="41.340327" lon="1.792621">
        <ele>272.019</ele>
        <time>2017-04-29T08:10:51Z</time>
      </trkpt>
      <trkpt lat="41.340463" lon="1.792605">
        <ele>272.008</ele>
        <time>2017-04-29T08:10:54Z</time>
      </trkpt>
      <trkpt lat="41.340589" lon="1.792582">
        <ele>274.03</ele>
        <time>2017-04-29T08:10:57Z</time>
      </trkpt>
      <trkpt lat="41.340714" lon="1.792561">
        <ele>274.016</ele>
        <time>2017-04-29T08:11:00Z</time>
      </trkpt>
      <trkpt lat="41.340816" lon="1.792577">
        <ele>275.043</ele>
        <time>2017-04-29T08:11:03Z</time>
      </trkpt>
      <trkpt lat="41.340908" lon="1.792576">
        <ele>277.046</ele>
        <time>2017-04-29T08:11:06Z</time>
      </trkpt>
      <trkpt lat="41.341012" lon="1.792572">
        <ele>277.035</ele>
        <time>2017-04-29T08:11:10Z</time>
      </trkpt>
      <trkpt lat="41.341119" lon="1.792609">
        <ele>277.055</ele>
        <time>2017-04-29T08:11:14Z</time>
      </trkpt>
      <trkpt lat="41.341221" lon="1.792607">
        <ele>280.096</ele>
        <time>2017-04-29T08:11:19Z</time>
      </trkpt>
      <trkpt lat="41.341321" lon="1.792633">
        <ele>279.083</ele>
        <time>2017-04-29T08:11:24Z</time>
      </trkpt>
      <trkpt lat="41.341409" lon="1.792668">
        <ele>278.082</ele>
        <time>2017-04-29T08:11:28Z</time>
      </trkpt>
      <trkpt lat="41.341505" lon="1.792682">
        <ele>279.043</ele>
        <time>2017-04-29T08:11:32Z</time>
      </trkpt>
      <trkpt lat="41.341596" lon="1.792732">
        <ele>279.017</ele>
        <time>2017-04-29T08:11:36Z</time>
      </trkpt>
      <trkpt lat="41.341712" lon="1.792747">
        <ele>281.008</ele>
        <time>2017-04-29T08:11:42Z</time>
      </trkpt>
      <trkpt lat="41.341805" lon="1.792753">
        <ele>281.089</ele>
        <time>2017-04-29T08:11:46Z</time>
      </trkpt>
      <trkpt lat="41.341912" lon="1.792771">
        <ele>286.035</ele>
        <time>2017-04-29T08:11:51Z</time>
      </trkpt>
      <trkpt lat="41.342001" lon="1.792817">
        <ele>286.052</ele>
        <time>2017-04-29T08:11:59Z</time>
      </trkpt>
      <trkpt lat="41.342112" lon="1.792845">
        <ele>285.035</ele>
        <time>2017-04-29T08:12:04Z</time>
      </trkpt>
      <trkpt lat="41.342208" lon="1.792833">
        <ele>284.074</ele>
        <time>2017-04-29T08:12:07Z</time>
      </trkpt>
      <trkpt lat="41.342303" lon="1.792799">
        <ele>286.064</ele>
        <time>2017-04-29T08:12:10Z</time>
      </trkpt>
      <trkpt lat="41.342405" lon="1.792823">
        <ele>288.045</ele>
        <time>2017-04-29T08:12:14Z</time>
      </trkpt>
      <trkpt lat="41.342506" lon="1.7928">
        <ele>294.082</ele>
        <time>2017-04-29T08:12:18Z</time>
      </trkpt>
      <trkpt lat="41.3426" lon="1.792795">
        <ele>297.063</ele>
        <time>2017-04-29T08:12:21Z</time>
      </trkpt>
      <trkpt lat="41.342705" lon="1.792817">
        <ele>297.044</ele>
        <time>2017-04-29T08:12:24Z</time>
      </trkpt>
      <trkpt lat="41.342804" lon="1.79284">
        <ele>295.018</ele>
        <time>2017-04-29T08:12:27Z</time>
      </trkpt>
      <trkpt lat="41.342917" lon="1.792865">
        <ele>295.008</ele>
        <time>2017-04-29T08:12:31Z</time>
      </trkpt>
      <trkpt lat="41.343018" lon="1.792943">
        <ele>295.037</ele>
        <time>2017-04-29T08:12:34Z</time>
      </trkpt>
      <trkpt lat="41.343092" lon="1.793022">
        <ele>295.043</ele>
        <time>2017-04-29T08:12:37Z</time>
      </trkpt>
      <trkpt lat="41.343161" lon="1.793115">
        <ele>295.05</ele>
        <time>2017-04-29T08:12:40Z</time>
      </trkpt>
      <trkpt lat="41.343231" lon="1.793203">
        <ele>295.083</ele>
        <time>2017-04-29T08:12:43Z</time>
      </trkpt>
      <trkpt lat="41.343306" lon="1.793271">
        <ele>294.022</ele>
        <time>2017-04-29T08:12:46Z</time>
      </trkpt>
      <trkpt lat="41.343388" lon="1.793341">
        <ele>294.052</ele>
        <time>2017-04-29T08:12:49Z</time>
      </trkpt>
      <trkpt lat="41.343457" lon="1.793447">
        <ele>296.033</ele>
        <time>2017-04-29T08:12:54Z</time>
      </trkpt>
      <trkpt lat="41.343533" lon="1.793529">
        <ele>295.09</ele>
        <time>2017-04-29T08:12:58Z</time>
      </trkpt>
      <trkpt lat="41.343602" lon="1.793628">
        <ele>294.093</ele>
        <time>2017-04-29T08:13:02Z</time>
      </trkpt>
      <trkpt lat="41.343678" lon="1.793709">
        <ele>295.065</ele>
        <time>2017-04-29T08:13:07Z</time>
      </trkpt>
      <trkpt lat="41.343759" lon="1.793814">
        <ele>297.021</ele>
        <time>2017-04-29T08:13:12Z</time>
      </trkpt>
      <trkpt lat="41.343835" lon="1.793879">
        <ele>298.008</ele>
        <time>2017-04-29T08:13:15Z</time>
      </trkpt>
      <trkpt lat="41.343933" lon="1.793951">
        <ele>296.03</ele>
        <time>2017-04-29T08:13:18Z</time>
      </trkpt>
      <trkpt lat="41.344031" lon="1.793994">
        <ele>299.056</ele>
        <time>2017-04-29T08:13:21Z</time>
      </trkpt>
      <trkpt lat="41.344144" lon="1.794069">
        <ele>300.083</ele>
        <time>2017-04-29T08:13:26Z</time>
      </trkpt>
      <trkpt lat="41.344236" lon="1.79412">
        <ele>299.036</ele>
        <time>2017-04-29T08:13:29Z</time>
      </trkpt>
      <trkpt lat="41.344336" lon="1.794155">
        <ele>299.045</ele>
        <time>2017-04-29T08:13:32Z</time>
      </trkpt>
      <trkpt lat="41.344442" lon="1.794204">
        <ele>302.065</ele>
        <time>2017-04-29T08:13:36Z</time>
      </trkpt>
      <trkpt lat="41.344532" lon="1.794276">
        <ele>300.036</ele>
        <time>2017-04-29T08:13:39Z</time>
      </trkpt>
      <trkpt lat="41.344631" lon="1.79433">
        <ele>298.033</ele>
        <time>2017-04-29T08:13:42Z</time>
      </trkpt>
      <trkpt lat="41.344714" lon="1.79438">
        <ele>295.082</ele>
        <time>2017-04-29T08:13:44Z</time>
      </trkpt>
      <trkpt lat="41.344808" lon="1.794437">
        <ele>295.043</ele>
        <time>2017-04-29T08:13:46Z</time>
      </trkpt>
      <trkpt lat="41.344919" lon="1.794484">
        <ele>294.017</ele>
        <time>2017-04-29T08:13:48Z</time>
      </trkpt>
      <trkpt lat="41.345016" lon="1.794549">
        <ele>295.008</ele>
        <time>2017-04-29T08:13:50Z</time>
      </trkpt>
      <trkpt lat="41.345128" lon="1.794634">
        <ele>296.089</ele>
        <time>2017-04-29T08:13:52Z</time>
      </trkpt>
      <trkpt lat="41.345245" lon="1.794705">
        <ele>294.015</ele>
        <time>2017-04-29T08:13:55Z</time>
      </trkpt>
      <trkpt lat="41.345356" lon="1.794781">
        <ele>293.042</ele>
        <time>2017-04-29T08:13:58Z</time>
      </trkpt>
      <trkpt lat="41.345437" lon="1.794845">
        <ele>294.085</ele>
        <time>2017-04-29T08:14:00Z</time>
      </trkpt>
      <trkpt lat="41.345537" lon="1.794923">
        <ele>293.024</ele>
        <time>2017-04-29T08:14:03Z</time>
      </trkpt>
      <trkpt lat="41.345633" lon="1.795006">
        <ele>294.014</ele>
        <time>2017-04-29T08:14:06Z</time>
      </trkpt>
      <trkpt lat="41.345718" lon="1.795081">
        <ele>294.095</ele>
        <time>2017-04-29T08:14:09Z</time>
      </trkpt>
      <trkpt lat="41.345804" lon="1.795178">
        <ele>292.052</ele>
        <time>2017-04-29T08:14:12Z</time>
      </trkpt>
      <trkpt lat="41.345872" lon="1.795291">
        <ele>291.087</ele>
        <time>2017-04-29T08:14:15Z</time>
      </trkpt>
      <trkpt lat="41.345928" lon="1.795395">
        <ele>293.042</ele>
        <time>2017-04-29T08:14:18Z</time>
      </trkpt>
      <trkpt lat="41.345979" lon="1.795497">
        <ele>293.026</ele>
        <time>2017-04-29T08:14:21Z</time>
      </trkpt>
      <trkpt lat="41.346031" lon="1.795606">
        <ele>292.008</ele>
        <time>2017-04-29T08:14:25Z</time>
      </trkpt>
      <trkpt lat="41.346102" lon="1.795709">
        <ele>293.099</ele>
        <time>2017-04-29T08:14:29Z</time>
      </trkpt>
      <trkpt lat="41.346181" lon="1.795781">
        <ele>297.085</ele>
        <time>2017-04-29T08:14:33Z</time>
      </trkpt>
      <trkpt lat="41.346274" lon="1.795858">
        <ele>297.052</ele>
        <time>2017-04-29T08:14:36Z</time>
      </trkpt>
      <trkpt lat="41.346375" lon="1.795918">
        <ele>296.015</ele>
        <time>2017-04-29T08:14:38Z</time>
      </trkpt>
      <trkpt lat="41.346494" lon="1.795978">
        <ele>294.064</ele>
        <time>2017-04-29T08:14:40Z</time>
      </trkpt>
      <trkpt lat="41.346614" lon="1.796024">
        <ele>294.064</ele>
        <time>2017-04-29T08:14:42Z</time>
      </trkpt>
      <trkpt lat="41.346736" lon="1.796052">
        <ele>293.085</ele>
        <time>2017-04-29T08:14:44Z</time>
      </trkpt>
      <trkpt lat="41.346865" lon="1.79605">
        <ele>293.092</ele>
        <time>2017-04-29T08:14:46Z</time>
      </trkpt>
      <trkpt lat="41.346998" lon="1.796031">
        <ele>293.052</ele>
        <time>2017-04-29T08:14:48Z</time>
      </trkpt>
      <trkpt lat="41.347095" lon="1.796003">
        <ele>293.053</ele>
        <time>2017-04-29T08:14:50Z</time>
      </trkpt>
      <trkpt lat="41.347178" lon="1.79595">
        <ele>294.008</ele>
        <time>2017-04-29T08:14:53Z</time>
      </trkpt>
      <trkpt lat="41.347273" lon="1.795879">
        <ele>292.008</ele>
        <time>2017-04-29T08:14:56Z</time>
      </trkpt>
      <trkpt lat="41.347383" lon="1.795788">
        <ele>292.096</ele>
        <time>2017-04-29T08:14:59Z</time>
      </trkpt>
      <trkpt lat="41.347467" lon="1.795713">
        <ele>290.032</ele>
        <time>2017-04-29T08:15:01Z</time>
      </trkpt>
      <trkpt lat="41.347553" lon="1.795617">
        <ele>289.079</ele>
        <time>2017-04-29T08:15:03Z</time>
      </trkpt>
      <trkpt lat="41.347664" lon="1.795515">
        <ele>288.082</ele>
        <time>2017-04-29T08:15:05Z</time>
      </trkpt>
      <trkpt lat="41.347775" lon="1.795424">
        <ele>287.081</ele>
        <time>2017-04-29T08:15:07Z</time>
      </trkpt>
      <trkpt lat="41.347884" lon="1.795337">
        <ele>287.011</ele>
        <time>2017-04-29T08:15:09Z</time>
      </trkpt>
      <trkpt lat="41.347998" lon="1.795248">
        <ele>288.072</ele>
        <time>2017-04-29T08:15:12Z</time>
      </trkpt>
      <trkpt lat="41.348106" lon="1.795181">
        <ele>287.059</ele>
        <time>2017-04-29T08:15:15Z</time>
      </trkpt>
      <trkpt lat="41.348199" lon="1.795098">
        <ele>287.063</ele>
        <time>2017-04-29T08:15:18Z</time>
      </trkpt>
      <trkpt lat="41.348305" lon="1.794987">
        <ele>288.044</ele>
        <time>2017-04-29T08:15:21Z</time>
      </trkpt>
      <trkpt lat="41.3484" lon="1.794886">
        <ele>287.018</ele>
        <time>2017-04-29T08:15:23Z</time>
      </trkpt>
      <trkpt lat="41.348496" lon="1.794806">
        <ele>287.008</ele>
        <time>2017-04-29T08:15:25Z</time>
      </trkpt>
      <trkpt lat="41.34859" lon="1.794752">
        <ele>286.077</ele>
        <time>2017-04-29T08:15:27Z</time>
      </trkpt>
      <trkpt lat="41.348653" lon="1.794661">
        <ele>285.093</ele>
        <time>2017-04-29T08:15:29Z</time>
      </trkpt>
      <trkpt lat="41.348731" lon="1.794534">
        <ele>286.04</ele>
        <time>2017-04-29T08:15:32Z</time>
      </trkpt>
      <trkpt lat="41.348825" lon="1.79443">
        <ele>285.093</ele>
        <time>2017-04-29T08:15:35Z</time>
      </trkpt>
      <trkpt lat="41.348906" lon="1.794292">
        <ele>285.052</ele>
        <time>2017-04-29T08:15:38Z</time>
      </trkpt>
      <trkpt lat="41.348985" lon="1.794157">
        <ele>286.072</ele>
        <time>2017-04-29T08:15:41Z</time>
      </trkpt>
      <trkpt lat="41.349071" lon="1.794047">
        <ele>284.093</ele>
        <time>2017-04-29T08:15:44Z</time>
      </trkpt>
      <trkpt lat="41.349132" lon="1.793937">
        <ele>285.09</ele>
        <time>2017-04-29T08:15:47Z</time>
      </trkpt>
      <trkpt lat="41.349196" lon="1.79383">
        <ele>285.083</ele>
        <time>2017-04-29T08:15:50Z</time>
      </trkpt>
      <trkpt lat="41.349275" lon="1.793725">
        <ele>285.025</ele>
        <time>2017-04-29T08:15:53Z</time>
      </trkpt>
      <trkpt lat="41.349371" lon="1.793674">
        <ele>285.017</ele>
        <time>2017-04-29T08:15:56Z</time>
      </trkpt>
      <trkpt lat="41.349465" lon="1.793671">
        <ele>286.008</ele>
        <time>2017-04-29T08:15:59Z</time>
      </trkpt>
      <trkpt lat="41.349562" lon="1.793665">
        <ele>288.029</ele>
        <time>2017-04-29T08:16:02Z</time>
      </trkpt>
      <trkpt lat="41.349669" lon="1.793647">
        <ele>288.085</ele>
        <time>2017-04-29T08:16:05Z</time>
      </trkpt>
      <trkpt lat="41.34978" lon="1.793598">
        <ele>288.052</ele>
        <time>2017-04-29T08:16:08Z</time>
      </trkpt>
      <trkpt lat="41.349881" lon="1.793519">
        <ele>288.055</ele>
        <time>2017-04-29T08:16:11Z</time>
      </trkpt>
      <trkpt lat="41.349991" lon="1.793445">
        <ele>289.054</ele>
        <time>2017-04-29T08:16:14Z</time>
      </trkpt>
      <trkpt lat="41.350107" lon="1.793379">
        <ele>288.054</ele>
        <time>2017-04-29T08:16:17Z</time>
      </trkpt>
      <trkpt lat="41.350226" lon="1.793308">
        <ele>289.045</ele>
        <time>2017-04-29T08:16:20Z</time>
      </trkpt>
      <trkpt lat="41.350336" lon="1.793247">
        <ele>288.042</ele>
        <time>2017-04-29T08:16:23Z</time>
      </trkpt>
      <trkpt lat="41.350442" lon="1.793175">
        <ele>288.044</ele>
        <time>2017-04-29T08:16:26Z</time>
      </trkpt>
      <trkpt lat="41.350547" lon="1.793072">
        <ele>290.005</ele>
        <time>2017-04-29T08:16:29Z</time>
      </trkpt>
      <trkpt lat="41.350647" lon="1.792983">
        <ele>290.015</ele>
        <time>2017-04-29T08:16:32Z</time>
      </trkpt>
      <trkpt lat="41.350761" lon="1.792907">
        <ele>288.008</ele>
        <time>2017-04-29T08:16:35Z</time>
      </trkpt>
      <trkpt lat="41.350859" lon="1.792849">
        <ele>289.075</ele>
        <time>2017-04-29T08:16:38Z</time>
      </trkpt>
      <trkpt lat="41.350967" lon="1.792752">
        <ele>289.051</ele>
        <time>2017-04-29T08:16:41Z</time>
      </trkpt>
      <trkpt lat="41.351032" lon="1.792669">
        <ele>289.028</ele>
        <time>2017-04-29T08:16:43Z</time>
      </trkpt>
      <trkpt lat="41.351135" lon="1.792555">
        <ele>290.061</ele>
        <time>2017-04-29T08:16:46Z</time>
      </trkpt>
      <trkpt lat="41.351217" lon="1.792505">
        <ele>291.04</ele>
        <time>2017-04-29T08:16:48Z</time>
      </trkpt>
      <trkpt lat="41.351303" lon="1.792469">
        <ele>291.02</ele>
        <time>2017-04-29T08:16:50Z</time>
      </trkpt>
      <trkpt lat="41.351432" lon="1.792451">
        <ele>292.051</ele>
        <time>2017-04-29T08:16:53Z</time>
      </trkpt>
      <trkpt lat="41.351549" lon="1.792431">
        <ele>294.058</ele>
        <time>2017-04-29T08:16:56Z</time>
      </trkpt>
      <trkpt lat="41.351671" lon="1.792403">
        <ele>294.081</ele>
        <time>2017-04-29T08:16:59Z</time>
      </trkpt>
      <trkpt lat="41.351795" lon="1.792376">
        <ele>295.061</ele>
        <time>2017-04-29T08:17:02Z</time>
      </trkpt>
      <trkpt lat="41.351909" lon="1.792352">
        <ele>295.017</ele>
        <time>2017-04-29T08:17:05Z</time>
      </trkpt>
      <trkpt lat="41.352022" lon="1.792333">
        <ele>294.008</ele>
        <time>2017-04-29T08:17:08Z</time>
      </trkpt>
      <trkpt lat="41.352133" lon="1.792322">
        <ele>293.029</ele>
        <time>2017-04-29T08:17:11Z</time>
      </trkpt>
      <trkpt lat="41.352241" lon="1.792317">
        <ele>293.065</ele>
        <time>2017-04-29T08:17:14Z</time>
      </trkpt>
      <trkpt lat="41.352336" lon="1.792314">
        <ele>294.022</ele>
        <time>2017-04-29T08:17:17Z</time>
      </trkpt>
      <trkpt lat="41.352433" lon="1.792314">
        <ele>294.065</ele>
        <time>2017-04-29T08:17:20Z</time>
      </trkpt>
      <trkpt lat="41.35255" lon="1.792331">
        <ele>295.084</ele>
        <time>2017-04-29T08:17:24Z</time>
      </trkpt>
      <trkpt lat="41.352664" lon="1.792342">
        <ele>294.074</ele>
        <time>2017-04-29T08:17:28Z</time>
      </trkpt>
      <trkpt lat="41.352782" lon="1.792353">
        <ele>294.095</ele>
        <time>2017-04-29T08:17:32Z</time>
      </trkpt>
      <trkpt lat="41.352893" lon="1.792357">
        <ele>295.062</ele>
        <time>2017-04-29T08:17:36Z</time>
      </trkpt>
      <trkpt lat="41.352982" lon="1.792327">
        <ele>294.048</ele>
        <time>2017-04-29T08:17:39Z</time>
      </trkpt>
      <trkpt lat="41.353087" lon="1.792297">
        <ele>294.061</ele>
        <time>2017-04-29T08:17:42Z</time>
      </trkpt>
      <trkpt lat="41.353197" lon="1.792283">
        <ele>293.017</ele>
        <time>2017-04-29T08:17:45Z</time>
      </trkpt>
      <trkpt lat="41.353306" lon="1.792281">
        <ele>293.008</ele>
        <time>2017-04-29T08:17:47Z</time>
      </trkpt>
      <trkpt lat="41.353433" lon="1.792272">
        <ele>292.035</ele>
        <time>2017-04-29T08:17:51Z</time>
      </trkpt>
      <trkpt lat="41.353529" lon="1.792286">
        <ele>291.061</ele>
        <time>2017-04-29T08:17:53Z</time>
      </trkpt>
      <trkpt lat="41.353624" lon="1.792311">
        <ele>291.078</ele>
        <time>2017-04-29T08:17:55Z</time>
      </trkpt>
      <trkpt lat="41.353713" lon="1.792353">
        <ele>290.081</ele>
        <time>2017-04-29T08:17:57Z</time>
      </trkpt>
      <trkpt lat="41.353825" lon="1.792455">
        <ele>291.06</ele>
        <time>2017-04-29T08:18:00Z</time>
      </trkpt>
      <trkpt lat="41.353911" lon="1.792586">
        <ele>291.06</ele>
        <time>2017-04-29T08:18:03Z</time>
      </trkpt>
      <trkpt lat="41.35396" lon="1.792746">
        <ele>290.041</ele>
        <time>2017-04-29T08:18:06Z</time>
      </trkpt>
      <trkpt lat="41.353986" lon="1.792906">
        <ele>290.048</ele>
        <time>2017-04-29T08:18:09Z</time>
      </trkpt>
      <trkpt lat="41.35401" lon="1.79306">
        <ele>289.045</ele>
        <time>2017-04-29T08:18:12Z</time>
      </trkpt>
      <trkpt lat="41.354023" lon="1.7932">
        <ele>289.047</ele>
        <time>2017-04-29T08:18:15Z</time>
      </trkpt>
      <trkpt lat="41.354012" lon="1.793345">
        <ele>289.011</ele>
        <time>2017-04-29T08:18:18Z</time>
      </trkpt>
      <trkpt lat="41.354012" lon="1.793484">
        <ele>289.008</ele>
        <time>2017-04-29T08:18:21Z</time>
      </trkpt>
      <trkpt lat="41.354007" lon="1.793618">
        <ele>289.075</ele>
        <time>2017-04-29T08:18:25Z</time>
      </trkpt>
      <trkpt lat="41.353997" lon="1.793753">
        <ele>290.051</ele>
        <time>2017-04-29T08:18:30Z</time>
      </trkpt>
      <trkpt lat="41.35397" lon="1.793879">
        <ele>290.078</ele>
        <time>2017-04-29T08:18:35Z</time>
      </trkpt>
      <trkpt lat="41.353974" lon="1.794017">
        <ele>292.061</ele>
        <time>2017-04-29T08:18:40Z</time>
      </trkpt>
      <trkpt lat="41.353953" lon="1.79414">
        <ele>292.04</ele>
        <time>2017-04-29T08:18:44Z</time>
      </trkpt>
      <trkpt lat="41.353939" lon="1.794287">
        <ele>292.08</ele>
        <time>2017-04-29T08:18:48Z</time>
      </trkpt>
      <trkpt lat="41.353922" lon="1.794434">
        <ele>293.021</ele>
        <time>2017-04-29T08:18:52Z</time>
      </trkpt>
      <trkpt lat="41.353892" lon="1.794584">
        <ele>292.068</ele>
        <time>2017-04-29T08:18:56Z</time>
      </trkpt>
      <trkpt lat="41.353905" lon="1.794704">
        <ele>293.022</ele>
        <time>2017-04-29T08:18:59Z</time>
      </trkpt>
      <trkpt lat="41.353906" lon="1.794835">
        <ele>294.062</ele>
        <time>2017-04-29T08:19:02Z</time>
      </trkpt>
      <trkpt lat="41.353904" lon="1.795013">
        <ele>292.008</ele>
        <time>2017-04-29T08:19:05Z</time>
      </trkpt>
      <trkpt lat="41.35392" lon="1.795165">
        <ele>292.008</ele>
        <time>2017-04-29T08:19:08Z</time>
      </trkpt>
      <trkpt lat="41.353892" lon="1.795318">
        <ele>291.053</ele>
        <time>2017-04-29T08:19:11Z</time>
      </trkpt>
      <trkpt lat="41.353897" lon="1.79547">
        <ele>290.069</ele>
        <time>2017-04-29T08:19:14Z</time>
      </trkpt>
      <trkpt lat="41.353893" lon="1.795632">
        <ele>290.046</ele>
        <time>2017-04-29T08:19:17Z</time>
      </trkpt>
      <trkpt lat="41.353889" lon="1.795784">
        <ele>290.099</ele>
        <time>2017-04-29T08:19:20Z</time>
      </trkpt>
      <trkpt lat="41.3539" lon="1.795922">
        <ele>291.048</ele>
        <time>2017-04-29T08:19:23Z</time>
      </trkpt>
      <trkpt lat="41.353909" lon="1.796077">
        <ele>292.048</ele>
        <time>2017-04-29T08:19:26Z</time>
      </trkpt>
      <trkpt lat="41.353894" lon="1.796231">
        <ele>292.079</ele>
        <time>2017-04-29T08:19:29Z</time>
      </trkpt>
      <trkpt lat="41.35389" lon="1.79638">
        <ele>292.086</ele>
        <time>2017-04-29T08:19:32Z</time>
      </trkpt>
      <trkpt lat="41.353904" lon="1.79653">
        <ele>294.012</ele>
        <time>2017-04-29T08:19:35Z</time>
      </trkpt>
      <trkpt lat="41.353951" lon="1.796639">
        <ele>295.032</ele>
        <time>2017-04-29T08:19:38Z</time>
      </trkpt>
      <trkpt lat="41.354043" lon="1.79667">
        <ele>298.005</ele>
        <time>2017-04-29T08:19:41Z</time>
      </trkpt>
      <trkpt lat="41.354153" lon="1.796708">
        <ele>299.008</ele>
        <time>2017-04-29T08:19:44Z</time>
      </trkpt>
      <trkpt lat="41.35425" lon="1.796741">
        <ele>298.032</ele>
        <time>2017-04-29T08:19:46Z</time>
      </trkpt>
      <trkpt lat="41.354381" lon="1.796765">
        <ele>298.068</ele>
        <time>2017-04-29T08:19:49Z</time>
      </trkpt>
      <trkpt lat="41.354484" lon="1.796782">
        <ele>299.065</ele>
        <time>2017-04-29T08:19:51Z</time>
      </trkpt>
      <trkpt lat="41.354586" lon="1.796787">
        <ele>298.038</ele>
        <time>2017-04-29T08:19:54Z</time>
      </trkpt>
      <trkpt lat="41.354702" lon="1.796789">
        <ele>298.077</ele>
        <time>2017-04-29T08:19:57Z</time>
      </trkpt>
      <trkpt lat="41.3548" lon="1.796816">
        <ele>297.017</ele>
        <time>2017-04-29T08:19:59Z</time>
      </trkpt>
      <trkpt lat="41.35494" lon="1.796825">
        <ele>300.078</ele>
        <time>2017-04-29T08:20:02Z</time>
      </trkpt>
      <trkpt lat="41.355034" lon="1.796829">
        <ele>299.025</ele>
        <time>2017-04-29T08:20:04Z</time>
      </trkpt>
      <trkpt lat="41.355128" lon="1.796844">
        <ele>299.012</ele>
        <time>2017-04-29T08:20:06Z</time>
      </trkpt>
      <trkpt lat="41.355221" lon="1.796845">
        <ele>300.032</ele>
        <time>2017-04-29T08:20:08Z</time>
      </trkpt>
      <trkpt lat="41.355356" lon="1.796874">
        <ele>300.005</ele>
        <time>2017-04-29T08:20:11Z</time>
      </trkpt>
      <trkpt lat="41.355453" lon="1.796917">
        <ele>301.008</ele>
        <time>2017-04-29T08:20:14Z</time>
      </trkpt>
      <trkpt lat="41.355562" lon="1.796951">
        <ele>303.042</ele>
        <time>2017-04-29T08:20:18Z</time>
      </trkpt>
      <trkpt lat="41.355585" lon="1.797088">
        <ele>304.018</ele>
        <time>2017-04-29T08:20:24Z</time>
      </trkpt>
      <trkpt lat="41.355534" lon="1.797223">
        <ele>302.035</ele>
        <time>2017-04-29T08:20:28Z</time>
      </trkpt>
      <trkpt lat="41.355491" lon="1.797362">
        <ele>301.028</ele>
        <time>2017-04-29T08:20:32Z</time>
      </trkpt>
      <trkpt lat="41.355462" lon="1.797507">
        <ele>301.067</ele>
        <time>2017-04-29T08:20:35Z</time>
      </trkpt>
      <trkpt lat="41.355437" lon="1.797627">
        <ele>300.027</ele>
        <time>2017-04-29T08:20:38Z</time>
      </trkpt>
      <trkpt lat="41.355403" lon="1.797739">
        <ele>301.068</ele>
        <time>2017-04-29T08:20:41Z</time>
      </trkpt>
      <trkpt lat="41.35536" lon="1.797876">
        <ele>301.075</ele>
        <time>2017-04-29T08:20:45Z</time>
      </trkpt>
      <trkpt lat="41.355337" lon="1.797997">
        <ele>302.055</ele>
        <time>2017-04-29T08:20:48Z</time>
      </trkpt>
      <trkpt lat="41.355309" lon="1.798114">
        <ele>303.007</ele>
        <time>2017-04-29T08:20:51Z</time>
      </trkpt>
      <trkpt lat="41.355272" lon="1.798262">
        <ele>304.017</ele>
        <time>2017-04-29T08:20:55Z</time>
      </trkpt>
      <trkpt lat="41.355231" lon="1.798404">
        <ele>306.008</ele>
        <time>2017-04-29T08:20:59Z</time>
      </trkpt>
      <trkpt lat="41.355189" lon="1.79855">
        <ele>306.026</ele>
        <time>2017-04-29T08:21:03Z</time>
      </trkpt>
      <trkpt lat="41.355165" lon="1.79868">
        <ele>306.032</ele>
        <time>2017-04-29T08:21:06Z</time>
      </trkpt>
      <trkpt lat="41.355121" lon="1.798796">
        <ele>306.069</ele>
        <time>2017-04-29T08:21:09Z</time>
      </trkpt>
      <trkpt lat="41.355079" lon="1.798907">
        <ele>307.062</ele>
        <time>2017-04-29T08:21:13Z</time>
      </trkpt>
      <trkpt lat="41.355055" lon="1.799029">
        <ele>308.041</ele>
        <time>2017-04-29T08:21:16Z</time>
      </trkpt>
      <trkpt lat="41.355023" lon="1.799142">
        <ele>308.061</ele>
        <time>2017-04-29T08:21:19Z</time>
      </trkpt>
      <trkpt lat="41.354997" lon="1.799259">
        <ele>308.052</ele>
        <time>2017-04-29T08:21:22Z</time>
      </trkpt>
      <trkpt lat="41.35497" lon="1.799391">
        <ele>309.049</ele>
        <time>2017-04-29T08:21:25Z</time>
      </trkpt>
      <trkpt lat="41.354928" lon="1.799531">
        <ele>309.055</ele>
        <time>2017-04-29T08:21:29Z</time>
      </trkpt>
      <trkpt lat="41.354895" lon="1.799643">
        <ele>310.007</ele>
        <time>2017-04-29T08:21:32Z</time>
      </trkpt>
      <trkpt lat="41.354857" lon="1.799788">
        <ele>312.017</ele>
        <time>2017-04-29T08:21:36Z</time>
      </trkpt>
      <trkpt lat="41.354821" lon="1.799907">
        <ele>312.008</ele>
        <time>2017-04-29T08:21:39Z</time>
      </trkpt>
      <trkpt lat="41.35478" lon="1.800056">
        <ele>313.056</ele>
        <time>2017-04-29T08:21:43Z</time>
      </trkpt>
      <trkpt lat="41.35475" lon="1.800204">
        <ele>314.062</ele>
        <time>2017-04-29T08:21:47Z</time>
      </trkpt>
      <trkpt lat="41.354714" lon="1.800322">
        <ele>314.059</ele>
        <time>2017-04-29T08:21:50Z</time>
      </trkpt>
      <trkpt lat="41.354679" lon="1.80044">
        <ele>314.092</ele>
        <time>2017-04-29T08:21:53Z</time>
      </trkpt>
      <trkpt lat="41.354637" lon="1.800555">
        <ele>314.021</ele>
        <time>2017-04-29T08:21:56Z</time>
      </trkpt>
      <trkpt lat="41.354612" lon="1.800687">
        <ele>314.061</ele>
        <time>2017-04-29T08:21:59Z</time>
      </trkpt>
      <trkpt lat="41.354574" lon="1.800798">
        <ele>314.052</ele>
        <time>2017-04-29T08:22:02Z</time>
      </trkpt>
      <trkpt lat="41.354564" lon="1.800936">
        <ele>314.019</ele>
        <time>2017-04-29T08:22:05Z</time>
      </trkpt>
      <trkpt lat="41.354609" lon="1.801048">
        <ele>315.018</ele>
        <time>2017-04-29T08:22:09Z</time>
      </trkpt>
      <trkpt lat="41.354686" lon="1.801112">
        <ele>315.098</ele>
        <time>2017-04-29T08:22:18Z</time>
      </trkpt>
      <trkpt lat="41.354746" lon="1.801223">
        <ele>314.017</ele>
        <time>2017-04-29T08:22:22Z</time>
      </trkpt>
      <trkpt lat="41.35485" lon="1.801317">
        <ele>313.008</ele>
        <time>2017-04-29T08:22:26Z</time>
      </trkpt>
      <trkpt lat="41.354931" lon="1.801396">
        <ele>314.052</ele>
        <time>2017-04-29T08:22:29Z</time>
      </trkpt>
      <trkpt lat="41.355004" lon="1.801487">
        <ele>313.068</ele>
        <time>2017-04-29T08:22:31Z</time>
      </trkpt>
      <trkpt lat="41.355075" lon="1.801565">
        <ele>313.015</ele>
        <time>2017-04-29T08:22:34Z</time>
      </trkpt>
      <trkpt lat="41.355154" lon="1.801651">
        <ele>314.098</ele>
        <time>2017-04-29T08:22:37Z</time>
      </trkpt>
      <trkpt lat="41.355239" lon="1.801754">
        <ele>314.067</ele>
        <time>2017-04-29T08:22:40Z</time>
      </trkpt>
      <trkpt lat="41.355324" lon="1.801847">
        <ele>314.057</ele>
        <time>2017-04-29T08:22:43Z</time>
      </trkpt>
      <trkpt lat="41.35543" lon="1.80193">
        <ele>314.018</ele>
        <time>2017-04-29T08:22:47Z</time>
      </trkpt>
      <trkpt lat="41.355515" lon="1.801984">
        <ele>313.015</ele>
        <time>2017-04-29T08:22:49Z</time>
      </trkpt>
      <trkpt lat="41.35561" lon="1.802026">
        <ele>314.019</ele>
        <time>2017-04-29T08:22:51Z</time>
      </trkpt>
      <trkpt lat="41.355722" lon="1.802092">
        <ele>315.009</ele>
        <time>2017-04-29T08:22:54Z</time>
      </trkpt>
      <trkpt lat="41.355818" lon="1.802203">
        <ele>313.019</ele>
        <time>2017-04-29T08:22:57Z</time>
      </trkpt>
      <trkpt lat="41.355889" lon="1.802285">
        <ele>312.008</ele>
        <time>2017-04-29T08:22:59Z</time>
      </trkpt>
      <trkpt lat="41.355955" lon="1.802367">
        <ele>312.012</ele>
        <time>2017-04-29T08:23:01Z</time>
      </trkpt>
      <trkpt lat="41.356023" lon="1.80246">
        <ele>311.018</ele>
        <time>2017-04-29T08:23:03Z</time>
      </trkpt>
      <trkpt lat="41.356078" lon="1.802569">
        <ele>310.045</ele>
        <time>2017-04-29T08:23:05Z</time>
      </trkpt>
      <trkpt lat="41.356138" lon="1.802736">
        <ele>311.098</ele>
        <time>2017-04-29T08:23:08Z</time>
      </trkpt>
      <trkpt lat="41.356184" lon="1.802847">
        <ele>309.017</ele>
        <time>2017-04-29T08:23:10Z</time>
      </trkpt>
      <trkpt lat="41.356254" lon="1.802949">
        <ele>308.027</ele>
        <time>2017-04-29T08:23:12Z</time>
      </trkpt>
      <trkpt lat="41.356334" lon="1.803032">
        <ele>308.058</ele>
        <time>2017-04-29T08:23:14Z</time>
      </trkpt>
      <trkpt lat="41.356458" lon="1.803104">
        <ele>308.015</ele>
        <time>2017-04-29T08:23:17Z</time>
      </trkpt>
      <trkpt lat="41.356553" lon="1.803136">
        <ele>308.045</ele>
        <time>2017-04-29T08:23:19Z</time>
      </trkpt>
      <trkpt lat="41.356642" lon="1.803197">
        <ele>308.047</ele>
        <time>2017-04-29T08:23:21Z</time>
      </trkpt>
      <trkpt lat="41.356709" lon="1.803277">
        <ele>307.011</ele>
        <time>2017-04-29T08:23:23Z</time>
      </trkpt>
      <trkpt lat="41.356747" lon="1.803412">
        <ele>307.008</ele>
        <time>2017-04-29T08:23:26Z</time>
      </trkpt>
      <trkpt lat="41.35667" lon="1.803535">
        <ele>306.045</ele>
        <time>2017-04-29T08:23:30Z</time>
      </trkpt>
      <trkpt lat="41.356573" lon="1.803583">
        <ele>306.091</ele>
        <time>2017-04-29T08:23:33Z</time>
      </trkpt>
      <trkpt lat="41.356483" lon="1.803552">
        <ele>305.068</ele>
        <time>2017-04-29T08:23:34Z</time>
      </trkpt>
      <trkpt lat="41.35638" lon="1.803521">
        <ele>302.051</ele>
        <time>2017-04-29T08:23:37Z</time>
      </trkpt>
      <trkpt lat="41.356286" lon="1.803523">
        <ele>303.03</ele>
        <time>2017-04-29T08:23:39Z</time>
      </trkpt>
      <trkpt lat="41.356149" lon="1.803508">
        <ele>301.03</ele>
        <time>2017-04-29T08:23:42Z</time>
      </trkpt>
      <trkpt lat="41.356051" lon="1.803528">
        <ele>301.061</ele>
        <time>2017-04-29T08:23:44Z</time>
      </trkpt>
      <trkpt lat="41.355973" lon="1.803603">
        <ele>301.088</ele>
        <time>2017-04-29T08:23:47Z</time>
      </trkpt>
      <trkpt lat="41.355962" lon="1.803733">
        <ele>300.076</ele>
        <time>2017-04-29T08:23:50Z</time>
      </trkpt>
      <trkpt lat="41.356002" lon="1.803871">
        <ele>300.09</ele>
        <time>2017-04-29T08:23:53Z</time>
      </trkpt>
      <trkpt lat="41.35606" lon="1.804012">
        <ele>299.019</ele>
        <time>2017-04-29T08:23:56Z</time>
      </trkpt>
      <trkpt lat="41.356128" lon="1.804119">
        <ele>299.008</ele>
        <time>2017-04-29T08:23:59Z</time>
      </trkpt>
      <trkpt lat="41.356233" lon="1.804196">
        <ele>299.068</ele>
        <time>2017-04-29T08:24:02Z</time>
      </trkpt>
      <trkpt lat="41.356346" lon="1.804228">
        <ele>299.044</ele>
        <time>2017-04-29T08:24:05Z</time>
      </trkpt>
      <trkpt lat="41.35644" lon="1.804245">
        <ele>299.051</ele>
        <time>2017-04-29T08:24:07Z</time>
      </trkpt>
      <trkpt lat="41.356556" lon="1.804272">
        <ele>298.064</ele>
        <time>2017-04-29T08:24:10Z</time>
      </trkpt>
      <trkpt lat="41.356675" lon="1.804288">
        <ele>298.053</ele>
        <time>2017-04-29T08:24:12Z</time>
      </trkpt>
      <trkpt lat="41.3568" lon="1.804312">
        <ele>297.083</ele>
        <time>2017-04-29T08:24:14Z</time>
      </trkpt>
      <trkpt lat="41.356932" lon="1.804341">
        <ele>297.084</ele>
        <time>2017-04-29T08:24:16Z</time>
      </trkpt>
      <trkpt lat="41.357072" lon="1.804364">
        <ele>297.021</ele>
        <time>2017-04-29T08:24:18Z</time>
      </trkpt>
      <trkpt lat="41.357209" lon="1.804395">
        <ele>297.034</ele>
        <time>2017-04-29T08:24:20Z</time>
      </trkpt>
      <trkpt lat="41.357317" lon="1.804465">
        <ele>297.055</ele>
        <time>2017-04-29T08:24:22Z</time>
      </trkpt>
      <trkpt lat="41.357409" lon="1.804552">
        <ele>297.01</ele>
        <time>2017-04-29T08:24:24Z</time>
      </trkpt>
      <trkpt lat="41.357494" lon="1.80465">
        <ele>296.008</ele>
        <time>2017-04-29T08:24:26Z</time>
      </trkpt>
      <trkpt lat="41.357583" lon="1.804729">
        <ele>295.074</ele>
        <time>2017-04-29T08:24:28Z</time>
      </trkpt>
      <trkpt lat="41.357661" lon="1.804835">
        <ele>295.07</ele>
        <time>2017-04-29T08:24:30Z</time>
      </trkpt>
      <trkpt lat="41.357734" lon="1.804953">
        <ele>295.047</ele>
        <time>2017-04-29T08:24:32Z</time>
      </trkpt>
      <trkpt lat="41.357811" lon="1.805069">
        <ele>294.09</ele>
        <time>2017-04-29T08:24:34Z</time>
      </trkpt>
      <trkpt lat="41.357875" lon="1.805195">
        <ele>293.069</ele>
        <time>2017-04-29T08:24:36Z</time>
      </trkpt>
      <trkpt lat="41.357935" lon="1.80532">
        <ele>292.049</ele>
        <time>2017-04-29T08:24:38Z</time>
      </trkpt>
      <trkpt lat="41.358003" lon="1.805414">
        <ele>292.01</ele>
        <time>2017-04-29T08:24:40Z</time>
      </trkpt>
      <trkpt lat="41.358112" lon="1.805442">
        <ele>292.067</ele>
        <time>2017-04-29T08:24:43Z</time>
      </trkpt>
      <trkpt lat="41.358183" lon="1.805363">
        <ele>295.054</ele>
        <time>2017-04-29T08:25:08Z</time>
      </trkpt>
      <trkpt lat="41.358243" lon="1.805265">
        <ele>300.056</ele>
        <time>2017-04-29T08:28:02Z</time>
      </trkpt>
      <trkpt lat="41.35833" lon="1.805171">
        <ele>303.011</ele>
        <time>2017-04-29T08:28:09Z</time>
      </trkpt>
      <trkpt lat="41.358368" lon="1.805038">
        <ele>299.008</ele>
        <time>2017-04-29T08:28:14Z</time>
      </trkpt>
      <trkpt lat="41.358385" lon="1.804912">
        <ele>303.056</ele>
        <time>2017-04-29T08:28:19Z</time>
      </trkpt>
      <trkpt lat="41.358391" lon="1.804781">
        <ele>305.082</ele>
        <time>2017-04-29T08:28:24Z</time>
      </trkpt>
      <trkpt lat="41.358398" lon="1.804641">
        <ele>307.059</ele>
        <time>2017-04-29T08:28:28Z</time>
      </trkpt>
      <trkpt lat="41.358436" lon="1.804524">
        <ele>309.052</ele>
        <time>2017-04-29T08:28:32Z</time>
      </trkpt>
      <trkpt lat="41.358491" lon="1.80442">
        <ele>305.091</ele>
        <time>2017-04-29T08:28:41Z</time>
      </trkpt>
      <trkpt lat="41.358571" lon="1.804344">
        <ele>304.051</ele>
        <time>2017-04-29T08:28:58Z</time>
      </trkpt>
      <trkpt lat="41.358656" lon="1.804281">
        <ele>307.062</ele>
        <time>2017-04-29T08:29:10Z</time>
      </trkpt>
      <trkpt lat="41.358709" lon="1.804169">
        <ele>307.099</ele>
        <time>2017-04-29T08:29:15Z</time>
      </trkpt>
      <trkpt lat="41.358746" lon="1.804054">
        <ele>306.088</ele>
        <time>2017-04-29T08:29:20Z</time>
      </trkpt>
      <trkpt lat="41.358769" lon="1.803929">
        <ele>307.024</ele>
        <time>2017-04-29T08:29:24Z</time>
      </trkpt>
      <trkpt lat="41.358853" lon="1.803875">
        <ele>306.026</ele>
        <time>2017-04-29T08:29:29Z</time>
      </trkpt>
      <trkpt lat="41.358967" lon="1.803927">
        <ele>306.008</ele>
        <time>2017-04-29T08:29:33Z</time>
      </trkpt>
      <trkpt lat="41.359068" lon="1.804001">
        <ele>305.069</ele>
        <time>2017-04-29T08:29:37Z</time>
      </trkpt>
      <trkpt lat="41.359128" lon="1.804099">
        <ele>302.095</ele>
        <time>2017-04-29T08:29:41Z</time>
      </trkpt>
      <trkpt lat="41.359191" lon="1.8042">
        <ele>303.092</ele>
        <time>2017-04-29T08:29:45Z</time>
      </trkpt>
      <trkpt lat="41.359235" lon="1.804307">
        <ele>304.065</ele>
        <time>2017-04-29T08:29:48Z</time>
      </trkpt>
      <trkpt lat="41.359274" lon="1.80444">
        <ele>304.034</ele>
        <time>2017-04-29T08:29:51Z</time>
      </trkpt>
      <trkpt lat="41.359325" lon="1.804551">
        <ele>305.074</ele>
        <time>2017-04-29T08:29:54Z</time>
      </trkpt>
      <trkpt lat="41.35937" lon="1.804703">
        <ele>304.085</ele>
        <time>2017-04-29T08:29:57Z</time>
      </trkpt>
      <trkpt lat="41.359399" lon="1.804847">
        <ele>305.092</ele>
        <time>2017-04-29T08:30:00Z</time>
      </trkpt>
      <trkpt lat="41.359442" lon="1.804991">
        <ele>303.048</ele>
        <time>2017-04-29T08:30:03Z</time>
      </trkpt>
      <trkpt lat="41.35949" lon="1.805096">
        <ele>304.061</ele>
        <time>2017-04-29T08:30:05Z</time>
      </trkpt>
      <trkpt lat="41.359551" lon="1.805205">
        <ele>304.017</ele>
        <time>2017-04-29T08:30:07Z</time>
      </trkpt>
      <trkpt lat="41.359619" lon="1.805337">
        <ele>304.008</ele>
        <time>2017-04-29T08:30:09Z</time>
      </trkpt>
      <trkpt lat="41.359635" lon="1.805467">
        <ele>304.015</ele>
        <time>2017-04-29T08:30:11Z</time>
      </trkpt>
      <trkpt lat="41.359681" lon="1.805587">
        <ele>305.011</ele>
        <time>2017-04-29T08:30:13Z</time>
      </trkpt>
      <trkpt lat="41.359723" lon="1.805749">
        <ele>305.058</ele>
        <time>2017-04-29T08:30:16Z</time>
      </trkpt>
      <trkpt lat="41.35977" lon="1.805902">
        <ele>304.041</ele>
        <time>2017-04-29T08:30:19Z</time>
      </trkpt>
      <trkpt lat="41.359839" lon="1.805994">
        <ele>305.05</ele>
        <time>2017-04-29T08:30:21Z</time>
      </trkpt>
      <trkpt lat="41.359928" lon="1.806103">
        <ele>303.07</ele>
        <time>2017-04-29T08:30:24Z</time>
      </trkpt>
      <trkpt lat="41.360016" lon="1.806173">
        <ele>304.031</ele>
        <time>2017-04-29T08:30:27Z</time>
      </trkpt>
      <trkpt lat="41.360092" lon="1.806242">
        <ele>303.058</ele>
        <time>2017-04-29T08:33:24Z</time>
      </trkpt>
      <trkpt lat="41.360191" lon="1.806259">
        <ele>303.036</ele>
        <time>2017-04-29T08:33:29Z</time>
      </trkpt>
      <trkpt lat="41.360281" lon="1.806278">
        <ele>303.017</ele>
        <time>2017-04-29T08:33:33Z</time>
      </trkpt>
      <trkpt lat="41.360394" lon="1.806309">
        <ele>306.018</ele>
        <time>2017-04-29T08:33:38Z</time>
      </trkpt>
      <trkpt lat="41.36049" lon="1.806383">
        <ele>305.008</ele>
        <time>2017-04-29T08:33:43Z</time>
      </trkpt>
      <trkpt lat="41.360539" lon="1.806507">
        <ele>304.084</ele>
        <time>2017-04-29T08:33:47Z</time>
      </trkpt>
      <trkpt lat="41.360573" lon="1.806632">
        <ele>306.05</ele>
        <time>2017-04-29T08:33:51Z</time>
      </trkpt>
      <trkpt lat="41.360584" lon="1.806781">
        <ele>306.027</ele>
        <time>2017-04-29T08:33:55Z</time>
      </trkpt>
      <trkpt lat="41.360585" lon="1.806911">
        <ele>307.06</ele>
        <time>2017-04-29T08:33:58Z</time>
      </trkpt>
      <trkpt lat="41.360615" lon="1.807079">
        <ele>306.039</ele>
        <time>2017-04-29T08:34:01Z</time>
      </trkpt>
      <trkpt lat="41.360623" lon="1.807201">
        <ele>306.029</ele>
        <time>2017-04-29T08:34:03Z</time>
      </trkpt>
      <trkpt lat="41.360634" lon="1.807324">
        <ele>305.01</ele>
        <time>2017-04-29T08:34:05Z</time>
      </trkpt>
      <trkpt lat="41.360628" lon="1.807478">
        <ele>305.077</ele>
        <time>2017-04-29T08:34:08Z</time>
      </trkpt>
      <trkpt lat="41.360634" lon="1.807606">
        <ele>304.079</ele>
        <time>2017-04-29T08:34:11Z</time>
      </trkpt>
      <trkpt lat="41.360694" lon="1.807722">
        <ele>305.005</ele>
        <time>2017-04-29T08:34:17Z</time>
      </trkpt>
      <trkpt lat="41.360749" lon="1.807852">
        <ele>305.025</ele>
        <time>2017-04-29T08:34:22Z</time>
      </trkpt>
      <trkpt lat="41.360751" lon="1.807989">
        <ele>308.008</ele>
        <time>2017-04-29T08:34:27Z</time>
      </trkpt>
      <trkpt lat="41.360783" lon="1.808115">
        <ele>308.048</ele>
        <time>2017-04-29T08:34:31Z</time>
      </trkpt>
      <trkpt lat="41.360846" lon="1.808242">
        <ele>308.024</ele>
        <time>2017-04-29T08:34:36Z</time>
      </trkpt>
      <trkpt lat="41.360934" lon="1.808329">
        <ele>308.041</ele>
        <time>2017-04-29T08:34:40Z</time>
      </trkpt>
      <trkpt lat="41.361044" lon="1.808398">
        <ele>307.074</ele>
        <time>2017-04-29T08:34:45Z</time>
      </trkpt>
      <trkpt lat="41.361158" lon="1.808429">
        <ele>307.013</ele>
        <time>2017-04-29T08:34:49Z</time>
      </trkpt>
      <trkpt lat="41.36128" lon="1.808434">
        <ele>307.063</ele>
        <time>2017-04-29T08:34:53Z</time>
      </trkpt>
      <trkpt lat="41.361402" lon="1.808438">
        <ele>307.064</ele>
        <time>2017-04-29T08:34:57Z</time>
      </trkpt>
      <trkpt lat="41.361513" lon="1.808425">
        <ele>306.081</ele>
        <time>2017-04-29T08:35:00Z</time>
      </trkpt>
      <trkpt lat="41.361643" lon="1.80838">
        <ele>306.071</ele>
        <time>2017-04-29T08:35:03Z</time>
      </trkpt>
      <trkpt lat="41.361745" lon="1.808334">
        <ele>304.041</ele>
        <time>2017-04-29T08:35:06Z</time>
      </trkpt>
      <trkpt lat="41.361846" lon="1.808288">
        <ele>304.015</ele>
        <time>2017-04-29T08:35:09Z</time>
      </trkpt>
      <trkpt lat="41.361942" lon="1.808232">
        <ele>304.008</ele>
        <time>2017-04-29T08:35:12Z</time>
      </trkpt>
      <trkpt lat="41.362022" lon="1.808153">
        <ele>304.058</ele>
        <time>2017-04-29T08:35:15Z</time>
      </trkpt>
      <trkpt lat="41.362108" lon="1.808053">
        <ele>306.074</ele>
        <time>2017-04-29T08:35:18Z</time>
      </trkpt>
      <trkpt lat="41.362177" lon="1.807969">
        <ele>307.061</ele>
        <time>2017-04-29T08:35:22Z</time>
      </trkpt>
      <trkpt lat="41.362244" lon="1.807884">
        <ele>305.034</ele>
        <time>2017-04-29T08:35:37Z</time>
      </trkpt>
      <trkpt lat="41.3623" lon="1.807785">
        <ele>304.033</ele>
        <time>2017-04-29T08:35:54Z</time>
      </trkpt>
      <trkpt lat="41.36235" lon="1.807681">
        <ele>311.013</ele>
        <time>2017-04-29T08:36:04Z</time>
      </trkpt>
      <trkpt lat="41.362322" lon="1.80756">
        <ele>312.034</ele>
        <time>2017-04-29T08:36:13Z</time>
      </trkpt>
      <trkpt lat="41.362304" lon="1.807419">
        <ele>309.031</ele>
        <time>2017-04-29T08:36:17Z</time>
      </trkpt>
      <trkpt lat="41.362295" lon="1.807281">
        <ele>306.082</ele>
        <time>2017-04-29T08:36:21Z</time>
      </trkpt>
      <trkpt lat="41.362298" lon="1.80712">
        <ele>306.043</ele>
        <time>2017-04-29T08:36:26Z</time>
      </trkpt>
      <trkpt lat="41.362311" lon="1.806999">
        <ele>309.017</ele>
        <time>2017-04-29T08:36:32Z</time>
      </trkpt>
      <trkpt lat="41.362349" lon="1.80688">
        <ele>308.008</ele>
        <time>2017-04-29T08:36:37Z</time>
      </trkpt>
      <trkpt lat="41.362409" lon="1.806792">
        <ele>309.029</ele>
        <time>2017-04-29T08:36:42Z</time>
      </trkpt>
      <trkpt lat="41.362519" lon="1.806756">
        <ele>311.045</ele>
        <time>2017-04-29T08:36:47Z</time>
      </trkpt>
      <trkpt lat="41.362626" lon="1.806779">
        <ele>312.012</ele>
        <time>2017-04-29T08:36:51Z</time>
      </trkpt>
      <trkpt lat="41.362724" lon="1.806788">
        <ele>311.045</ele>
        <time>2017-04-29T08:36:54Z</time>
      </trkpt>
      <trkpt lat="41.362809" lon="1.806883">
        <ele>313.064</ele>
        <time>2017-04-29T08:36:58Z</time>
      </trkpt>
      <trkpt lat="41.362888" lon="1.806955">
        <ele>314.054</ele>
        <time>2017-04-29T08:37:01Z</time>
      </trkpt>
      <trkpt lat="41.362982" lon="1.807037">
        <ele>314.045</ele>
        <time>2017-04-29T08:37:04Z</time>
      </trkpt>
      <trkpt lat="41.363071" lon="1.807085">
        <ele>312.022</ele>
        <time>2017-04-29T08:37:06Z</time>
      </trkpt>
      <trkpt lat="41.363159" lon="1.807114">
        <ele>311.021</ele>
        <time>2017-04-29T08:37:08Z</time>
      </trkpt>
      <trkpt lat="41.363255" lon="1.807163">
        <ele>310.041</ele>
        <time>2017-04-29T08:37:10Z</time>
      </trkpt>
      <trkpt lat="41.363341" lon="1.807238">
        <ele>311.005</ele>
        <time>2017-04-29T08:37:13Z</time>
      </trkpt>
      <trkpt lat="41.363435" lon="1.807273">
        <ele>312.008</ele>
        <time>2017-04-29T08:37:17Z</time>
      </trkpt>
      <trkpt lat="41.363549" lon="1.807285">
        <ele>314.013</ele>
        <time>2017-04-29T08:37:21Z</time>
      </trkpt>
      <trkpt lat="41.36363" lon="1.807217">
        <ele>314.039</ele>
        <time>2017-04-29T08:37:26Z</time>
      </trkpt>
      <trkpt lat="41.363687" lon="1.807089">
        <ele>313.046</ele>
        <time>2017-04-29T08:37:31Z</time>
      </trkpt>
      <trkpt lat="41.363744" lon="1.80696">
        <ele>315.079</ele>
        <time>2017-04-29T08:37:36Z</time>
      </trkpt>
      <trkpt lat="41.363812" lon="1.806857">
        <ele>316.098</ele>
        <time>2017-04-29T08:37:42Z</time>
      </trkpt>
      <trkpt lat="41.363894" lon="1.80679">
        <ele>314.058</ele>
        <time>2017-04-29T08:37:53Z</time>
      </trkpt>
      <trkpt lat="41.363973" lon="1.806691">
        <ele>312.089</ele>
        <time>2017-04-29T08:38:16Z</time>
      </trkpt>
      <trkpt lat="41.363993" lon="1.806561">
        <ele>309.066</ele>
        <time>2017-04-29T08:38:20Z</time>
      </trkpt>
      <trkpt lat="41.364027" lon="1.806436">
        <ele>311.063</ele>
        <time>2017-04-29T08:38:24Z</time>
      </trkpt>
      <trkpt lat="41.364061" lon="1.806296">
        <ele>313.044</ele>
        <time>2017-04-29T08:38:28Z</time>
      </trkpt>
      <trkpt lat="41.364117" lon="1.806163">
        <ele>312.018</ele>
        <time>2017-04-29T08:38:33Z</time>
      </trkpt>
      <trkpt lat="41.364181" lon="1.806059">
        <ele>312.008</ele>
        <time>2017-04-29T08:38:36Z</time>
      </trkpt>
      <trkpt lat="41.364237" lon="1.805965">
        <ele>311.047</ele>
        <time>2017-04-29T08:38:39Z</time>
      </trkpt>
      <trkpt lat="41.364334" lon="1.805884">
        <ele>312.063</ele>
        <time>2017-04-29T08:38:43Z</time>
      </trkpt>
      <trkpt lat="41.364415" lon="1.805793">
        <ele>313.08</ele>
        <time>2017-04-29T08:38:47Z</time>
      </trkpt>
      <trkpt lat="41.364482" lon="1.80568">
        <ele>314.013</ele>
        <time>2017-04-29T08:38:51Z</time>
      </trkpt>
      <trkpt lat="41.364559" lon="1.805566">
        <ele>313.082</ele>
        <time>2017-04-29T08:38:55Z</time>
      </trkpt>
      <trkpt lat="41.36463" lon="1.805472">
        <ele>315.052</ele>
        <time>2017-04-29T08:38:58Z</time>
      </trkpt>
      <trkpt lat="41.364718" lon="1.805371">
        <ele>314.043</ele>
        <time>2017-04-29T08:39:01Z</time>
      </trkpt>
      <trkpt lat="41.364808" lon="1.805269">
        <ele>314.01</ele>
        <time>2017-04-29T08:39:04Z</time>
      </trkpt>
      <trkpt lat="41.364887" lon="1.805188">
        <ele>316.067</ele>
        <time>2017-04-29T08:39:07Z</time>
      </trkpt>
      <trkpt lat="41.364977" lon="1.8051">
        <ele>321.081</ele>
        <time>2017-04-29T08:39:11Z</time>
      </trkpt>
      <trkpt lat="41.365039" lon="1.804972">
        <ele>321.019</ele>
        <time>2017-04-29T08:39:15Z</time>
      </trkpt>
      <trkpt lat="41.365089" lon="1.804832">
        <ele>322.008</ele>
        <time>2017-04-29T08:39:19Z</time>
      </trkpt>
      <trkpt lat="41.365164" lon="1.804717">
        <ele>320.037</ele>
        <time>2017-04-29T08:39:24Z</time>
      </trkpt>
      <trkpt lat="41.365255" lon="1.804632">
        <ele>320.063</ele>
        <time>2017-04-29T08:39:28Z</time>
      </trkpt>
      <trkpt lat="41.365337" lon="1.804576">
        <ele>322.06</ele>
        <time>2017-04-29T08:39:32Z</time>
      </trkpt>
      <trkpt lat="41.365423" lon="1.804515">
        <ele>321.093</ele>
        <time>2017-04-29T08:39:36Z</time>
      </trkpt>
      <trkpt lat="41.365509" lon="1.804457">
        <ele>324.042</ele>
        <time>2017-04-29T08:39:42Z</time>
      </trkpt>
      <trkpt lat="41.365607" lon="1.804406">
        <ele>324.062</ele>
        <time>2017-04-29T08:39:47Z</time>
      </trkpt>
      <trkpt lat="41.36568" lon="1.804313">
        <ele>324.093</ele>
        <time>2017-04-29T08:39:52Z</time>
      </trkpt>
      <trkpt lat="41.365729" lon="1.804174">
        <ele>322.07</ele>
        <time>2017-04-29T08:39:56Z</time>
      </trkpt>
      <trkpt lat="41.365805" lon="1.80407">
        <ele>322.081</ele>
        <time>2017-04-29T08:40:00Z</time>
      </trkpt>
      <trkpt lat="41.365891" lon="1.803978">
        <ele>321.061</ele>
        <time>2017-04-29T08:40:04Z</time>
      </trkpt>
      <trkpt lat="41.365971" lon="1.803881">
        <ele>323.017</ele>
        <time>2017-04-29T08:40:08Z</time>
      </trkpt>
      <trkpt lat="41.36606" lon="1.803806">
        <ele>324.008</ele>
        <time>2017-04-29T08:40:11Z</time>
      </trkpt>
      <trkpt lat="41.366135" lon="1.803711">
        <ele>322.099</ele>
        <time>2017-04-29T08:40:14Z</time>
      </trkpt>
      <trkpt lat="41.366209" lon="1.803642">
        <ele>323.085</ele>
        <time>2017-04-29T08:40:17Z</time>
      </trkpt>
      <trkpt lat="41.366283" lon="1.803568">
        <ele>324.062</ele>
        <time>2017-04-29T08:40:20Z</time>
      </trkpt>
      <trkpt lat="41.366354" lon="1.803495">
        <ele>324.075</ele>
        <time>2017-04-29T08:40:23Z</time>
      </trkpt>
      <trkpt lat="41.366432" lon="1.803418">
        <ele>325.044</ele>
        <time>2017-04-29T08:40:26Z</time>
      </trkpt>
      <trkpt lat="41.36652" lon="1.803353">
        <ele>325.034</ele>
        <time>2017-04-29T08:40:29Z</time>
      </trkpt>
      <trkpt lat="41.366608" lon="1.803299">
        <ele>323.015</ele>
        <time>2017-04-29T08:40:31Z</time>
      </trkpt>
      <trkpt lat="41.366702" lon="1.803216">
        <ele>320.052</ele>
        <time>2017-04-29T08:40:33Z</time>
      </trkpt>
      <trkpt lat="41.366803" lon="1.803123">
        <ele>320.056</ele>
        <time>2017-04-29T08:40:35Z</time>
      </trkpt>
      <trkpt lat="41.366912" lon="1.803035">
        <ele>320.059</ele>
        <time>2017-04-29T08:40:37Z</time>
      </trkpt>
      <trkpt lat="41.367028" lon="1.802951">
        <ele>320.014</ele>
        <time>2017-04-29T08:40:39Z</time>
      </trkpt>
      <trkpt lat="41.367129" lon="1.80283">
        <ele>320.008</ele>
        <time>2017-04-29T08:40:41Z</time>
      </trkpt>
      <trkpt lat="41.3672" lon="1.802701">
        <ele>320.026</ele>
        <time>2017-04-29T08:40:43Z</time>
      </trkpt>
      <trkpt lat="41.367266" lon="1.802608">
        <ele>320.042</ele>
        <time>2017-04-29T08:40:45Z</time>
      </trkpt>
      <trkpt lat="41.367332" lon="1.802519">
        <ele>319.069</ele>
        <time>2017-04-29T08:40:47Z</time>
      </trkpt>
      <trkpt lat="41.367422" lon="1.802408">
        <ele>320.062</ele>
        <time>2017-04-29T08:40:51Z</time>
      </trkpt>
      <trkpt lat="41.367509" lon="1.802327">
        <ele>320.041</ele>
        <time>2017-04-29T08:40:56Z</time>
      </trkpt>
      <trkpt lat="41.367561" lon="1.802212">
        <ele>321.071</ele>
        <time>2017-04-29T08:40:59Z</time>
      </trkpt>
      <trkpt lat="41.367543" lon="1.802074">
        <ele>321.022</ele>
        <time>2017-04-29T08:41:03Z</time>
      </trkpt>
      <trkpt lat="41.367508" lon="1.801942">
        <ele>321.059</ele>
        <time>2017-04-29T08:41:08Z</time>
      </trkpt>
      <trkpt lat="41.367467" lon="1.801819">
        <ele>322.028</ele>
        <time>2017-04-29T08:41:13Z</time>
      </trkpt>
      <trkpt lat="41.36743" lon="1.801704">
        <ele>322.089</ele>
        <time>2017-04-29T08:41:18Z</time>
      </trkpt>
      <trkpt lat="41.367379" lon="1.801592">
        <ele>323.017</ele>
        <time>2017-04-29T08:41:23Z</time>
      </trkpt>
      <trkpt lat="41.367328" lon="1.801476">
        <ele>327.008</ele>
        <time>2017-04-29T08:41:29Z</time>
      </trkpt>
      <trkpt lat="41.367283" lon="1.801358">
        <ele>329.073</ele>
        <time>2017-04-29T08:41:35Z</time>
      </trkpt>
      <trkpt lat="41.367268" lon="1.801231">
        <ele>331.019</ele>
        <time>2017-04-29T08:41:42Z</time>
      </trkpt>
      <trkpt lat="41.367195" lon="1.801113">
        <ele>332.086</ele>
        <time>2017-04-29T08:41:47Z</time>
      </trkpt>
      <trkpt lat="41.367201" lon="1.800975">
        <ele>333.029</ele>
        <time>2017-04-29T08:41:54Z</time>
      </trkpt>
      <trkpt lat="41.367244" lon="1.800859">
        <ele>331.068</ele>
        <time>2017-04-29T08:42:00Z</time>
      </trkpt>
      <trkpt lat="41.367305" lon="1.800765">
        <ele>337.088</ele>
        <time>2017-04-29T08:42:07Z</time>
      </trkpt>
      <trkpt lat="41.367366" lon="1.800661">
        <ele>340.039</ele>
        <time>2017-04-29T08:42:15Z</time>
      </trkpt>
      <trkpt lat="41.367459" lon="1.800625">
        <ele>341.046</ele>
        <time>2017-04-29T08:42:21Z</time>
      </trkpt>
      <trkpt lat="41.367549" lon="1.800654">
        <ele>343.091</ele>
        <time>2017-04-29T08:42:29Z</time>
      </trkpt>
      <trkpt lat="41.367644" lon="1.80058">
        <ele>343.081</ele>
        <time>2017-04-29T08:42:34Z</time>
      </trkpt>
      <trkpt lat="41.367711" lon="1.800477">
        <ele>344.019</ele>
        <time>2017-04-29T08:42:37Z</time>
      </trkpt>
      <trkpt lat="41.367767" lon="1.80037">
        <ele>344.008</ele>
        <time>2017-04-29T08:42:40Z</time>
      </trkpt>
      <trkpt lat="41.367824" lon="1.800274">
        <ele>343.03</ele>
        <time>2017-04-29T08:42:43Z</time>
      </trkpt>
      <trkpt lat="41.367897" lon="1.800183">
        <ele>343.046</ele>
        <time>2017-04-29T08:42:46Z</time>
      </trkpt>
      <trkpt lat="41.367986" lon="1.800133">
        <ele>343.073</ele>
        <time>2017-04-29T08:42:50Z</time>
      </trkpt>
      <trkpt lat="41.368066" lon="1.800191">
        <ele>333.086</ele>
        <time>2017-04-29T08:43:38Z</time>
      </trkpt>
      <trkpt lat="41.367976" lon="1.800207">
        <ele>339.065</ele>
        <time>2017-04-29T08:48:40Z</time>
      </trkpt>
      <trkpt lat="41.367888" lon="1.800262">
        <ele>340.025</ele>
        <time>2017-04-29T08:48:48Z</time>
      </trkpt>
      <trkpt lat="41.367967" lon="1.800332">
        <ele>343.066</ele>
        <time>2017-04-29T08:49:51Z</time>
      </trkpt>
      <trkpt lat="41.367925" lon="1.800205">
        <ele>341.053</ele>
        <time>2017-04-29T08:50:58Z</time>
      </trkpt>
      <trkpt lat="41.367867" lon="1.800309">
        <ele>329.057</ele>
        <time>2017-04-29T10:04:44Z</time>
      </trkpt>
      <trkpt lat="41.367917" lon="1.800188">
        <ele>335.0</ele>
        <time>2017-04-29T10:06:24Z</time>
      </trkpt>
      <trkpt lat="41.368014" lon="1.800165">
        <ele>335.02</ele>
        <time>2017-04-29T10:06:31Z</time>
      </trkpt>
      <trkpt lat="41.368088" lon="1.800293">
        <ele>336.008</ele>
        <time>2017-04-29T10:06:36Z</time>
      </trkpt>
      <trkpt lat="41.368142" lon="1.800419">
        <ele>333.036</ele>
        <time>2017-04-29T10:06:39Z</time>
      </trkpt>
      <trkpt lat="41.368198" lon="1.800558">
        <ele>333.052</ele>
        <time>2017-04-29T10:06:42Z</time>
      </trkpt>
      <trkpt lat="41.368245" lon="1.80071">
        <ele>334.019</ele>
        <time>2017-04-29T10:06:45Z</time>
      </trkpt>
      <trkpt lat="41.368288" lon="1.800819">
        <ele>332.022</ele>
        <time>2017-04-29T10:06:47Z</time>
      </trkpt>
      <trkpt lat="41.368334" lon="1.800979">
        <ele>332.041</ele>
        <time>2017-04-29T10:06:50Z</time>
      </trkpt>
      <trkpt lat="41.368372" lon="1.801134">
        <ele>331.021</ele>
        <time>2017-04-29T10:06:53Z</time>
      </trkpt>
      <trkpt lat="41.36842" lon="1.801289">
        <ele>329.032</ele>
        <time>2017-04-29T10:06:56Z</time>
      </trkpt>
      <trkpt lat="41.368462" lon="1.80143">
        <ele>324.089</ele>
        <time>2017-04-29T10:06:59Z</time>
      </trkpt>
      <trkpt lat="41.368508" lon="1.801563">
        <ele>329.084</ele>
        <time>2017-04-29T10:07:02Z</time>
      </trkpt>
      <trkpt lat="41.368544" lon="1.80169">
        <ele>330.007</ele>
        <time>2017-04-29T10:07:05Z</time>
      </trkpt>
      <trkpt lat="41.368573" lon="1.801811">
        <ele>330.017</ele>
        <time>2017-04-29T10:07:08Z</time>
      </trkpt>
      <trkpt lat="41.368626" lon="1.801961">
        <ele>331.008</ele>
        <time>2017-04-29T10:07:11Z</time>
      </trkpt>
      <trkpt lat="41.368695" lon="1.802115">
        <ele>331.089</ele>
        <time>2017-04-29T10:07:14Z</time>
      </trkpt>
      <trkpt lat="41.368742" lon="1.802234">
        <ele>330.025</ele>
        <time>2017-04-29T10:07:16Z</time>
      </trkpt>
      <trkpt lat="41.368801" lon="1.802385">
        <ele>329.032</ele>
        <time>2017-04-29T10:07:19Z</time>
      </trkpt>
      <trkpt lat="41.368867" lon="1.802486">
        <ele>329.035</ele>
        <time>2017-04-29T10:07:21Z</time>
      </trkpt>
      <trkpt lat="41.368922" lon="1.802582">
        <ele>329.014</ele>
        <time>2017-04-29T10:07:23Z</time>
      </trkpt>
      <trkpt lat="41.368992" lon="1.802674">
        <ele>330.084</ele>
        <time>2017-04-29T10:07:25Z</time>
      </trkpt>
      <trkpt lat="41.369063" lon="1.802765">
        <ele>330.095</ele>
        <time>2017-04-29T10:07:27Z</time>
      </trkpt>
      <trkpt lat="41.369177" lon="1.802852">
        <ele>331.072</ele>
        <time>2017-04-29T10:07:30Z</time>
      </trkpt>
      <trkpt lat="41.369252" lon="1.802926">
        <ele>333.044</ele>
        <time>2017-04-29T10:07:31Z</time>
      </trkpt>
      <trkpt lat="41.36936" lon="1.803022">
        <ele>334.005</ele>
        <time>2017-04-29T10:07:34Z</time>
      </trkpt>
      <trkpt lat="41.369442" lon="1.803087">
        <ele>336.015</ele>
        <time>2017-04-29T10:07:36Z</time>
      </trkpt>
      <trkpt lat="41.369533" lon="1.803157">
        <ele>336.008</ele>
        <time>2017-04-29T10:07:38Z</time>
      </trkpt>
      <trkpt lat="41.36962" lon="1.803207">
        <ele>337.075</ele>
        <time>2017-04-29T10:07:40Z</time>
      </trkpt>
      <trkpt lat="41.369702" lon="1.80327">
        <ele>338.021</ele>
        <time>2017-04-29T10:07:42Z</time>
      </trkpt>
      <trkpt lat="41.369782" lon="1.803329">
        <ele>338.048</ele>
        <time>2017-04-29T10:07:44Z</time>
      </trkpt>
      <trkpt lat="41.369863" lon="1.803395">
        <ele>339.011</ele>
        <time>2017-04-29T10:07:46Z</time>
      </trkpt>
      <trkpt lat="41.36998" lon="1.803483">
        <ele>339.01</ele>
        <time>2017-04-29T10:07:49Z</time>
      </trkpt>
      <trkpt lat="41.370088" lon="1.80356">
        <ele>340.03</ele>
        <time>2017-04-29T10:07:54Z</time>
      </trkpt>
      <trkpt lat="41.370199" lon="1.803607">
        <ele>340.091</ele>
        <time>2017-04-29T10:07:58Z</time>
      </trkpt>
      <trkpt lat="41.370302" lon="1.803569">
        <ele>340.028</ele>
        <time>2017-04-29T10:08:01Z</time>
      </trkpt>
      <trkpt lat="41.370416" lon="1.803495">
        <ele>339.025</ele>
        <time>2017-04-29T10:08:04Z</time>
      </trkpt>
      <trkpt lat="41.37052" lon="1.803435">
        <ele>338.026</ele>
        <time>2017-04-29T10:08:06Z</time>
      </trkpt>
      <trkpt lat="41.370638" lon="1.803372">
        <ele>335.008</ele>
        <time>2017-04-29T10:08:08Z</time>
      </trkpt>
      <trkpt lat="41.370769" lon="1.803316">
        <ele>334.008</ele>
        <time>2017-04-29T10:08:10Z</time>
      </trkpt>
      <trkpt lat="41.370893" lon="1.803247">
        <ele>334.023</ele>
        <time>2017-04-29T10:08:12Z</time>
      </trkpt>
      <trkpt lat="41.371015" lon="1.80318">
        <ele>333.069</ele>
        <time>2017-04-29T10:08:14Z</time>
      </trkpt>
      <trkpt lat="41.371105" lon="1.803097">
        <ele>331.056</ele>
        <time>2017-04-29T10:08:16Z</time>
      </trkpt>
      <trkpt lat="41.37116" lon="1.802981">
        <ele>331.019</ele>
        <time>2017-04-29T10:08:18Z</time>
      </trkpt>
      <trkpt lat="41.371173" lon="1.80285">
        <ele>330.098</ele>
        <time>2017-04-29T10:08:20Z</time>
      </trkpt>
      <trkpt lat="41.371198" lon="1.802722">
        <ele>327.048</ele>
        <time>2017-04-29T10:08:22Z</time>
      </trkpt>
      <trkpt lat="41.371291" lon="1.802715">
        <ele>330.049</ele>
        <time>2017-04-29T10:08:24Z</time>
      </trkpt>
      <trkpt lat="41.371421" lon="1.80276">
        <ele>329.076</ele>
        <time>2017-04-29T10:08:27Z</time>
      </trkpt>
      <trkpt lat="41.371529" lon="1.802778">
        <ele>329.093</ele>
        <time>2017-04-29T10:08:29Z</time>
      </trkpt>
      <trkpt lat="41.371638" lon="1.802766">
        <ele>329.065</ele>
        <time>2017-04-29T10:08:31Z</time>
      </trkpt>
      <trkpt lat="41.371739" lon="1.80273">
        <ele>328.021</ele>
        <time>2017-04-29T10:08:33Z</time>
      </trkpt>
      <trkpt lat="41.371846" lon="1.802695">
        <ele>326.008</ele>
        <time>2017-04-29T10:08:35Z</time>
      </trkpt>
      <trkpt lat="41.371948" lon="1.802663">
        <ele>327.01</ele>
        <time>2017-04-29T10:08:37Z</time>
      </trkpt>
      <trkpt lat="41.372056" lon="1.802633">
        <ele>328.016</ele>
        <time>2017-04-29T10:08:39Z</time>
      </trkpt>
      <trkpt lat="41.37216" lon="1.802617">
        <ele>330.043</ele>
        <time>2017-04-29T10:08:41Z</time>
      </trkpt>
      <trkpt lat="41.372257" lon="1.802589">
        <ele>328.086</ele>
        <time>2017-04-29T10:08:43Z</time>
      </trkpt>
      <trkpt lat="41.372356" lon="1.802561">
        <ele>328.015</ele>
        <time>2017-04-29T10:08:45Z</time>
      </trkpt>
      <trkpt lat="41.372449" lon="1.802539">
        <ele>327.095</ele>
        <time>2017-04-29T10:08:47Z</time>
      </trkpt>
      <trkpt lat="41.372549" lon="1.802516">
        <ele>326.066</ele>
        <time>2017-04-29T10:08:49Z</time>
      </trkpt>
      <trkpt lat="41.372649" lon="1.802495">
        <ele>327.073</ele>
        <time>2017-04-29T10:08:51Z</time>
      </trkpt>
      <trkpt lat="41.372745" lon="1.802458">
        <ele>328.097</ele>
        <time>2017-04-29T10:08:53Z</time>
      </trkpt>
      <trkpt lat="41.372841" lon="1.802415">
        <ele>328.023</ele>
        <time>2017-04-29T10:08:55Z</time>
      </trkpt>
      <trkpt lat="41.372931" lon="1.802361">
        <ele>329.025</ele>
        <time>2017-04-29T10:08:57Z</time>
      </trkpt>
      <trkpt lat="41.373022" lon="1.802311">
        <ele>329.008</ele>
        <time>2017-04-29T10:08:59Z</time>
      </trkpt>
      <trkpt lat="41.373114" lon="1.802276">
        <ele>329.01</ele>
        <time>2017-04-29T10:09:01Z</time>
      </trkpt>
      <trkpt lat="41.373214" lon="1.802244">
        <ele>330.096</ele>
        <time>2017-04-29T10:09:03Z</time>
      </trkpt>
      <trkpt lat="41.373307" lon="1.802199">
        <ele>329.073</ele>
        <time>2017-04-29T10:09:05Z</time>
      </trkpt>
      <trkpt lat="41.373396" lon="1.802149">
        <ele>329.066</ele>
        <time>2017-04-29T10:09:07Z</time>
      </trkpt>
      <trkpt lat="41.373517" lon="1.80207">
        <ele>329.035</ele>
        <time>2017-04-29T10:09:10Z</time>
      </trkpt>
      <trkpt lat="41.373635" lon="1.802">
        <ele>329.015</ele>
        <time>2017-04-29T10:09:13Z</time>
      </trkpt>
      <trkpt lat="41.373746" lon="1.801948">
        <ele>328.056</ele>
        <time>2017-04-29T10:09:16Z</time>
      </trkpt>
      <trkpt lat="41.373831" lon="1.801907">
        <ele>327.073</ele>
        <time>2017-04-29T10:09:18Z</time>
      </trkpt>
      <trkpt lat="41.373939" lon="1.801814">
        <ele>329.088</ele>
        <time>2017-04-29T10:09:21Z</time>
      </trkpt>
      <trkpt lat="41.37403" lon="1.801685">
        <ele>331.024</ele>
        <time>2017-04-29T10:09:24Z</time>
      </trkpt>
      <trkpt lat="41.374113" lon="1.80156">
        <ele>331.026</ele>
        <time>2017-04-29T10:09:27Z</time>
      </trkpt>
      <trkpt lat="41.374153" lon="1.801419">
        <ele>331.008</ele>
        <time>2017-04-29T10:09:30Z</time>
      </trkpt>
      <trkpt lat="41.374186" lon="1.801303">
        <ele>332.069</ele>
        <time>2017-04-29T10:09:33Z</time>
      </trkpt>
      <trkpt lat="41.374189" lon="1.801171">
        <ele>333.075</ele>
        <time>2017-04-29T10:09:36Z</time>
      </trkpt>
      <trkpt lat="41.37421" lon="1.801045">
        <ele>334.042</ele>
        <time>2017-04-29T10:09:39Z</time>
      </trkpt>
      <trkpt lat="41.374225" lon="1.80092">
        <ele>339.055</ele>
        <time>2017-04-29T10:09:43Z</time>
      </trkpt>
      <trkpt lat="41.374248" lon="1.800786">
        <ele>341.094</ele>
        <time>2017-04-29T10:09:47Z</time>
      </trkpt>
      <trkpt lat="41.374295" lon="1.800674">
        <ele>344.084</ele>
        <time>2017-04-29T10:09:51Z</time>
      </trkpt>
      <trkpt lat="41.374354" lon="1.800567">
        <ele>345.015</ele>
        <time>2017-04-29T10:09:55Z</time>
      </trkpt>
      <trkpt lat="41.374444" lon="1.800474">
        <ele>342.032</ele>
        <time>2017-04-29T10:09:59Z</time>
      </trkpt>
      <trkpt lat="41.374542" lon="1.800404">
        <ele>343.064</ele>
        <time>2017-04-29T10:10:02Z</time>
      </trkpt>
      <trkpt lat="41.374642" lon="1.800351">
        <ele>340.006</ele>
        <time>2017-04-29T10:10:04Z</time>
      </trkpt>
      <trkpt lat="41.374727" lon="1.800274">
        <ele>338.016</ele>
        <time>2017-04-29T10:10:06Z</time>
      </trkpt>
      <trkpt lat="41.374821" lon="1.80016">
        <ele>339.008</ele>
        <time>2017-04-29T10:10:09Z</time>
      </trkpt>
      <trkpt lat="41.374851" lon="1.800044">
        <ele>339.057</ele>
        <time>2017-04-29T10:10:11Z</time>
      </trkpt>
      <trkpt lat="41.374884" lon="1.799878">
        <ele>341.023</ele>
        <time>2017-04-29T10:10:14Z</time>
      </trkpt>
      <trkpt lat="41.374916" lon="1.799759">
        <ele>341.07</ele>
        <time>2017-04-29T10:10:16Z</time>
      </trkpt>
      <trkpt lat="41.374963" lon="1.799602">
        <ele>340.053</ele>
        <time>2017-04-29T10:10:19Z</time>
      </trkpt>
      <trkpt lat="41.375008" lon="1.799459">
        <ele>343.092</ele>
        <time>2017-04-29T10:10:22Z</time>
      </trkpt>
      <trkpt lat="41.375055" lon="1.799316">
        <ele>341.032</ele>
        <time>2017-04-29T10:10:25Z</time>
      </trkpt>
      <trkpt lat="41.375101" lon="1.799208">
        <ele>342.063</ele>
        <time>2017-04-29T10:10:27Z</time>
      </trkpt>
      <trkpt lat="41.375172" lon="1.799088">
        <ele>340.05</ele>
        <time>2017-04-29T10:10:29Z</time>
      </trkpt>
      <trkpt lat="41.375259" lon="1.798969">
        <ele>338.047</ele>
        <time>2017-04-29T10:10:31Z</time>
      </trkpt>
      <trkpt lat="41.375355" lon="1.798827">
        <ele>338.029</ele>
        <time>2017-04-29T10:10:33Z</time>
      </trkpt>
      <trkpt lat="41.375453" lon="1.798684">
        <ele>340.021</ele>
        <time>2017-04-29T10:10:35Z</time>
      </trkpt>
      <trkpt lat="41.375554" lon="1.798522">
        <ele>336.008</ele>
        <time>2017-04-29T10:10:37Z</time>
      </trkpt>
      <trkpt lat="41.375656" lon="1.798355">
        <ele>333.035</ele>
        <time>2017-04-29T10:10:39Z</time>
      </trkpt>
      <trkpt lat="41.375759" lon="1.798188">
        <ele>332.021</ele>
        <time>2017-04-29T10:10:41Z</time>
      </trkpt>
      <trkpt lat="41.37587" lon="1.798003">
        <ele>330.018</ele>
        <time>2017-04-29T10:10:43Z</time>
      </trkpt>
      <trkpt lat="41.375922" lon="1.797904">
        <ele>330.051</ele>
        <time>2017-04-29T10:10:44Z</time>
      </trkpt>
      <trkpt lat="41.375979" lon="1.797808">
        <ele>329.01</ele>
        <time>2017-04-29T10:10:45Z</time>
      </trkpt>
      <trkpt lat="41.376042" lon="1.797718">
        <ele>329.05</ele>
        <time>2017-04-29T10:10:46Z</time>
      </trkpt>
      <trkpt lat="41.376114" lon="1.797636">
        <ele>328.071</ele>
        <time>2017-04-29T10:10:47Z</time>
      </trkpt>
      <trkpt lat="41.376188" lon="1.797561">
        <ele>328.038</ele>
        <time>2017-04-29T10:10:48Z</time>
      </trkpt>
      <trkpt lat="41.376321" lon="1.797412">
        <ele>323.089</ele>
        <time>2017-04-29T10:10:50Z</time>
      </trkpt>
      <trkpt lat="41.376398" lon="1.797336">
        <ele>323.006</ele>
        <time>2017-04-29T10:10:51Z</time>
      </trkpt>
      <trkpt lat="41.376541" lon="1.797187">
        <ele>323.026</ele>
        <time>2017-04-29T10:10:53Z</time>
      </trkpt>
      <trkpt lat="41.376619" lon="1.797113">
        <ele>323.008</ele>
        <time>2017-04-29T10:10:54Z</time>
      </trkpt>
      <trkpt lat="41.3767" lon="1.797048">
        <ele>322.089</ele>
        <time>2017-04-29T10:10:55Z</time>
      </trkpt>
      <trkpt lat="41.376781" lon="1.796979">
        <ele>320.055</ele>
        <time>2017-04-29T10:10:56Z</time>
      </trkpt>
      <trkpt lat="41.376859" lon="1.796915">
        <ele>319.022</ele>
        <time>2017-04-29T10:10:57Z</time>
      </trkpt>
      <trkpt lat="41.377003" lon="1.79681">
        <ele>324.055</ele>
        <time>2017-04-29T10:10:58Z</time>
      </trkpt>
      <trkpt lat="41.37715" lon="1.796719">
        <ele>320.024</ele>
        <time>2017-04-29T10:11:00Z</time>
      </trkpt>
      <trkpt lat="41.377296" lon="1.796628">
        <ele>318.084</ele>
        <time>2017-04-29T10:11:02Z</time>
      </trkpt>
      <trkpt lat="41.377463" lon="1.796589">
        <ele>318.045</ele>
        <time>2017-04-29T10:11:04Z</time>
      </trkpt>
      <trkpt lat="41.377553" lon="1.796576">
        <ele>317.032</ele>
        <time>2017-04-29T10:11:05Z</time>
      </trkpt>
      <trkpt lat="41.377649" lon="1.796553">
        <ele>316.086</ele>
        <time>2017-04-29T10:11:06Z</time>
      </trkpt>
      <trkpt lat="41.377753" lon="1.796516">
        <ele>317.06</ele>
        <time>2017-04-29T10:11:07Z</time>
      </trkpt>
      <trkpt lat="41.377857" lon="1.796481">
        <ele>316.026</ele>
        <time>2017-04-29T10:11:08Z</time>
      </trkpt>
      <trkpt lat="41.377956" lon="1.796452">
        <ele>315.008</ele>
        <time>2017-04-29T10:11:09Z</time>
      </trkpt>
      <trkpt lat="41.378062" lon="1.796409">
        <ele>312.079</ele>
        <time>2017-04-29T10:11:10Z</time>
      </trkpt>
      <trkpt lat="41.378154" lon="1.796383">
        <ele>312.015</ele>
        <time>2017-04-29T10:11:11Z</time>
      </trkpt>
      <trkpt lat="41.378247" lon="1.796354">
        <ele>312.082</ele>
        <time>2017-04-29T10:11:12Z</time>
      </trkpt>
      <trkpt lat="41.378336" lon="1.796311">
        <ele>311.055</ele>
        <time>2017-04-29T10:11:13Z</time>
      </trkpt>
      <trkpt lat="41.378486" lon="1.796194">
        <ele>310.044</ele>
        <time>2017-04-29T10:11:15Z</time>
      </trkpt>
      <trkpt lat="41.378635" lon="1.796049">
        <ele>309.054</ele>
        <time>2017-04-29T10:11:17Z</time>
      </trkpt>
      <trkpt lat="41.378806" lon="1.795973">
        <ele>309.085</ele>
        <time>2017-04-29T10:11:18Z</time>
      </trkpt>
      <trkpt lat="41.378898" lon="1.795966">
        <ele>308.042</ele>
        <time>2017-04-29T10:11:19Z</time>
      </trkpt>
      <trkpt lat="41.379063" lon="1.796002">
        <ele>306.019</ele>
        <time>2017-04-29T10:11:21Z</time>
      </trkpt>
      <trkpt lat="41.379208" lon="1.796081">
        <ele>304.009</ele>
        <time>2017-04-29T10:11:23Z</time>
      </trkpt>
      <trkpt lat="41.379373" lon="1.796113">
        <ele>301.019</ele>
        <time>2017-04-29T10:11:25Z</time>
      </trkpt>
      <trkpt lat="41.379464" lon="1.796102">
        <ele>300.008</ele>
        <time>2017-04-29T10:11:26Z</time>
      </trkpt>
      <trkpt lat="41.37955" lon="1.796057">
        <ele>300.092</ele>
        <time>2017-04-29T10:11:27Z</time>
      </trkpt>
      <trkpt lat="41.37963" lon="1.795989">
        <ele>300.058</ele>
        <time>2017-04-29T10:11:28Z</time>
      </trkpt>
      <trkpt lat="41.379704" lon="1.795907">
        <ele>298.065</ele>
        <time>2017-04-29T10:11:29Z</time>
      </trkpt>
      <trkpt lat="41.379787" lon="1.795841">
        <ele>295.078</ele>
        <time>2017-04-29T10:11:30Z</time>
      </trkpt>
      <trkpt lat="41.37988" lon="1.79579">
        <ele>295.047</ele>
        <time>2017-04-29T10:11:31Z</time>
      </trkpt>
      <trkpt lat="41.37998" lon="1.795734">
        <ele>293.067</ele>
        <time>2017-04-29T10:11:32Z</time>
      </trkpt>
      <trkpt lat="41.380068" lon="1.79566">
        <ele>293.058</ele>
        <time>2017-04-29T10:11:33Z</time>
      </trkpt>
      <trkpt lat="41.380147" lon="1.795588">
        <ele>291.095</ele>
        <time>2017-04-29T10:11:34Z</time>
      </trkpt>
      <trkpt lat="41.380218" lon="1.795505">
        <ele>290.041</ele>
        <time>2017-04-29T10:11:35Z</time>
      </trkpt>
      <trkpt lat="41.380338" lon="1.795409">
        <ele>287.081</ele>
        <time>2017-04-29T10:11:37Z</time>
      </trkpt>
      <trkpt lat="41.380478" lon="1.795347">
        <ele>288.009</ele>
        <time>2017-04-29T10:11:39Z</time>
      </trkpt>
      <trkpt lat="41.380623" lon="1.795403">
        <ele>289.008</ele>
        <time>2017-04-29T10:11:41Z</time>
      </trkpt>
      <trkpt lat="41.380717" lon="1.795517">
        <ele>286.065</ele>
        <time>2017-04-29T10:11:43Z</time>
      </trkpt>
      <trkpt lat="41.380773" lon="1.795657">
        <ele>287.081</ele>
        <time>2017-04-29T10:11:45Z</time>
      </trkpt>
      <trkpt lat="41.380851" lon="1.795794">
        <ele>288.038</ele>
        <time>2017-04-29T10:11:48Z</time>
      </trkpt>
      <trkpt lat="41.380918" lon="1.795889">
        <ele>287.081</ele>
        <time>2017-04-29T10:11:51Z</time>
      </trkpt>
      <trkpt lat="41.381008" lon="1.79599">
        <ele>289.02</ele>
        <time>2017-04-29T10:11:55Z</time>
      </trkpt>
      <trkpt lat="41.381101" lon="1.796065">
        <ele>292.06</ele>
        <time>2017-04-29T10:11:59Z</time>
      </trkpt>
      <trkpt lat="41.381197" lon="1.796122">
        <ele>293.091</ele>
        <time>2017-04-29T10:12:03Z</time>
      </trkpt>
      <trkpt lat="41.381313" lon="1.796159">
        <ele>294.048</ele>
        <time>2017-04-29T10:12:07Z</time>
      </trkpt>
      <trkpt lat="41.381418" lon="1.796205">
        <ele>295.093</ele>
        <time>2017-04-29T10:12:12Z</time>
      </trkpt>
      <trkpt lat="41.381508" lon="1.796239">
        <ele>295.065</ele>
        <time>2017-04-29T10:12:16Z</time>
      </trkpt>
      <trkpt lat="41.381615" lon="1.796211">
        <ele>296.021</ele>
        <time>2017-04-29T10:12:21Z</time>
      </trkpt>
      <trkpt lat="41.381713" lon="1.79617">
        <ele>294.008</ele>
        <time>2017-04-29T10:12:26Z</time>
      </trkpt>
      <trkpt lat="41.381817" lon="1.7962">
        <ele>296.01</ele>
        <time>2017-04-29T10:12:31Z</time>
      </trkpt>
      <trkpt lat="41.381921" lon="1.796223">
        <ele>295.026</ele>
        <time>2017-04-29T10:12:36Z</time>
      </trkpt>
      <trkpt lat="41.382015" lon="1.796251">
        <ele>300.013</ele>
        <time>2017-04-29T10:12:41Z</time>
      </trkpt>
      <trkpt lat="41.382108" lon="1.79632">
        <ele>301.086</ele>
        <time>2017-04-29T10:12:45Z</time>
      </trkpt>
      <trkpt lat="41.382217" lon="1.796336">
        <ele>301.095</ele>
        <time>2017-04-29T10:12:51Z</time>
      </trkpt>
      <trkpt lat="41.382317" lon="1.796365">
        <ele>303.075</ele>
        <time>2017-04-29T10:12:55Z</time>
      </trkpt>
      <trkpt lat="41.382416" lon="1.796365">
        <ele>308.036</ele>
        <time>2017-04-29T10:12:59Z</time>
      </trkpt>
      <trkpt lat="41.382506" lon="1.796372">
        <ele>306.013</ele>
        <time>2017-04-29T10:13:03Z</time>
      </trkpt>
      <trkpt lat="41.3826" lon="1.796403">
        <ele>305.069</ele>
        <time>2017-04-29T10:13:07Z</time>
      </trkpt>
      <trkpt lat="41.382693" lon="1.796459">
        <ele>305.004</ele>
        <time>2017-04-29T10:13:12Z</time>
      </trkpt>
      <trkpt lat="41.382733" lon="1.796579">
        <ele>310.024</ele>
        <time>2017-04-29T10:13:18Z</time>
      </trkpt>
      <trkpt lat="41.382825" lon="1.79657">
        <ele>316.008</ele>
        <time>2017-04-29T10:13:25Z</time>
      </trkpt>
      <trkpt lat="41.382913" lon="1.796528">
        <ele>317.027</ele>
        <time>2017-04-29T10:13:31Z</time>
      </trkpt>
      <trkpt lat="41.383008" lon="1.796512">
        <ele>316.023</ele>
        <time>2017-04-29T10:13:44Z</time>
      </trkpt>
      <trkpt lat="41.383102" lon="1.796487">
        <ele>315.01</ele>
        <time>2017-04-29T10:13:49Z</time>
      </trkpt>
      <trkpt lat="41.383196" lon="1.796461">
        <ele>317.033</ele>
        <time>2017-04-29T10:13:56Z</time>
      </trkpt>
      <trkpt lat="41.383292" lon="1.79647">
        <ele>322.082</ele>
        <time>2017-04-29T10:14:09Z</time>
      </trkpt>
      <trkpt lat="41.383385" lon="1.796447">
        <ele>322.032</ele>
        <time>2017-04-29T10:14:13Z</time>
      </trkpt>
      <trkpt lat="41.383501" lon="1.79643">
        <ele>322.043</ele>
        <time>2017-04-29T10:14:17Z</time>
      </trkpt>
      <trkpt lat="41.383591" lon="1.796388">
        <ele>319.03</ele>
        <time>2017-04-29T10:14:20Z</time>
      </trkpt>
      <trkpt lat="41.383657" lon="1.796286">
        <ele>319.032</ele>
        <time>2017-04-29T10:14:23Z</time>
      </trkpt>
      <trkpt lat="41.383656" lon="1.796164">
        <ele>321.092</ele>
        <time>2017-04-29T10:14:28Z</time>
      </trkpt>
      <trkpt lat="41.383681" lon="1.796024">
        <ele>319.011</ele>
        <time>2017-04-29T10:14:31Z</time>
      </trkpt>
      <trkpt lat="41.383769" lon="1.795935">
        <ele>322.008</ele>
        <time>2017-04-29T10:14:35Z</time>
      </trkpt>
      <trkpt lat="41.383852" lon="1.79585">
        <ele>325.024</ele>
        <time>2017-04-29T10:14:39Z</time>
      </trkpt>
      <trkpt lat="41.383956" lon="1.795831">
        <ele>323.04</ele>
        <time>2017-04-29T10:14:44Z</time>
      </trkpt>
      <trkpt lat="41.384057" lon="1.795846">
        <ele>321.057</ele>
        <time>2017-04-29T10:14:50Z</time>
      </trkpt>
      <trkpt lat="41.384153" lon="1.79588">
        <ele>321.02</ele>
        <time>2017-04-29T10:14:56Z</time>
      </trkpt>
      <trkpt lat="41.384244" lon="1.795925">
        <ele>321.069</ele>
        <time>2017-04-29T10:15:03Z</time>
      </trkpt>
      <trkpt lat="41.38433" lon="1.795964">
        <ele>323.059</ele>
        <time>2017-04-29T10:15:10Z</time>
      </trkpt>
      <trkpt lat="41.38442" lon="1.796003">
        <ele>323.03</ele>
        <time>2017-04-29T10:15:16Z</time>
      </trkpt>
      <trkpt lat="41.384515" lon="1.796041">
        <ele>322.097</ele>
        <time>2017-04-29T10:15:23Z</time>
      </trkpt>
      <trkpt lat="41.384554" lon="1.796158">
        <ele>323.026</ele>
        <time>2017-04-29T10:15:28Z</time>
      </trkpt>
      <trkpt lat="41.384564" lon="1.79628">
        <ele>325.047</ele>
        <time>2017-04-29T10:15:32Z</time>
      </trkpt>
      <trkpt lat="41.384576" lon="1.796406">
        <ele>323.011</ele>
        <time>2017-04-29T10:15:35Z</time>
      </trkpt>
      <trkpt lat="41.384602" lon="1.796555">
        <ele>325.008</ele>
        <time>2017-04-29T10:15:39Z</time>
      </trkpt>
      <trkpt lat="41.384619" lon="1.796677">
        <ele>326.043</ele>
        <time>2017-04-29T10:15:42Z</time>
      </trkpt>
      <trkpt lat="41.384665" lon="1.796805">
        <ele>323.069</ele>
        <time>2017-04-29T10:15:47Z</time>
      </trkpt>
      <trkpt lat="41.384759" lon="1.796852">
        <ele>323.076</ele>
        <time>2017-04-29T10:15:53Z</time>
      </trkpt>
      <trkpt lat="41.384865" lon="1.796852">
        <ele>322.039</ele>
        <time>2017-04-29T10:16:00Z</time>
      </trkpt>
      <trkpt lat="41.384967" lon="1.796894">
        <ele>323.028</ele>
        <time>2017-04-29T10:16:06Z</time>
      </trkpt>
      <trkpt lat="41.385066" lon="1.796948">
        <ele>325.018</ele>
        <time>2017-04-29T10:16:10Z</time>
      </trkpt>
      <trkpt lat="41.385167" lon="1.796992">
        <ele>327.089</ele>
        <time>2017-04-29T10:16:14Z</time>
      </trkpt>
      <trkpt lat="41.385271" lon="1.797037">
        <ele>327.086</ele>
        <time>2017-04-29T10:16:18Z</time>
      </trkpt>
      <trkpt lat="41.38536" lon="1.797053">
        <ele>333.097</ele>
        <time>2017-04-29T10:16:22Z</time>
      </trkpt>
      <trkpt lat="41.38546" lon="1.797108">
        <ele>335.023</ele>
        <time>2017-04-29T10:16:26Z</time>
      </trkpt>
      <trkpt lat="41.385564" lon="1.797146">
        <ele>336.025</ele>
        <time>2017-04-29T10:16:30Z</time>
      </trkpt>
      <trkpt lat="41.385667" lon="1.797212">
        <ele>335.008</ele>
        <time>2017-04-29T10:16:34Z</time>
      </trkpt>
      <trkpt lat="41.385761" lon="1.79723">
        <ele>338.07</ele>
        <time>2017-04-29T10:16:38Z</time>
      </trkpt>
      <trkpt lat="41.385859" lon="1.797279">
        <ele>338.036</ele>
        <time>2017-04-29T10:16:43Z</time>
      </trkpt>
      <trkpt lat="41.38595" lon="1.797314">
        <ele>341.043</ele>
        <time>2017-04-29T10:16:48Z</time>
      </trkpt>
      <trkpt lat="41.386055" lon="1.797335">
        <ele>343.076</ele>
        <time>2017-04-29T10:16:53Z</time>
      </trkpt>
      <trkpt lat="41.386143" lon="1.797378">
        <ele>351.015</ele>
        <time>2017-04-29T10:16:58Z</time>
      </trkpt>
      <trkpt lat="41.386209" lon="1.797487">
        <ele>346.095</ele>
        <time>2017-04-29T10:17:04Z</time>
      </trkpt>
      <trkpt lat="41.38622" lon="1.797634">
        <ele>347.056</ele>
        <time>2017-04-29T10:17:09Z</time>
      </trkpt>
      <trkpt lat="41.386243" lon="1.797751">
        <ele>349.043</ele>
        <time>2017-04-29T10:17:13Z</time>
      </trkpt>
      <trkpt lat="41.386271" lon="1.797892">
        <ele>347.053</ele>
        <time>2017-04-29T10:17:18Z</time>
      </trkpt>
      <trkpt lat="41.386301" lon="1.798028">
        <ele>347.004</ele>
        <time>2017-04-29T10:17:23Z</time>
      </trkpt>
      <trkpt lat="41.386367" lon="1.798147">
        <ele>346.014</ele>
        <time>2017-04-29T10:17:29Z</time>
      </trkpt>
      <trkpt lat="41.386459" lon="1.798164">
        <ele>349.008</ele>
        <time>2017-04-29T10:17:34Z</time>
      </trkpt>
      <trkpt lat="41.386564" lon="1.798128">
        <ele>349.056</ele>
        <time>2017-04-29T10:17:39Z</time>
      </trkpt>
      <trkpt lat="41.386659" lon="1.798085">
        <ele>352.062</ele>
        <time>2017-04-29T10:17:45Z</time>
      </trkpt>
      <trkpt lat="41.386741" lon="1.798027">
        <ele>352.049</ele>
        <time>2017-04-29T10:17:49Z</time>
      </trkpt>
      <trkpt lat="41.386828" lon="1.797984">
        <ele>352.082</ele>
        <time>2017-04-29T10:17:54Z</time>
      </trkpt>
      <trkpt lat="41.386907" lon="1.797893">
        <ele>354.071</ele>
        <time>2017-04-29T10:18:00Z</time>
      </trkpt>
      <trkpt lat="41.386957" lon="1.797784">
        <ele>349.041</ele>
        <time>2017-04-29T10:18:06Z</time>
      </trkpt>
      <trkpt lat="41.387027" lon="1.797697">
        <ele>348.082</ele>
        <time>2017-04-29T10:18:14Z</time>
      </trkpt>
      <trkpt lat="41.387113" lon="1.797658">
        <ele>352.059</ele>
        <time>2017-04-29T10:18:22Z</time>
      </trkpt>
      <trkpt lat="41.387198" lon="1.797603">
        <ele>355.018</ele>
        <time>2017-04-29T10:18:29Z</time>
      </trkpt>
      <trkpt lat="41.387296" lon="1.797583">
        <ele>357.098</ele>
        <time>2017-04-29T10:18:36Z</time>
      </trkpt>
      <trkpt lat="41.387386" lon="1.797631">
        <ele>357.017</ele>
        <time>2017-04-29T10:18:42Z</time>
      </trkpt>
      <trkpt lat="41.387472" lon="1.797672">
        <ele>355.008</ele>
        <time>2017-04-29T10:18:48Z</time>
      </trkpt>
      <trkpt lat="41.387559" lon="1.797724">
        <ele>357.052</ele>
        <time>2017-04-29T10:18:54Z</time>
      </trkpt>
      <trkpt lat="41.387662" lon="1.797784">
        <ele>356.038</ele>
        <time>2017-04-29T10:19:00Z</time>
      </trkpt>
      <trkpt lat="41.387766" lon="1.797836">
        <ele>357.065</ele>
        <time>2017-04-29T10:19:06Z</time>
      </trkpt>
      <trkpt lat="41.387851" lon="1.797873">
        <ele>358.048</ele>
        <time>2017-04-29T10:19:11Z</time>
      </trkpt>
      <trkpt lat="41.387943" lon="1.79792">
        <ele>359.057</ele>
        <time>2017-04-29T10:19:16Z</time>
      </trkpt>
      <trkpt lat="41.388036" lon="1.797879">
        <ele>362.037</ele>
        <time>2017-04-29T10:19:22Z</time>
      </trkpt>
      <trkpt lat="41.388087" lon="1.797751">
        <ele>364.058</ele>
        <time>2017-04-29T10:19:28Z</time>
      </trkpt>
      <trkpt lat="41.388105" lon="1.797619">
        <ele>367.025</ele>
        <time>2017-04-29T10:19:34Z</time>
      </trkpt>
      <trkpt lat="41.388167" lon="1.79751">
        <ele>369.073</ele>
        <time>2017-04-29T10:19:41Z</time>
      </trkpt>
      <trkpt lat="41.388212" lon="1.797381">
        <ele>370.085</ele>
        <time>2017-04-29T10:19:47Z</time>
      </trkpt>
      <trkpt lat="41.388257" lon="1.797274">
        <ele>370.013</ele>
        <time>2017-04-29T10:19:51Z</time>
      </trkpt>
      <trkpt lat="41.388344" lon="1.79718">
        <ele>370.008</ele>
        <time>2017-04-29T10:19:56Z</time>
      </trkpt>
      <trkpt lat="41.388414" lon="1.797085">
        <ele>372.058</ele>
        <time>2017-04-29T10:20:00Z</time>
      </trkpt>
      <trkpt lat="41.388469" lon="1.796985">
        <ele>375.094</ele>
        <time>2017-04-29T10:20:04Z</time>
      </trkpt>
      <trkpt lat="41.38856" lon="1.796979">
        <ele>372.081</ele>
        <time>2017-04-29T10:20:07Z</time>
      </trkpt>
      <trkpt lat="41.38865" lon="1.796966">
        <ele>377.064</ele>
        <time>2017-04-29T10:20:11Z</time>
      </trkpt>
      <trkpt lat="41.388762" lon="1.796948">
        <ele>378.083</ele>
        <time>2017-04-29T10:20:15Z</time>
      </trkpt>
      <trkpt lat="41.388852" lon="1.796923">
        <ele>379.053</ele>
        <time>2017-04-29T10:20:20Z</time>
      </trkpt>
      <trkpt lat="41.388957" lon="1.796934">
        <ele>378.054</ele>
        <time>2017-04-29T10:20:26Z</time>
      </trkpt>
      <trkpt lat="41.38908" lon="1.796949">
        <ele>378.091</ele>
        <time>2017-04-29T10:20:33Z</time>
      </trkpt>
      <trkpt lat="41.389183" lon="1.79699">
        <ele>380.025</ele>
        <time>2017-04-29T10:20:38Z</time>
      </trkpt>
      <trkpt lat="41.389296" lon="1.797021">
        <ele>376.026</ele>
        <time>2017-04-29T10:20:43Z</time>
      </trkpt>
      <trkpt lat="41.389402" lon="1.797052">
        <ele>376.008</ele>
        <time>2017-04-29T10:20:48Z</time>
      </trkpt>
      <trkpt lat="41.389504" lon="1.797103">
        <ele>378.008</ele>
        <time>2017-04-29T10:20:53Z</time>
      </trkpt>
      <trkpt lat="41.389593" lon="1.797148">
        <ele>377.063</ele>
        <time>2017-04-29T10:20:58Z</time>
      </trkpt>
      <trkpt lat="41.389695" lon="1.797206">
        <ele>375.079</ele>
        <time>2017-04-29T10:21:02Z</time>
      </trkpt>
      <trkpt lat="41.389781" lon="1.797252">
        <ele>376.056</ele>
        <time>2017-04-29T10:21:06Z</time>
      </trkpt>
      <trkpt lat="41.389878" lon="1.797234">
        <ele>377.039</ele>
        <time>2017-04-29T10:21:11Z</time>
      </trkpt>
      <trkpt lat="41.38993" lon="1.797127">
        <ele>377.068</ele>
        <time>2017-04-29T10:21:16Z</time>
      </trkpt>
      <trkpt lat="41.390009" lon="1.797027">
        <ele>380.088</ele>
        <time>2017-04-29T10:21:21Z</time>
      </trkpt>
      <trkpt lat="41.390094" lon="1.796942">
        <ele>382.019</ele>
        <time>2017-04-29T10:21:26Z</time>
      </trkpt>
      <trkpt lat="41.39019" lon="1.796884">
        <ele>384.056</ele>
        <time>2017-04-29T10:21:32Z</time>
      </trkpt>
      <trkpt lat="41.39028" lon="1.796839">
        <ele>383.056</ele>
        <time>2017-04-29T10:21:37Z</time>
      </trkpt>
      <trkpt lat="41.390355" lon="1.796772">
        <ele>381.059</ele>
        <time>2017-04-29T10:21:39Z</time>
      </trkpt>
      <trkpt lat="41.390429" lon="1.796684">
        <ele>380.014</ele>
        <time>2017-04-29T10:21:44Z</time>
      </trkpt>
      <trkpt lat="41.390525" lon="1.796621">
        <ele>380.008</ele>
        <time>2017-04-29T10:21:48Z</time>
      </trkpt>
      <trkpt lat="41.39063" lon="1.796583">
        <ele>378.016</ele>
        <time>2017-04-29T10:21:52Z</time>
      </trkpt>
      <trkpt lat="41.390735" lon="1.796542">
        <ele>378.012</ele>
        <time>2017-04-29T10:21:54Z</time>
      </trkpt>
      <trkpt lat="41.390832" lon="1.796463">
        <ele>378.029</ele>
        <time>2017-04-29T10:21:58Z</time>
      </trkpt>
      <trkpt lat="41.390928" lon="1.796401">
        <ele>379.032</ele>
        <time>2017-04-29T10:22:01Z</time>
      </trkpt>
      <trkpt lat="41.391011" lon="1.796318">
        <ele>380.041</ele>
        <time>2017-04-29T10:22:04Z</time>
      </trkpt>
      <trkpt lat="41.39109" lon="1.796249">
        <ele>379.051</ele>
        <time>2017-04-29T10:22:07Z</time>
      </trkpt>
      <trkpt lat="41.391163" lon="1.796144">
        <ele>377.012</ele>
        <time>2017-04-29T10:22:11Z</time>
      </trkpt>
      <trkpt lat="41.39121" lon="1.796022">
        <ele>378.039</ele>
        <time>2017-04-29T10:22:16Z</time>
      </trkpt>
      <trkpt lat="41.39128" lon="1.79594">
        <ele>379.024</ele>
        <time>2017-04-29T10:24:18Z</time>
      </trkpt>
      <trkpt lat="41.391365" lon="1.796001">
        <ele>380.004</ele>
        <time>2017-04-29T10:24:26Z</time>
      </trkpt>
      <trkpt lat="41.391455" lon="1.796026">
        <ele>379.014</ele>
        <time>2017-04-29T10:24:28Z</time>
      </trkpt>
      <trkpt lat="41.39155" lon="1.796046">
        <ele>378.008</ele>
        <time>2017-04-29T10:24:30Z</time>
      </trkpt>
      <trkpt lat="41.391677" lon="1.796081">
        <ele>376.043</ele>
        <time>2017-04-29T10:24:33Z</time>
      </trkpt>
      <trkpt lat="41.391803" lon="1.796131">
        <ele>373.029</ele>
        <time>2017-04-29T10:24:36Z</time>
      </trkpt>
      <trkpt lat="41.391902" lon="1.796148">
        <ele>373.086</ele>
        <time>2017-04-29T10:24:38Z</time>
      </trkpt>
      <trkpt lat="41.392006" lon="1.796152">
        <ele>370.049</ele>
        <time>2017-04-29T10:24:40Z</time>
      </trkpt>
      <trkpt lat="41.392097" lon="1.796154">
        <ele>368.028</ele>
        <time>2017-04-29T10:24:42Z</time>
      </trkpt>
      <trkpt lat="41.392195" lon="1.796176">
        <ele>364.058</ele>
        <time>2017-04-29T10:24:44Z</time>
      </trkpt>
      <trkpt lat="41.39232" lon="1.796193">
        <ele>362.069</ele>
        <time>2017-04-29T10:24:47Z</time>
      </trkpt>
      <trkpt lat="41.392425" lon="1.796227">
        <ele>362.096</ele>
        <time>2017-04-29T10:24:49Z</time>
      </trkpt>
      <trkpt lat="41.392521" lon="1.796273">
        <ele>367.064</ele>
        <time>2017-04-29T10:24:51Z</time>
      </trkpt>
      <trkpt lat="41.392619" lon="1.796349">
        <ele>363.006</ele>
        <time>2017-04-29T10:24:53Z</time>
      </trkpt>
      <trkpt lat="41.392715" lon="1.796412">
        <ele>362.016</ele>
        <time>2017-04-29T10:24:55Z</time>
      </trkpt>
      <trkpt lat="41.392806" lon="1.796461">
        <ele>360.008</ele>
        <time>2017-04-29T10:24:57Z</time>
      </trkpt>
      <trkpt lat="41.392919" lon="1.796542">
        <ele>356.057</ele>
        <time>2017-04-29T10:25:00Z</time>
      </trkpt>
      <trkpt lat="41.393041" lon="1.796578">
        <ele>352.073</ele>
        <time>2017-04-29T10:25:03Z</time>
      </trkpt>
      <trkpt lat="41.393158" lon="1.796559">
        <ele>351.06</ele>
        <time>2017-04-29T10:25:06Z</time>
      </trkpt>
      <trkpt lat="41.393205" lon="1.796433">
        <ele>353.063</ele>
        <time>2017-04-29T10:25:09Z</time>
      </trkpt>
      <trkpt lat="41.393213" lon="1.79625">
        <ele>353.032</ele>
        <time>2017-04-29T10:25:12Z</time>
      </trkpt>
      <trkpt lat="41.393277" lon="1.796096">
        <ele>353.062</ele>
        <time>2017-04-29T10:25:15Z</time>
      </trkpt>
      <trkpt lat="41.393347" lon="1.795943">
        <ele>349.053</ele>
        <time>2017-04-29T10:25:18Z</time>
      </trkpt>
      <trkpt lat="41.393394" lon="1.795835">
        <ele>347.03</ele>
        <time>2017-04-29T10:25:20Z</time>
      </trkpt>
      <trkpt lat="41.39346" lon="1.795733">
        <ele>342.031</ele>
        <time>2017-04-29T10:25:22Z</time>
      </trkpt>
      <trkpt lat="41.393532" lon="1.795649">
        <ele>346.061</ele>
        <time>2017-04-29T10:25:24Z</time>
      </trkpt>
      <trkpt lat="41.393621" lon="1.795573">
        <ele>342.007</ele>
        <time>2017-04-29T10:25:26Z</time>
      </trkpt>
      <trkpt lat="41.3937" lon="1.795469">
        <ele>340.008</ele>
        <time>2017-04-29T10:25:28Z</time>
      </trkpt>
      <trkpt lat="41.393764" lon="1.795371">
        <ele>340.034</ele>
        <time>2017-04-29T10:25:31Z</time>
      </trkpt>
      <trkpt lat="41.393839" lon="1.795294">
        <ele>339.02</ele>
        <time>2017-04-29T10:25:34Z</time>
      </trkpt>
      <trkpt lat="41.393941" lon="1.795341">
        <ele>338.057</ele>
        <time>2017-04-29T10:25:38Z</time>
      </trkpt>
      <trkpt lat="41.394018" lon="1.795411">
        <ele>335.02</ele>
        <time>2017-04-29T10:25:42Z</time>
      </trkpt>
      <trkpt lat="41.394104" lon="1.795466">
        <ele>337.059</ele>
        <time>2017-04-29T10:25:45Z</time>
      </trkpt>
      <trkpt lat="41.394183" lon="1.795535">
        <ele>335.089</ele>
        <time>2017-04-29T10:25:49Z</time>
      </trkpt>
      <trkpt lat="41.394271" lon="1.795612">
        <ele>335.03</ele>
        <time>2017-04-29T10:25:53Z</time>
      </trkpt>
      <trkpt lat="41.394365" lon="1.7957">
        <ele>333.087</ele>
        <time>2017-04-29T10:25:56Z</time>
      </trkpt>
      <trkpt lat="41.394447" lon="1.795799">
        <ele>331.059</ele>
        <time>2017-04-29T10:25:58Z</time>
      </trkpt>
      <trkpt lat="41.394527" lon="1.795911">
        <ele>331.003</ele>
        <time>2017-04-29T10:26:00Z</time>
      </trkpt>
      <trkpt lat="41.394607" lon="1.796012">
        <ele>330.023</ele>
        <time>2017-04-29T10:26:02Z</time>
      </trkpt>
      <trkpt lat="41.39473" lon="1.796027">
        <ele>329.008</ele>
        <time>2017-04-29T10:26:05Z</time>
      </trkpt>
      <trkpt lat="41.394852" lon="1.796006">
        <ele>328.096</ele>
        <time>2017-04-29T10:26:08Z</time>
      </trkpt>
      <trkpt lat="41.394949" lon="1.79604">
        <ele>328.092</ele>
        <time>2017-04-29T10:26:10Z</time>
      </trkpt>
      <trkpt lat="41.395036" lon="1.796101">
        <ele>327.069</ele>
        <time>2017-04-29T10:26:12Z</time>
      </trkpt>
      <trkpt lat="41.395159" lon="1.796064">
        <ele>324.072</ele>
        <time>2017-04-29T10:26:15Z</time>
      </trkpt>
      <trkpt lat="41.395215" lon="1.795941">
        <ele>322.041</ele>
        <time>2017-04-29T10:26:17Z</time>
      </trkpt>
      <trkpt lat="41.395261" lon="1.79581">
        <ele>323.031</ele>
        <time>2017-04-29T10:26:19Z</time>
      </trkpt>
      <trkpt lat="41.3953" lon="1.795677">
        <ele>323.042</ele>
        <time>2017-04-29T10:26:21Z</time>
      </trkpt>
      <trkpt lat="41.395317" lon="1.795542">
        <ele>323.089</ele>
        <time>2017-04-29T10:26:23Z</time>
      </trkpt>
      <trkpt lat="41.395318" lon="1.795406">
        <ele>322.091</ele>
        <time>2017-04-29T10:26:25Z</time>
      </trkpt>
      <trkpt lat="41.395317" lon="1.795258">
        <ele>323.081</ele>
        <time>2017-04-29T10:26:27Z</time>
      </trkpt>
      <trkpt lat="41.395327" lon="1.795119">
        <ele>323.019</ele>
        <time>2017-04-29T10:26:29Z</time>
      </trkpt>
      <trkpt lat="41.395335" lon="1.794956">
        <ele>320.008</ele>
        <time>2017-04-29T10:26:32Z</time>
      </trkpt>
      <trkpt lat="41.395339" lon="1.794832">
        <ele>317.02</ele>
        <time>2017-04-29T10:26:34Z</time>
      </trkpt>
      <trkpt lat="41.395388" lon="1.794679">
        <ele>316.076</ele>
        <time>2017-04-29T10:26:36Z</time>
      </trkpt>
      <trkpt lat="41.395479" lon="1.794519">
        <ele>313.093</ele>
        <time>2017-04-29T10:26:38Z</time>
      </trkpt>
      <trkpt lat="41.395584" lon="1.794378">
        <ele>312.016</ele>
        <time>2017-04-29T10:26:40Z</time>
      </trkpt>
      <trkpt lat="41.39565" lon="1.794227">
        <ele>309.045</ele>
        <time>2017-04-29T10:26:42Z</time>
      </trkpt>
      <trkpt lat="41.395694" lon="1.794067">
        <ele>308.065</ele>
        <time>2017-04-29T10:26:44Z</time>
      </trkpt>
      <trkpt lat="41.3957" lon="1.793905">
        <ele>307.086</ele>
        <time>2017-04-29T10:26:46Z</time>
      </trkpt>
      <trkpt lat="41.395677" lon="1.793742">
        <ele>307.063</ele>
        <time>2017-04-29T10:26:48Z</time>
      </trkpt>
      <trkpt lat="41.395604" lon="1.793619">
        <ele>304.034</ele>
        <time>2017-04-29T10:26:50Z</time>
      </trkpt>
      <trkpt lat="41.395514" lon="1.793491">
        <ele>301.055</ele>
        <time>2017-04-29T10:26:52Z</time>
      </trkpt>
      <trkpt lat="41.395447" lon="1.793347">
        <ele>298.01</ele>
        <time>2017-04-29T10:26:54Z</time>
      </trkpt>
      <trkpt lat="41.395392" lon="1.793197">
        <ele>299.008</ele>
        <time>2017-04-29T10:26:56Z</time>
      </trkpt>
      <trkpt lat="41.395361" lon="1.793052">
        <ele>299.074</ele>
        <time>2017-04-29T10:26:58Z</time>
      </trkpt>
      <trkpt lat="41.395406" lon="1.792911">
        <ele>297.01</ele>
        <time>2017-04-29T10:27:01Z</time>
      </trkpt>
      <trkpt lat="41.39547" lon="1.792783">
        <ele>298.027</ele>
        <time>2017-04-29T10:27:04Z</time>
      </trkpt>
      <trkpt lat="41.395507" lon="1.792667">
        <ele>300.05</ele>
        <time>2017-04-29T10:27:06Z</time>
      </trkpt>
      <trkpt lat="41.395528" lon="1.79251">
        <ele>300.019</ele>
        <time>2017-04-29T10:27:08Z</time>
      </trkpt>
      <trkpt lat="41.39553" lon="1.792343">
        <ele>298.069</ele>
        <time>2017-04-29T10:27:10Z</time>
      </trkpt>
      <trkpt lat="41.395505" lon="1.792161">
        <ele>296.07</ele>
        <time>2017-04-29T10:27:12Z</time>
      </trkpt>
      <trkpt lat="41.39549" lon="1.791984">
        <ele>293.067</ele>
        <time>2017-04-29T10:27:14Z</time>
      </trkpt>
      <trkpt lat="41.395477" lon="1.791798">
        <ele>293.027</ele>
        <time>2017-04-29T10:27:16Z</time>
      </trkpt>
      <trkpt lat="41.395487" lon="1.791629">
        <ele>293.068</ele>
        <time>2017-04-29T10:27:18Z</time>
      </trkpt>
      <trkpt lat="41.395515" lon="1.791461">
        <ele>293.014</ele>
        <time>2017-04-29T10:27:20Z</time>
      </trkpt>
      <trkpt lat="41.395555" lon="1.791294">
        <ele>293.008</ele>
        <time>2017-04-29T10:27:22Z</time>
      </trkpt>
      <trkpt lat="41.395619" lon="1.791154">
        <ele>293.053</ele>
        <time>2017-04-29T10:27:24Z</time>
      </trkpt>
      <trkpt lat="41.395699" lon="1.79104">
        <ele>295.029</ele>
        <time>2017-04-29T10:27:26Z</time>
      </trkpt>
      <trkpt lat="41.39577" lon="1.790925">
        <ele>295.056</ele>
        <time>2017-04-29T10:27:28Z</time>
      </trkpt>
      <trkpt lat="41.395817" lon="1.790803">
        <ele>294.099</ele>
        <time>2017-04-29T10:27:30Z</time>
      </trkpt>
      <trkpt lat="41.39584" lon="1.790675">
        <ele>296.028</ele>
        <time>2017-04-29T10:27:32Z</time>
      </trkpt>
      <trkpt lat="41.395862" lon="1.79055">
        <ele>298.098</ele>
        <time>2017-04-29T10:27:34Z</time>
      </trkpt>
      <trkpt lat="41.395872" lon="1.79039">
        <ele>302.079</ele>
        <time>2017-04-29T10:27:38Z</time>
      </trkpt>
      <trkpt lat="41.395886" lon="1.790265">
        <ele>300.086</ele>
        <time>2017-04-29T10:27:40Z</time>
      </trkpt>
      <trkpt lat="41.395915" lon="1.790097">
        <ele>299.012</ele>
        <time>2017-04-29T10:27:43Z</time>
      </trkpt>
      <trkpt lat="41.395965" lon="1.789975">
        <ele>297.032</ele>
        <time>2017-04-29T10:27:45Z</time>
      </trkpt>
      <trkpt lat="41.396013" lon="1.789859">
        <ele>294.005</ele>
        <time>2017-04-29T10:27:47Z</time>
      </trkpt>
      <trkpt lat="41.396051" lon="1.789728">
        <ele>294.008</ele>
        <time>2017-04-29T10:27:49Z</time>
      </trkpt>
      <trkpt lat="41.396069" lon="1.789553">
        <ele>293.022</ele>
        <time>2017-04-29T10:27:52Z</time>
      </trkpt>
      <trkpt lat="41.396101" lon="1.789437">
        <ele>291.038</ele>
        <time>2017-04-29T10:27:54Z</time>
      </trkpt>
      <trkpt lat="41.396203" lon="1.789347">
        <ele>289.055</ele>
        <time>2017-04-29T10:27:57Z</time>
      </trkpt>
      <trkpt lat="41.396282" lon="1.789257">
        <ele>288.098</ele>
        <time>2017-04-29T10:28:01Z</time>
      </trkpt>
      <trkpt lat="41.396355" lon="1.789169">
        <ele>288.087</ele>
        <time>2017-04-29T10:28:08Z</time>
      </trkpt>
      <trkpt lat="41.396435" lon="1.789082">
        <ele>288.087</ele>
        <time>2017-04-29T10:28:13Z</time>
      </trkpt>
      <trkpt lat="41.396516" lon="1.788999">
        <ele>290.048</ele>
        <time>2017-04-29T10:28:18Z</time>
      </trkpt>
      <trkpt lat="41.396575" lon="1.788891">
        <ele>291.055</ele>
        <time>2017-04-29T10:28:22Z</time>
      </trkpt>
      <trkpt lat="41.396653" lon="1.78879">
        <ele>292.048</ele>
        <time>2017-04-29T10:28:27Z</time>
      </trkpt>
      <trkpt lat="41.396696" lon="1.788671">
        <ele>292.061</ele>
        <time>2017-04-29T10:28:31Z</time>
      </trkpt>
      <trkpt lat="41.396741" lon="1.788547">
        <ele>295.017</ele>
        <time>2017-04-29T10:28:35Z</time>
      </trkpt>
      <trkpt lat="41.396787" lon="1.788426">
        <ele>296.008</ele>
        <time>2017-04-29T10:28:40Z</time>
      </trkpt>
      <trkpt lat="41.396832" lon="1.788315">
        <ele>299.085</ele>
        <time>2017-04-29T10:28:44Z</time>
      </trkpt>
      <trkpt lat="41.396895" lon="1.788204">
        <ele>297.061</ele>
        <time>2017-04-29T10:28:49Z</time>
      </trkpt>
      <trkpt lat="41.396976" lon="1.788136">
        <ele>301.058</ele>
        <time>2017-04-29T10:28:55Z</time>
      </trkpt>
      <trkpt lat="41.397063" lon="1.78809">
        <ele>304.051</ele>
        <time>2017-04-29T10:29:01Z</time>
      </trkpt>
      <trkpt lat="41.397124" lon="1.787986">
        <ele>306.01</ele>
        <time>2017-04-29T10:29:07Z</time>
      </trkpt>
      <trkpt lat="41.397163" lon="1.787871">
        <ele>304.03</ele>
        <time>2017-04-29T10:29:12Z</time>
      </trkpt>
      <trkpt lat="41.397159" lon="1.787733">
        <ele>302.071</ele>
        <time>2017-04-29T10:29:16Z</time>
      </trkpt>
      <trkpt lat="41.39723" lon="1.787651">
        <ele>308.048</ele>
        <time>2017-04-29T10:29:23Z</time>
      </trkpt>
      <trkpt lat="41.397325" lon="1.787601">
        <ele>310.047</ele>
        <time>2017-04-29T10:29:30Z</time>
      </trkpt>
      <trkpt lat="41.397403" lon="1.787531">
        <ele>310.029</ele>
        <time>2017-04-29T10:29:36Z</time>
      </trkpt>
      <trkpt lat="41.397498" lon="1.787498">
        <ele>313.021</ele>
        <time>2017-04-29T10:29:42Z</time>
      </trkpt>
      <trkpt lat="41.397601" lon="1.787458">
        <ele>313.008</ele>
        <time>2017-04-29T10:29:47Z</time>
      </trkpt>
      <trkpt lat="41.397725" lon="1.787405">
        <ele>313.055</ele>
        <time>2017-04-29T10:29:51Z</time>
      </trkpt>
      <trkpt lat="41.397824" lon="1.78731">
        <ele>308.011</ele>
        <time>2017-04-29T10:29:54Z</time>
      </trkpt>
      <trkpt lat="41.397871" lon="1.787191">
        <ele>308.038</ele>
        <time>2017-04-29T10:29:58Z</time>
      </trkpt>
      <trkpt lat="41.397934" lon="1.787091">
        <ele>304.051</ele>
        <time>2017-04-29T10:30:01Z</time>
      </trkpt>
      <trkpt lat="41.398003" lon="1.786995">
        <ele>299.01</ele>
        <time>2017-04-29T10:30:07Z</time>
      </trkpt>
      <trkpt lat="41.398092" lon="1.786949">
        <ele>298.06</ele>
        <time>2017-04-29T10:30:11Z</time>
      </trkpt>
      <trkpt lat="41.398207" lon="1.786915">
        <ele>293.021</ele>
        <time>2017-04-29T10:30:15Z</time>
      </trkpt>
      <trkpt lat="41.398307" lon="1.786853">
        <ele>290.028</ele>
        <time>2017-04-29T10:30:19Z</time>
      </trkpt>
      <trkpt lat="41.398401" lon="1.786805">
        <ele>286.023</ele>
        <time>2017-04-29T10:30:22Z</time>
      </trkpt>
      <trkpt lat="41.398484" lon="1.786704">
        <ele>284.083</ele>
        <time>2017-04-29T10:30:25Z</time>
      </trkpt>
      <trkpt lat="41.398525" lon="1.78656">
        <ele>283.011</ele>
        <time>2017-04-29T10:30:28Z</time>
      </trkpt>
      <trkpt lat="41.398584" lon="1.786432">
        <ele>281.008</ele>
        <time>2017-04-29T10:30:31Z</time>
      </trkpt>
      <trkpt lat="41.398669" lon="1.78637">
        <ele>279.033</ele>
        <time>2017-04-29T10:30:34Z</time>
      </trkpt>
      <trkpt lat="41.398767" lon="1.786373">
        <ele>277.029</ele>
        <time>2017-04-29T10:30:37Z</time>
      </trkpt>
      <trkpt lat="41.398864" lon="1.786352">
        <ele>275.036</ele>
        <time>2017-04-29T10:30:40Z</time>
      </trkpt>
      <trkpt lat="41.398969" lon="1.786287">
        <ele>273.089</ele>
        <time>2017-04-29T10:30:43Z</time>
      </trkpt>
      <trkpt lat="41.399059" lon="1.786217">
        <ele>274.028</ele>
        <time>2017-04-29T10:30:47Z</time>
      </trkpt>
      <trkpt lat="41.399128" lon="1.786124">
        <ele>272.038</ele>
        <time>2017-04-29T10:30:51Z</time>
      </trkpt>
      <trkpt lat="41.399182" lon="1.786021">
        <ele>273.079</ele>
        <time>2017-04-29T10:30:56Z</time>
      </trkpt>
      <trkpt lat="41.39926" lon="1.785934">
        <ele>273.046</ele>
        <time>2017-04-29T10:31:01Z</time>
      </trkpt>
      <trkpt lat="41.399348" lon="1.785866">
        <ele>272.073</ele>
        <time>2017-04-29T10:31:05Z</time>
      </trkpt>
      <trkpt lat="41.399444" lon="1.785782">
        <ele>272.085</ele>
        <time>2017-04-29T10:31:09Z</time>
      </trkpt>
      <trkpt lat="41.399541" lon="1.78572">
        <ele>272.013</ele>
        <time>2017-04-29T10:31:12Z</time>
      </trkpt>
      <trkpt lat="41.399639" lon="1.785612">
        <ele>274.008</ele>
        <time>2017-04-29T10:31:15Z</time>
      </trkpt>
      <trkpt lat="41.399707" lon="1.785533">
        <ele>273.078</ele>
        <time>2017-04-29T10:31:17Z</time>
      </trkpt>
      <trkpt lat="41.39979" lon="1.785444">
        <ele>272.094</ele>
        <time>2017-04-29T10:31:19Z</time>
      </trkpt>
      <trkpt lat="41.399885" lon="1.785357">
        <ele>270.031</ele>
        <time>2017-04-29T10:31:21Z</time>
      </trkpt>
      <trkpt lat="41.399973" lon="1.78525">
        <ele>268.094</ele>
        <time>2017-04-29T10:31:23Z</time>
      </trkpt>
      <trkpt lat="41.400051" lon="1.785163">
        <ele>269.013</ele>
        <time>2017-04-29T10:31:25Z</time>
      </trkpt>
      <trkpt lat="41.400165" lon="1.785073">
        <ele>269.083</ele>
        <time>2017-04-29T10:31:28Z</time>
      </trkpt>
      <trkpt lat="41.400273" lon="1.784978">
        <ele>268.024</ele>
        <time>2017-04-29T10:31:31Z</time>
      </trkpt>
      <trkpt lat="41.400354" lon="1.784919">
        <ele>268.051</ele>
        <time>2017-04-29T10:31:33Z</time>
      </trkpt>
      <trkpt lat="41.400432" lon="1.784847">
        <ele>266.029</ele>
        <time>2017-04-29T10:31:35Z</time>
      </trkpt>
      <trkpt lat="41.400516" lon="1.784784">
        <ele>267.0</ele>
        <time>2017-04-29T10:31:37Z</time>
      </trkpt>
      <trkpt lat="41.400594" lon="1.78472">
        <ele>267.02</ele>
        <time>2017-04-29T10:31:39Z</time>
      </trkpt>
      <trkpt lat="41.400675" lon="1.784651">
        <ele>265.008</ele>
        <time>2017-04-29T10:31:41Z</time>
      </trkpt>
      <trkpt lat="41.400753" lon="1.784589">
        <ele>268.073</ele>
        <time>2017-04-29T10:31:43Z</time>
      </trkpt>
      <trkpt lat="41.40083" lon="1.784523">
        <ele>267.019</ele>
        <time>2017-04-29T10:31:45Z</time>
      </trkpt>
      <trkpt lat="41.400901" lon="1.784446">
        <ele>265.076</ele>
        <time>2017-04-29T10:31:47Z</time>
      </trkpt>
      <trkpt lat="41.400969" lon="1.784317">
        <ele>267.049</ele>
        <time>2017-04-29T10:31:50Z</time>
      </trkpt>
      <trkpt lat="41.401017" lon="1.784162">
        <ele>268.088</ele>
        <time>2017-04-29T10:31:53Z</time>
      </trkpt>
      <trkpt lat="41.401069" lon="1.784044">
        <ele>268.048</ele>
        <time>2017-04-29T10:31:55Z</time>
      </trkpt>
      <trkpt lat="41.401114" lon="1.783933">
        <ele>269.029</ele>
        <time>2017-04-29T10:31:57Z</time>
      </trkpt>
      <trkpt lat="41.401177" lon="1.783837">
        <ele>268.046</ele>
        <time>2017-04-29T10:31:59Z</time>
      </trkpt>
      <trkpt lat="41.401247" lon="1.783743">
        <ele>266.097</ele>
        <time>2017-04-29T10:32:01Z</time>
      </trkpt>
      <trkpt lat="41.40134" lon="1.783633">
        <ele>266.023</ele>
        <time>2017-04-29T10:32:04Z</time>
      </trkpt>
      <trkpt lat="41.40145" lon="1.783531">
        <ele>263.025</ele>
        <time>2017-04-29T10:32:07Z</time>
      </trkpt>
      <trkpt lat="41.401544" lon="1.783414">
        <ele>262.008</ele>
        <time>2017-04-29T10:32:10Z</time>
      </trkpt>
      <trkpt lat="41.401649" lon="1.783309">
        <ele>263.02</ele>
        <time>2017-04-29T10:32:13Z</time>
      </trkpt>
      <trkpt lat="41.401748" lon="1.783198">
        <ele>262.016</ele>
        <time>2017-04-29T10:32:17Z</time>
      </trkpt>
      <trkpt lat="41.40186" lon="1.783105">
        <ele>261.053</ele>
        <time>2017-04-29T10:32:20Z</time>
      </trkpt>
      <trkpt lat="41.401962" lon="1.782999">
        <ele>261.036</ele>
        <time>2017-04-29T10:32:23Z</time>
      </trkpt>
      <trkpt lat="41.402046" lon="1.782953">
        <ele>261.045</ele>
        <time>2017-04-29T10:32:25Z</time>
      </trkpt>
      <trkpt lat="41.402156" lon="1.782854">
        <ele>261.025</ele>
        <time>2017-04-29T10:32:28Z</time>
      </trkpt>
      <trkpt lat="41.402258" lon="1.782755">
        <ele>259.016</ele>
        <time>2017-04-29T10:32:31Z</time>
      </trkpt>
      <trkpt lat="41.402348" lon="1.782677">
        <ele>259.013</ele>
        <time>2017-04-29T10:32:35Z</time>
      </trkpt>
      <trkpt lat="41.402435" lon="1.782601">
        <ele>262.036</ele>
        <time>2017-04-29T10:33:25Z</time>
      </trkpt>
      <trkpt lat="41.402514" lon="1.782513">
        <ele>262.017</ele>
        <time>2017-04-29T10:33:29Z</time>
      </trkpt>
      <trkpt lat="41.402606" lon="1.782466">
        <ele>259.018</ele>
        <time>2017-04-29T10:33:32Z</time>
      </trkpt>
      <trkpt lat="41.402722" lon="1.782423">
        <ele>258.008</ele>
        <time>2017-04-29T10:33:35Z</time>
      </trkpt>
      <trkpt lat="41.402826" lon="1.782383">
        <ele>257.034</ele>
        <time>2017-04-29T10:33:37Z</time>
      </trkpt>
      <trkpt lat="41.40293" lon="1.782333">
        <ele>257.03</ele>
        <time>2017-04-29T10:33:39Z</time>
      </trkpt>
      <trkpt lat="41.403009" lon="1.78225">
        <ele>257.067</ele>
        <time>2017-04-29T10:33:41Z</time>
      </trkpt>
      <trkpt lat="41.403049" lon="1.782104">
        <ele>256.05</ele>
        <time>2017-04-29T10:33:43Z</time>
      </trkpt>
      <trkpt lat="41.403065" lon="1.781939">
        <ele>257.059</ele>
        <time>2017-04-29T10:33:45Z</time>
      </trkpt>
      <trkpt lat="41.403086" lon="1.781781">
        <ele>256.029</ele>
        <time>2017-04-29T10:33:47Z</time>
      </trkpt>
      <trkpt lat="41.403118" lon="1.781606">
        <ele>255.03</ele>
        <time>2017-04-29T10:33:49Z</time>
      </trkpt>
      <trkpt lat="41.403152" lon="1.781428">
        <ele>255.087</ele>
        <time>2017-04-29T10:33:50Z</time>
      </trkpt>
      <trkpt lat="41.403185" lon="1.781255">
        <ele>254.033</ele>
        <time>2017-04-29T10:33:52Z</time>
      </trkpt>
      <trkpt lat="41.403216" lon="1.781104">
        <ele>256.023</ele>
        <time>2017-04-29T10:33:54Z</time>
      </trkpt>
      <trkpt lat="41.403244" lon="1.78096">
        <ele>256.015</ele>
        <time>2017-04-29T10:33:56Z</time>
      </trkpt>
      <trkpt lat="41.403276" lon="1.78081">
        <ele>255.008</ele>
        <time>2017-04-29T10:33:58Z</time>
      </trkpt>
      <trkpt lat="41.403292" lon="1.780678">
        <ele>255.094</ele>
        <time>2017-04-29T10:34:00Z</time>
      </trkpt>
      <trkpt lat="41.403313" lon="1.78054">
        <ele>253.06</ele>
        <time>2017-04-29T10:34:03Z</time>
      </trkpt>
      <trkpt lat="41.403421" lon="1.780535">
        <ele>250.037</ele>
        <time>2017-04-29T10:34:06Z</time>
      </trkpt>
      <trkpt lat="41.403515" lon="1.780483">
        <ele>250.01</ele>
        <time>2017-04-29T10:34:08Z</time>
      </trkpt>
      <trkpt lat="41.403606" lon="1.780352">
        <ele>256.019</ele>
        <time>2017-04-29T10:34:10Z</time>
      </trkpt>
      <trkpt lat="41.403715" lon="1.780194">
        <ele>250.069</ele>
        <time>2017-04-29T10:34:12Z</time>
      </trkpt>
      <trkpt lat="41.403832" lon="1.780017">
        <ele>247.08</ele>
        <time>2017-04-29T10:34:14Z</time>
      </trkpt>
      <trkpt lat="41.403895" lon="1.77993">
        <ele>247.087</ele>
        <time>2017-04-29T10:34:15Z</time>
      </trkpt>
      <trkpt lat="41.403963" lon="1.779849">
        <ele>245.019</ele>
        <time>2017-04-29T10:34:16Z</time>
      </trkpt>
      <trkpt lat="41.40407" lon="1.779661">
        <ele>244.009</ele>
        <time>2017-04-29T10:34:18Z</time>
      </trkpt>
      <trkpt lat="41.404116" lon="1.779551">
        <ele>244.019</ele>
        <time>2017-04-29T10:34:19Z</time>
      </trkpt>
      <trkpt lat="41.404146" lon="1.779436">
        <ele>243.008</ele>
        <time>2017-04-29T10:34:20Z</time>
      </trkpt>
      <trkpt lat="41.404164" lon="1.779313">
        <ele>242.042</ele>
        <time>2017-04-29T10:34:21Z</time>
      </trkpt>
      <trkpt lat="41.404184" lon="1.779196">
        <ele>243.058</ele>
        <time>2017-04-29T10:34:22Z</time>
      </trkpt>
      <trkpt lat="41.404211" lon="1.778964">
        <ele>242.075</ele>
        <time>2017-04-29T10:34:24Z</time>
      </trkpt>
      <trkpt lat="41.404239" lon="1.778759">
        <ele>241.098</ele>
        <time>2017-04-29T10:34:26Z</time>
      </trkpt>
      <trkpt lat="41.404266" lon="1.778579">
        <ele>240.057</ele>
        <time>2017-04-29T10:34:28Z</time>
      </trkpt>
      <trkpt lat="41.404342" lon="1.77845">
        <ele>237.057</ele>
        <time>2017-04-29T10:34:30Z</time>
      </trkpt>
      <trkpt lat="41.404464" lon="1.778382">
        <ele>236.048</ele>
        <time>2017-04-29T10:34:32Z</time>
      </trkpt>
      <trkpt lat="41.404605" lon="1.77835">
        <ele>235.015</ele>
        <time>2017-04-29T10:34:34Z</time>
      </trkpt>
      <trkpt lat="41.40475" lon="1.778362">
        <ele>234.048</ele>
        <time>2017-04-29T10:34:36Z</time>
      </trkpt>
      <trkpt lat="41.404909" lon="1.778384">
        <ele>233.061</ele>
        <time>2017-04-29T10:34:38Z</time>
      </trkpt>
      <trkpt lat="41.405057" lon="1.778395">
        <ele>229.017</ele>
        <time>2017-04-29T10:34:40Z</time>
      </trkpt>
      <trkpt lat="41.405179" lon="1.778417">
        <ele>229.008</ele>
        <time>2017-04-29T10:34:42Z</time>
      </trkpt>
      <trkpt lat="41.405272" lon="1.77841">
        <ele>231.095</ele>
        <time>2017-04-29T10:34:44Z</time>
      </trkpt>
      <trkpt lat="41.405316" lon="1.778286">
        <ele>231.081</ele>
        <time>2017-04-29T10:34:48Z</time>
      </trkpt>
      <trkpt lat="41.405363" lon="1.778155">
        <ele>230.058</ele>
        <time>2017-04-29T10:34:52Z</time>
      </trkpt>
      <trkpt lat="41.405423" lon="1.77802">
        <ele>228.041</ele>
        <time>2017-04-29T10:34:55Z</time>
      </trkpt>
      <trkpt lat="41.405508" lon="1.777925">
        <ele>228.03</ele>
        <time>2017-04-29T10:34:57Z</time>
      </trkpt>
      <trkpt lat="41.405609" lon="1.777822">
        <ele>226.07</ele>
        <time>2017-04-29T10:34:59Z</time>
      </trkpt>
      <trkpt lat="41.405736" lon="1.777723">
        <ele>225.091</ele>
        <time>2017-04-29T10:35:01Z</time>
      </trkpt>
      <trkpt lat="41.405882" lon="1.777656">
        <ele>222.058</ele>
        <time>2017-04-29T10:35:03Z</time>
      </trkpt>
      <trkpt lat="41.406022" lon="1.777598">
        <ele>220.052</ele>
        <time>2017-04-29T10:35:05Z</time>
      </trkpt>
      <trkpt lat="41.406161" lon="1.777583">
        <ele>219.053</ele>
        <time>2017-04-29T10:35:07Z</time>
      </trkpt>
      <trkpt lat="41.406281" lon="1.777587">
        <ele>219.008</ele>
        <time>2017-04-29T10:35:09Z</time>
      </trkpt>
      <trkpt lat="41.406393" lon="1.777621">
        <ele>219.008</ele>
        <time>2017-04-29T10:35:11Z</time>
      </trkpt>
      <trkpt lat="41.406514" lon="1.777625">
        <ele>219.026</ele>
        <time>2017-04-29T10:35:13Z</time>
      </trkpt>
      <trkpt lat="41.406623" lon="1.777553">
        <ele>218.032</ele>
        <time>2017-04-29T10:35:15Z</time>
      </trkpt>
      <trkpt lat="41.406711" lon="1.777458">
        <ele>217.059</ele>
        <time>2017-04-29T10:35:17Z</time>
      </trkpt>
      <trkpt lat="41.406795" lon="1.77738">
        <ele>215.092</ele>
        <time>2017-04-29T10:35:19Z</time>
      </trkpt>
      <trkpt lat="41.406906" lon="1.777331">
        <ele>215.061</ele>
        <time>2017-04-29T10:35:22Z</time>
      </trkpt>
      <trkpt lat="41.406997" lon="1.777316">
        <ele>215.031</ele>
        <time>2017-04-29T10:35:26Z</time>
      </trkpt>
      <trkpt lat="41.40709" lon="1.777263">
        <ele>213.072</ele>
        <time>2017-04-29T10:35:30Z</time>
      </trkpt>
      <trkpt lat="41.407177" lon="1.77717">
        <ele>213.029</ele>
        <time>2017-04-29T10:35:33Z</time>
      </trkpt>
      <trkpt lat="41.407271" lon="1.777046">
        <ele>210.039</ele>
        <time>2017-04-29T10:35:36Z</time>
      </trkpt>
      <trkpt lat="41.407355" lon="1.776959">
        <ele>211.001</ele>
        <time>2017-04-29T10:35:38Z</time>
      </trkpt>
      <trkpt lat="41.407461" lon="1.776884">
        <ele>211.021</ele>
        <time>2017-04-29T10:35:40Z</time>
      </trkpt>
      <trkpt lat="41.407581" lon="1.776816">
        <ele>211.008</ele>
        <time>2017-04-29T10:35:42Z</time>
      </trkpt>
      <trkpt lat="41.407691" lon="1.776696">
        <ele>212.084</ele>
        <time>2017-04-29T10:35:44Z</time>
      </trkpt>
      <trkpt lat="41.407776" lon="1.776526">
        <ele>211.05</ele>
        <time>2017-04-29T10:35:46Z</time>
      </trkpt>
      <trkpt lat="41.407868" lon="1.776398">
        <ele>210.017</ele>
        <time>2017-04-29T10:35:48Z</time>
      </trkpt>
      <trkpt lat="41.407978" lon="1.776287">
        <ele>208.07</ele>
        <time>2017-04-29T10:35:50Z</time>
      </trkpt>
      <trkpt lat="41.408079" lon="1.776166">
        <ele>208.049</ele>
        <time>2017-04-29T10:35:52Z</time>
      </trkpt>
      <trkpt lat="41.408154" lon="1.776024">
        <ele>208.029</ele>
        <time>2017-04-29T10:35:54Z</time>
      </trkpt>
      <trkpt lat="41.408242" lon="1.775909">
        <ele>206.08</ele>
        <time>2017-04-29T10:35:56Z</time>
      </trkpt>
      <trkpt lat="41.40839" lon="1.775836">
        <ele>202.017</ele>
        <time>2017-04-29T10:35:58Z</time>
      </trkpt>
      <trkpt lat="41.408511" lon="1.775762">
        <ele>200.056</ele>
        <time>2017-04-29T10:36:00Z</time>
      </trkpt>
      <trkpt lat="41.408622" lon="1.775683">
        <ele>199.059</ele>
        <time>2017-04-29T10:36:02Z</time>
      </trkpt>
      <trkpt lat="41.40872" lon="1.775576">
        <ele>197.014</ele>
        <time>2017-04-29T10:36:04Z</time>
      </trkpt>
      <trkpt lat="41.408807" lon="1.775488">
        <ele>196.008</ele>
        <time>2017-04-29T10:36:06Z</time>
      </trkpt>
      <trkpt lat="41.408925" lon="1.775441">
        <ele>197.056</ele>
        <time>2017-04-29T10:36:09Z</time>
      </trkpt>
      <trkpt lat="41.409041" lon="1.775491">
        <ele>198.022</ele>
        <time>2017-04-29T10:36:12Z</time>
      </trkpt>
      <trkpt lat="41.409157" lon="1.77554">
        <ele>195.099</ele>
        <time>2017-04-29T10:36:15Z</time>
      </trkpt>
      <trkpt lat="41.409253" lon="1.775574">
        <ele>196.092</ele>
        <time>2017-04-29T10:36:19Z</time>
      </trkpt>
      <trkpt lat="41.409341" lon="1.775539">
        <ele>194.041</ele>
        <time>2017-04-29T10:36:23Z</time>
      </trkpt>
      <trkpt lat="41.409431" lon="1.775498">
        <ele>195.011</ele>
        <time>2017-04-29T10:36:28Z</time>
      </trkpt>
      <trkpt lat="41.40953" lon="1.775555">
        <ele>199.092</ele>
        <time>2017-04-29T10:36:33Z</time>
      </trkpt>
      <trkpt lat="41.409617" lon="1.775619">
        <ele>201.069</ele>
        <time>2017-04-29T10:36:37Z</time>
      </trkpt>
      <trkpt lat="41.409731" lon="1.77568">
        <ele>200.031</ele>
        <time>2017-04-29T10:36:41Z</time>
      </trkpt>
      <trkpt lat="41.409825" lon="1.775723">
        <ele>200.061</ele>
        <time>2017-04-29T10:36:45Z</time>
      </trkpt>
      <trkpt lat="41.409925" lon="1.775766">
        <ele>202.007</ele>
        <time>2017-04-29T10:36:49Z</time>
      </trkpt>
      <trkpt lat="41.41004" lon="1.775772">
        <ele>203.008</ele>
        <time>2017-04-29T10:36:54Z</time>
      </trkpt>
      <trkpt lat="41.41014" lon="1.775792">
        <ele>203.014</ele>
        <time>2017-04-29T10:36:58Z</time>
      </trkpt>
      <trkpt lat="41.410236" lon="1.775824">
        <ele>205.02</ele>
        <time>2017-04-29T10:37:02Z</time>
      </trkpt>
      <trkpt lat="41.410336" lon="1.775884">
        <ele>206.027</ele>
        <time>2017-04-29T10:37:07Z</time>
      </trkpt>
      <trkpt lat="41.410437" lon="1.775906">
        <ele>206.02</ele>
        <time>2017-04-29T10:37:11Z</time>
      </trkpt>
      <trkpt lat="41.410543" lon="1.775889">
        <ele>208.059</ele>
        <time>2017-04-29T10:37:17Z</time>
      </trkpt>
      <trkpt lat="41.410653" lon="1.775919">
        <ele>213.049</ele>
        <time>2017-04-29T10:37:23Z</time>
      </trkpt>
      <trkpt lat="41.410746" lon="1.77596">
        <ele>212.06</ele>
        <time>2017-04-29T10:37:27Z</time>
      </trkpt>
      <trkpt lat="41.410837" lon="1.775921">
        <ele>214.087</ele>
        <time>2017-04-29T10:37:32Z</time>
      </trkpt>
      <trkpt lat="41.410918" lon="1.775845">
        <ele>213.077</ele>
        <time>2017-04-29T10:37:37Z</time>
      </trkpt>
      <trkpt lat="41.41099" lon="1.775755">
        <ele>215.061</ele>
        <time>2017-04-29T10:37:41Z</time>
      </trkpt>
      <trkpt lat="41.411062" lon="1.775659">
        <ele>216.027</ele>
        <time>2017-04-29T10:37:47Z</time>
      </trkpt>
      <trkpt lat="41.411127" lon="1.775568">
        <ele>216.008</ele>
        <time>2017-04-29T10:37:52Z</time>
      </trkpt>
      <trkpt lat="41.411235" lon="1.775568">
        <ele>218.078</ele>
        <time>2017-04-29T10:37:58Z</time>
      </trkpt>
      <trkpt lat="41.41134" lon="1.775612">
        <ele>215.094</ele>
        <time>2017-04-29T10:38:02Z</time>
      </trkpt>
      <trkpt lat="41.41143" lon="1.775653">
        <ele>210.071</ele>
        <time>2017-04-29T10:38:06Z</time>
      </trkpt>
      <trkpt lat="41.41153" lon="1.775672">
        <ele>209.064</ele>
        <time>2017-04-29T10:38:11Z</time>
      </trkpt>
      <trkpt lat="41.41163" lon="1.77566">
        <ele>209.053</ele>
        <time>2017-04-29T10:38:15Z</time>
      </trkpt>
      <trkpt lat="41.411724" lon="1.775653">
        <ele>208.093</ele>
        <time>2017-04-29T10:38:19Z</time>
      </trkpt>
      <trkpt lat="41.41184" lon="1.775656">
        <ele>206.064</ele>
        <time>2017-04-29T10:38:23Z</time>
      </trkpt>
      <trkpt lat="41.41195" lon="1.775655">
        <ele>208.041</ele>
        <time>2017-04-29T10:38:28Z</time>
      </trkpt>
      <trkpt lat="41.412047" lon="1.775664">
        <ele>206.052</ele>
        <time>2017-04-29T10:38:33Z</time>
      </trkpt>
      <trkpt lat="41.412152" lon="1.775697">
        <ele>205.053</ele>
        <time>2017-04-29T10:38:36Z</time>
      </trkpt>
      <trkpt lat="41.41225" lon="1.775712">
        <ele>205.008</ele>
        <time>2017-04-29T10:38:38Z</time>
      </trkpt>
      <trkpt lat="41.412356" lon="1.775712">
        <ele>204.008</ele>
        <time>2017-04-29T10:38:41Z</time>
      </trkpt>
      <trkpt lat="41.412473" lon="1.775739">
        <ele>203.096</ele>
        <time>2017-04-29T10:38:43Z</time>
      </trkpt>
      <trkpt lat="41.412608" lon="1.77576">
        <ele>202.022</ele>
        <time>2017-04-29T10:38:45Z</time>
      </trkpt>
      <trkpt lat="41.412748" lon="1.77577">
        <ele>201.029</ele>
        <time>2017-04-29T10:38:47Z</time>
      </trkpt>
      <trkpt lat="41.412898" lon="1.775795">
        <ele>202.052</ele>
        <time>2017-04-29T10:38:49Z</time>
      </trkpt>
      <trkpt lat="41.413055" lon="1.775815">
        <ele>202.051</ele>
        <time>2017-04-29T10:38:51Z</time>
      </trkpt>
      <trkpt lat="41.413199" lon="1.775829">
        <ele>204.031</ele>
        <time>2017-04-29T10:38:53Z</time>
      </trkpt>
      <trkpt lat="41.41333" lon="1.775828">
        <ele>203.032</ele>
        <time>2017-04-29T10:38:55Z</time>
      </trkpt>
      <trkpt lat="41.41347" lon="1.775872">
        <ele>199.079</ele>
        <time>2017-04-29T10:38:57Z</time>
      </trkpt>
      <trkpt lat="41.413635" lon="1.775927">
        <ele>193.011</ele>
        <time>2017-04-29T10:38:59Z</time>
      </trkpt>
      <trkpt lat="41.413803" lon="1.775983">
        <ele>192.021</ele>
        <time>2017-04-29T10:39:01Z</time>
      </trkpt>
      <trkpt lat="41.413945" lon="1.776044">
        <ele>191.003</ele>
        <time>2017-04-29T10:39:03Z</time>
      </trkpt>
      <trkpt lat="41.414069" lon="1.776138">
        <ele>189.008</ele>
        <time>2017-04-29T10:39:05Z</time>
      </trkpt>
      <trkpt lat="41.414191" lon="1.77625">
        <ele>187.022</ele>
        <time>2017-04-29T10:39:07Z</time>
      </trkpt>
      <trkpt lat="41.414295" lon="1.776341">
        <ele>187.048</ele>
        <time>2017-04-29T10:39:09Z</time>
      </trkpt>
      <trkpt lat="41.414413" lon="1.776336">
        <ele>185.055</ele>
        <time>2017-04-29T10:39:11Z</time>
      </trkpt>
      <trkpt lat="41.414531" lon="1.77627">
        <ele>185.038</ele>
        <time>2017-04-29T10:39:13Z</time>
      </trkpt>
      <trkpt lat="41.414633" lon="1.776202">
        <ele>184.047</ele>
        <time>2017-04-29T10:39:15Z</time>
      </trkpt>
      <trkpt lat="41.414724" lon="1.776134">
        <ele>184.027</ele>
        <time>2017-04-29T10:39:17Z</time>
      </trkpt>
      <trkpt lat="41.414812" lon="1.776074">
        <ele>188.028</ele>
        <time>2017-04-29T10:39:19Z</time>
      </trkpt>
      <trkpt lat="41.414892" lon="1.775999">
        <ele>189.035</ele>
        <time>2017-04-29T10:39:21Z</time>
      </trkpt>
      <trkpt lat="41.414965" lon="1.775924">
        <ele>189.026</ele>
        <time>2017-04-29T10:39:23Z</time>
      </trkpt>
      <trkpt lat="41.415048" lon="1.775852">
        <ele>190.047</ele>
        <time>2017-04-29T10:39:25Z</time>
      </trkpt>
      <trkpt lat="41.415134" lon="1.775777">
        <ele>188.011</ele>
        <time>2017-04-29T10:39:27Z</time>
      </trkpt>
      <trkpt lat="41.415209" lon="1.775703">
        <ele>189.008</ele>
        <time>2017-04-29T10:39:29Z</time>
      </trkpt>
      <trkpt lat="41.4153" lon="1.775628">
        <ele>188.013</ele>
        <time>2017-04-29T10:39:31Z</time>
      </trkpt>
      <trkpt lat="41.415419" lon="1.775539">
        <ele>186.019</ele>
        <time>2017-04-29T10:39:34Z</time>
      </trkpt>
      <trkpt lat="41.415496" lon="1.775469">
        <ele>184.076</ele>
        <time>2017-04-29T10:39:36Z</time>
      </trkpt>
      <trkpt lat="41.415599" lon="1.775462">
        <ele>183.039</ele>
        <time>2017-04-29T10:39:40Z</time>
      </trkpt>
      <trkpt lat="41.415637" lon="1.775594">
        <ele>184.028</ele>
        <time>2017-04-29T10:39:45Z</time>
      </trkpt>
      <trkpt lat="41.41569" lon="1.775701">
        <ele>186.038</ele>
        <time>2017-04-29T10:39:51Z</time>
      </trkpt>
      <trkpt lat="41.415778" lon="1.775795">
        <ele>186.019</ele>
        <time>2017-04-29T10:39:55Z</time>
      </trkpt>
      <trkpt lat="41.415863" lon="1.77587">
        <ele>184.026</ele>
        <time>2017-04-29T10:39:58Z</time>
      </trkpt>
      <trkpt lat="41.415944" lon="1.775933">
        <ele>185.094</ele>
        <time>2017-04-29T10:40:01Z</time>
      </trkpt>
      <trkpt lat="41.416031" lon="1.775988">
        <ele>185.057</ele>
        <time>2017-04-29T10:40:04Z</time>
      </trkpt>
      <trkpt lat="41.416137" lon="1.776059">
        <ele>186.022</ele>
        <time>2017-04-29T10:40:07Z</time>
      </trkpt>
      <trkpt lat="41.416237" lon="1.77614">
        <ele>188.008</ele>
        <time>2017-04-29T10:40:10Z</time>
      </trkpt>
      <trkpt lat="41.416348" lon="1.776233">
        <ele>188.06</ele>
        <time>2017-04-29T10:40:13Z</time>
      </trkpt>
      <trkpt lat="41.41642" lon="1.776331">
        <ele>187.096</ele>
        <time>2017-04-29T10:40:15Z</time>
      </trkpt>
      <trkpt lat="41.416488" lon="1.776441">
        <ele>187.093</ele>
        <time>2017-04-29T10:40:17Z</time>
      </trkpt>
      <trkpt lat="41.416552" lon="1.776557">
        <ele>187.036</ele>
        <time>2017-04-29T10:40:19Z</time>
      </trkpt>
      <trkpt lat="41.416621" lon="1.776677">
        <ele>186.015</ele>
        <time>2017-04-29T10:40:21Z</time>
      </trkpt>
      <trkpt lat="41.416667" lon="1.776808">
        <ele>189.085</ele>
        <time>2017-04-29T10:40:23Z</time>
      </trkpt>
      <trkpt lat="41.416705" lon="1.776956">
        <ele>189.056</ele>
        <time>2017-04-29T10:40:25Z</time>
      </trkpt>
      <trkpt lat="41.41673" lon="1.777112">
        <ele>188.023</ele>
        <time>2017-04-29T10:40:27Z</time>
      </trkpt>
      <trkpt lat="41.41674" lon="1.777272">
        <ele>186.061</ele>
        <time>2017-04-29T10:40:29Z</time>
      </trkpt>
      <trkpt lat="41.41671" lon="1.777433">
        <ele>185.021</ele>
        <time>2017-04-29T10:40:31Z</time>
      </trkpt>
      <trkpt lat="41.416708" lon="1.777579">
        <ele>183.013</ele>
        <time>2017-04-29T10:40:33Z</time>
      </trkpt>
      <trkpt lat="41.416772" lon="1.777724">
        <ele>184.008</ele>
        <time>2017-04-29T10:40:36Z</time>
      </trkpt>
      <trkpt lat="41.416863" lon="1.777805">
        <ele>186.057</ele>
        <time>2017-04-29T10:40:39Z</time>
      </trkpt>
      <trkpt lat="41.416949" lon="1.777905">
        <ele>187.033</ele>
        <time>2017-04-29T10:40:42Z</time>
      </trkpt>
      <trkpt lat="41.41701" lon="1.778014">
        <ele>189.09</ele>
        <time>2017-04-29T10:40:45Z</time>
      </trkpt>
      <trkpt lat="41.417021" lon="1.778167">
        <ele>189.033</ele>
        <time>2017-04-29T10:40:48Z</time>
      </trkpt>
      <trkpt lat="41.417005" lon="1.778302">
        <ele>187.062</ele>
        <time>2017-04-29T10:40:51Z</time>
      </trkpt>
      <trkpt lat="41.416975" lon="1.77843">
        <ele>189.072</ele>
        <time>2017-04-29T10:40:54Z</time>
      </trkpt>
      <trkpt lat="41.416942" lon="1.778578">
        <ele>188.073</ele>
        <time>2017-04-29T10:40:58Z</time>
      </trkpt>
      <trkpt lat="41.41692" lon="1.778722">
        <ele>188.04</ele>
        <time>2017-04-29T10:41:02Z</time>
      </trkpt>
      <trkpt lat="41.416892" lon="1.778878">
        <ele>187.016</ele>
        <time>2017-04-29T10:41:06Z</time>
      </trkpt>
      <trkpt lat="41.416891" lon="1.779017">
        <ele>189.076</ele>
        <time>2017-04-29T10:41:10Z</time>
      </trkpt>
      <trkpt lat="41.416897" lon="1.779139">
        <ele>189.013</ele>
        <time>2017-04-29T10:41:14Z</time>
      </trkpt>
      <trkpt lat="41.416909" lon="1.779283">
        <ele>191.008</ele>
        <time>2017-04-29T10:41:19Z</time>
      </trkpt>
      <trkpt lat="41.41694" lon="1.7794">
        <ele>193.082</ele>
        <time>2017-04-29T10:41:24Z</time>
      </trkpt>
      <trkpt lat="41.416949" lon="1.779534">
        <ele>198.058</ele>
        <time>2017-04-29T10:41:31Z</time>
      </trkpt>
      <trkpt lat="41.417036" lon="1.779593">
        <ele>200.065</ele>
        <time>2017-04-29T10:41:36Z</time>
      </trkpt>
      <trkpt lat="41.417141" lon="1.779551">
        <ele>201.058</ele>
        <time>2017-04-29T10:41:41Z</time>
      </trkpt>
      <trkpt lat="41.417224" lon="1.779492">
        <ele>204.037</ele>
        <time>2017-04-29T10:41:45Z</time>
      </trkpt>
      <trkpt lat="41.417299" lon="1.779419">
        <ele>203.077</ele>
        <time>2017-04-29T10:41:49Z</time>
      </trkpt>
      <trkpt lat="41.417387" lon="1.77933">
        <ele>203.058</ele>
        <time>2017-04-29T10:41:54Z</time>
      </trkpt>
      <trkpt lat="41.417466" lon="1.779223">
        <ele>204.015</ele>
        <time>2017-04-29T10:41:59Z</time>
      </trkpt>
      <trkpt lat="41.417545" lon="1.779161">
        <ele>207.046</ele>
        <time>2017-04-29T10:42:03Z</time>
      </trkpt>
      <trkpt lat="41.417642" lon="1.779097">
        <ele>205.088</ele>
        <time>2017-04-29T10:42:07Z</time>
      </trkpt>
      <trkpt lat="41.417733" lon="1.779086">
        <ele>206.016</ele>
        <time>2017-04-29T10:42:10Z</time>
      </trkpt>
      <trkpt lat="41.417821" lon="1.779062">
        <ele>206.008</ele>
        <time>2017-04-29T10:42:13Z</time>
      </trkpt>
      <trkpt lat="41.417933" lon="1.779035">
        <ele>205.045</ele>
        <time>2017-04-29T10:42:17Z</time>
      </trkpt>
      <trkpt lat="41.418023" lon="1.779019">
        <ele>205.021</ele>
        <time>2017-04-29T10:42:20Z</time>
      </trkpt>
      <trkpt lat="41.418112" lon="1.778984">
        <ele>203.058</ele>
        <time>2017-04-29T10:42:23Z</time>
      </trkpt>
      <trkpt lat="41.418229" lon="1.778961">
        <ele>205.071</ele>
        <time>2017-04-29T10:42:27Z</time>
      </trkpt>
      <trkpt lat="41.418337" lon="1.778931">
        <ele>208.01</ele>
        <time>2017-04-29T10:42:31Z</time>
      </trkpt>
      <trkpt lat="41.418422" lon="1.778888">
        <ele>207.06</ele>
        <time>2017-04-29T10:42:34Z</time>
      </trkpt>
      <trkpt lat="41.418508" lon="1.778852">
        <ele>209.061</ele>
        <time>2017-04-29T10:42:37Z</time>
      </trkpt>
      <trkpt lat="41.418606" lon="1.778788">
        <ele>210.018</ele>
        <time>2017-04-29T10:42:41Z</time>
      </trkpt>
      <trkpt lat="41.418706" lon="1.778743">
        <ele>212.077</ele>
        <time>2017-04-29T10:42:45Z</time>
      </trkpt>
      <trkpt lat="41.41879" lon="1.778696">
        <ele>213.061</ele>
        <time>2017-04-29T10:42:48Z</time>
      </trkpt>
      <trkpt lat="41.418877" lon="1.778641">
        <ele>217.027</ele>
        <time>2017-04-29T10:42:52Z</time>
      </trkpt>
      <trkpt lat="41.418963" lon="1.778576">
        <ele>218.008</ele>
        <time>2017-04-29T10:42:56Z</time>
      </trkpt>
      <trkpt lat="41.419053" lon="1.778529">
        <ele>215.048</ele>
        <time>2017-04-29T10:43:00Z</time>
      </trkpt>
      <trkpt lat="41.419143" lon="1.778445">
        <ele>215.064</ele>
        <time>2017-04-29T10:43:05Z</time>
      </trkpt>
      <trkpt lat="41.41922" lon="1.778371">
        <ele>216.051</ele>
        <time>2017-04-29T10:43:09Z</time>
      </trkpt>
      <trkpt lat="41.419312" lon="1.778291">
        <ele>217.094</ele>
        <time>2017-04-29T10:43:12Z</time>
      </trkpt>
      <trkpt lat="41.419396" lon="1.778206">
        <ele>216.053</ele>
        <time>2017-04-29T10:43:16Z</time>
      </trkpt>
      <trkpt lat="41.419484" lon="1.778126">
        <ele>215.013</ele>
        <time>2017-04-29T10:43:20Z</time>
      </trkpt>
      <trkpt lat="41.419579" lon="1.778104">
        <ele>218.014</ele>
        <time>2017-04-29T10:43:26Z</time>
      </trkpt>
      <trkpt lat="41.419641" lon="1.778205">
        <ele>220.061</ele>
        <time>2017-04-29T10:43:31Z</time>
      </trkpt>
      <trkpt lat="41.419669" lon="1.778333">
        <ele>221.065</ele>
        <time>2017-04-29T10:43:35Z</time>
      </trkpt>
      <trkpt lat="41.419713" lon="1.778475">
        <ele>221.068</ele>
        <time>2017-04-29T10:43:39Z</time>
      </trkpt>
      <trkpt lat="41.419752" lon="1.778604">
        <ele>221.014</ele>
        <time>2017-04-29T10:43:43Z</time>
      </trkpt>
      <trkpt lat="41.419802" lon="1.778739">
        <ele>222.008</ele>
        <time>2017-04-29T10:43:47Z</time>
      </trkpt>
      <trkpt lat="41.419846" lon="1.778869">
        <ele>220.047</ele>
        <time>2017-04-29T10:43:51Z</time>
      </trkpt>
      <trkpt lat="41.4199" lon="1.779006">
        <ele>222.083</ele>
        <time>2017-04-29T10:43:55Z</time>
      </trkpt>
      <trkpt lat="41.419957" lon="1.779118">
        <ele>223.05</ele>
        <time>2017-04-29T10:43:59Z</time>
      </trkpt>
      <trkpt lat="41.420028" lon="1.779238">
        <ele>224.053</ele>
        <time>2017-04-29T10:44:03Z</time>
      </trkpt>
      <trkpt lat="41.420099" lon="1.77936">
        <ele>223.042</ele>
        <time>2017-04-29T10:44:07Z</time>
      </trkpt>
      <trkpt lat="41.42016" lon="1.779459">
        <ele>222.012</ele>
        <time>2017-04-29T10:44:10Z</time>
      </trkpt>
      <trkpt lat="41.420242" lon="1.779569">
        <ele>220.083</ele>
        <time>2017-04-29T10:44:14Z</time>
      </trkpt>
      <trkpt lat="41.420307" lon="1.779654">
        <ele>221.05</ele>
        <time>2017-04-29T10:44:17Z</time>
      </trkpt>
      <trkpt lat="41.42037" lon="1.779751">
        <ele>220.086</ele>
        <time>2017-04-29T10:44:20Z</time>
      </trkpt>
      <trkpt lat="41.420456" lon="1.77985">
        <ele>221.06</ele>
        <time>2017-04-29T10:44:24Z</time>
      </trkpt>
      <trkpt lat="41.420542" lon="1.779938">
        <ele>221.026</ele>
        <time>2017-04-29T10:44:28Z</time>
      </trkpt>
      <trkpt lat="41.420626" lon="1.780014">
        <ele>221.008</ele>
        <time>2017-04-29T10:44:31Z</time>
      </trkpt>
      <trkpt lat="41.420712" lon="1.780092">
        <ele>220.079</ele>
        <time>2017-04-29T10:44:34Z</time>
      </trkpt>
      <trkpt lat="41.420815" lon="1.780172">
        <ele>221.035</ele>
        <time>2017-04-29T10:44:37Z</time>
      </trkpt>
      <trkpt lat="41.420923" lon="1.780244">
        <ele>223.062</ele>
        <time>2017-04-29T10:44:40Z</time>
      </trkpt>
      <trkpt lat="41.421045" lon="1.780312">
        <ele>223.065</ele>
        <time>2017-04-29T10:44:43Z</time>
      </trkpt>
      <trkpt lat="41.421138" lon="1.78036">
        <ele>225.044</ele>
        <time>2017-04-29T10:44:45Z</time>
      </trkpt>
      <trkpt lat="41.421231" lon="1.780438">
        <ele>222.094</ele>
        <time>2017-04-29T10:44:48Z</time>
      </trkpt>
      <trkpt lat="41.421322" lon="1.780505">
        <ele>223.045</ele>
        <time>2017-04-29T10:44:50Z</time>
      </trkpt>
      <trkpt lat="41.421428" lon="1.780567">
        <ele>222.042</ele>
        <time>2017-04-29T10:44:52Z</time>
      </trkpt>
      <trkpt lat="41.421525" lon="1.780633">
        <ele>222.043</ele>
        <time>2017-04-29T10:44:54Z</time>
      </trkpt>
      <trkpt lat="41.421631" lon="1.780702">
        <ele>223.064</ele>
        <time>2017-04-29T10:44:56Z</time>
      </trkpt>
      <trkpt lat="41.421746" lon="1.780806">
        <ele>219.01</ele>
        <time>2017-04-29T10:44:58Z</time>
      </trkpt>
      <trkpt lat="41.421849" lon="1.780873">
        <ele>218.008</ele>
        <time>2017-04-29T10:45:00Z</time>
      </trkpt>
      <trkpt lat="41.42196" lon="1.780945">
        <ele>215.055</ele>
        <time>2017-04-29T10:45:02Z</time>
      </trkpt>
      <trkpt lat="41.422065" lon="1.781034">
        <ele>215.071</ele>
        <time>2017-04-29T10:45:04Z</time>
      </trkpt>
      <trkpt lat="41.42218" lon="1.781113">
        <ele>215.068</ele>
        <time>2017-04-29T10:45:06Z</time>
      </trkpt>
      <trkpt lat="41.422296" lon="1.781197">
        <ele>214.091</ele>
        <time>2017-04-29T10:45:08Z</time>
      </trkpt>
      <trkpt lat="41.422401" lon="1.781288">
        <ele>215.04</ele>
        <time>2017-04-29T10:45:10Z</time>
      </trkpt>
      <trkpt lat="41.422513" lon="1.781311">
        <ele>216.01</ele>
        <time>2017-04-29T10:45:12Z</time>
      </trkpt>
      <trkpt lat="41.422626" lon="1.781297">
        <ele>217.021</ele>
        <time>2017-04-29T10:45:14Z</time>
      </trkpt>
      <trkpt lat="41.422744" lon="1.78128">
        <ele>216.098</ele>
        <time>2017-04-29T10:45:16Z</time>
      </trkpt>
      <trkpt lat="41.422858" lon="1.781226">
        <ele>216.069</ele>
        <time>2017-04-29T10:45:18Z</time>
      </trkpt>
      <trkpt lat="41.422964" lon="1.781197">
        <ele>218.004</ele>
        <time>2017-04-29T10:45:20Z</time>
      </trkpt>
      <trkpt lat="41.423069" lon="1.781159">
        <ele>218.024</ele>
        <time>2017-04-29T10:45:22Z</time>
      </trkpt>
      <trkpt lat="41.42318" lon="1.781101">
        <ele>216.008</ele>
        <time>2017-04-29T10:45:24Z</time>
      </trkpt>
      <trkpt lat="41.423281" lon="1.781047">
        <ele>216.097</ele>
        <time>2017-04-29T10:45:26Z</time>
      </trkpt>
      <trkpt lat="41.423383" lon="1.781007">
        <ele>217.063</ele>
        <time>2017-04-29T10:45:28Z</time>
      </trkpt>
      <trkpt lat="41.423493" lon="1.781015">
        <ele>218.07</ele>
        <time>2017-04-29T10:45:30Z</time>
      </trkpt>
      <trkpt lat="41.423573" lon="1.781091">
        <ele>218.083</ele>
        <time>2017-04-29T10:45:32Z</time>
      </trkpt>
      <trkpt lat="41.423638" lon="1.781187">
        <ele>217.092</ele>
        <time>2017-04-29T10:45:34Z</time>
      </trkpt>
      <trkpt lat="41.423721" lon="1.7813">
        <ele>218.062</ele>
        <time>2017-04-29T10:45:37Z</time>
      </trkpt>
      <trkpt lat="41.423786" lon="1.781423">
        <ele>221.063</ele>
        <time>2017-04-29T10:45:40Z</time>
      </trkpt>
      <trkpt lat="41.423845" lon="1.781542">
        <ele>224.01</ele>
        <time>2017-04-29T10:45:43Z</time>
      </trkpt>
      <trkpt lat="41.423915" lon="1.781667">
        <ele>229.035</ele>
        <time>2017-04-29T10:45:47Z</time>
      </trkpt>
      <trkpt lat="41.423964" lon="1.781787">
        <ele>230.086</ele>
        <time>2017-04-29T10:45:50Z</time>
      </trkpt>
      <trkpt lat="41.424026" lon="1.781887">
        <ele>230.014</ele>
        <time>2017-04-29T10:45:53Z</time>
      </trkpt>
      <trkpt lat="41.424091" lon="1.78198">
        <ele>230.008</ele>
        <time>2017-04-29T10:45:56Z</time>
      </trkpt>
      <trkpt lat="41.42415" lon="1.782114">
        <ele>233.024</ele>
        <time>2017-04-29T10:46:00Z</time>
      </trkpt>
      <trkpt lat="41.424218" lon="1.782194">
        <ele>233.04</ele>
        <time>2017-04-29T10:46:03Z</time>
      </trkpt>
      <trkpt lat="41.424304" lon="1.782311">
        <ele>232.037</ele>
        <time>2017-04-29T10:46:07Z</time>
      </trkpt>
      <trkpt lat="41.424373" lon="1.782408">
        <ele>236.08</ele>
        <time>2017-04-29T10:46:11Z</time>
      </trkpt>
      <trkpt lat="41.424419" lon="1.782537">
        <ele>238.099</ele>
        <time>2017-04-29T10:46:15Z</time>
      </trkpt>
      <trkpt lat="41.42447" lon="1.782649">
        <ele>242.049</ele>
        <time>2017-04-29T10:46:19Z</time>
      </trkpt>
      <trkpt lat="41.424581" lon="1.78275">
        <ele>236.02</ele>
        <time>2017-04-29T10:46:22Z</time>
      </trkpt>
      <trkpt lat="41.424667" lon="1.782817">
        <ele>236.087</ele>
        <time>2017-04-29T10:46:24Z</time>
      </trkpt>
      <trkpt lat="41.424775" lon="1.782936">
        <ele>234.041</ele>
        <time>2017-04-29T10:46:27Z</time>
      </trkpt>
      <trkpt lat="41.424836" lon="1.783032">
        <ele>233.081</ele>
        <time>2017-04-29T10:46:29Z</time>
      </trkpt>
      <trkpt lat="41.424905" lon="1.783134">
        <ele>234.009</ele>
        <time>2017-04-29T10:46:31Z</time>
      </trkpt>
      <trkpt lat="41.424976" lon="1.783253">
        <ele>233.008</ele>
        <time>2017-04-29T10:46:33Z</time>
      </trkpt>
      <trkpt lat="41.425052" lon="1.783364">
        <ele>234.085</ele>
        <time>2017-04-29T10:46:35Z</time>
      </trkpt>
      <trkpt lat="41.425146" lon="1.783478">
        <ele>233.021</ele>
        <time>2017-04-29T10:46:37Z</time>
      </trkpt>
      <trkpt lat="41.425223" lon="1.783597">
        <ele>231.068</ele>
        <time>2017-04-29T10:46:39Z</time>
      </trkpt>
      <trkpt lat="41.425307" lon="1.78371">
        <ele>229.061</ele>
        <time>2017-04-29T10:46:41Z</time>
      </trkpt>
      <trkpt lat="41.425415" lon="1.783834">
        <ele>226.02</ele>
        <time>2017-04-29T10:46:43Z</time>
      </trkpt>
      <trkpt lat="41.425556" lon="1.783966">
        <ele>225.03</ele>
        <time>2017-04-29T10:46:45Z</time>
      </trkpt>
      <trkpt lat="41.425691" lon="1.784117">
        <ele>222.081</ele>
        <time>2017-04-29T10:46:47Z</time>
      </trkpt>
      <trkpt lat="41.425801" lon="1.784273">
        <ele>222.048</ele>
        <time>2017-04-29T10:46:49Z</time>
      </trkpt>
      <trkpt lat="41.425902" lon="1.784436">
        <ele>222.051</ele>
        <time>2017-04-29T10:46:51Z</time>
      </trkpt>
      <trkpt lat="41.426022" lon="1.784575">
        <ele>220.001</ele>
        <time>2017-04-29T10:46:53Z</time>
      </trkpt>
      <trkpt lat="41.426135" lon="1.784756">
        <ele>217.011</ele>
        <time>2017-04-29T10:46:55Z</time>
      </trkpt>
      <trkpt lat="41.42616" lon="1.784889">
        <ele>217.008</ele>
        <time>2017-04-29T10:46:58Z</time>
      </trkpt>
      <trkpt lat="41.426138" lon="1.785017">
        <ele>217.036</ele>
        <time>2017-04-29T10:47:03Z</time>
      </trkpt>
      <trkpt lat="41.426114" lon="1.785165">
        <ele>219.022</ele>
        <time>2017-04-29T10:47:07Z</time>
      </trkpt>
      <trkpt lat="41.426067" lon="1.785287">
        <ele>221.069</ele>
        <time>2017-04-29T10:47:10Z</time>
      </trkpt>
      <trkpt lat="41.426031" lon="1.785434">
        <ele>221.032</ele>
        <time>2017-04-29T10:47:13Z</time>
      </trkpt>
      <trkpt lat="41.425997" lon="1.785557">
        <ele>222.031</ele>
        <time>2017-04-29T10:47:15Z</time>
      </trkpt>
      <trkpt lat="41.425968" lon="1.78569">
        <ele>223.071</ele>
        <time>2017-04-29T10:47:17Z</time>
      </trkpt>
      <trkpt lat="41.425935" lon="1.785835">
        <ele>224.072</ele>
        <time>2017-04-29T10:47:19Z</time>
      </trkpt>
      <trkpt lat="41.425896" lon="1.785985">
        <ele>224.079</ele>
        <time>2017-04-29T10:47:21Z</time>
      </trkpt>
      <trkpt lat="41.425891" lon="1.786145">
        <ele>224.079</ele>
        <time>2017-04-29T10:47:23Z</time>
      </trkpt>
      <trkpt lat="41.42588" lon="1.786311">
        <ele>224.005</ele>
        <time>2017-04-29T10:47:25Z</time>
      </trkpt>
      <trkpt lat="41.425866" lon="1.786488">
        <ele>223.025</ele>
        <time>2017-04-29T10:47:27Z</time>
      </trkpt>
      <trkpt lat="41.425866" lon="1.786661">
        <ele>224.008</ele>
        <time>2017-04-29T10:47:29Z</time>
      </trkpt>
      <trkpt lat="41.425844" lon="1.786835">
        <ele>219.088</ele>
        <time>2017-04-29T10:47:31Z</time>
      </trkpt>
      <trkpt lat="41.425852" lon="1.78697">
        <ele>217.034</ele>
        <time>2017-04-29T10:47:33Z</time>
      </trkpt>
      <trkpt lat="41.425864" lon="1.787106">
        <ele>216.011</ele>
        <time>2017-04-29T10:47:35Z</time>
      </trkpt>
      <trkpt lat="41.425855" lon="1.787248">
        <ele>215.034</ele>
        <time>2017-04-29T10:47:37Z</time>
      </trkpt>
      <trkpt lat="41.425849" lon="1.787377">
        <ele>216.083</ele>
        <time>2017-04-29T10:47:39Z</time>
      </trkpt>
      <trkpt lat="41.425873" lon="1.787513">
        <ele>215.063</ele>
        <time>2017-04-29T10:47:42Z</time>
      </trkpt>
      <trkpt lat="41.425899" lon="1.787641">
        <ele>214.054</ele>
        <time>2017-04-29T10:47:44Z</time>
      </trkpt>
      <trkpt lat="41.425896" lon="1.787839">
        <ele>212.021</ele>
        <time>2017-04-29T10:47:46Z</time>
      </trkpt>
      <trkpt lat="41.425902" lon="1.788012">
        <ele>211.014</ele>
        <time>2017-04-29T10:47:48Z</time>
      </trkpt>
      <trkpt lat="41.425913" lon="1.7882">
        <ele>209.054</ele>
        <time>2017-04-29T10:47:50Z</time>
      </trkpt>
      <trkpt lat="41.425927" lon="1.788391">
        <ele>208.009</ele>
        <time>2017-04-29T10:47:52Z</time>
      </trkpt>
      <trkpt lat="41.425921" lon="1.788595">
        <ele>206.008</ele>
        <time>2017-04-29T10:47:54Z</time>
      </trkpt>
      <trkpt lat="41.425878" lon="1.78878">
        <ele>206.032</ele>
        <time>2017-04-29T10:47:56Z</time>
      </trkpt>
      <trkpt lat="41.425827" lon="1.788971">
        <ele>206.018</ele>
        <time>2017-04-29T10:47:58Z</time>
      </trkpt>
      <trkpt lat="41.425781" lon="1.789144">
        <ele>205.045</ele>
        <time>2017-04-29T10:48:00Z</time>
      </trkpt>
      <trkpt lat="41.425748" lon="1.789315">
        <ele>204.048</ele>
        <time>2017-04-29T10:48:02Z</time>
      </trkpt>
      <trkpt lat="41.425707" lon="1.789467">
        <ele>203.027</ele>
        <time>2017-04-29T10:48:04Z</time>
      </trkpt>
      <trkpt lat="41.425658" lon="1.789611">
        <ele>204.067</ele>
        <time>2017-04-29T10:48:06Z</time>
      </trkpt>
      <trkpt lat="41.425575" lon="1.789715">
        <ele>204.028</ele>
        <time>2017-04-29T10:48:08Z</time>
      </trkpt>
      <trkpt lat="41.425498" lon="1.78981">
        <ele>202.015</ele>
        <time>2017-04-29T10:48:10Z</time>
      </trkpt>
      <trkpt lat="41.425464" lon="1.789946">
        <ele>201.089</ele>
        <time>2017-04-29T10:48:12Z</time>
      </trkpt>
      <trkpt lat="41.425425" lon="1.790073">
        <ele>202.006</ele>
        <time>2017-04-29T10:48:14Z</time>
      </trkpt>
      <trkpt lat="41.425401" lon="1.790195">
        <ele>202.026</ele>
        <time>2017-04-29T10:48:16Z</time>
      </trkpt>
      <trkpt lat="41.425427" lon="1.790354">
        <ele>204.008</ele>
        <time>2017-04-29T10:48:19Z</time>
      </trkpt>
      <trkpt lat="41.425456" lon="1.790476">
        <ele>205.059</ele>
        <time>2017-04-29T10:48:21Z</time>
      </trkpt>
      <trkpt lat="41.425475" lon="1.790625">
        <ele>204.025</ele>
        <time>2017-04-29T10:48:23Z</time>
      </trkpt>
      <trkpt lat="41.425488" lon="1.790771">
        <ele>204.022</ele>
        <time>2017-04-29T10:48:25Z</time>
      </trkpt>
      <trkpt lat="41.425536" lon="1.790875">
        <ele>205.075</ele>
        <time>2017-04-29T10:48:27Z</time>
      </trkpt>
      <trkpt lat="41.425551" lon="1.791006">
        <ele>205.024</ele>
        <time>2017-04-29T10:48:30Z</time>
      </trkpt>
      <trkpt lat="41.425543" lon="1.791143">
        <ele>209.054</ele>
        <time>2017-04-29T10:48:34Z</time>
      </trkpt>
      <trkpt lat="41.425596" lon="1.79127">
        <ele>206.065</ele>
        <time>2017-04-29T10:48:39Z</time>
      </trkpt>
      <trkpt lat="41.425657" lon="1.791387">
        <ele>205.052</ele>
        <time>2017-04-29T10:48:43Z</time>
      </trkpt>
      <trkpt lat="41.425707" lon="1.791497">
        <ele>206.087</ele>
        <time>2017-04-29T10:48:46Z</time>
      </trkpt>
      <trkpt lat="41.425738" lon="1.791626">
        <ele>207.042</ele>
        <time>2017-04-29T10:48:49Z</time>
      </trkpt>
      <trkpt lat="41.425774" lon="1.791759">
        <ele>208.026</ele>
        <time>2017-04-29T10:48:52Z</time>
      </trkpt>
      <trkpt lat="41.425821" lon="1.791882">
        <ele>208.008</ele>
        <time>2017-04-29T10:48:55Z</time>
      </trkpt>
      <trkpt lat="41.42583" lon="1.792013">
        <ele>207.089</ele>
        <time>2017-04-29T10:48:58Z</time>
      </trkpt>
      <trkpt lat="41.425854" lon="1.792148">
        <ele>209.015</ele>
        <time>2017-04-29T10:49:02Z</time>
      </trkpt>
      <trkpt lat="41.425882" lon="1.792271">
        <ele>209.082</ele>
        <time>2017-04-29T10:49:05Z</time>
      </trkpt>
      <trkpt lat="41.425942" lon="1.792365">
        <ele>211.015</ele>
        <time>2017-04-29T10:49:08Z</time>
      </trkpt>
      <trkpt lat="41.42604" lon="1.792454">
        <ele>214.014</ele>
        <time>2017-04-29T10:49:12Z</time>
      </trkpt>
      <trkpt lat="41.426094" lon="1.792563">
        <ele>215.054</ele>
        <time>2017-04-29T10:49:15Z</time>
      </trkpt>
      <trkpt lat="41.426159" lon="1.792693">
        <ele>212.065</ele>
        <time>2017-04-29T10:49:18Z</time>
      </trkpt>
      <trkpt lat="41.426209" lon="1.792818">
        <ele>212.022</ele>
        <time>2017-04-29T10:49:21Z</time>
      </trkpt>
      <trkpt lat="41.426256" lon="1.792945">
        <ele>213.061</ele>
        <time>2017-04-29T10:49:24Z</time>
      </trkpt>
      <trkpt lat="41.426317" lon="1.793063">
        <ele>212.021</ele>
        <time>2017-04-29T10:49:27Z</time>
      </trkpt>
      <trkpt lat="41.426368" lon="1.793194">
        <ele>211.013</ele>
        <time>2017-04-29T10:49:30Z</time>
      </trkpt>
      <trkpt lat="41.426409" lon="1.793329">
        <ele>209.008</ele>
        <time>2017-04-29T10:49:33Z</time>
      </trkpt>
      <trkpt lat="41.42645" lon="1.793465">
        <ele>208.037</ele>
        <time>2017-04-29T10:49:36Z</time>
      </trkpt>
      <trkpt lat="41.426476" lon="1.793599">
        <ele>208.063</ele>
        <time>2017-04-29T10:49:39Z</time>
      </trkpt>
      <trkpt lat="41.426492" lon="1.793733">
        <ele>206.05</ele>
        <time>2017-04-29T10:49:42Z</time>
      </trkpt>
      <trkpt lat="41.426517" lon="1.793875">
        <ele>205.093</ele>
        <time>2017-04-29T10:49:45Z</time>
      </trkpt>
      <trkpt lat="41.426551" lon="1.794022">
        <ele>202.012</ele>
        <time>2017-04-29T10:49:48Z</time>
      </trkpt>
      <trkpt lat="41.426579" lon="1.794147">
        <ele>202.052</ele>
        <time>2017-04-29T10:49:51Z</time>
      </trkpt>
      <trkpt lat="41.426626" lon="1.794269">
        <ele>201.083</ele>
        <time>2017-04-29T10:49:54Z</time>
      </trkpt>
      <trkpt lat="41.426672" lon="1.794375">
        <ele>201.03</ele>
        <time>2017-04-29T10:49:57Z</time>
      </trkpt>
      <trkpt lat="41.426771" lon="1.794431">
        <ele>201.025</ele>
        <time>2017-04-29T10:50:02Z</time>
      </trkpt>
      <trkpt lat="41.426861" lon="1.794388">
        <ele>200.026</ele>
        <time>2017-04-29T10:50:06Z</time>
      </trkpt>
      <trkpt lat="41.426938" lon="1.794283">
        <ele>201.008</ele>
        <time>2017-04-29T10:50:11Z</time>
      </trkpt>
      <trkpt lat="41.427011" lon="1.79419">
        <ele>203.008</ele>
        <time>2017-04-29T10:50:18Z</time>
      </trkpt>
      <trkpt lat="41.42708" lon="1.794103">
        <ele>200.063</ele>
        <time>2017-04-29T10:50:31Z</time>
      </trkpt>
      <trkpt lat="41.427152" lon="1.79398">
        <ele>200.059</ele>
        <time>2017-04-29T10:52:24Z</time>
      </trkpt>
      <trkpt lat="41.427197" lon="1.793875">
        <ele>200.096</ele>
        <time>2017-04-29T10:52:27Z</time>
      </trkpt>
      <trkpt lat="41.427235" lon="1.793749">
        <ele>201.029</ele>
        <time>2017-04-29T10:52:30Z</time>
      </trkpt>
      <trkpt lat="41.427277" lon="1.793607">
        <ele>202.058</ele>
        <time>2017-04-29T10:52:33Z</time>
      </trkpt>
      <trkpt lat="41.42732" lon="1.793453">
        <ele>202.088</ele>
        <time>2017-04-29T10:52:36Z</time>
      </trkpt>
      <trkpt lat="41.427365" lon="1.79329">
        <ele>204.069</ele>
        <time>2017-04-29T10:52:39Z</time>
      </trkpt>
      <trkpt lat="41.427399" lon="1.793124">
        <ele>206.026</ele>
        <time>2017-04-29T10:52:42Z</time>
      </trkpt>
      <trkpt lat="41.427431" lon="1.792987">
        <ele>205.079</ele>
        <time>2017-04-29T10:52:45Z</time>
      </trkpt>
      <trkpt lat="41.427483" lon="1.792856">
        <ele>206.005</ele>
        <time>2017-04-29T10:52:48Z</time>
      </trkpt>
      <trkpt lat="41.427524" lon="1.792682">
        <ele>207.025</ele>
        <time>2017-04-29T10:52:51Z</time>
      </trkpt>
      <trkpt lat="41.427592" lon="1.792544">
        <ele>208.008</ele>
        <time>2017-04-29T10:52:54Z</time>
      </trkpt>
      <trkpt lat="41.427708" lon="1.79254">
        <ele>210.058</ele>
        <time>2017-04-29T10:52:57Z</time>
      </trkpt>
      <trkpt lat="41.427799" lon="1.792574">
        <ele>210.034</ele>
        <time>2017-04-29T10:52:59Z</time>
      </trkpt>
      <trkpt lat="41.427892" lon="1.792585">
        <ele>211.021</ele>
        <time>2017-04-29T10:53:01Z</time>
      </trkpt>
      <trkpt lat="41.427984" lon="1.792592">
        <ele>207.064</ele>
        <time>2017-04-29T10:53:03Z</time>
      </trkpt>
      <trkpt lat="41.428088" lon="1.792597">
        <ele>208.093</ele>
        <time>2017-04-29T10:53:06Z</time>
      </trkpt>
      <trkpt lat="41.428178" lon="1.792575">
        <ele>209.033</ele>
        <time>2017-04-29T10:53:09Z</time>
      </trkpt>
      <trkpt lat="41.428283" lon="1.792637">
        <ele>209.034</ele>
        <time>2017-04-29T10:53:13Z</time>
      </trkpt>
      <trkpt lat="41.42839" lon="1.792686">
        <ele>209.061</ele>
        <time>2017-04-29T10:53:17Z</time>
      </trkpt>
      <trkpt lat="41.428487" lon="1.792704">
        <ele>211.051</ele>
        <time>2017-04-29T10:53:21Z</time>
      </trkpt>
      <trkpt lat="41.428598" lon="1.792755">
        <ele>213.001</ele>
        <time>2017-04-29T10:53:25Z</time>
      </trkpt>
      <trkpt lat="41.428697" lon="1.792816">
        <ele>214.011</ele>
        <time>2017-04-29T10:53:29Z</time>
      </trkpt>
      <trkpt lat="41.428776" lon="1.792908">
        <ele>214.008</ele>
        <time>2017-04-29T10:53:34Z</time>
      </trkpt>
      <trkpt lat="41.428833" lon="1.793009">
        <ele>214.016</ele>
        <time>2017-04-29T10:54:09Z</time>
      </trkpt>
      <trkpt lat="41.42893" lon="1.793062">
        <ele>213.092</ele>
        <time>2017-04-29T10:54:13Z</time>
      </trkpt>
      <trkpt lat="41.429042" lon="1.793042">
        <ele>215.099</ele>
        <time>2017-04-29T10:54:17Z</time>
      </trkpt>
      <trkpt lat="41.42913" lon="1.79307">
        <ele>214.062</ele>
        <time>2017-04-29T10:54:20Z</time>
      </trkpt>
      <trkpt lat="41.42923" lon="1.793115">
        <ele>213.011</ele>
        <time>2017-04-29T10:54:24Z</time>
      </trkpt>
      <trkpt lat="41.429324" lon="1.793205">
        <ele>213.091</ele>
        <time>2017-04-29T10:54:27Z</time>
      </trkpt>
      <trkpt lat="41.429421" lon="1.793285">
        <ele>213.022</ele>
        <time>2017-04-29T10:54:30Z</time>
      </trkpt>
      <trkpt lat="41.429521" lon="1.793351">
        <ele>213.019</ele>
        <time>2017-04-29T10:54:33Z</time>
      </trkpt>
      <trkpt lat="41.429623" lon="1.793425">
        <ele>215.097</ele>
        <time>2017-04-29T10:54:36Z</time>
      </trkpt>
      <trkpt lat="41.429724" lon="1.793499">
        <ele>215.023</ele>
        <time>2017-04-29T10:54:39Z</time>
      </trkpt>
      <trkpt lat="41.429824" lon="1.793565">
        <ele>215.025</ele>
        <time>2017-04-29T10:54:42Z</time>
      </trkpt>
      <trkpt lat="41.429926" lon="1.793641">
        <ele>217.008</ele>
        <time>2017-04-29T10:54:45Z</time>
      </trkpt>
      <trkpt lat="41.430017" lon="1.793704">
        <ele>218.07</ele>
        <time>2017-04-29T10:54:48Z</time>
      </trkpt>
      <trkpt lat="41.430113" lon="1.793775">
        <ele>219.046</ele>
        <time>2017-04-29T10:54:51Z</time>
      </trkpt>
      <trkpt lat="41.430203" lon="1.793853">
        <ele>221.023</ele>
        <time>2017-04-29T10:54:54Z</time>
      </trkpt>
      <trkpt lat="41.430294" lon="1.793917">
        <ele>222.076</ele>
        <time>2017-04-29T10:54:57Z</time>
      </trkpt>
      <trkpt lat="41.430387" lon="1.793987">
        <ele>222.065</ele>
        <time>2017-04-29T10:55:00Z</time>
      </trkpt>
      <trkpt lat="41.430484" lon="1.794047">
        <ele>222.015</ele>
        <time>2017-04-29T10:55:03Z</time>
      </trkpt>
      <trkpt lat="41.430578" lon="1.794125">
        <ele>221.056</ele>
        <time>2017-04-29T10:55:06Z</time>
      </trkpt>
      <trkpt lat="41.430687" lon="1.794199">
        <ele>221.013</ele>
        <time>2017-04-29T10:55:09Z</time>
      </trkpt>
      <trkpt lat="41.4308" lon="1.794286">
        <ele>219.021</ele>
        <time>2017-04-29T10:55:12Z</time>
      </trkpt>
      <trkpt lat="41.430881" lon="1.794346">
        <ele>218.041</ele>
        <time>2017-04-29T10:55:14Z</time>
      </trkpt>
      <trkpt lat="41.430976" lon="1.794419">
        <ele>217.005</ele>
        <time>2017-04-29T10:55:16Z</time>
      </trkpt>
      <trkpt lat="41.431087" lon="1.7945">
        <ele>217.008</ele>
        <time>2017-04-29T10:55:18Z</time>
      </trkpt>
      <trkpt lat="41.431204" lon="1.794595">
        <ele>217.033</ele>
        <time>2017-04-29T10:55:20Z</time>
      </trkpt>
      <trkpt lat="41.431331" lon="1.794667">
        <ele>215.059</ele>
        <time>2017-04-29T10:55:22Z</time>
      </trkpt>
      <trkpt lat="41.431463" lon="1.794767">
        <ele>214.046</ele>
        <time>2017-04-29T10:55:24Z</time>
      </trkpt>
      <trkpt lat="41.431595" lon="1.794866">
        <ele>214.069</ele>
        <time>2017-04-29T10:55:26Z</time>
      </trkpt>
      <trkpt lat="41.431736" lon="1.794971">
        <ele>213.018</ele>
        <time>2017-04-29T10:55:28Z</time>
      </trkpt>
      <trkpt lat="41.431812" lon="1.795041">
        <ele>210.038</ele>
        <time>2017-04-29T10:55:29Z</time>
      </trkpt>
      <trkpt lat="41.431943" lon="1.795175">
        <ele>209.089</ele>
        <time>2017-04-29T10:55:31Z</time>
      </trkpt>
      <trkpt lat="41.432056" lon="1.795342">
        <ele>208.086</ele>
        <time>2017-04-29T10:55:33Z</time>
      </trkpt>
      <trkpt lat="41.432119" lon="1.795541">
        <ele>208.082</ele>
        <time>2017-04-29T10:55:35Z</time>
      </trkpt>
      <trkpt lat="41.432137" lon="1.795748">
        <ele>208.043</ele>
        <time>2017-04-29T10:55:37Z</time>
      </trkpt>
      <trkpt lat="41.432172" lon="1.795949">
        <ele>208.017</ele>
        <time>2017-04-29T10:55:39Z</time>
      </trkpt>
      <trkpt lat="41.432256" lon="1.796135">
        <ele>206.008</ele>
        <time>2017-04-29T10:55:41Z</time>
      </trkpt>
      <trkpt lat="41.432372" lon="1.796278">
        <ele>206.099</ele>
        <time>2017-04-29T10:55:43Z</time>
      </trkpt>
      <trkpt lat="41.432498" lon="1.796374">
        <ele>205.035</ele>
        <time>2017-04-29T10:55:45Z</time>
      </trkpt>
      <trkpt lat="41.432634" lon="1.796434">
        <ele>205.022</ele>
        <time>2017-04-29T10:55:47Z</time>
      </trkpt>
      <trkpt lat="41.432789" lon="1.796423">
        <ele>204.085</ele>
        <time>2017-04-29T10:55:49Z</time>
      </trkpt>
      <trkpt lat="41.432948" lon="1.796366">
        <ele>204.064</ele>
        <time>2017-04-29T10:55:51Z</time>
      </trkpt>
      <trkpt lat="41.433065" lon="1.796238">
        <ele>203.014</ele>
        <time>2017-04-29T10:55:53Z</time>
      </trkpt>
      <trkpt lat="41.433173" lon="1.796119">
        <ele>202.045</ele>
        <time>2017-04-29T10:55:55Z</time>
      </trkpt>
      <trkpt lat="41.433294" lon="1.796023">
        <ele>201.092</ele>
        <time>2017-04-29T10:55:57Z</time>
      </trkpt>
      <trkpt lat="41.433442" lon="1.795938">
        <ele>199.032</ele>
        <time>2017-04-29T10:55:59Z</time>
      </trkpt>
      <trkpt lat="41.4336" lon="1.795911">
        <ele>198.092</ele>
        <time>2017-04-29T10:56:01Z</time>
      </trkpt>
      <trkpt lat="41.433756" lon="1.795926">
        <ele>197.011</ele>
        <time>2017-04-29T10:56:02Z</time>
      </trkpt>
      <trkpt lat="41.434007" lon="1.795974">
        <ele>196.008</ele>
        <time>2017-04-29T10:56:05Z</time>
      </trkpt>
      <trkpt lat="41.434168" lon="1.796009">
        <ele>196.064</ele>
        <time>2017-04-29T10:56:07Z</time>
      </trkpt>
      <trkpt lat="41.434317" lon="1.796021">
        <ele>196.02</ele>
        <time>2017-04-29T10:56:09Z</time>
      </trkpt>
      <trkpt lat="41.43448" lon="1.796048">
        <ele>195.017</ele>
        <time>2017-04-29T10:56:11Z</time>
      </trkpt>
      <trkpt lat="41.434652" lon="1.796056">
        <ele>194.06</ele>
        <time>2017-04-29T10:56:13Z</time>
      </trkpt>
      <trkpt lat="41.434815" lon="1.796095">
        <ele>193.069</ele>
        <time>2017-04-29T10:56:15Z</time>
      </trkpt>
      <trkpt lat="41.434986" lon="1.796146">
        <ele>192.079</ele>
        <time>2017-04-29T10:56:17Z</time>
      </trkpt>
      <trkpt lat="41.435151" lon="1.796198">
        <ele>192.05</ele>
        <time>2017-04-29T10:56:19Z</time>
      </trkpt>
      <trkpt lat="41.435308" lon="1.796259">
        <ele>190.017</ele>
        <time>2017-04-29T10:56:21Z</time>
      </trkpt>
      <trkpt lat="41.435457" lon="1.796314">
        <ele>188.058</ele>
        <time>2017-04-29T10:56:23Z</time>
      </trkpt>
      <trkpt lat="41.435583" lon="1.796343">
        <ele>188.052</ele>
        <time>2017-04-29T10:56:25Z</time>
      </trkpt>
      <trkpt lat="41.435693" lon="1.796345">
        <ele>186.017</ele>
        <time>2017-04-29T10:56:27Z</time>
      </trkpt>
      <trkpt lat="41.435798" lon="1.79639">
        <ele>186.008</ele>
        <time>2017-04-29T10:56:29Z</time>
      </trkpt>
      <trkpt lat="41.435903" lon="1.796462">
        <ele>186.046</ele>
        <time>2017-04-29T10:56:31Z</time>
      </trkpt>
      <trkpt lat="41.436002" lon="1.796537">
        <ele>184.052</ele>
        <time>2017-04-29T10:56:33Z</time>
      </trkpt>
      <trkpt lat="41.43611" lon="1.796609">
        <ele>183.039</ele>
        <time>2017-04-29T10:56:35Z</time>
      </trkpt>
      <trkpt lat="41.436232" lon="1.796691">
        <ele>182.062</ele>
        <time>2017-04-29T10:56:38Z</time>
      </trkpt>
      <trkpt lat="41.436352" lon="1.796779">
        <ele>181.011</ele>
        <time>2017-04-29T10:56:40Z</time>
      </trkpt>
      <trkpt lat="41.436492" lon="1.796843">
        <ele>180.051</ele>
        <time>2017-04-29T10:56:42Z</time>
      </trkpt>
      <trkpt lat="41.436644" lon="1.796889">
        <ele>179.062</ele>
        <time>2017-04-29T10:56:44Z</time>
      </trkpt>
      <trkpt lat="41.436813" lon="1.796903">
        <ele>178.069</ele>
        <time>2017-04-29T10:56:46Z</time>
      </trkpt>
      <trkpt lat="41.436985" lon="1.796908">
        <ele>176.079</ele>
        <time>2017-04-29T10:56:48Z</time>
      </trkpt>
      <trkpt lat="41.437159" lon="1.796906">
        <ele>177.005</ele>
        <time>2017-04-29T10:56:50Z</time>
      </trkpt>
      <trkpt lat="41.437317" lon="1.796859">
        <ele>178.025</ele>
        <time>2017-04-29T10:56:52Z</time>
      </trkpt>
      <trkpt lat="41.437452" lon="1.79678">
        <ele>178.008</ele>
        <time>2017-04-29T10:56:54Z</time>
      </trkpt>
      <trkpt lat="41.43757" lon="1.796751">
        <ele>177.028</ele>
        <time>2017-04-29T10:56:56Z</time>
      </trkpt>
      <trkpt lat="41.437677" lon="1.796715">
        <ele>178.074</ele>
        <time>2017-04-29T10:56:59Z</time>
      </trkpt>
      <trkpt lat="41.437789" lon="1.796693">
        <ele>178.041</ele>
        <time>2017-04-29T10:57:02Z</time>
      </trkpt>
      <trkpt lat="41.437904" lon="1.79666">
        <ele>178.064</ele>
        <time>2017-04-29T10:57:05Z</time>
      </trkpt>
      <trkpt lat="41.438012" lon="1.796643">
        <ele>180.033</ele>
        <time>2017-04-29T10:57:08Z</time>
      </trkpt>
      <trkpt lat="41.438116" lon="1.796677">
        <ele>181.043</ele>
        <time>2017-04-29T10:57:11Z</time>
      </trkpt>
      <trkpt lat="41.438208" lon="1.796731">
        <ele>182.044</ele>
        <time>2017-04-29T10:57:14Z</time>
      </trkpt>
      <trkpt lat="41.438283" lon="1.796825">
        <ele>182.021</ele>
        <time>2017-04-29T10:57:17Z</time>
      </trkpt>
      <trkpt lat="41.438358" lon="1.79693">
        <ele>183.069</ele>
        <time>2017-04-29T10:57:20Z</time>
      </trkpt>
      <trkpt lat="41.438466" lon="1.797021">
        <ele>182.004</ele>
        <time>2017-04-29T10:57:23Z</time>
      </trkpt>
      <trkpt lat="41.438565" lon="1.797087">
        <ele>181.024</ele>
        <time>2017-04-29T10:57:25Z</time>
      </trkpt>
      <trkpt lat="41.43867" lon="1.797149">
        <ele>181.008</ele>
        <time>2017-04-29T10:57:27Z</time>
      </trkpt>
      <trkpt lat="41.43876" lon="1.797241">
        <ele>188.047</ele>
        <time>2017-04-29T10:57:29Z</time>
      </trkpt>
      <trkpt lat="41.438842" lon="1.797363">
        <ele>185.053</ele>
        <time>2017-04-29T10:57:30Z</time>
      </trkpt>
      <trkpt lat="41.438911" lon="1.797491">
        <ele>184.06</ele>
        <time>2017-04-29T10:57:32Z</time>
      </trkpt>
      <trkpt lat="41.438934" lon="1.797636">
        <ele>184.013</ele>
        <time>2017-04-29T10:57:34Z</time>
      </trkpt>
      <trkpt lat="41.438926" lon="1.797775">
        <ele>183.012</ele>
        <time>2017-04-29T10:57:36Z</time>
      </trkpt>
      <trkpt lat="41.438919" lon="1.797923">
        <ele>182.042</ele>
        <time>2017-04-29T10:57:38Z</time>
      </trkpt>
      <trkpt lat="41.438916" lon="1.798063">
        <ele>182.093</ele>
        <time>2017-04-29T10:57:40Z</time>
      </trkpt>
      <trkpt lat="41.438916" lon="1.798213">
        <ele>182.03</ele>
        <time>2017-04-29T10:57:42Z</time>
      </trkpt>
      <trkpt lat="41.438918" lon="1.798363">
        <ele>181.076</ele>
        <time>2017-04-29T10:57:44Z</time>
      </trkpt>
      <trkpt lat="41.4389" lon="1.798494">
        <ele>182.09</ele>
        <time>2017-04-29T10:57:46Z</time>
      </trkpt>
      <trkpt lat="41.438864" lon="1.798621">
        <ele>182.019</ele>
        <time>2017-04-29T10:57:48Z</time>
      </trkpt>
      <trkpt lat="41.438798" lon="1.798713">
        <ele>183.008</ele>
        <time>2017-04-29T10:57:50Z</time>
      </trkpt>
      <trkpt lat="41.438712" lon="1.79875">
        <ele>182.038</ele>
        <time>2017-04-29T10:57:52Z</time>
      </trkpt>
      <trkpt lat="41.438589" lon="1.798766">
        <ele>182.014</ele>
        <time>2017-04-29T10:57:54Z</time>
      </trkpt>
      <trkpt lat="41.438476" lon="1.798785">
        <ele>182.041</ele>
        <time>2017-04-29T10:57:56Z</time>
      </trkpt>
      <trkpt lat="41.438366" lon="1.798807">
        <ele>183.074</ele>
        <time>2017-04-29T10:57:58Z</time>
      </trkpt>
      <trkpt lat="41.438268" lon="1.798857">
        <ele>183.043</ele>
        <time>2017-04-29T10:58:00Z</time>
      </trkpt>
      <trkpt lat="41.438166" lon="1.798944">
        <ele>183.083</ele>
        <time>2017-04-29T10:58:02Z</time>
      </trkpt>
      <trkpt lat="41.438056" lon="1.799037">
        <ele>183.064</ele>
        <time>2017-04-29T10:58:04Z</time>
      </trkpt>
      <trkpt lat="41.437953" lon="1.799092">
        <ele>182.081</ele>
        <time>2017-04-29T10:58:06Z</time>
      </trkpt>
      <trkpt lat="41.437841" lon="1.799089">
        <ele>182.061</ele>
        <time>2017-04-29T10:58:08Z</time>
      </trkpt>
      <trkpt lat="41.437734" lon="1.799052">
        <ele>183.021</ele>
        <time>2017-04-29T10:58:10Z</time>
      </trkpt>
      <trkpt lat="41.437623" lon="1.798987">
        <ele>183.013</ele>
        <time>2017-04-29T10:58:12Z</time>
      </trkpt>
      <trkpt lat="41.437507" lon="1.798916">
        <ele>181.008</ele>
        <time>2017-04-29T10:58:14Z</time>
      </trkpt>
      <trkpt lat="41.437391" lon="1.79884">
        <ele>179.057</ele>
        <time>2017-04-29T10:58:16Z</time>
      </trkpt>
      <trkpt lat="41.43725" lon="1.7988">
        <ele>177.093</ele>
        <time>2017-04-29T10:58:18Z</time>
      </trkpt>
      <trkpt lat="41.437118" lon="1.798758">
        <ele>176.09</ele>
        <time>2017-04-29T10:58:20Z</time>
      </trkpt>
      <trkpt lat="41.436987" lon="1.798749">
        <ele>177.013</ele>
        <time>2017-04-29T10:58:22Z</time>
      </trkpt>
      <trkpt lat="41.436887" lon="1.798781">
        <ele>176.062</ele>
        <time>2017-04-29T10:58:24Z</time>
      </trkpt>
      <trkpt lat="41.436915" lon="1.798909">
        <ele>177.072</ele>
        <time>2017-04-29T10:58:27Z</time>
      </trkpt>
      <trkpt lat="41.436996" lon="1.799002">
        <ele>176.023</ele>
        <time>2017-04-29T10:58:29Z</time>
      </trkpt>
      <trkpt lat="41.437071" lon="1.799122">
        <ele>175.04</ele>
        <time>2017-04-29T10:58:31Z</time>
      </trkpt>
      <trkpt lat="41.437148" lon="1.799237">
        <ele>173.031</ele>
        <time>2017-04-29T10:58:33Z</time>
      </trkpt>
      <trkpt lat="41.437217" lon="1.799332">
        <ele>171.061</ele>
        <time>2017-04-29T10:58:35Z</time>
      </trkpt>
      <trkpt lat="41.437301" lon="1.799448">
        <ele>172.007</ele>
        <time>2017-04-29T10:58:37Z</time>
      </trkpt>
      <trkpt lat="41.437403" lon="1.799562">
        <ele>169.008</ele>
        <time>2017-04-29T10:58:39Z</time>
      </trkpt>
      <trkpt lat="41.437528" lon="1.799679">
        <ele>168.054</ele>
        <time>2017-04-29T10:58:41Z</time>
      </trkpt>
      <trkpt lat="41.437671" lon="1.799763">
        <ele>169.06</ele>
        <time>2017-04-29T10:58:43Z</time>
      </trkpt>
      <trkpt lat="41.437818" lon="1.799785">
        <ele>168.067</ele>
        <time>2017-04-29T10:58:45Z</time>
      </trkpt>
      <trkpt lat="41.437961" lon="1.799772">
        <ele>168.02</ele>
        <time>2017-04-29T10:58:47Z</time>
      </trkpt>
      <trkpt lat="41.438087" lon="1.799711">
        <ele>169.049</ele>
        <time>2017-04-29T10:58:49Z</time>
      </trkpt>
      <trkpt lat="41.43819" lon="1.79965">
        <ele>168.049</ele>
        <time>2017-04-29T10:58:51Z</time>
      </trkpt>
      <trkpt lat="41.438287" lon="1.799595">
        <ele>169.08</ele>
        <time>2017-04-29T10:58:53Z</time>
      </trkpt>
      <trkpt lat="41.438374" lon="1.799526">
        <ele>168.077</ele>
        <time>2017-04-29T10:58:55Z</time>
      </trkpt>
      <trkpt lat="41.438455" lon="1.799392">
        <ele>168.092</ele>
        <time>2017-04-29T10:58:58Z</time>
      </trkpt>
      <trkpt lat="41.438535" lon="1.799315">
        <ele>168.073</ele>
        <time>2017-04-29T10:59:00Z</time>
      </trkpt>
      <trkpt lat="41.43862" lon="1.799256">
        <ele>168.02</ele>
        <time>2017-04-29T10:59:02Z</time>
      </trkpt>
      <trkpt lat="41.438717" lon="1.799214">
        <ele>168.008</ele>
        <time>2017-04-29T10:59:04Z</time>
      </trkpt>
      <trkpt lat="41.438808" lon="1.799179">
        <ele>168.06</ele>
        <time>2017-04-29T10:59:06Z</time>
      </trkpt>
      <trkpt lat="41.438913" lon="1.799139">
        <ele>166.086</ele>
        <time>2017-04-29T10:59:08Z</time>
      </trkpt>
      <trkpt lat="41.439013" lon="1.799094">
        <ele>166.043</ele>
        <time>2017-04-29T10:59:10Z</time>
      </trkpt>
      <trkpt lat="41.4391" lon="1.799035">
        <ele>166.026</ele>
        <time>2017-04-29T10:59:13Z</time>
      </trkpt>
      <trkpt lat="41.439179" lon="1.798965">
        <ele>164.025</ele>
        <time>2017-04-29T10:59:17Z</time>
      </trkpt>
      <trkpt lat="41.439237" lon="1.798872">
        <ele>164.015</ele>
        <time>2017-04-29T10:59:26Z</time>
      </trkpt>
      <trkpt lat="41.439325" lon="1.79883">
        <ele>168.016</ele>
        <time>2017-04-29T10:59:42Z</time>
      </trkpt>
      <trkpt lat="41.439373" lon="1.798717">
        <ele>170.013</ele>
        <time>2017-04-29T10:59:55Z</time>
      </trkpt>
      <trkpt lat="41.439436" lon="1.798629">
        <ele>171.093</ele>
        <time>2017-04-29T11:00:04Z</time>
      </trkpt>
      <trkpt lat="41.439468" lon="1.798512">
        <ele>168.065</ele>
        <time>2017-04-29T11:00:16Z</time>
      </trkpt>
      <trkpt lat="41.439532" lon="1.798384">
        <ele>167.021</ele>
        <time>2017-04-29T11:00:22Z</time>
      </trkpt>
      <trkpt lat="41.439603" lon="1.798294">
        <ele>169.008</ele>
        <time>2017-04-29T11:00:26Z</time>
      </trkpt>
      <trkpt lat="41.439648" lon="1.798173">
        <ele>169.03</ele>
        <time>2017-04-29T11:00:30Z</time>
      </trkpt>
      <trkpt lat="41.439687" lon="1.798062">
        <ele>169.056</ele>
        <time>2017-04-29T11:00:33Z</time>
      </trkpt>
      <trkpt lat="41.43974" lon="1.797928">
        <ele>167.073</ele>
        <time>2017-04-29T11:00:35Z</time>
      </trkpt>
      <trkpt lat="41.439786" lon="1.79782">
        <ele>168.086</ele>
        <time>2017-04-29T11:00:38Z</time>
      </trkpt>
      <trkpt lat="41.439855" lon="1.797742">
        <ele>170.085</ele>
        <time>2017-04-29T11:00:41Z</time>
      </trkpt>
      <trkpt lat="41.439944" lon="1.797711">
        <ele>170.035</ele>
        <time>2017-04-29T11:00:44Z</time>
      </trkpt>
      <trkpt lat="41.440045" lon="1.797702">
        <ele>171.026</ele>
        <time>2017-04-29T11:00:48Z</time>
      </trkpt>
      <trkpt lat="41.44015" lon="1.797652">
        <ele>168.073</ele>
        <time>2017-04-29T11:00:52Z</time>
      </trkpt>
      <trkpt lat="41.44025" lon="1.797623">
        <ele>166.045</ele>
        <time>2017-04-29T11:00:55Z</time>
      </trkpt>
      <trkpt lat="41.440359" lon="1.79758">
        <ele>168.047</ele>
        <time>2017-04-29T11:00:58Z</time>
      </trkpt>
      <trkpt lat="41.440467" lon="1.797541">
        <ele>168.011</ele>
        <time>2017-04-29T11:01:01Z</time>
      </trkpt>
      <trkpt lat="41.440582" lon="1.797503">
        <ele>167.008</ele>
        <time>2017-04-29T11:01:04Z</time>
      </trkpt>
      <trkpt lat="41.440709" lon="1.797486">
        <ele>166.015</ele>
        <time>2017-04-29T11:01:07Z</time>
      </trkpt>
      <trkpt lat="41.440831" lon="1.797491">
        <ele>167.081</ele>
        <time>2017-04-29T11:01:10Z</time>
      </trkpt>
      <trkpt lat="41.440956" lon="1.797521">
        <ele>168.028</ele>
        <time>2017-04-29T11:01:13Z</time>
      </trkpt>
      <trkpt lat="41.441059" lon="1.797536">
        <ele>168.011</ele>
        <time>2017-04-29T11:01:15Z</time>
      </trkpt>
      <trkpt lat="41.441191" lon="1.797545">
        <ele>168.03</ele>
        <time>2017-04-29T11:01:18Z</time>
      </trkpt>
      <trkpt lat="41.441286" lon="1.797534">
        <ele>167.08</ele>
        <time>2017-04-29T11:01:20Z</time>
      </trkpt>
      <trkpt lat="41.441393" lon="1.797454">
        <ele>168.041</ele>
        <time>2017-04-29T11:01:23Z</time>
      </trkpt>
      <trkpt lat="41.441504" lon="1.797346">
        <ele>168.078</ele>
        <time>2017-04-29T11:01:26Z</time>
      </trkpt>
      <trkpt lat="41.441596" lon="1.797243">
        <ele>168.073</ele>
        <time>2017-04-29T11:01:29Z</time>
      </trkpt>
      <trkpt lat="41.441698" lon="1.79716">
        <ele>169.085</ele>
        <time>2017-04-29T11:01:32Z</time>
      </trkpt>
      <trkpt lat="41.441792" lon="1.797121">
        <ele>169.013</ele>
        <time>2017-04-29T11:01:35Z</time>
      </trkpt>
      <trkpt lat="41.441908" lon="1.797085">
        <ele>169.008</ele>
        <time>2017-04-29T11:01:39Z</time>
      </trkpt>
      <trkpt lat="41.442011" lon="1.797065">
        <ele>171.068</ele>
        <time>2017-04-29T11:01:43Z</time>
      </trkpt>
      <trkpt lat="41.442115" lon="1.797053">
        <ele>173.044</ele>
        <time>2017-04-29T11:01:47Z</time>
      </trkpt>
      <trkpt lat="41.442209" lon="1.797049">
        <ele>175.071</ele>
        <time>2017-04-29T11:01:50Z</time>
      </trkpt>
      <trkpt lat="41.442313" lon="1.797014">
        <ele>177.064</ele>
        <time>2017-04-29T11:01:54Z</time>
      </trkpt>
      <trkpt lat="41.44242" lon="1.79698">
        <ele>177.033</ele>
        <time>2017-04-29T11:01:58Z</time>
      </trkpt>
      <trkpt lat="41.442534" lon="1.796975">
        <ele>177.053</ele>
        <time>2017-04-29T11:02:04Z</time>
      </trkpt>
      <trkpt lat="41.442625" lon="1.796955">
        <ele>177.084</ele>
        <time>2017-04-29T11:02:07Z</time>
      </trkpt>
      <trkpt lat="41.442709" lon="1.79691">
        <ele>177.081</ele>
        <time>2017-04-29T11:02:10Z</time>
      </trkpt>
      <trkpt lat="41.442773" lon="1.796804">
        <ele>178.037</ele>
        <time>2017-04-29T11:02:17Z</time>
      </trkpt>
      <trkpt lat="41.442813" lon="1.796693">
        <ele>180.049</ele>
        <time>2017-04-29T11:02:42Z</time>
      </trkpt>
      <trkpt lat="41.442842" lon="1.796574">
        <ele>179.013</ele>
        <time>2017-04-29T11:02:53Z</time>
      </trkpt>
      <trkpt lat="41.442909" lon="1.796482">
        <ele>179.008</ele>
        <time>2017-04-29T11:03:08Z</time>
      </trkpt>
      <trkpt lat="41.443016" lon="1.796518">
        <ele>179.044</ele>
        <time>2017-04-29T11:03:12Z</time>
      </trkpt>
      <trkpt lat="41.443114" lon="1.796619">
        <ele>178.05</ele>
        <time>2017-04-29T11:03:15Z</time>
      </trkpt>
      <trkpt lat="41.443201" lon="1.79668">
        <ele>176.067</ele>
        <time>2017-04-29T11:03:17Z</time>
      </trkpt>
      <trkpt lat="41.443287" lon="1.796731">
        <ele>175.01</ele>
        <time>2017-04-29T11:03:19Z</time>
      </trkpt>
      <trkpt lat="41.44337" lon="1.796786">
        <ele>175.049</ele>
        <time>2017-04-29T11:03:21Z</time>
      </trkpt>
      <trkpt lat="41.443453" lon="1.796839">
        <ele>175.039</ele>
        <time>2017-04-29T11:03:23Z</time>
      </trkpt>
      <trkpt lat="41.443551" lon="1.796891">
        <ele>175.07</ele>
        <time>2017-04-29T11:03:26Z</time>
      </trkpt>
      <trkpt lat="41.443653" lon="1.796968">
        <ele>175.077</ele>
        <time>2017-04-29T11:03:30Z</time>
      </trkpt>
      <trkpt lat="41.443746" lon="1.797041">
        <ele>177.036</ele>
        <time>2017-04-29T11:03:34Z</time>
      </trkpt>
      <trkpt lat="41.44385" lon="1.797079">
        <ele>178.017</ele>
        <time>2017-04-29T11:03:38Z</time>
      </trkpt>
      <trkpt lat="41.443933" lon="1.797126">
        <ele>177.018</ele>
        <time>2017-04-29T11:03:42Z</time>
      </trkpt>
      <trkpt lat="41.444028" lon="1.797148">
        <ele>179.008</ele>
        <time>2017-04-29T11:03:47Z</time>
      </trkpt>
      <trkpt lat="41.44411" lon="1.797202">
        <ele>181.014</ele>
        <time>2017-04-29T11:03:51Z</time>
      </trkpt>
      <trkpt lat="41.444138" lon="1.797339">
        <ele>181.06</ele>
        <time>2017-04-29T11:03:56Z</time>
      </trkpt>
      <trkpt lat="41.444183" lon="1.79746">
        <ele>182.067</ele>
        <time>2017-04-29T11:04:00Z</time>
      </trkpt>
      <trkpt lat="41.444275" lon="1.797548">
        <ele>181.08</ele>
        <time>2017-04-29T11:04:04Z</time>
      </trkpt>
      <trkpt lat="41.444359" lon="1.7976">
        <ele>183.089</ele>
        <time>2017-04-29T11:04:09Z</time>
      </trkpt>
      <trkpt lat="41.444455" lon="1.797658">
        <ele>185.089</ele>
        <time>2017-04-29T11:04:15Z</time>
      </trkpt>
      <trkpt lat="41.444555" lon="1.797704">
        <ele>188.08</ele>
        <time>2017-04-29T11:04:21Z</time>
      </trkpt>
      <trkpt lat="41.444657" lon="1.797748">
        <ele>189.067</ele>
        <time>2017-04-29T11:04:27Z</time>
      </trkpt>
      <trkpt lat="41.444757" lon="1.797792">
        <ele>189.094</ele>
        <time>2017-04-29T11:04:33Z</time>
      </trkpt>
      <trkpt lat="41.444854" lon="1.797819">
        <ele>190.057</ele>
        <time>2017-04-29T11:04:38Z</time>
      </trkpt>
      <trkpt lat="41.444938" lon="1.797865">
        <ele>191.022</ele>
        <time>2017-04-29T11:04:43Z</time>
      </trkpt>
      <trkpt lat="41.445033" lon="1.797911">
        <ele>191.008</ele>
        <time>2017-04-29T11:04:48Z</time>
      </trkpt>
      <trkpt lat="41.445129" lon="1.797963">
        <ele>193.05</ele>
        <time>2017-04-29T11:04:53Z</time>
      </trkpt>
      <trkpt lat="41.445228" lon="1.797964">
        <ele>192.016</ele>
        <time>2017-04-29T11:04:58Z</time>
      </trkpt>
      <trkpt lat="41.445327" lon="1.797916">
        <ele>192.093</ele>
        <time>2017-04-29T11:05:03Z</time>
      </trkpt>
      <trkpt lat="41.445426" lon="1.797895">
        <ele>193.076</ele>
        <time>2017-04-29T11:05:07Z</time>
      </trkpt>
      <trkpt lat="41.445524" lon="1.797851">
        <ele>193.025</ele>
        <time>2017-04-29T11:05:12Z</time>
      </trkpt>
      <trkpt lat="41.445619" lon="1.797789">
        <ele>194.025</ele>
        <time>2017-04-29T11:05:17Z</time>
      </trkpt>
      <trkpt lat="41.445712" lon="1.797768">
        <ele>195.066</ele>
        <time>2017-04-29T11:05:22Z</time>
      </trkpt>
      <trkpt lat="41.445816" lon="1.797773">
        <ele>193.043</ele>
        <time>2017-04-29T11:05:27Z</time>
      </trkpt>
      <trkpt lat="41.445903" lon="1.797807">
        <ele>195.012</ele>
        <time>2017-04-29T11:05:32Z</time>
      </trkpt>
      <trkpt lat="41.445995" lon="1.79783">
        <ele>198.032</ele>
        <time>2017-04-29T11:05:37Z</time>
      </trkpt>
      <trkpt lat="41.446092" lon="1.797829">
        <ele>199.005</ele>
        <time>2017-04-29T11:05:43Z</time>
      </trkpt>
      <trkpt lat="41.446199" lon="1.797808">
        <ele>199.008</ele>
        <time>2017-04-29T11:05:48Z</time>
      </trkpt>
      <trkpt lat="41.446292" lon="1.797793">
        <ele>200.072</ele>
        <time>2017-04-29T11:05:54Z</time>
      </trkpt>
      <trkpt lat="41.446385" lon="1.797772">
        <ele>201.038</ele>
        <time>2017-04-29T11:06:00Z</time>
      </trkpt>
      <trkpt lat="41.446486" lon="1.797729">
        <ele>205.085</ele>
        <time>2017-04-29T11:06:07Z</time>
      </trkpt>
      <trkpt lat="41.446597" lon="1.797645">
        <ele>207.058</ele>
        <time>2017-04-29T11:06:14Z</time>
      </trkpt>
      <trkpt lat="41.44668" lon="1.797571">
        <ele>208.067</ele>
        <time>2017-04-29T11:06:21Z</time>
      </trkpt>
      <trkpt lat="41.446751" lon="1.797494">
        <ele>208.087</ele>
        <time>2017-04-29T11:06:26Z</time>
      </trkpt>
      <trkpt lat="41.446816" lon="1.797375">
        <ele>208.038</ele>
        <time>2017-04-29T11:06:32Z</time>
      </trkpt>
      <trkpt lat="41.446875" lon="1.797258">
        <ele>208.025</ele>
        <time>2017-04-29T11:06:37Z</time>
      </trkpt>
      <trkpt lat="41.44697" lon="1.797168">
        <ele>206.054</ele>
        <time>2017-04-29T11:06:42Z</time>
      </trkpt>
      <trkpt lat="41.447056" lon="1.797058">
        <ele>208.056</ele>
        <time>2017-04-29T11:06:46Z</time>
      </trkpt>
      <trkpt lat="41.447115" lon="1.796963">
        <ele>208.011</ele>
        <time>2017-04-29T11:06:49Z</time>
      </trkpt>
      <trkpt lat="41.447174" lon="1.796826">
        <ele>211.008</ele>
        <time>2017-04-29T11:06:53Z</time>
      </trkpt>
      <trkpt lat="41.447233" lon="1.796728">
        <ele>210.026</ele>
        <time>2017-04-29T11:06:56Z</time>
      </trkpt>
      <trkpt lat="41.447292" lon="1.79662">
        <ele>209.082</ele>
        <time>2017-04-29T11:06:59Z</time>
      </trkpt>
      <trkpt lat="41.447345" lon="1.796497">
        <ele>210.079</ele>
        <time>2017-04-29T11:07:02Z</time>
      </trkpt>
      <trkpt lat="41.447406" lon="1.796374">
        <ele>210.062</ele>
        <time>2017-04-29T11:07:05Z</time>
      </trkpt>
      <trkpt lat="41.447468" lon="1.796258">
        <ele>213.021</ele>
        <time>2017-04-29T11:07:08Z</time>
      </trkpt>
      <trkpt lat="41.447558" lon="1.796152">
        <ele>212.081</ele>
        <time>2017-04-29T11:07:11Z</time>
      </trkpt>
      <trkpt lat="41.447654" lon="1.796074">
        <ele>213.022</ele>
        <time>2017-04-29T11:07:14Z</time>
      </trkpt>
      <trkpt lat="41.447746" lon="1.796022">
        <ele>215.049</ele>
        <time>2017-04-29T11:07:17Z</time>
      </trkpt>
      <trkpt lat="41.447832" lon="1.795971">
        <ele>216.052</ele>
        <time>2017-04-29T11:07:20Z</time>
      </trkpt>
      <trkpt lat="41.447911" lon="1.79591">
        <ele>217.053</ele>
        <time>2017-04-29T11:07:23Z</time>
      </trkpt>
      <trkpt lat="41.448014" lon="1.795842">
        <ele>219.008</ele>
        <time>2017-04-29T11:07:27Z</time>
      </trkpt>
      <trkpt lat="41.448121" lon="1.795794">
        <ele>219.008</ele>
        <time>2017-04-29T11:07:31Z</time>
      </trkpt>
      <trkpt lat="41.448218" lon="1.795765">
        <ele>220.016</ele>
        <time>2017-04-29T11:07:35Z</time>
      </trkpt>
      <trkpt lat="41.448313" lon="1.79578">
        <ele>221.042</ele>
        <time>2017-04-29T11:07:40Z</time>
      </trkpt>
      <trkpt lat="41.448401" lon="1.795816">
        <ele>222.019</ele>
        <time>2017-04-29T11:07:44Z</time>
      </trkpt>
      <trkpt lat="41.4485" lon="1.795851">
        <ele>224.072</ele>
        <time>2017-04-29T11:07:48Z</time>
      </trkpt>
      <trkpt lat="41.448588" lon="1.795898">
        <ele>226.051</ele>
        <time>2017-04-29T11:07:53Z</time>
      </trkpt>
      <trkpt lat="41.448664" lon="1.795963">
        <ele>229.091</ele>
        <time>2017-04-29T11:07:57Z</time>
      </trkpt>
      <trkpt lat="41.448753" lon="1.796045">
        <ele>231.082</ele>
        <time>2017-04-29T11:08:02Z</time>
      </trkpt>
      <trkpt lat="41.448821" lon="1.796135">
        <ele>234.089</ele>
        <time>2017-04-29T11:08:07Z</time>
      </trkpt>
      <trkpt lat="41.448914" lon="1.796225">
        <ele>235.024</ele>
        <time>2017-04-29T11:08:12Z</time>
      </trkpt>
      <trkpt lat="41.449008" lon="1.796294">
        <ele>236.004</ele>
        <time>2017-04-29T11:08:17Z</time>
      </trkpt>
      <trkpt lat="41.44911" lon="1.79637">
        <ele>235.014</ele>
        <time>2017-04-29T11:08:22Z</time>
      </trkpt>
      <trkpt lat="41.449209" lon="1.796402">
        <ele>236.008</ele>
        <time>2017-04-29T11:08:26Z</time>
      </trkpt>
      <trkpt lat="41.449306" lon="1.796453">
        <ele>236.083</ele>
        <time>2017-04-29T11:08:31Z</time>
      </trkpt>
      <trkpt lat="41.449394" lon="1.79652">
        <ele>235.039</ele>
        <time>2017-04-29T11:08:35Z</time>
      </trkpt>
      <trkpt lat="41.449453" lon="1.796622">
        <ele>240.036</ele>
        <time>2017-04-29T11:08:40Z</time>
      </trkpt>
      <trkpt lat="41.449524" lon="1.796727">
        <ele>241.029</ele>
        <time>2017-04-29T11:08:45Z</time>
      </trkpt>
      <trkpt lat="41.449613" lon="1.796817">
        <ele>242.058</ele>
        <time>2017-04-29T11:08:50Z</time>
      </trkpt>
      <trkpt lat="41.449681" lon="1.796917">
        <ele>243.088</ele>
        <time>2017-04-29T11:08:54Z</time>
      </trkpt>
      <trkpt lat="41.449759" lon="1.797027">
        <ele>243.019</ele>
        <time>2017-04-29T11:08:58Z</time>
      </trkpt>
      <trkpt lat="41.449828" lon="1.797132">
        <ele>243.076</ele>
        <time>2017-04-29T11:09:01Z</time>
      </trkpt>
      <trkpt lat="41.449894" lon="1.797283">
        <ele>243.045</ele>
        <time>2017-04-29T11:09:04Z</time>
      </trkpt>
      <trkpt lat="41.449943" lon="1.797423">
        <ele>242.047</ele>
        <time>2017-04-29T11:09:07Z</time>
      </trkpt>
      <trkpt lat="41.449982" lon="1.797572">
        <ele>242.011</ele>
        <time>2017-04-29T11:09:10Z</time>
      </trkpt>
      <trkpt lat="41.450025" lon="1.79772">
        <ele>242.008</ele>
        <time>2017-04-29T11:09:13Z</time>
      </trkpt>
      <trkpt lat="41.450065" lon="1.797829">
        <ele>241.035</ele>
        <time>2017-04-29T11:09:15Z</time>
      </trkpt>
      <trkpt lat="41.450101" lon="1.797942">
        <ele>240.051</ele>
        <time>2017-04-29T11:09:17Z</time>
      </trkpt>
      <trkpt lat="41.450133" lon="1.798111">
        <ele>241.018</ele>
        <time>2017-04-29T11:09:20Z</time>
      </trkpt>
      <trkpt lat="41.450166" lon="1.798283">
        <ele>241.071</ele>
        <time>2017-04-29T11:09:23Z</time>
      </trkpt>
      <trkpt lat="41.450218" lon="1.798455">
        <ele>242.08</ele>
        <time>2017-04-29T11:09:26Z</time>
      </trkpt>
      <trkpt lat="41.450271" lon="1.798614">
        <ele>242.03</ele>
        <time>2017-04-29T11:09:29Z</time>
      </trkpt>
      <trkpt lat="41.450318" lon="1.79876">
        <ele>243.011</ele>
        <time>2017-04-29T11:09:33Z</time>
      </trkpt>
      <trkpt lat="41.450355" lon="1.798872">
        <ele>243.088</ele>
        <time>2017-04-29T11:09:36Z</time>
      </trkpt>
      <trkpt lat="41.450419" lon="1.798997">
        <ele>243.033</ele>
        <time>2017-04-29T11:09:40Z</time>
      </trkpt>
      <trkpt lat="41.45048" lon="1.799131">
        <ele>244.023</ele>
        <time>2017-04-29T11:09:44Z</time>
      </trkpt>
      <trkpt lat="41.450527" lon="1.799256">
        <ele>245.015</ele>
        <time>2017-04-29T11:09:48Z</time>
      </trkpt>
      <trkpt lat="41.450583" lon="1.79937">
        <ele>245.008</ele>
        <time>2017-04-29T11:09:52Z</time>
      </trkpt>
      <trkpt lat="41.450636" lon="1.799503">
        <ele>244.034</ele>
        <time>2017-04-29T11:09:56Z</time>
      </trkpt>
      <trkpt lat="41.450684" lon="1.799626">
        <ele>242.04</ele>
        <time>2017-04-29T11:10:00Z</time>
      </trkpt>
      <trkpt lat="41.450771" lon="1.799766">
        <ele>241.077</ele>
        <time>2017-04-29T11:10:05Z</time>
      </trkpt>
      <trkpt lat="41.450856" lon="1.799902">
        <ele>243.08</ele>
        <time>2017-04-29T11:10:10Z</time>
      </trkpt>
      <trkpt lat="41.450975" lon="1.80002">
        <ele>245.019</ele>
        <time>2017-04-29T11:10:15Z</time>
      </trkpt>
      <trkpt lat="41.451084" lon="1.800111">
        <ele>248.029</ele>
        <time>2017-04-29T11:10:20Z</time>
      </trkpt>
      <trkpt lat="41.451186" lon="1.800175">
        <ele>247.09</ele>
        <time>2017-04-29T11:10:24Z</time>
      </trkpt>
      <trkpt lat="41.451301" lon="1.800229">
        <ele>247.077</ele>
        <time>2017-04-29T11:10:28Z</time>
      </trkpt>
      <trkpt lat="41.451392" lon="1.800288">
        <ele>246.035</ele>
        <time>2017-04-29T11:10:31Z</time>
      </trkpt>
      <trkpt lat="41.451478" lon="1.80035">
        <ele>245.086</ele>
        <time>2017-04-29T11:10:34Z</time>
      </trkpt>
      <trkpt lat="41.451557" lon="1.800408">
        <ele>246.014</ele>
        <time>2017-04-29T11:10:37Z</time>
      </trkpt>
      <trkpt lat="41.451647" lon="1.800459">
        <ele>244.008</ele>
        <time>2017-04-29T11:10:40Z</time>
      </trkpt>
      <trkpt lat="41.451735" lon="1.800502">
        <ele>247.044</ele>
        <time>2017-04-29T11:10:44Z</time>
      </trkpt>
      <trkpt lat="41.451825" lon="1.800544">
        <ele>248.04</ele>
        <time>2017-04-29T11:10:47Z</time>
      </trkpt>
      <trkpt lat="41.451933" lon="1.800562">
        <ele>248.047</ele>
        <time>2017-04-29T11:10:51Z</time>
      </trkpt>
      <trkpt lat="41.452042" lon="1.800545">
        <ele>250.01</ele>
        <time>2017-04-29T11:10:55Z</time>
      </trkpt>
      <trkpt lat="41.45215" lon="1.800538">
        <ele>251.089</ele>
        <time>2017-04-29T11:10:59Z</time>
      </trkpt>
      <trkpt lat="41.452251" lon="1.80054">
        <ele>250.079</ele>
        <time>2017-04-29T11:11:03Z</time>
      </trkpt>
      <trkpt lat="41.452351" lon="1.800569">
        <ele>252.08</ele>
        <time>2017-04-29T11:11:07Z</time>
      </trkpt>
      <trkpt lat="41.452458" lon="1.800605">
        <ele>252.077</ele>
        <time>2017-04-29T11:11:11Z</time>
      </trkpt>
      <trkpt lat="41.452548" lon="1.800637">
        <ele>252.036</ele>
        <time>2017-04-29T11:11:14Z</time>
      </trkpt>
      <trkpt lat="41.452636" lon="1.800672">
        <ele>254.017</ele>
        <time>2017-04-29T11:11:17Z</time>
      </trkpt>
      <trkpt lat="41.452726" lon="1.800697">
        <ele>255.018</ele>
        <time>2017-04-29T11:11:20Z</time>
      </trkpt>
      <trkpt lat="41.45284" lon="1.80072">
        <ele>255.008</ele>
        <time>2017-04-29T11:11:24Z</time>
      </trkpt>
      <trkpt lat="41.452933" lon="1.800749">
        <ele>255.024</ele>
        <time>2017-04-29T11:11:27Z</time>
      </trkpt>
      <trkpt lat="41.453025" lon="1.800761">
        <ele>254.06</ele>
        <time>2017-04-29T11:11:30Z</time>
      </trkpt>
      <trkpt lat="41.453119" lon="1.800768">
        <ele>254.017</ele>
        <time>2017-04-29T11:11:33Z</time>
      </trkpt>
      <trkpt lat="41.45322" lon="1.800774">
        <ele>253.02</ele>
        <time>2017-04-29T11:11:36Z</time>
      </trkpt>
      <trkpt lat="41.453318" lon="1.800749">
        <ele>253.019</ele>
        <time>2017-04-29T11:11:39Z</time>
      </trkpt>
      <trkpt lat="41.453406" lon="1.800727">
        <ele>255.099</ele>
        <time>2017-04-29T11:11:42Z</time>
      </trkpt>
      <trkpt lat="41.453495" lon="1.800699">
        <ele>256.01</ele>
        <time>2017-04-29T11:11:45Z</time>
      </trkpt>
      <trkpt lat="41.453588" lon="1.800698">
        <ele>255.087</ele>
        <time>2017-04-29T11:11:48Z</time>
      </trkpt>
      <trkpt lat="41.453691" lon="1.800714">
        <ele>255.065</ele>
        <time>2017-04-29T11:11:51Z</time>
      </trkpt>
      <trkpt lat="41.453788" lon="1.80074">
        <ele>256.068</ele>
        <time>2017-04-29T11:11:54Z</time>
      </trkpt>
      <trkpt lat="41.453881" lon="1.80078">
        <ele>255.014</ele>
        <time>2017-04-29T11:11:57Z</time>
      </trkpt>
      <trkpt lat="41.453978" lon="1.800811">
        <ele>256.008</ele>
        <time>2017-04-29T11:12:00Z</time>
      </trkpt>
      <trkpt lat="41.454067" lon="1.800862">
        <ele>257.097</ele>
        <time>2017-04-29T11:12:03Z</time>
      </trkpt>
      <trkpt lat="41.454182" lon="1.800896">
        <ele>258.073</ele>
        <time>2017-04-29T11:12:07Z</time>
      </trkpt>
      <trkpt lat="41.454277" lon="1.800916">
        <ele>258.09</ele>
        <time>2017-04-29T11:12:10Z</time>
      </trkpt>
      <trkpt lat="41.454412" lon="1.80094">
        <ele>258.053</ele>
        <time>2017-04-29T11:12:14Z</time>
      </trkpt>
      <trkpt lat="41.454546" lon="1.800998">
        <ele>260.032</ele>
        <time>2017-04-29T11:12:19Z</time>
      </trkpt>
      <trkpt lat="41.454686" lon="1.801072">
        <ele>260.072</ele>
        <time>2017-04-29T11:12:24Z</time>
      </trkpt>
      <trkpt lat="41.454774" lon="1.801136">
        <ele>262.033</ele>
        <time>2017-04-29T11:12:27Z</time>
      </trkpt>
      <trkpt lat="41.454877" lon="1.801174">
        <ele>262.05</ele>
        <time>2017-04-29T11:12:30Z</time>
      </trkpt>
      <trkpt lat="41.455015" lon="1.80122">
        <ele>261.087</ele>
        <time>2017-04-29T11:12:34Z</time>
      </trkpt>
      <trkpt lat="41.455129" lon="1.801249">
        <ele>261.042</ele>
        <time>2017-04-29T11:12:37Z</time>
      </trkpt>
      <trkpt lat="41.455245" lon="1.801257">
        <ele>261.026</ele>
        <time>2017-04-29T11:12:40Z</time>
      </trkpt>
      <trkpt lat="41.455359" lon="1.801276">
        <ele>263.008</ele>
        <time>2017-04-29T11:12:43Z</time>
      </trkpt>
      <trkpt lat="41.45547" lon="1.801287">
        <ele>264.049</ele>
        <time>2017-04-29T11:12:46Z</time>
      </trkpt>
      <trkpt lat="41.455586" lon="1.801308">
        <ele>264.045</ele>
        <time>2017-04-29T11:12:49Z</time>
      </trkpt>
      <trkpt lat="41.455706" lon="1.801323">
        <ele>264.062</ele>
        <time>2017-04-29T11:12:52Z</time>
      </trkpt>
      <trkpt lat="41.455819" lon="1.801325">
        <ele>266.095</ele>
        <time>2017-04-29T11:12:55Z</time>
      </trkpt>
      <trkpt lat="41.455923" lon="1.801305">
        <ele>266.014</ele>
        <time>2017-04-29T11:12:58Z</time>
      </trkpt>
      <trkpt lat="41.456023" lon="1.801292">
        <ele>266.054</ele>
        <time>2017-04-29T11:13:01Z</time>
      </trkpt>
      <trkpt lat="41.456115" lon="1.801281">
        <ele>267.015</ele>
        <time>2017-04-29T11:13:04Z</time>
      </trkpt>
      <trkpt lat="41.456213" lon="1.801276">
        <ele>268.022</ele>
        <time>2017-04-29T11:13:07Z</time>
      </trkpt>
      <trkpt lat="41.456324" lon="1.801262">
        <ele>267.038</ele>
        <time>2017-04-29T11:13:10Z</time>
      </trkpt>
      <trkpt lat="41.456416" lon="1.801261">
        <ele>268.07</ele>
        <time>2017-04-29T11:13:13Z</time>
      </trkpt>
      <trkpt lat="41.456527" lon="1.801244">
        <ele>272.017</ele>
        <time>2017-04-29T11:13:17Z</time>
      </trkpt>
      <trkpt lat="41.456622" lon="1.801241">
        <ele>272.008</ele>
        <time>2017-04-29T11:13:20Z</time>
      </trkpt>
      <trkpt lat="41.456731" lon="1.801231">
        <ele>272.064</ele>
        <time>2017-04-29T11:13:24Z</time>
      </trkpt>
      <trkpt lat="41.456833" lon="1.801237">
        <ele>270.01</ele>
        <time>2017-04-29T11:13:27Z</time>
      </trkpt>
      <trkpt lat="41.456944" lon="1.801233">
        <ele>272.027</ele>
        <time>2017-04-29T11:13:31Z</time>
      </trkpt>
      <trkpt lat="41.457035" lon="1.801217">
        <ele>271.05</ele>
        <time>2017-04-29T11:13:34Z</time>
      </trkpt>
      <trkpt lat="41.457145" lon="1.801204">
        <ele>272.059</ele>
        <time>2017-04-29T11:13:38Z</time>
      </trkpt>
      <trkpt lat="41.457252" lon="1.801205">
        <ele>273.019</ele>
        <time>2017-04-29T11:13:42Z</time>
      </trkpt>
      <trkpt lat="41.457347" lon="1.801212">
        <ele>270.06</ele>
        <time>2017-04-29T11:13:45Z</time>
      </trkpt>
      <trkpt lat="41.457465" lon="1.801212">
        <ele>269.067</ele>
        <time>2017-04-29T11:13:49Z</time>
      </trkpt>
      <trkpt lat="41.457563" lon="1.801218">
        <ele>268.021</ele>
        <time>2017-04-29T11:13:52Z</time>
      </trkpt>
      <trkpt lat="41.457677" lon="1.801235">
        <ele>270.041</ele>
        <time>2017-04-29T11:13:56Z</time>
      </trkpt>
      <trkpt lat="41.457795" lon="1.801238">
        <ele>270.005</ele>
        <time>2017-04-29T11:14:00Z</time>
      </trkpt>
      <trkpt lat="41.457888" lon="1.801231">
        <ele>272.008</ele>
        <time>2017-04-29T11:14:03Z</time>
      </trkpt>
      <trkpt lat="41.457985" lon="1.801223">
        <ele>273.063</ele>
        <time>2017-04-29T11:14:06Z</time>
      </trkpt>
      <trkpt lat="41.4581" lon="1.801227">
        <ele>274.089</ele>
        <time>2017-04-29T11:14:10Z</time>
      </trkpt>
      <trkpt lat="41.458213" lon="1.801248">
        <ele>277.076</ele>
        <time>2017-04-29T11:14:14Z</time>
      </trkpt>
      <trkpt lat="41.458306" lon="1.80124">
        <ele>278.069</ele>
        <time>2017-04-29T11:14:17Z</time>
      </trkpt>
      <trkpt lat="41.458409" lon="1.801271">
        <ele>283.078</ele>
        <time>2017-04-29T11:14:21Z</time>
      </trkpt>
      <trkpt lat="41.458529" lon="1.801304">
        <ele>285.018</ele>
        <time>2017-04-29T11:14:25Z</time>
      </trkpt>
      <trkpt lat="41.458634" lon="1.801339">
        <ele>284.089</ele>
        <time>2017-04-29T11:14:29Z</time>
      </trkpt>
      <trkpt lat="41.458743" lon="1.801374">
        <ele>285.066</ele>
        <time>2017-04-29T11:14:33Z</time>
      </trkpt>
      <trkpt lat="41.458849" lon="1.801413">
        <ele>287.068</ele>
        <time>2017-04-29T11:14:37Z</time>
      </trkpt>
      <trkpt lat="41.458942" lon="1.801435">
        <ele>289.042</ele>
        <time>2017-04-29T11:14:41Z</time>
      </trkpt>
      <trkpt lat="41.459044" lon="1.801447">
        <ele>290.026</ele>
        <time>2017-04-29T11:14:45Z</time>
      </trkpt>
      <trkpt lat="41.459158" lon="1.801475">
        <ele>291.008</ele>
        <time>2017-04-29T11:14:49Z</time>
      </trkpt>
      <trkpt lat="41.459265" lon="1.801492">
        <ele>291.097</ele>
        <time>2017-04-29T11:14:53Z</time>
      </trkpt>
      <trkpt lat="41.45938" lon="1.801517">
        <ele>292.053</ele>
        <time>2017-04-29T11:14:57Z</time>
      </trkpt>
      <trkpt lat="41.459472" lon="1.801514">
        <ele>292.06</ele>
        <time>2017-04-29T11:15:00Z</time>
      </trkpt>
      <trkpt lat="41.45957" lon="1.801542">
        <ele>292.013</ele>
        <time>2017-04-29T11:15:03Z</time>
      </trkpt>
      <trkpt lat="41.459664" lon="1.801585">
        <ele>293.052</ele>
        <time>2017-04-29T11:15:06Z</time>
      </trkpt>
      <trkpt lat="41.459762" lon="1.801617">
        <ele>292.022</ele>
        <time>2017-04-29T11:15:09Z</time>
      </trkpt>
      <trkpt lat="41.459888" lon="1.801624">
        <ele>291.083</ele>
        <time>2017-04-29T11:15:13Z</time>
      </trkpt>
      <trkpt lat="41.459989" lon="1.801614">
        <ele>289.07</ele>
        <time>2017-04-29T11:15:16Z</time>
      </trkpt>
      <trkpt lat="41.460085" lon="1.801609">
        <ele>289.062</ele>
        <time>2017-04-29T11:15:19Z</time>
      </trkpt>
      <trkpt lat="41.460176" lon="1.801578">
        <ele>290.083</ele>
        <time>2017-04-29T11:15:22Z</time>
      </trkpt>
      <trkpt lat="41.460279" lon="1.801564">
        <ele>291.011</ele>
        <time>2017-04-29T11:15:25Z</time>
      </trkpt>
      <trkpt lat="41.460382" lon="1.801533">
        <ele>290.008</ele>
        <time>2017-04-29T11:15:28Z</time>
      </trkpt>
      <trkpt lat="41.460494" lon="1.801545">
        <ele>289.087</ele>
        <time>2017-04-29T11:15:31Z</time>
      </trkpt>
      <trkpt lat="41.460594" lon="1.801523">
        <ele>289.013</ele>
        <time>2017-04-29T11:15:34Z</time>
      </trkpt>
      <trkpt lat="41.460698" lon="1.801502">
        <ele>289.04</ele>
        <time>2017-04-29T11:15:37Z</time>
      </trkpt>
      <trkpt lat="41.460796" lon="1.801492">
        <ele>289.073</ele>
        <time>2017-04-29T11:15:40Z</time>
      </trkpt>
      <trkpt lat="41.460888" lon="1.801471">
        <ele>289.082</ele>
        <time>2017-04-29T11:15:43Z</time>
      </trkpt>
      <trkpt lat="41.461005" lon="1.801432">
        <ele>291.042</ele>
        <time>2017-04-29T11:15:47Z</time>
      </trkpt>
      <trkpt lat="41.461097" lon="1.801399">
        <ele>291.083</ele>
        <time>2017-04-29T11:15:50Z</time>
      </trkpt>
      <trkpt lat="41.461212" lon="1.80134">
        <ele>291.09</ele>
        <time>2017-04-29T11:15:54Z</time>
      </trkpt>
      <trkpt lat="41.461325" lon="1.801297">
        <ele>291.068</ele>
        <time>2017-04-29T11:15:58Z</time>
      </trkpt>
      <trkpt lat="41.461434" lon="1.801283">
        <ele>291.042</ele>
        <time>2017-04-29T11:16:01Z</time>
      </trkpt>
      <trkpt lat="41.461542" lon="1.80123">
        <ele>292.026</ele>
        <time>2017-04-29T11:16:05Z</time>
      </trkpt>
      <trkpt lat="41.461632" lon="1.801198">
        <ele>291.008</ele>
        <time>2017-04-29T11:16:08Z</time>
      </trkpt>
      <trkpt lat="41.461725" lon="1.801158">
        <ele>292.047</ele>
        <time>2017-04-29T11:16:12Z</time>
      </trkpt>
      <trkpt lat="41.461833" lon="1.801104">
        <ele>291.063</ele>
        <time>2017-04-29T11:16:16Z</time>
      </trkpt>
      <trkpt lat="41.461924" lon="1.801007">
        <ele>292.05</ele>
        <time>2017-04-29T11:16:20Z</time>
      </trkpt>
      <trkpt lat="41.462024" lon="1.800927">
        <ele>293.053</ele>
        <time>2017-04-29T11:16:24Z</time>
      </trkpt>
      <trkpt lat="41.462101" lon="1.800863">
        <ele>292.072</ele>
        <time>2017-04-29T11:16:27Z</time>
      </trkpt>
      <trkpt lat="41.462183" lon="1.800782">
        <ele>292.012</ele>
        <time>2017-04-29T11:16:31Z</time>
      </trkpt>
      <trkpt lat="41.462271" lon="1.800686">
        <ele>294.093</ele>
        <time>2017-04-29T11:16:35Z</time>
      </trkpt>
      <trkpt lat="41.462349" lon="1.800583">
        <ele>292.03</ele>
        <time>2017-04-29T11:16:39Z</time>
      </trkpt>
      <trkpt lat="41.462429" lon="1.800472">
        <ele>294.022</ele>
        <time>2017-04-29T11:16:43Z</time>
      </trkpt>
      <trkpt lat="41.462484" lon="1.800366">
        <ele>296.062</ele>
        <time>2017-04-29T11:16:47Z</time>
      </trkpt>
      <trkpt lat="41.462565" lon="1.800246">
        <ele>296.008</ele>
        <time>2017-04-29T11:16:51Z</time>
      </trkpt>
      <trkpt lat="41.462625" lon="1.800147">
        <ele>296.008</ele>
        <time>2017-04-29T11:16:54Z</time>
      </trkpt>
      <trkpt lat="41.462687" lon="1.800004">
        <ele>300.073</ele>
        <time>2017-04-29T11:16:58Z</time>
      </trkpt>
      <trkpt lat="41.462749" lon="1.799896">
        <ele>301.059</ele>
        <time>2017-04-29T11:17:01Z</time>
      </trkpt>
      <trkpt lat="41.462829" lon="1.799799">
        <ele>299.036</ele>
        <time>2017-04-29T11:17:04Z</time>
      </trkpt>
      <trkpt lat="41.462906" lon="1.799702">
        <ele>300.029</ele>
        <time>2017-04-29T11:17:07Z</time>
      </trkpt>
      <trkpt lat="41.462997" lon="1.799609">
        <ele>301.058</ele>
        <time>2017-04-29T11:17:11Z</time>
      </trkpt>
      <trkpt lat="41.463067" lon="1.799519">
        <ele>301.048</ele>
        <time>2017-04-29T11:17:14Z</time>
      </trkpt>
      <trkpt lat="41.463148" lon="1.799423">
        <ele>304.079</ele>
        <time>2017-04-29T11:17:18Z</time>
      </trkpt>
      <trkpt lat="41.463242" lon="1.799326">
        <ele>305.066</ele>
        <time>2017-04-29T11:17:22Z</time>
      </trkpt>
      <trkpt lat="41.463328" lon="1.799259">
        <ele>303.095</ele>
        <time>2017-04-29T11:17:25Z</time>
      </trkpt>
      <trkpt lat="41.463432" lon="1.799195">
        <ele>302.049</ele>
        <time>2017-04-29T11:17:28Z</time>
      </trkpt>
      <trkpt lat="41.463564" lon="1.799138">
        <ele>302.023</ele>
        <time>2017-04-29T11:17:31Z</time>
      </trkpt>
      <trkpt lat="41.463672" lon="1.799123">
        <ele>302.008</ele>
        <time>2017-04-29T11:17:33Z</time>
      </trkpt>
      <trkpt lat="41.463783" lon="1.799126">
        <ele>302.08</ele>
        <time>2017-04-29T11:17:35Z</time>
      </trkpt>
      <trkpt lat="41.463895" lon="1.799121">
        <ele>302.016</ele>
        <time>2017-04-29T11:17:37Z</time>
      </trkpt>
      <trkpt lat="41.464" lon="1.799088">
        <ele>301.073</ele>
        <time>2017-04-29T11:17:39Z</time>
      </trkpt>
      <trkpt lat="41.464092" lon="1.799049">
        <ele>301.066</ele>
        <time>2017-04-29T11:17:41Z</time>
      </trkpt>
      <trkpt lat="41.464198" lon="1.799012">
        <ele>301.075</ele>
        <time>2017-04-29T11:17:44Z</time>
      </trkpt>
      <trkpt lat="41.464282" lon="1.798961">
        <ele>302.045</ele>
        <time>2017-04-29T11:17:47Z</time>
      </trkpt>
      <trkpt lat="41.464379" lon="1.798879">
        <ele>304.086</ele>
        <time>2017-04-29T11:17:51Z</time>
      </trkpt>
      <trkpt lat="41.464462" lon="1.798799">
        <ele>304.083</ele>
        <time>2017-04-29T11:17:55Z</time>
      </trkpt>
      <trkpt lat="41.464552" lon="1.798723">
        <ele>306.036</ele>
        <time>2017-04-29T11:18:00Z</time>
      </trkpt>
      <trkpt lat="41.464619" lon="1.798643">
        <ele>308.017</ele>
        <time>2017-04-29T11:18:04Z</time>
      </trkpt>
      <trkpt lat="41.464698" lon="1.798571">
        <ele>309.018</ele>
        <time>2017-04-29T11:18:09Z</time>
      </trkpt>
      <trkpt lat="41.46479" lon="1.79851">
        <ele>311.008</ele>
        <time>2017-04-29T11:18:14Z</time>
      </trkpt>
      <trkpt lat="41.464896" lon="1.798483">
        <ele>312.014</ele>
        <time>2017-04-29T11:18:19Z</time>
      </trkpt>
      <trkpt lat="41.464984" lon="1.798513">
        <ele>313.05</ele>
        <time>2017-04-29T11:19:44Z</time>
      </trkpt>
      <trkpt lat="41.465052" lon="1.798598">
        <ele>313.067</ele>
        <time>2017-04-29T11:21:09Z</time>
      </trkpt>
      <trkpt lat="41.46512" lon="1.798697">
        <ele>313.06</ele>
        <time>2017-04-29T11:21:13Z</time>
      </trkpt>
      <trkpt lat="41.465198" lon="1.798792">
        <ele>313.019</ele>
        <time>2017-04-29T11:21:17Z</time>
      </trkpt>
      <trkpt lat="41.465269" lon="1.79891">
        <ele>311.089</ele>
        <time>2017-04-29T11:21:21Z</time>
      </trkpt>
      <trkpt lat="41.46531" lon="1.799017">
        <ele>311.04</ele>
        <time>2017-04-29T11:21:25Z</time>
      </trkpt>
      <trkpt lat="41.465325" lon="1.799141">
        <ele>313.037</ele>
        <time>2017-04-29T11:21:29Z</time>
      </trkpt>
      <trkpt lat="41.465329" lon="1.799285">
        <ele>315.065</ele>
        <time>2017-04-29T11:21:33Z</time>
      </trkpt>
      <trkpt lat="41.465335" lon="1.799425">
        <ele>316.068</ele>
        <time>2017-04-29T11:21:37Z</time>
      </trkpt>
      <trkpt lat="41.465364" lon="1.799567">
        <ele>316.014</ele>
        <time>2017-04-29T11:21:41Z</time>
      </trkpt>
      <trkpt lat="41.465373" lon="1.799687">
        <ele>316.008</ele>
        <time>2017-04-29T11:21:44Z</time>
      </trkpt>
      <trkpt lat="41.465381" lon="1.799816">
        <ele>314.027</ele>
        <time>2017-04-29T11:21:47Z</time>
      </trkpt>
      <trkpt lat="41.465395" lon="1.799942">
        <ele>315.063</ele>
        <time>2017-04-29T11:21:50Z</time>
      </trkpt>
      <trkpt lat="41.46541" lon="1.800068">
        <ele>318.08</ele>
        <time>2017-04-29T11:21:53Z</time>
      </trkpt>
      <trkpt lat="41.465443" lon="1.800185">
        <ele>318.073</ele>
        <time>2017-04-29T11:21:56Z</time>
      </trkpt>
      <trkpt lat="41.46549" lon="1.800325">
        <ele>320.022</ele>
        <time>2017-04-29T11:22:00Z</time>
      </trkpt>
      <trkpt lat="41.465548" lon="1.800435">
        <ele>321.062</ele>
        <time>2017-04-29T11:22:03Z</time>
      </trkpt>
      <trkpt lat="41.465617" lon="1.800561">
        <ele>322.053</ele>
        <time>2017-04-29T11:22:07Z</time>
      </trkpt>
      <trkpt lat="41.465662" lon="1.800668">
        <ele>323.06</ele>
        <time>2017-04-29T11:22:10Z</time>
      </trkpt>
      <trkpt lat="41.465706" lon="1.800774">
        <ele>323.068</ele>
        <time>2017-04-29T11:22:13Z</time>
      </trkpt>
      <trkpt lat="41.465759" lon="1.800915">
        <ele>326.042</ele>
        <time>2017-04-29T11:22:17Z</time>
      </trkpt>
      <trkpt lat="41.465832" lon="1.80103">
        <ele>326.026</ele>
        <time>2017-04-29T11:22:21Z</time>
      </trkpt>
      <trkpt lat="41.465916" lon="1.801153">
        <ele>326.008</ele>
        <time>2017-04-29T11:22:25Z</time>
      </trkpt>
      <trkpt lat="41.466002" lon="1.801225">
        <ele>326.077</ele>
        <time>2017-04-29T11:22:28Z</time>
      </trkpt>
      <trkpt lat="41.466112" lon="1.801277">
        <ele>326.023</ele>
        <time>2017-04-29T11:22:31Z</time>
      </trkpt>
      <trkpt lat="41.46624" lon="1.801263">
        <ele>323.02</ele>
        <time>2017-04-29T11:22:34Z</time>
      </trkpt>
      <trkpt lat="41.466339" lon="1.801243">
        <ele>324.013</ele>
        <time>2017-04-29T11:22:36Z</time>
      </trkpt>
      <trkpt lat="41.466452" lon="1.801207">
        <ele>323.032</ele>
        <time>2017-04-29T11:22:38Z</time>
      </trkpt>
      <trkpt lat="41.466582" lon="1.801185">
        <ele>321.062</ele>
        <time>2017-04-29T11:22:40Z</time>
      </trkpt>
      <trkpt lat="41.466708" lon="1.80118">
        <ele>321.093</ele>
        <time>2017-04-29T11:22:42Z</time>
      </trkpt>
      <trkpt lat="41.466851" lon="1.801165">
        <ele>320.08</ele>
        <time>2017-04-29T11:22:44Z</time>
      </trkpt>
      <trkpt lat="41.467005" lon="1.801102">
        <ele>316.034</ele>
        <time>2017-04-29T11:22:46Z</time>
      </trkpt>
      <trkpt lat="41.467161" lon="1.801">
        <ele>313.055</ele>
        <time>2017-04-29T11:22:48Z</time>
      </trkpt>
      <trkpt lat="41.467293" lon="1.800896">
        <ele>310.01</ele>
        <time>2017-04-29T11:22:50Z</time>
      </trkpt>
      <trkpt lat="41.467425" lon="1.800795">
        <ele>310.008</ele>
        <time>2017-04-29T11:22:52Z</time>
      </trkpt>
      <trkpt lat="41.467559" lon="1.80072">
        <ele>310.024</ele>
        <time>2017-04-29T11:22:54Z</time>
      </trkpt>
      <trkpt lat="41.467682" lon="1.800675">
        <ele>308.03</ele>
        <time>2017-04-29T11:22:56Z</time>
      </trkpt>
      <trkpt lat="41.467811" lon="1.800644">
        <ele>306.027</ele>
        <time>2017-04-29T11:22:58Z</time>
      </trkpt>
      <trkpt lat="41.467937" lon="1.800635">
        <ele>305.08</ele>
        <time>2017-04-29T11:23:00Z</time>
      </trkpt>
      <trkpt lat="41.468045" lon="1.800651">
        <ele>304.089</ele>
        <time>2017-04-29T11:23:01Z</time>
      </trkpt>
      <trkpt lat="41.468142" lon="1.800726">
        <ele>303.099</ele>
        <time>2017-04-29T11:23:04Z</time>
      </trkpt>
      <trkpt lat="41.468212" lon="1.800834">
        <ele>303.02</ele>
        <time>2017-04-29T11:23:06Z</time>
      </trkpt>
      <trkpt lat="41.468263" lon="1.800939">
        <ele>303.077</ele>
        <time>2017-04-29T11:23:08Z</time>
      </trkpt>
      <trkpt lat="41.468317" lon="1.80108">
        <ele>305.082</ele>
        <time>2017-04-29T11:23:11Z</time>
      </trkpt>
      <trkpt lat="41.468357" lon="1.801222">
        <ele>306.043</ele>
        <time>2017-04-29T11:23:14Z</time>
      </trkpt>
      <trkpt lat="41.468342" lon="1.801352">
        <ele>309.017</ele>
        <time>2017-04-29T11:23:17Z</time>
      </trkpt>
      <trkpt lat="41.468286" lon="1.801482">
        <ele>314.008</ele>
        <time>2017-04-29T11:23:22Z</time>
      </trkpt>
      <trkpt lat="41.468196" lon="1.801596">
        <ele>316.069</ele>
        <time>2017-04-29T11:23:26Z</time>
      </trkpt>
      <trkpt lat="41.46816" lon="1.801734">
        <ele>318.035</ele>
        <time>2017-04-29T11:23:30Z</time>
      </trkpt>
      <trkpt lat="41.468096" lon="1.801877">
        <ele>315.052</ele>
        <time>2017-04-29T11:23:34Z</time>
      </trkpt>
      <trkpt lat="41.468036" lon="1.801987">
        <ele>315.045</ele>
        <time>2017-04-29T11:23:37Z</time>
      </trkpt>
      <trkpt lat="41.468002" lon="1.802109">
        <ele>316.014</ele>
        <time>2017-04-29T11:23:40Z</time>
      </trkpt>
      <trkpt lat="41.467995" lon="1.802254">
        <ele>315.024</ele>
        <time>2017-04-29T11:23:44Z</time>
      </trkpt>
      <trkpt lat="41.467992" lon="1.802412">
        <ele>313.045</ele>
        <time>2017-04-29T11:23:48Z</time>
      </trkpt>
      <trkpt lat="41.467955" lon="1.802568">
        <ele>314.042</ele>
        <time>2017-04-29T11:23:52Z</time>
      </trkpt>
      <trkpt lat="41.46794" lon="1.802725">
        <ele>312.084</ele>
        <time>2017-04-29T11:23:55Z</time>
      </trkpt>
      <trkpt lat="41.467925" lon="1.80288">
        <ele>312.007</ele>
        <time>2017-04-29T11:23:58Z</time>
      </trkpt>
      <trkpt lat="41.467931" lon="1.803035">
        <ele>313.017</ele>
        <time>2017-04-29T11:24:01Z</time>
      </trkpt>
      <trkpt lat="41.467945" lon="1.803206">
        <ele>312.008</ele>
        <time>2017-04-29T11:24:04Z</time>
      </trkpt>
      <trkpt lat="41.467968" lon="1.803382">
        <ele>313.029</ele>
        <time>2017-04-29T11:24:07Z</time>
      </trkpt>
      <trkpt lat="41.467991" lon="1.803506">
        <ele>312.025</ele>
        <time>2017-04-29T11:24:09Z</time>
      </trkpt>
      <trkpt lat="41.468023" lon="1.803635">
        <ele>312.082</ele>
        <time>2017-04-29T11:24:11Z</time>
      </trkpt>
      <trkpt lat="41.46805" lon="1.803765">
        <ele>313.065</ele>
        <time>2017-04-29T11:24:13Z</time>
      </trkpt>
      <trkpt lat="41.468084" lon="1.803907">
        <ele>314.074</ele>
        <time>2017-04-29T11:24:15Z</time>
      </trkpt>
      <trkpt lat="41.468122" lon="1.804032">
        <ele>313.054</ele>
        <time>2017-04-29T11:24:17Z</time>
      </trkpt>
      <trkpt lat="41.468184" lon="1.804162">
        <ele>312.075</ele>
        <time>2017-04-29T11:24:19Z</time>
      </trkpt>
      <trkpt lat="41.46823" lon="1.804281">
        <ele>313.042</ele>
        <time>2017-04-29T11:24:21Z</time>
      </trkpt>
      <trkpt lat="41.468283" lon="1.804404">
        <ele>312.026</ele>
        <time>2017-04-29T11:24:23Z</time>
      </trkpt>
      <trkpt lat="41.468333" lon="1.804522">
        <ele>313.047</ele>
        <time>2017-04-29T11:24:25Z</time>
      </trkpt>
      <trkpt lat="41.468403" lon="1.804626">
        <ele>312.011</ele>
        <time>2017-04-29T11:24:27Z</time>
      </trkpt>
      <trkpt lat="41.468462" lon="1.804775">
        <ele>313.008</ele>
        <time>2017-04-29T11:24:30Z</time>
      </trkpt>
      <trkpt lat="41.468548" lon="1.80491">
        <ele>314.063</ele>
        <time>2017-04-29T11:24:33Z</time>
      </trkpt>
      <trkpt lat="41.468614" lon="1.804994">
        <ele>313.069</ele>
        <time>2017-04-29T11:24:35Z</time>
      </trkpt>
      <trkpt lat="41.468624" lon="1.805132">
        <ele>314.076</ele>
        <time>2017-04-29T11:24:38Z</time>
      </trkpt>
      <trkpt lat="41.468552" lon="1.805267">
        <ele>316.019</ele>
        <time>2017-04-29T11:24:41Z</time>
      </trkpt>
      <trkpt lat="41.468472" lon="1.805356">
        <ele>316.038</ele>
        <time>2017-04-29T11:24:44Z</time>
      </trkpt>
      <trkpt lat="41.468373" lon="1.805443">
        <ele>317.028</ele>
        <time>2017-04-29T11:24:47Z</time>
      </trkpt>
      <trkpt lat="41.468265" lon="1.80551">
        <ele>318.069</ele>
        <time>2017-04-29T11:24:50Z</time>
      </trkpt>
      <trkpt lat="41.468175" lon="1.805587">
        <ele>319.086</ele>
        <time>2017-04-29T11:24:53Z</time>
      </trkpt>
      <trkpt lat="41.468111" lon="1.805688">
        <ele>319.042</ele>
        <time>2017-04-29T11:24:56Z</time>
      </trkpt>
      <trkpt lat="41.468119" lon="1.805829">
        <ele>319.022</ele>
        <time>2017-04-29T11:24:59Z</time>
      </trkpt>
      <trkpt lat="41.468181" lon="1.805953">
        <ele>319.014</ele>
        <time>2017-04-29T11:25:02Z</time>
      </trkpt>
      <trkpt lat="41.468231" lon="1.806061">
        <ele>319.008</ele>
        <time>2017-04-29T11:25:05Z</time>
      </trkpt>
      <trkpt lat="41.468284" lon="1.80617">
        <ele>319.025</ele>
        <time>2017-04-29T11:25:08Z</time>
      </trkpt>
      <trkpt lat="41.468337" lon="1.806269">
        <ele>319.051</ele>
        <time>2017-04-29T11:25:11Z</time>
      </trkpt>
      <trkpt lat="41.468385" lon="1.806379">
        <ele>320.028</ele>
        <time>2017-04-29T11:25:14Z</time>
      </trkpt>
      <trkpt lat="41.468423" lon="1.806498">
        <ele>321.021</ele>
        <time>2017-04-29T11:25:17Z</time>
      </trkpt>
      <trkpt lat="41.468469" lon="1.806633">
        <ele>321.08</ele>
        <time>2017-04-29T11:25:20Z</time>
      </trkpt>
      <trkpt lat="41.468514" lon="1.806737">
        <ele>321.04</ele>
        <time>2017-04-29T11:25:22Z</time>
      </trkpt>
      <trkpt lat="41.468559" lon="1.806858">
        <ele>323.041</ele>
        <time>2017-04-29T11:25:25Z</time>
      </trkpt>
      <trkpt lat="41.46862" lon="1.806951">
        <ele>324.038</ele>
        <time>2017-04-29T11:25:28Z</time>
      </trkpt>
      <trkpt lat="41.468723" lon="1.807023">
        <ele>325.075</ele>
        <time>2017-04-29T11:25:32Z</time>
      </trkpt>
      <trkpt lat="41.468819" lon="1.807062">
        <ele>323.028</ele>
        <time>2017-04-29T11:25:35Z</time>
      </trkpt>
      <trkpt lat="41.468913" lon="1.807121">
        <ele>324.02</ele>
        <time>2017-04-29T11:25:38Z</time>
      </trkpt>
      <trkpt lat="41.469015" lon="1.807182">
        <ele>322.008</ele>
        <time>2017-04-29T11:25:41Z</time>
      </trkpt>
      <trkpt lat="41.46911" lon="1.807272">
        <ele>321.058</ele>
        <time>2017-04-29T11:25:44Z</time>
      </trkpt>
      <trkpt lat="41.469179" lon="1.807376">
        <ele>322.054</ele>
        <time>2017-04-29T11:25:47Z</time>
      </trkpt>
      <trkpt lat="41.469246" lon="1.807498">
        <ele>321.061</ele>
        <time>2017-04-29T11:25:50Z</time>
      </trkpt>
      <trkpt lat="41.4693" lon="1.807641">
        <ele>322.034</ele>
        <time>2017-04-29T11:25:53Z</time>
      </trkpt>
      <trkpt lat="41.469345" lon="1.807781">
        <ele>322.093</ele>
        <time>2017-04-29T11:25:56Z</time>
      </trkpt>
      <trkpt lat="41.469399" lon="1.807919">
        <ele>324.063</ele>
        <time>2017-04-29T11:25:59Z</time>
      </trkpt>
      <trkpt lat="41.469477" lon="1.808051">
        <ele>327.064</ele>
        <time>2017-04-29T11:26:02Z</time>
      </trkpt>
      <trkpt lat="41.469542" lon="1.808182">
        <ele>327.041</ele>
        <time>2017-04-29T11:26:05Z</time>
      </trkpt>
      <trkpt lat="41.469613" lon="1.80829">
        <ele>327.099</ele>
        <time>2017-04-29T11:26:08Z</time>
      </trkpt>
      <trkpt lat="41.46969" lon="1.808387">
        <ele>326.007</ele>
        <time>2017-04-29T11:26:11Z</time>
      </trkpt>
      <trkpt lat="41.469771" lon="1.808501">
        <ele>325.027</ele>
        <time>2017-04-29T11:26:14Z</time>
      </trkpt>
      <trkpt lat="41.469843" lon="1.808595">
        <ele>326.008</ele>
        <time>2017-04-29T11:26:17Z</time>
      </trkpt>
      <trkpt lat="41.469913" lon="1.808683">
        <ele>327.02</ele>
        <time>2017-04-29T11:26:20Z</time>
      </trkpt>
      <trkpt lat="41.470005" lon="1.808747">
        <ele>326.076</ele>
        <time>2017-04-29T11:26:23Z</time>
      </trkpt>
      <trkpt lat="41.470106" lon="1.808775">
        <ele>326.033</ele>
        <time>2017-04-29T11:26:26Z</time>
      </trkpt>
      <trkpt lat="41.470212" lon="1.80877">
        <ele>326.026</ele>
        <time>2017-04-29T11:26:29Z</time>
      </trkpt>
      <trkpt lat="41.470308" lon="1.808732">
        <ele>326.025</ele>
        <time>2017-04-29T11:26:32Z</time>
      </trkpt>
      <trkpt lat="41.470396" lon="1.808664">
        <ele>326.015</ele>
        <time>2017-04-29T11:32:32Z</time>
      </trkpt>
      <trkpt lat="41.470478" lon="1.808591">
        <ele>326.056</ele>
        <time>2017-04-29T11:32:37Z</time>
      </trkpt>
      <trkpt lat="41.470553" lon="1.808506">
        <ele>328.043</ele>
        <time>2017-04-29T11:32:41Z</time>
      </trkpt>
      <trkpt lat="41.470636" lon="1.808445">
        <ele>327.041</ele>
        <time>2017-04-29T11:32:44Z</time>
      </trkpt>
      <trkpt lat="41.470724" lon="1.808385">
        <ele>327.081</ele>
        <time>2017-04-29T11:32:47Z</time>
      </trkpt>
      <trkpt lat="41.470856" lon="1.808372">
        <ele>326.009</ele>
        <time>2017-04-29T11:32:50Z</time>
      </trkpt>
      <trkpt lat="41.470954" lon="1.808385">
        <ele>325.008</ele>
        <time>2017-04-29T11:32:52Z</time>
      </trkpt>
      <trkpt lat="41.471063" lon="1.808433">
        <ele>324.055</ele>
        <time>2017-04-29T11:32:54Z</time>
      </trkpt>
      <trkpt lat="41.471171" lon="1.808504">
        <ele>324.091</ele>
        <time>2017-04-29T11:32:56Z</time>
      </trkpt>
      <trkpt lat="41.471287" lon="1.80858">
        <ele>324.068</ele>
        <time>2017-04-29T11:32:58Z</time>
      </trkpt>
      <trkpt lat="41.471396" lon="1.808672">
        <ele>323.031</ele>
        <time>2017-04-29T11:33:00Z</time>
      </trkpt>
      <trkpt lat="41.471489" lon="1.808779">
        <ele>321.01</ele>
        <time>2017-04-29T11:33:02Z</time>
      </trkpt>
      <trkpt lat="41.471562" lon="1.808902">
        <ele>321.03</ele>
        <time>2017-04-29T11:33:04Z</time>
      </trkpt>
      <trkpt lat="41.471654" lon="1.809039">
        <ele>320.041</ele>
        <time>2017-04-29T11:33:06Z</time>
      </trkpt>
      <trkpt lat="41.47173" lon="1.809192">
        <ele>320.078</ele>
        <time>2017-04-29T11:33:08Z</time>
      </trkpt>
      <trkpt lat="41.471815" lon="1.809342">
        <ele>319.098</ele>
        <time>2017-04-29T11:33:10Z</time>
      </trkpt>
      <trkpt lat="41.471906" lon="1.809497">
        <ele>319.015</ele>
        <time>2017-04-29T11:33:12Z</time>
      </trkpt>
      <trkpt lat="41.471998" lon="1.809641">
        <ele>319.026</ele>
        <time>2017-04-29T11:33:14Z</time>
      </trkpt>
      <trkpt lat="41.4721" lon="1.80978">
        <ele>317.008</ele>
        <time>2017-04-29T11:33:16Z</time>
      </trkpt>
      <trkpt lat="41.472185" lon="1.809902">
        <ele>317.09</ele>
        <time>2017-04-29T11:33:18Z</time>
      </trkpt>
      <trkpt lat="41.472271" lon="1.81002">
        <ele>315.086</ele>
        <time>2017-04-29T11:33:20Z</time>
      </trkpt>
      <trkpt lat="41.47234" lon="1.810138">
        <ele>313.083</ele>
        <time>2017-04-29T11:33:22Z</time>
      </trkpt>
      <trkpt lat="41.472421" lon="1.810272">
        <ele>312.076</ele>
        <time>2017-04-29T11:33:25Z</time>
      </trkpt>
      <trkpt lat="41.472474" lon="1.810452">
        <ele>311.065</ele>
        <time>2017-04-29T11:33:28Z</time>
      </trkpt>
      <trkpt lat="41.472458" lon="1.810576">
        <ele>312.075</ele>
        <time>2017-04-29T11:33:30Z</time>
      </trkpt>
      <trkpt lat="41.472425" lon="1.810706">
        <ele>310.056</ele>
        <time>2017-04-29T11:33:32Z</time>
      </trkpt>
      <trkpt lat="41.472401" lon="1.810828">
        <ele>309.073</ele>
        <time>2017-04-29T11:33:34Z</time>
      </trkpt>
      <trkpt lat="41.472378" lon="1.811">
        <ele>307.085</ele>
        <time>2017-04-29T11:33:37Z</time>
      </trkpt>
      <trkpt lat="41.472385" lon="1.811153">
        <ele>307.089</ele>
        <time>2017-04-29T11:33:40Z</time>
      </trkpt>
      <trkpt lat="41.472465" lon="1.811232">
        <ele>308.017</ele>
        <time>2017-04-29T11:33:43Z</time>
      </trkpt>
      <trkpt lat="41.472572" lon="1.811251">
        <ele>308.008</ele>
        <time>2017-04-29T11:33:46Z</time>
      </trkpt>
      <trkpt lat="41.472691" lon="1.81128">
        <ele>306.089</ele>
        <time>2017-04-29T11:33:49Z</time>
      </trkpt>
      <trkpt lat="41.472792" lon="1.811305">
        <ele>306.085</ele>
        <time>2017-04-29T11:33:51Z</time>
      </trkpt>
      <trkpt lat="41.472912" lon="1.81138">
        <ele>304.062</ele>
        <time>2017-04-29T11:33:53Z</time>
      </trkpt>
      <trkpt lat="41.47305" lon="1.811469">
        <ele>300.075</ele>
        <time>2017-04-29T11:33:55Z</time>
      </trkpt>
      <trkpt lat="41.473182" lon="1.811543">
        <ele>300.074</ele>
        <time>2017-04-29T11:33:57Z</time>
      </trkpt>
      <trkpt lat="41.473297" lon="1.811634">
        <ele>300.044</ele>
        <time>2017-04-29T11:33:59Z</time>
      </trkpt>
      <trkpt lat="41.47335" lon="1.811748">
        <ele>301.025</ele>
        <time>2017-04-29T11:34:01Z</time>
      </trkpt>
      <trkpt lat="41.473366" lon="1.811882">
        <ele>300.072</ele>
        <time>2017-04-29T11:34:03Z</time>
      </trkpt>
      <trkpt lat="41.473353" lon="1.81204">
        <ele>300.025</ele>
        <time>2017-04-29T11:34:06Z</time>
      </trkpt>
      <trkpt lat="41.473368" lon="1.812167">
        <ele>299.026</ele>
        <time>2017-04-29T11:34:08Z</time>
      </trkpt>
      <trkpt lat="41.473398" lon="1.812351">
        <ele>299.008</ele>
        <time>2017-04-29T11:34:11Z</time>
      </trkpt>
      <trkpt lat="41.473461" lon="1.81249">
        <ele>296.008</ele>
        <time>2017-04-29T11:34:13Z</time>
      </trkpt>
      <trkpt lat="41.473533" lon="1.812611">
        <ele>295.033</ele>
        <time>2017-04-29T11:34:15Z</time>
      </trkpt>
      <trkpt lat="41.473612" lon="1.812728">
        <ele>296.049</ele>
        <time>2017-04-29T11:34:17Z</time>
      </trkpt>
      <trkpt lat="41.473676" lon="1.812861">
        <ele>295.026</ele>
        <time>2017-04-29T11:34:19Z</time>
      </trkpt>
      <trkpt lat="41.473737" lon="1.812973">
        <ele>295.069</ele>
        <time>2017-04-29T11:34:21Z</time>
      </trkpt>
      <trkpt lat="41.473766" lon="1.81312">
        <ele>294.018</ele>
        <time>2017-04-29T11:34:23Z</time>
      </trkpt>
      <trkpt lat="41.473812" lon="1.813279">
        <ele>293.048</ele>
        <time>2017-04-29T11:34:25Z</time>
      </trkpt>
      <trkpt lat="41.473843" lon="1.813438">
        <ele>291.049</ele>
        <time>2017-04-29T11:34:27Z</time>
      </trkpt>
      <trkpt lat="41.473885" lon="1.813623">
        <ele>290.086</ele>
        <time>2017-04-29T11:34:29Z</time>
      </trkpt>
      <trkpt lat="41.473949" lon="1.813828">
        <ele>289.092</ele>
        <time>2017-04-29T11:34:31Z</time>
      </trkpt>
      <trkpt lat="41.473997" lon="1.813936">
        <ele>289.073</ele>
        <time>2017-04-29T11:34:32Z</time>
      </trkpt>
      <trkpt lat="41.474087" lon="1.814142">
        <ele>287.02</ele>
        <time>2017-04-29T11:34:34Z</time>
      </trkpt>
      <trkpt lat="41.474193" lon="1.814316">
        <ele>285.008</ele>
        <time>2017-04-29T11:34:36Z</time>
      </trkpt>
      <trkpt lat="41.474299" lon="1.814486">
        <ele>285.01</ele>
        <time>2017-04-29T11:34:38Z</time>
      </trkpt>
      <trkpt lat="41.474421" lon="1.814629">
        <ele>282.016</ele>
        <time>2017-04-29T11:34:40Z</time>
      </trkpt>
      <trkpt lat="41.474543" lon="1.814783">
        <ele>281.083</ele>
        <time>2017-04-29T11:34:42Z</time>
      </trkpt>
      <trkpt lat="41.47463" lon="1.814952">
        <ele>282.026</ele>
        <time>2017-04-29T11:34:44Z</time>
      </trkpt>
      <trkpt lat="41.474677" lon="1.815057">
        <ele>281.035</ele>
        <time>2017-04-29T11:34:45Z</time>
      </trkpt>
      <trkpt lat="41.474733" lon="1.81527">
        <ele>281.045</ele>
        <time>2017-04-29T11:34:47Z</time>
      </trkpt>
      <trkpt lat="41.474778" lon="1.815486">
        <ele>280.066</ele>
        <time>2017-04-29T11:34:49Z</time>
      </trkpt>
      <trkpt lat="41.474824" lon="1.81571">
        <ele>279.053</ele>
        <time>2017-04-29T11:34:51Z</time>
      </trkpt>
      <trkpt lat="41.474846" lon="1.815828">
        <ele>279.039</ele>
        <time>2017-04-29T11:34:52Z</time>
      </trkpt>
      <trkpt lat="41.474876" lon="1.815947">
        <ele>278.001</ele>
        <time>2017-04-29T11:34:53Z</time>
      </trkpt>
      <trkpt lat="41.474908" lon="1.816065">
        <ele>277.021</ele>
        <time>2017-04-29T11:34:54Z</time>
      </trkpt>
      <trkpt lat="41.474966" lon="1.816275">
        <ele>277.008</ele>
        <time>2017-04-29T11:34:56Z</time>
      </trkpt>
      <trkpt lat="41.474994" lon="1.816402">
        <ele>276.064</ele>
        <time>2017-04-29T11:34:57Z</time>
      </trkpt>
      <trkpt lat="41.475045" lon="1.816614">
        <ele>276.04</ele>
        <time>2017-04-29T11:34:59Z</time>
      </trkpt>
      <trkpt lat="41.475076" lon="1.81677">
        <ele>275.047</ele>
        <time>2017-04-29T11:35:01Z</time>
      </trkpt>
      <trkpt lat="41.475096" lon="1.816949">
        <ele>272.02</ele>
        <time>2017-04-29T11:35:03Z</time>
      </trkpt>
      <trkpt lat="41.475123" lon="1.817127">
        <ele>270.079</ele>
        <time>2017-04-29T11:35:05Z</time>
      </trkpt>
      <trkpt lat="41.475157" lon="1.817275">
        <ele>271.069</ele>
        <time>2017-04-29T11:35:07Z</time>
      </trkpt>
      <trkpt lat="41.475166" lon="1.817439">
        <ele>270.03</ele>
        <time>2017-04-29T11:35:09Z</time>
      </trkpt>
      <trkpt lat="41.47518" lon="1.817588">
        <ele>269.067</ele>
        <time>2017-04-29T11:35:11Z</time>
      </trkpt>
      <trkpt lat="41.475206" lon="1.817744">
        <ele>269.089</ele>
        <time>2017-04-29T11:35:13Z</time>
      </trkpt>
      <trkpt lat="41.475187" lon="1.817886">
        <ele>270.006</ele>
        <time>2017-04-29T11:35:15Z</time>
      </trkpt>
      <trkpt lat="41.475129" lon="1.81798">
        <ele>271.026</ele>
        <time>2017-04-29T11:35:17Z</time>
      </trkpt>
      <trkpt lat="41.475029" lon="1.818036">
        <ele>270.008</ele>
        <time>2017-04-29T11:35:20Z</time>
      </trkpt>
      <trkpt lat="41.474946" lon="1.818094">
        <ele>270.039</ele>
        <time>2017-04-29T11:35:24Z</time>
      </trkpt>
      <trkpt lat="41.47488" lon="1.81818">
        <ele>270.085</ele>
        <time>2017-04-29T11:35:27Z</time>
      </trkpt>
      <trkpt lat="41.474835" lon="1.818313">
        <ele>271.082</ele>
        <time>2017-04-29T11:35:31Z</time>
      </trkpt>
      <trkpt lat="41.474815" lon="1.818432">
        <ele>272.095</ele>
        <time>2017-04-29T11:35:34Z</time>
      </trkpt>
      <trkpt lat="41.474816" lon="1.818563">
        <ele>272.064</ele>
        <time>2017-04-29T11:35:37Z</time>
      </trkpt>
      <trkpt lat="41.47483" lon="1.818704">
        <ele>271.024</ele>
        <time>2017-04-29T11:35:40Z</time>
      </trkpt>
      <trkpt lat="41.474867" lon="1.818852">
        <ele>272.075</ele>
        <time>2017-04-29T11:35:43Z</time>
      </trkpt>
      <trkpt lat="41.474905" lon="1.818982">
        <ele>271.062</ele>
        <time>2017-04-29T11:35:46Z</time>
      </trkpt>
      <trkpt lat="41.474939" lon="1.819113">
        <ele>272.091</ele>
        <time>2017-04-29T11:35:49Z</time>
      </trkpt>
      <trkpt lat="41.475004" lon="1.81926">
        <ele>270.081</ele>
        <time>2017-04-29T11:35:52Z</time>
      </trkpt>
      <trkpt lat="41.475081" lon="1.819422">
        <ele>270.019</ele>
        <time>2017-04-29T11:35:55Z</time>
      </trkpt>
      <trkpt lat="41.475137" lon="1.819536">
        <ele>270.008</ele>
        <time>2017-04-29T11:35:57Z</time>
      </trkpt>
      <trkpt lat="41.475198" lon="1.819659">
        <ele>271.03</ele>
        <time>2017-04-29T11:35:59Z</time>
      </trkpt>
      <trkpt lat="41.475262" lon="1.819791">
        <ele>272.026</ele>
        <time>2017-04-29T11:36:01Z</time>
      </trkpt>
      <trkpt lat="41.47533" lon="1.819915">
        <ele>272.043</ele>
        <time>2017-04-29T11:36:03Z</time>
      </trkpt>
      <trkpt lat="41.475408" lon="1.820041">
        <ele>270.026</ele>
        <time>2017-04-29T11:36:05Z</time>
      </trkpt>
      <trkpt lat="41.475473" lon="1.820156">
        <ele>271.045</ele>
        <time>2017-04-29T11:36:07Z</time>
      </trkpt>
      <trkpt lat="41.475543" lon="1.82027">
        <ele>272.035</ele>
        <time>2017-04-29T11:36:09Z</time>
      </trkpt>
      <trkpt lat="41.475583" lon="1.8204">
        <ele>272.096</ele>
        <time>2017-04-29T11:36:11Z</time>
      </trkpt>
      <trkpt lat="41.475637" lon="1.820531">
        <ele>272.013</ele>
        <time>2017-04-29T11:36:13Z</time>
      </trkpt>
      <trkpt lat="41.475677" lon="1.820671">
        <ele>271.035</ele>
        <time>2017-04-29T11:36:15Z</time>
      </trkpt>
      <trkpt lat="41.4757" lon="1.820826">
        <ele>270.086</ele>
        <time>2017-04-29T11:36:17Z</time>
      </trkpt>
      <trkpt lat="41.475706" lon="1.820983">
        <ele>269.014</ele>
        <time>2017-04-29T11:36:19Z</time>
      </trkpt>
      <trkpt lat="41.475702" lon="1.821142">
        <ele>270.008</ele>
        <time>2017-04-29T11:36:21Z</time>
      </trkpt>
      <trkpt lat="41.475671" lon="1.821287">
        <ele>269.074</ele>
        <time>2017-04-29T11:36:23Z</time>
      </trkpt>
      <trkpt lat="41.475607" lon="1.821407">
        <ele>269.08</ele>
        <time>2017-04-29T11:36:25Z</time>
      </trkpt>
      <trkpt lat="41.475542" lon="1.821516">
        <ele>268.087</ele>
        <time>2017-04-29T11:36:27Z</time>
      </trkpt>
      <trkpt lat="41.475476" lon="1.82161">
        <ele>267.09</ele>
        <time>2017-04-29T11:36:29Z</time>
      </trkpt>
      <trkpt lat="41.475419" lon="1.821711">
        <ele>267.089</ele>
        <time>2017-04-29T11:36:31Z</time>
      </trkpt>
      <trkpt lat="41.475389" lon="1.821829">
        <ele>266.099</ele>
        <time>2017-04-29T11:36:33Z</time>
      </trkpt>
      <trkpt lat="41.475386" lon="1.821974">
        <ele>266.06</ele>
        <time>2017-04-29T11:36:35Z</time>
      </trkpt>
      <trkpt lat="41.475396" lon="1.822136">
        <ele>264.087</ele>
        <time>2017-04-29T11:36:37Z</time>
      </trkpt>
      <trkpt lat="41.475402" lon="1.822307">
        <ele>265.034</ele>
        <time>2017-04-29T11:36:39Z</time>
      </trkpt>
      <trkpt lat="41.475413" lon="1.822511">
        <ele>263.055</ele>
        <time>2017-04-29T11:36:41Z</time>
      </trkpt>
      <trkpt lat="41.475454" lon="1.822693">
        <ele>263.01</ele>
        <time>2017-04-29T11:36:43Z</time>
      </trkpt>
      <trkpt lat="41.475505" lon="1.822842">
        <ele>260.008</ele>
        <time>2017-04-29T11:36:45Z</time>
      </trkpt>
      <trkpt lat="41.47557" lon="1.822955">
        <ele>260.074</ele>
        <time>2017-04-29T11:36:47Z</time>
      </trkpt>
      <trkpt lat="41.475623" lon="1.823074">
        <ele>259.09</ele>
        <time>2017-04-29T11:36:49Z</time>
      </trkpt>
      <trkpt lat="41.475692" lon="1.823215">
        <ele>259.087</ele>
        <time>2017-04-29T11:36:51Z</time>
      </trkpt>
      <trkpt lat="41.475749" lon="1.823381">
        <ele>258.02</ele>
        <time>2017-04-29T11:36:53Z</time>
      </trkpt>
      <trkpt lat="41.475804" lon="1.82354">
        <ele>257.079</ele>
        <time>2017-04-29T11:36:55Z</time>
      </trkpt>
      <trkpt lat="41.475851" lon="1.823708">
        <ele>256.079</ele>
        <time>2017-04-29T11:36:57Z</time>
      </trkpt>
      <trkpt lat="41.475884" lon="1.823893">
        <ele>256.09</ele>
        <time>2017-04-29T11:36:59Z</time>
      </trkpt>
      <trkpt lat="41.475911" lon="1.824109">
        <ele>254.087</ele>
        <time>2017-04-29T11:37:01Z</time>
      </trkpt>
      <trkpt lat="41.475924" lon="1.824287">
        <ele>252.011</ele>
        <time>2017-04-29T11:37:03Z</time>
      </trkpt>
      <trkpt lat="41.475928" lon="1.824449">
        <ele>251.021</ele>
        <time>2017-04-29T11:37:05Z</time>
      </trkpt>
      <trkpt lat="41.475931" lon="1.82457">
        <ele>250.003</ele>
        <time>2017-04-29T11:37:07Z</time>
      </trkpt>
      <trkpt lat="41.47592" lon="1.824749">
        <ele>248.008</ele>
        <time>2017-04-29T11:37:10Z</time>
      </trkpt>
      <trkpt lat="41.475923" lon="1.824882">
        <ele>248.012</ele>
        <time>2017-04-29T11:37:12Z</time>
      </trkpt>
      <trkpt lat="41.475936" lon="1.825049">
        <ele>246.038</ele>
        <time>2017-04-29T11:37:14Z</time>
      </trkpt>
      <trkpt lat="41.475951" lon="1.82521">
        <ele>245.035</ele>
        <time>2017-04-29T11:37:16Z</time>
      </trkpt>
      <trkpt lat="41.475963" lon="1.82536">
        <ele>244.058</ele>
        <time>2017-04-29T11:37:18Z</time>
      </trkpt>
      <trkpt lat="41.475995" lon="1.825491">
        <ele>242.087</ele>
        <time>2017-04-29T11:37:20Z</time>
      </trkpt>
      <trkpt lat="41.476025" lon="1.82561">
        <ele>241.067</ele>
        <time>2017-04-29T11:37:22Z</time>
      </trkpt>
      <trkpt lat="41.476084" lon="1.825707">
        <ele>241.038</ele>
        <time>2017-04-29T11:37:24Z</time>
      </trkpt>
      <trkpt lat="41.476164" lon="1.825796">
        <ele>240.065</ele>
        <time>2017-04-29T11:37:26Z</time>
      </trkpt>
      <trkpt lat="41.476269" lon="1.825875">
        <ele>239.098</ele>
        <time>2017-04-29T11:37:28Z</time>
      </trkpt>
      <trkpt lat="41.476371" lon="1.825971">
        <ele>237.015</ele>
        <time>2017-04-29T11:37:30Z</time>
      </trkpt>
      <trkpt lat="41.476482" lon="1.8261">
        <ele>237.026</ele>
        <time>2017-04-29T11:37:32Z</time>
      </trkpt>
      <trkpt lat="41.476596" lon="1.826217">
        <ele>235.008</ele>
        <time>2017-04-29T11:37:34Z</time>
      </trkpt>
      <trkpt lat="41.476688" lon="1.826309">
        <ele>234.08</ele>
        <time>2017-04-29T11:37:36Z</time>
      </trkpt>
      <trkpt lat="41.476785" lon="1.826423">
        <ele>233.096</ele>
        <time>2017-04-29T11:37:39Z</time>
      </trkpt>
      <trkpt lat="41.476898" lon="1.826486">
        <ele>233.083</ele>
        <time>2017-04-29T11:37:42Z</time>
      </trkpt>
      <trkpt lat="41.47699" lon="1.826428">
        <ele>231.096</ele>
        <time>2017-04-29T11:37:44Z</time>
      </trkpt>
      <trkpt lat="41.477089" lon="1.826334">
        <ele>229.045</ele>
        <time>2017-04-29T11:37:46Z</time>
      </trkpt>
      <trkpt lat="41.477163" lon="1.82624">
        <ele>227.085</ele>
        <time>2017-04-29T11:37:48Z</time>
      </trkpt>
      <trkpt lat="41.47724" lon="1.826118">
        <ele>225.096</ele>
        <time>2017-04-29T11:37:50Z</time>
      </trkpt>
      <trkpt lat="41.477322" lon="1.825982">
        <ele>220.073</ele>
        <time>2017-04-29T11:37:52Z</time>
      </trkpt>
      <trkpt lat="41.477395" lon="1.825858">
        <ele>220.013</ele>
        <time>2017-04-29T11:37:54Z</time>
      </trkpt>
      <trkpt lat="41.477477" lon="1.825722">
        <ele>217.043</ele>
        <time>2017-04-29T11:37:56Z</time>
      </trkpt>
      <trkpt lat="41.477547" lon="1.82557">
        <ele>216.007</ele>
        <time>2017-04-29T11:37:58Z</time>
      </trkpt>
      <trkpt lat="41.477597" lon="1.825432">
        <ele>215.008</ele>
        <time>2017-04-29T11:38:00Z</time>
      </trkpt>
      <trkpt lat="41.477671" lon="1.825279">
        <ele>213.022</ele>
        <time>2017-04-29T11:38:03Z</time>
      </trkpt>
      <trkpt lat="41.477761" lon="1.825218">
        <ele>210.088</ele>
        <time>2017-04-29T11:38:05Z</time>
      </trkpt>
      <trkpt lat="41.477898" lon="1.825149">
        <ele>209.025</ele>
        <time>2017-04-29T11:38:07Z</time>
      </trkpt>
      <trkpt lat="41.478041" lon="1.825093">
        <ele>205.048</ele>
        <time>2017-04-29T11:38:09Z</time>
      </trkpt>
      <trkpt lat="41.478199" lon="1.82505">
        <ele>204.037</ele>
        <time>2017-04-29T11:38:11Z</time>
      </trkpt>
      <trkpt lat="41.478305" lon="1.825022">
        <ele>202.057</ele>
        <time>2017-04-29T11:38:13Z</time>
      </trkpt>
      <trkpt lat="41.478434" lon="1.825012">
        <ele>201.018</ele>
        <time>2017-04-29T11:38:15Z</time>
      </trkpt>
      <trkpt lat="41.478551" lon="1.824981">
        <ele>199.045</ele>
        <time>2017-04-29T11:38:17Z</time>
      </trkpt>
      <trkpt lat="41.478654" lon="1.824956">
        <ele>197.075</ele>
        <time>2017-04-29T11:38:19Z</time>
      </trkpt>
      <trkpt lat="41.478745" lon="1.824936">
        <ele>197.028</ele>
        <time>2017-04-29T11:38:21Z</time>
      </trkpt>
      <trkpt lat="41.478845" lon="1.824874">
        <ele>196.02</ele>
        <time>2017-04-29T11:38:25Z</time>
      </trkpt>
      <trkpt lat="41.478939" lon="1.824834">
        <ele>196.008</ele>
        <time>2017-04-29T11:38:29Z</time>
      </trkpt>
      <trkpt lat="41.479036" lon="1.824882">
        <ele>201.048</ele>
        <time>2017-04-29T11:38:34Z</time>
      </trkpt>
      <trkpt lat="41.479142" lon="1.824908">
        <ele>204.024</ele>
        <time>2017-04-29T11:38:39Z</time>
      </trkpt>
      <trkpt lat="41.479238" lon="1.824922">
        <ele>199.021</ele>
        <time>2017-04-29T11:38:44Z</time>
      </trkpt>
      <trkpt lat="41.479344" lon="1.824901">
        <ele>202.024</ele>
        <time>2017-04-29T11:38:49Z</time>
      </trkpt>
      <trkpt lat="41.479439" lon="1.824894">
        <ele>201.063</ele>
        <time>2017-04-29T11:38:54Z</time>
      </trkpt>
      <trkpt lat="41.479538" lon="1.824882">
        <ele>204.013</ele>
        <time>2017-04-29T11:38:59Z</time>
      </trkpt>
      <trkpt lat="41.479632" lon="1.824863">
        <ele>204.024</ele>
        <time>2017-04-29T11:39:05Z</time>
      </trkpt>
      <trkpt lat="41.479733" lon="1.824807">
        <ele>208.041</ele>
        <time>2017-04-29T11:39:11Z</time>
      </trkpt>
      <trkpt lat="41.479818" lon="1.824756">
        <ele>210.052</ele>
        <time>2017-04-29T11:39:17Z</time>
      </trkpt>
      <trkpt lat="41.479922" lon="1.824751">
        <ele>215.053</ele>
        <time>2017-04-29T11:39:23Z</time>
      </trkpt>
      <trkpt lat="41.480007" lon="1.824803">
        <ele>214.008</ele>
        <time>2017-04-29T11:39:28Z</time>
      </trkpt>
      <trkpt lat="41.480056" lon="1.824924">
        <ele>214.008</ele>
        <time>2017-04-29T11:39:34Z</time>
      </trkpt>
      <trkpt lat="41.480085" lon="1.825052">
        <ele>214.016</ele>
        <time>2017-04-29T11:39:40Z</time>
      </trkpt>
      <trkpt lat="41.480093" lon="1.825176">
        <ele>214.052</ele>
        <time>2017-04-29T11:39:45Z</time>
      </trkpt>
      <trkpt lat="41.480078" lon="1.825303">
        <ele>216.029</ele>
        <time>2017-04-29T11:39:50Z</time>
      </trkpt>
      <trkpt lat="41.480058" lon="1.825436">
        <ele>216.082</ele>
        <time>2017-04-29T11:39:55Z</time>
      </trkpt>
      <trkpt lat="41.480001" lon="1.825556">
        <ele>219.041</ele>
        <time>2017-04-29T11:40:01Z</time>
      </trkpt>
      <trkpt lat="41.479992" lon="1.825685">
        <ele>221.021</ele>
        <time>2017-04-29T11:40:07Z</time>
      </trkpt>
      <trkpt lat="41.480029" lon="1.825808">
        <ele>222.082</ele>
        <time>2017-04-29T11:40:14Z</time>
      </trkpt>
      <trkpt lat="41.480089" lon="1.825928">
        <ele>222.019</ele>
        <time>2017-04-29T11:40:21Z</time>
      </trkpt>
      <trkpt lat="41.480166" lon="1.826007">
        <ele>225.032</ele>
        <time>2017-04-29T11:40:29Z</time>
      </trkpt>
      <trkpt lat="41.480269" lon="1.826033">
        <ele>228.092</ele>
        <time>2017-04-29T11:40:36Z</time>
      </trkpt>
      <trkpt lat="41.480358" lon="1.826084">
        <ele>232.011</ele>
        <time>2017-04-29T11:40:44Z</time>
      </trkpt>
      <trkpt lat="41.480461" lon="1.826103">
        <ele>233.008</ele>
        <time>2017-04-29T11:40:51Z</time>
      </trkpt>
      <trkpt lat="41.48057" lon="1.8261">
        <ele>236.034</ele>
        <time>2017-04-29T11:41:00Z</time>
      </trkpt>
      <trkpt lat="41.480664" lon="1.826132">
        <ele>234.04</ele>
        <time>2017-04-29T11:41:08Z</time>
      </trkpt>
      <trkpt lat="41.480733" lon="1.826213">
        <ele>239.097</ele>
        <time>2017-04-29T11:41:17Z</time>
      </trkpt>
      <trkpt lat="41.480782" lon="1.826321">
        <ele>240.06</ele>
        <time>2017-04-29T11:41:24Z</time>
      </trkpt>
      <trkpt lat="41.4808" lon="1.826454">
        <ele>240.099</ele>
        <time>2017-04-29T11:41:32Z</time>
      </trkpt>
      <trkpt lat="41.480784" lon="1.826593">
        <ele>240.079</ele>
        <time>2017-04-29T11:41:39Z</time>
      </trkpt>
      <trkpt lat="41.480761" lon="1.826719">
        <ele>241.06</ele>
        <time>2017-04-29T11:41:44Z</time>
      </trkpt>
      <trkpt lat="41.480739" lon="1.826867">
        <ele>241.097</ele>
        <time>2017-04-29T11:41:49Z</time>
      </trkpt>
      <trkpt lat="41.48072" lon="1.827007">
        <ele>240.019</ele>
        <time>2017-04-29T11:41:53Z</time>
      </trkpt>
      <trkpt lat="41.480707" lon="1.827155">
        <ele>240.009</ele>
        <time>2017-04-29T11:41:57Z</time>
      </trkpt>
      <trkpt lat="41.480696" lon="1.827284">
        <ele>240.019</ele>
        <time>2017-04-29T11:42:00Z</time>
      </trkpt>
      <trkpt lat="41.480675" lon="1.827404">
        <ele>239.008</ele>
        <time>2017-04-29T11:42:03Z</time>
      </trkpt>
      <trkpt lat="41.480674" lon="1.827525">
        <ele>239.062</ele>
        <time>2017-04-29T11:42:06Z</time>
      </trkpt>
      <trkpt lat="41.480715" lon="1.827638">
        <ele>239.078</ele>
        <time>2017-04-29T11:42:09Z</time>
      </trkpt>
      <trkpt lat="41.48081" lon="1.827668">
        <ele>240.095</ele>
        <time>2017-04-29T11:42:12Z</time>
      </trkpt>
      <trkpt lat="41.480922" lon="1.827611">
        <ele>239.088</ele>
        <time>2017-04-29T11:42:16Z</time>
      </trkpt>
      <trkpt lat="41.481026" lon="1.827546">
        <ele>239.077</ele>
        <time>2017-04-29T11:42:20Z</time>
      </trkpt>
      <trkpt lat="41.481121" lon="1.827477">
        <ele>239.047</ele>
        <time>2017-04-29T11:42:24Z</time>
      </trkpt>
      <trkpt lat="41.481228" lon="1.827433">
        <ele>241.048</ele>
        <time>2017-04-29T11:42:29Z</time>
      </trkpt>
      <trkpt lat="41.481322" lon="1.827398">
        <ele>241.015</ele>
        <time>2017-04-29T11:42:33Z</time>
      </trkpt>
      <trkpt lat="41.481429" lon="1.827384">
        <ele>242.029</ele>
        <time>2017-04-29T11:42:38Z</time>
      </trkpt>
      <trkpt lat="41.48153" lon="1.827382">
        <ele>243.0</ele>
        <time>2017-04-29T11:42:42Z</time>
      </trkpt>
      <trkpt lat="41.481625" lon="1.827387">
        <ele>244.02</ele>
        <time>2017-04-29T11:42:46Z</time>
      </trkpt>
      <trkpt lat="41.481715" lon="1.827391">
        <ele>245.008</ele>
        <time>2017-04-29T11:42:50Z</time>
      </trkpt>
      <trkpt lat="41.481804" lon="1.827365">
        <ele>247.063</ele>
        <time>2017-04-29T11:42:54Z</time>
      </trkpt>
      <trkpt lat="41.481896" lon="1.8273">
        <ele>248.069</ele>
        <time>2017-04-29T11:42:58Z</time>
      </trkpt>
      <trkpt lat="41.481991" lon="1.827227">
        <ele>248.066</ele>
        <time>2017-04-29T11:43:02Z</time>
      </trkpt>
      <trkpt lat="41.482093" lon="1.827156">
        <ele>248.099</ele>
        <time>2017-04-29T11:43:06Z</time>
      </trkpt>
      <trkpt lat="41.482173" lon="1.827094">
        <ele>247.058</ele>
        <time>2017-04-29T11:43:09Z</time>
      </trkpt>
      <trkpt lat="41.482267" lon="1.827026">
        <ele>249.088</ele>
        <time>2017-04-29T11:43:13Z</time>
      </trkpt>
      <trkpt lat="41.482345" lon="1.826957">
        <ele>249.029</ele>
        <time>2017-04-29T11:43:16Z</time>
      </trkpt>
      <trkpt lat="41.482425" lon="1.826898">
        <ele>249.016</ele>
        <time>2017-04-29T11:43:19Z</time>
      </trkpt>
      <trkpt lat="41.482501" lon="1.826834">
        <ele>250.071</ele>
        <time>2017-04-29T11:43:22Z</time>
      </trkpt>
      <trkpt lat="41.482579" lon="1.826767">
        <ele>250.041</ele>
        <time>2017-04-29T11:43:25Z</time>
      </trkpt>
      <trkpt lat="41.482651" lon="1.826694">
        <ele>251.015</ele>
        <time>2017-04-29T11:43:28Z</time>
      </trkpt>
      <trkpt lat="41.48273" lon="1.82662">
        <ele>250.008</ele>
        <time>2017-04-29T11:43:31Z</time>
      </trkpt>
      <trkpt lat="41.482833" lon="1.826564">
        <ele>251.098</ele>
        <time>2017-04-29T11:43:35Z</time>
      </trkpt>
      <trkpt lat="41.482934" lon="1.826495">
        <ele>252.084</ele>
        <time>2017-04-29T11:43:39Z</time>
      </trkpt>
      <trkpt lat="41.483032" lon="1.826427">
        <ele>253.031</ele>
        <time>2017-04-29T11:43:43Z</time>
      </trkpt>
      <trkpt lat="41.483121" lon="1.82636">
        <ele>255.014</ele>
        <time>2017-04-29T11:43:47Z</time>
      </trkpt>
      <trkpt lat="41.483214" lon="1.826326">
        <ele>257.043</ele>
        <time>2017-04-29T11:43:51Z</time>
      </trkpt>
      <trkpt lat="41.483304" lon="1.826317">
        <ele>257.083</ele>
        <time>2017-04-29T11:43:54Z</time>
      </trkpt>
      <trkpt lat="41.48341" lon="1.826344">
        <ele>258.094</ele>
        <time>2017-04-29T11:43:58Z</time>
      </trkpt>
      <trkpt lat="41.483516" lon="1.826386">
        <ele>257.041</ele>
        <time>2017-04-29T11:44:02Z</time>
      </trkpt>
      <trkpt lat="41.483621" lon="1.826441">
        <ele>258.016</ele>
        <time>2017-04-29T11:44:06Z</time>
      </trkpt>
      <trkpt lat="41.48372" lon="1.826501">
        <ele>259.076</ele>
        <time>2017-04-29T11:44:10Z</time>
      </trkpt>
      <trkpt lat="41.483818" lon="1.826562">
        <ele>259.013</ele>
        <time>2017-04-29T11:44:14Z</time>
      </trkpt>
      <trkpt lat="41.483919" lon="1.826612">
        <ele>258.008</ele>
        <time>2017-04-29T11:44:18Z</time>
      </trkpt>
      <trkpt lat="41.48402" lon="1.826652">
        <ele>259.052</ele>
        <time>2017-04-29T11:44:22Z</time>
      </trkpt>
      <trkpt lat="41.484113" lon="1.826699">
        <ele>259.018</ele>
        <time>2017-04-29T11:44:26Z</time>
      </trkpt>
      <trkpt lat="41.484218" lon="1.826738">
        <ele>261.065</ele>
        <time>2017-04-29T11:44:31Z</time>
      </trkpt>
      <trkpt lat="41.484312" lon="1.826769">
        <ele>262.038</ele>
        <time>2017-04-29T11:44:35Z</time>
      </trkpt>
      <trkpt lat="41.484412" lon="1.826807">
        <ele>263.057</ele>
        <time>2017-04-29T11:44:39Z</time>
      </trkpt>
      <trkpt lat="41.484518" lon="1.826834">
        <ele>263.097</ele>
        <time>2017-04-29T11:44:43Z</time>
      </trkpt>
      <trkpt lat="41.484625" lon="1.826856">
        <ele>263.068</ele>
        <time>2017-04-29T11:44:47Z</time>
      </trkpt>
      <trkpt lat="41.484735" lon="1.8269">
        <ele>262.025</ele>
        <time>2017-04-29T11:44:51Z</time>
      </trkpt>
      <trkpt lat="41.484841" lon="1.826954">
        <ele>263.062</ele>
        <time>2017-04-29T11:44:55Z</time>
      </trkpt>
      <trkpt lat="41.484931" lon="1.826988">
        <ele>263.083</ele>
        <time>2017-04-29T11:44:58Z</time>
      </trkpt>
      <trkpt lat="41.485042" lon="1.827046">
        <ele>263.011</ele>
        <time>2017-04-29T11:45:02Z</time>
      </trkpt>
      <trkpt lat="41.485132" lon="1.827088">
        <ele>262.008</ele>
        <time>2017-04-29T11:45:05Z</time>
      </trkpt>
      <trkpt lat="41.485237" lon="1.827127">
        <ele>262.017</ele>
        <time>2017-04-29T11:45:08Z</time>
      </trkpt>
      <trkpt lat="41.485345" lon="1.827181">
        <ele>262.013</ele>
        <time>2017-04-29T11:45:11Z</time>
      </trkpt>
      <trkpt lat="41.485464" lon="1.827246">
        <ele>262.07</ele>
        <time>2017-04-29T11:45:14Z</time>
      </trkpt>
      <trkpt lat="41.485576" lon="1.827303">
        <ele>263.063</ele>
        <time>2017-04-29T11:45:17Z</time>
      </trkpt>
      <trkpt lat="41.485695" lon="1.827369">
        <ele>264.052</ele>
        <time>2017-04-29T11:45:20Z</time>
      </trkpt>
      <trkpt lat="41.485778" lon="1.827416">
        <ele>265.062</ele>
        <time>2017-04-29T11:45:22Z</time>
      </trkpt>
      <trkpt lat="41.485881" lon="1.827502">
        <ele>266.023</ele>
        <time>2017-04-29T11:45:25Z</time>
      </trkpt>
      <trkpt lat="41.48591" lon="1.827649">
        <ele>265.06</ele>
        <time>2017-04-29T11:45:28Z</time>
      </trkpt>
      <trkpt lat="41.485878" lon="1.827789">
        <ele>267.015</ele>
        <time>2017-04-29T11:45:31Z</time>
      </trkpt>
      <trkpt lat="41.485817" lon="1.827906">
        <ele>270.065</ele>
        <time>2017-04-29T11:45:34Z</time>
      </trkpt>
      <trkpt lat="41.485743" lon="1.828016">
        <ele>272.011</ele>
        <time>2017-04-29T11:45:37Z</time>
      </trkpt>
      <trkpt lat="41.48569" lon="1.82813">
        <ele>272.008</ele>
        <time>2017-04-29T11:45:40Z</time>
      </trkpt>
      <trkpt lat="41.48563" lon="1.828254">
        <ele>274.082</ele>
        <time>2017-04-29T11:45:43Z</time>
      </trkpt>
      <trkpt lat="41.48561" lon="1.828385">
        <ele>274.078</ele>
        <time>2017-04-29T11:45:46Z</time>
      </trkpt>
      <trkpt lat="41.485648" lon="1.828514">
        <ele>274.055</ele>
        <time>2017-04-29T11:45:49Z</time>
      </trkpt>
      <trkpt lat="41.485746" lon="1.82862">
        <ele>274.028</ele>
        <time>2017-04-29T11:45:52Z</time>
      </trkpt>
      <trkpt lat="41.48583" lon="1.828678">
        <ele>274.067</ele>
        <time>2017-04-29T11:45:55Z</time>
      </trkpt>
      <trkpt lat="41.485926" lon="1.828706">
        <ele>277.047</ele>
        <time>2017-04-29T11:45:58Z</time>
      </trkpt>
      <trkpt lat="41.486025" lon="1.828721">
        <ele>277.038</ele>
        <time>2017-04-29T11:46:01Z</time>
      </trkpt>
      <trkpt lat="41.486132" lon="1.828737">
        <ele>280.075</ele>
        <time>2017-04-29T11:46:04Z</time>
      </trkpt>
      <trkpt lat="41.486226" lon="1.828791">
        <ele>284.047</ele>
        <time>2017-04-29T11:46:08Z</time>
      </trkpt>
      <trkpt lat="41.486312" lon="1.828845">
        <ele>285.029</ele>
        <time>2017-04-29T11:46:11Z</time>
      </trkpt>
      <trkpt lat="41.486414" lon="1.828871">
        <ele>289.021</ele>
        <time>2017-04-29T11:46:15Z</time>
      </trkpt>
      <trkpt lat="41.486513" lon="1.828874">
        <ele>292.008</ele>
        <time>2017-04-29T11:46:18Z</time>
      </trkpt>
      <trkpt lat="41.486614" lon="1.828891">
        <ele>290.085</ele>
        <time>2017-04-29T11:46:21Z</time>
      </trkpt>
      <trkpt lat="41.48672" lon="1.828875">
        <ele>287.011</ele>
        <time>2017-04-29T11:46:24Z</time>
      </trkpt>
      <trkpt lat="41.48683" lon="1.828899">
        <ele>287.058</ele>
        <time>2017-04-29T11:46:28Z</time>
      </trkpt>
      <trkpt lat="41.486931" lon="1.828907">
        <ele>285.091</ele>
        <time>2017-04-29T11:46:31Z</time>
      </trkpt>
      <trkpt lat="41.487019" lon="1.828949">
        <ele>286.04</ele>
        <time>2017-04-29T11:46:34Z</time>
      </trkpt>
      <trkpt lat="41.487108" lon="1.828976">
        <ele>287.09</ele>
        <time>2017-04-29T11:46:37Z</time>
      </trkpt>
      <trkpt lat="41.487201" lon="1.829034">
        <ele>286.071</ele>
        <time>2017-04-29T11:46:40Z</time>
      </trkpt>
      <trkpt lat="41.487301" lon="1.829072">
        <ele>289.078</ele>
        <time>2017-04-29T11:46:45Z</time>
      </trkpt>
      <trkpt lat="41.487387" lon="1.829124">
        <ele>291.082</ele>
        <time>2017-04-29T11:46:49Z</time>
      </trkpt>
      <trkpt lat="41.487474" lon="1.82919">
        <ele>289.043</ele>
        <time>2017-04-29T11:46:53Z</time>
      </trkpt>
      <trkpt lat="41.487543" lon="1.829271">
        <ele>291.017</ele>
        <time>2017-04-29T11:46:57Z</time>
      </trkpt>
      <trkpt lat="41.487638" lon="1.82931">
        <ele>290.008</ele>
        <time>2017-04-29T11:47:01Z</time>
      </trkpt>
      <trkpt lat="41.487731" lon="1.829348">
        <ele>292.099</ele>
        <time>2017-04-29T11:47:06Z</time>
      </trkpt>
      <trkpt lat="41.487842" lon="1.829375">
        <ele>291.045</ele>
        <time>2017-04-29T11:47:10Z</time>
      </trkpt>
      <trkpt lat="41.487929" lon="1.829414">
        <ele>292.092</ele>
        <time>2017-04-29T11:47:14Z</time>
      </trkpt>
      <trkpt lat="41.488025" lon="1.829462">
        <ele>292.015</ele>
        <time>2017-04-29T11:47:18Z</time>
      </trkpt>
      <trkpt lat="41.488134" lon="1.829514">
        <ele>292.064</ele>
        <time>2017-04-29T11:47:23Z</time>
      </trkpt>
      <trkpt lat="41.488232" lon="1.829563">
        <ele>291.034</ele>
        <time>2017-04-29T11:47:27Z</time>
      </trkpt>
      <trkpt lat="41.488358" lon="1.829638">
        <ele>292.095</ele>
        <time>2017-04-29T11:47:32Z</time>
      </trkpt>
      <trkpt lat="41.488456" lon="1.829681">
        <ele>294.022</ele>
        <time>2017-04-29T11:47:38Z</time>
      </trkpt>
      <trkpt lat="41.488556" lon="1.829718">
        <ele>295.057</ele>
        <time>2017-04-29T11:47:43Z</time>
      </trkpt>
      <trkpt lat="41.488659" lon="1.82974">
        <ele>293.0</ele>
        <time>2017-04-29T11:47:47Z</time>
      </trkpt>
      <trkpt lat="41.488748" lon="1.829775">
        <ele>293.02</ele>
        <time>2017-04-29T11:47:51Z</time>
      </trkpt>
      <trkpt lat="41.48884" lon="1.829803">
        <ele>294.008</ele>
        <time>2017-04-29T11:47:55Z</time>
      </trkpt>
      <trkpt lat="41.488935" lon="1.829844">
        <ele>295.056</ele>
        <time>2017-04-29T11:47:59Z</time>
      </trkpt>
      <trkpt lat="41.489027" lon="1.829883">
        <ele>298.062</ele>
        <time>2017-04-29T11:48:04Z</time>
      </trkpt>
      <trkpt lat="41.489131" lon="1.82992">
        <ele>299.069</ele>
        <time>2017-04-29T11:48:09Z</time>
      </trkpt>
      <trkpt lat="41.489222" lon="1.829945">
        <ele>300.022</ele>
        <time>2017-04-29T11:48:13Z</time>
      </trkpt>
      <trkpt lat="41.48931" lon="1.829975">
        <ele>302.041</ele>
        <time>2017-04-29T11:48:17Z</time>
      </trkpt>
      <trkpt lat="41.489414" lon="1.830005">
        <ele>300.041</ele>
        <time>2017-04-29T11:48:21Z</time>
      </trkpt>
      <trkpt lat="41.489512" lon="1.830043">
        <ele>301.092</ele>
        <time>2017-04-29T11:48:25Z</time>
      </trkpt>
      <trkpt lat="41.489605" lon="1.830085">
        <ele>301.049</ele>
        <time>2017-04-29T11:48:29Z</time>
      </trkpt>
      <trkpt lat="41.489696" lon="1.830112">
        <ele>303.068</ele>
        <time>2017-04-29T11:48:33Z</time>
      </trkpt>
      <trkpt lat="41.489798" lon="1.830151">
        <ele>302.042</ele>
        <time>2017-04-29T11:48:37Z</time>
      </trkpt>
      <trkpt lat="41.489882" lon="1.830205">
        <ele>301.026</ele>
        <time>2017-04-29T11:48:40Z</time>
      </trkpt>
      <trkpt lat="41.489975" lon="1.830251">
        <ele>300.008</ele>
        <time>2017-04-29T11:48:44Z</time>
      </trkpt>
      <trkpt lat="41.490052" lon="1.830326">
        <ele>302.027</ele>
        <time>2017-04-29T11:48:48Z</time>
      </trkpt>
      <trkpt lat="41.490143" lon="1.830418">
        <ele>302.013</ele>
        <time>2017-04-29T11:48:52Z</time>
      </trkpt>
      <trkpt lat="41.490242" lon="1.830503">
        <ele>303.06</ele>
        <time>2017-04-29T11:48:56Z</time>
      </trkpt>
      <trkpt lat="41.490323" lon="1.830571">
        <ele>305.013</ele>
        <time>2017-04-29T11:48:59Z</time>
      </trkpt>
      <trkpt lat="41.490422" lon="1.830653">
        <ele>305.032</ele>
        <time>2017-04-29T11:49:02Z</time>
      </trkpt>
      <trkpt lat="41.490527" lon="1.830731">
        <ele>304.022</ele>
        <time>2017-04-29T11:49:05Z</time>
      </trkpt>
      <trkpt lat="41.490609" lon="1.830789">
        <ele>303.063</ele>
        <time>2017-04-29T11:49:07Z</time>
      </trkpt>
      <trkpt lat="41.490721" lon="1.830867">
        <ele>302.09</ele>
        <time>2017-04-29T11:49:10Z</time>
      </trkpt>
      <trkpt lat="41.490809" lon="1.830935">
        <ele>301.091</ele>
        <time>2017-04-29T11:49:13Z</time>
      </trkpt>
      <trkpt lat="41.490889" lon="1.830995">
        <ele>301.081</ele>
        <time>2017-04-29T11:49:16Z</time>
      </trkpt>
      <trkpt lat="41.490996" lon="1.831084">
        <ele>303.019</ele>
        <time>2017-04-29T11:49:20Z</time>
      </trkpt>
      <trkpt lat="41.491082" lon="1.831134">
        <ele>304.008</ele>
        <time>2017-04-29T11:49:23Z</time>
      </trkpt>
      <trkpt lat="41.491161" lon="1.831221">
        <ele>306.08</ele>
        <time>2017-04-29T11:49:27Z</time>
      </trkpt>
      <trkpt lat="41.491224" lon="1.831343">
        <ele>305.066</ele>
        <time>2017-04-29T11:49:31Z</time>
      </trkpt>
      <trkpt lat="41.491254" lon="1.831489">
        <ele>305.023</ele>
        <time>2017-04-29T11:49:35Z</time>
      </trkpt>
      <trkpt lat="41.491281" lon="1.831628">
        <ele>304.076</ele>
        <time>2017-04-29T11:49:40Z</time>
      </trkpt>
      <trkpt lat="41.491304" lon="1.831767">
        <ele>305.085</ele>
        <time>2017-04-29T11:49:45Z</time>
      </trkpt>
      <trkpt lat="41.491344" lon="1.83189">
        <ele>305.065</ele>
        <time>2017-04-29T11:49:50Z</time>
      </trkpt>
      <trkpt lat="41.491432" lon="1.83198">
        <ele>306.036</ele>
        <time>2017-04-29T11:49:55Z</time>
      </trkpt>
      <trkpt lat="41.491528" lon="1.832008">
        <ele>306.083</ele>
        <time>2017-04-29T11:49:59Z</time>
      </trkpt>
      <trkpt lat="41.491624" lon="1.83202">
        <ele>306.086</ele>
        <time>2017-04-29T11:50:03Z</time>
      </trkpt>
      <trkpt lat="41.491734" lon="1.832026">
        <ele>306.06</ele>
        <time>2017-04-29T11:50:07Z</time>
      </trkpt>
      <trkpt lat="41.49183" lon="1.832043">
        <ele>306.026</ele>
        <time>2017-04-29T11:50:12Z</time>
      </trkpt>
      <trkpt lat="41.491938" lon="1.832077">
        <ele>308.008</ele>
        <time>2017-04-29T11:50:17Z</time>
      </trkpt>
      <trkpt lat="41.49203" lon="1.832141">
        <ele>310.069</ele>
        <time>2017-04-29T11:50:22Z</time>
      </trkpt>
      <trkpt lat="41.4921" lon="1.832221">
        <ele>311.065</ele>
        <time>2017-04-29T11:50:26Z</time>
      </trkpt>
      <trkpt lat="41.492147" lon="1.832331">
        <ele>311.022</ele>
        <time>2017-04-29T11:50:30Z</time>
      </trkpt>
      <trkpt lat="41.49218" lon="1.832446">
        <ele>312.095</ele>
        <time>2017-04-29T11:50:34Z</time>
      </trkpt>
      <trkpt lat="41.492224" lon="1.832578">
        <ele>311.024</ele>
        <time>2017-04-29T11:50:38Z</time>
      </trkpt>
      <trkpt lat="41.492277" lon="1.832709">
        <ele>312.064</ele>
        <time>2017-04-29T11:50:43Z</time>
      </trkpt>
      <trkpt lat="41.492347" lon="1.832824">
        <ele>314.065</ele>
        <time>2017-04-29T11:50:48Z</time>
      </trkpt>
      <trkpt lat="41.492415" lon="1.832909">
        <ele>315.092</ele>
        <time>2017-04-29T11:50:52Z</time>
      </trkpt>
      <trkpt lat="41.492496" lon="1.833013">
        <ele>314.055</ele>
        <time>2017-04-29T11:50:56Z</time>
      </trkpt>
      <trkpt lat="41.492557" lon="1.833111">
        <ele>314.007</ele>
        <time>2017-04-29T11:51:00Z</time>
      </trkpt>
      <trkpt lat="41.492598" lon="1.833239">
        <ele>315.017</ele>
        <time>2017-04-29T11:51:04Z</time>
      </trkpt>
      <trkpt lat="41.492638" lon="1.833372">
        <ele>315.008</ele>
        <time>2017-04-29T11:51:07Z</time>
      </trkpt>
      <trkpt lat="41.492671" lon="1.83351">
        <ele>314.036</ele>
        <time>2017-04-29T11:51:10Z</time>
      </trkpt>
      <trkpt lat="41.492726" lon="1.833639">
        <ele>312.082</ele>
        <time>2017-04-29T11:51:13Z</time>
      </trkpt>
      <trkpt lat="41.492807" lon="1.833741">
        <ele>313.039</ele>
        <time>2017-04-29T11:51:16Z</time>
      </trkpt>
      <trkpt lat="41.492904" lon="1.833782">
        <ele>313.042</ele>
        <time>2017-04-29T11:51:19Z</time>
      </trkpt>
      <trkpt lat="41.493014" lon="1.833796">
        <ele>313.021</ele>
        <time>2017-04-29T11:51:22Z</time>
      </trkpt>
      <trkpt lat="41.493141" lon="1.833825">
        <ele>313.041</ele>
        <time>2017-04-29T11:51:26Z</time>
      </trkpt>
      <trkpt lat="41.493255" lon="1.83385">
        <ele>314.082</ele>
        <time>2017-04-29T11:51:30Z</time>
      </trkpt>
      <trkpt lat="41.493362" lon="1.833896">
        <ele>314.079</ele>
        <time>2017-04-29T11:51:34Z</time>
      </trkpt>
      <trkpt lat="41.493467" lon="1.833962">
        <ele>314.097</ele>
        <time>2017-04-29T11:51:38Z</time>
      </trkpt>
      <trkpt lat="41.493558" lon="1.834019">
        <ele>315.023</ele>
        <time>2017-04-29T11:51:42Z</time>
      </trkpt>
      <trkpt lat="41.493655" lon="1.834051">
        <ele>315.025</ele>
        <time>2017-04-29T11:51:46Z</time>
      </trkpt>
      <trkpt lat="41.493769" lon="1.834085">
        <ele>317.008</ele>
        <time>2017-04-29T11:51:51Z</time>
      </trkpt>
      <trkpt lat="41.493858" lon="1.834109">
        <ele>319.08</ele>
        <time>2017-04-29T11:51:55Z</time>
      </trkpt>
      <trkpt lat="41.493967" lon="1.834158">
        <ele>320.016</ele>
        <time>2017-04-29T11:51:59Z</time>
      </trkpt>
      <trkpt lat="41.494063" lon="1.834218">
        <ele>319.023</ele>
        <time>2017-04-29T11:52:02Z</time>
      </trkpt>
      <trkpt lat="41.494154" lon="1.834266">
        <ele>318.046</ele>
        <time>2017-04-29T11:52:05Z</time>
      </trkpt>
      <trkpt lat="41.494253" lon="1.834325">
        <ele>319.095</ele>
        <time>2017-04-29T11:52:10Z</time>
      </trkpt>
      <trkpt lat="41.494347" lon="1.834309">
        <ele>323.055</ele>
        <time>2017-04-29T11:56:23Z</time>
      </trkpt>
      <trkpt lat="41.494447" lon="1.834294">
        <ele>321.096</ele>
        <time>2017-04-29T11:56:26Z</time>
      </trkpt>
      <trkpt lat="41.494563" lon="1.834276">
        <ele>319.093</ele>
        <time>2017-04-29T11:56:29Z</time>
      </trkpt>
      <trkpt lat="41.494701" lon="1.834258">
        <ele>317.032</ele>
        <time>2017-04-29T11:56:32Z</time>
      </trkpt>
      <trkpt lat="41.494816" lon="1.834278">
        <ele>314.092</ele>
        <time>2017-04-29T11:56:34Z</time>
      </trkpt>
      <trkpt lat="41.494934" lon="1.834301">
        <ele>313.011</ele>
        <time>2017-04-29T11:56:36Z</time>
      </trkpt>
      <trkpt lat="41.495073" lon="1.834329">
        <ele>311.008</ele>
        <time>2017-04-29T11:56:38Z</time>
      </trkpt>
      <trkpt lat="41.495235" lon="1.834359">
        <ele>310.064</ele>
        <time>2017-04-29T11:56:40Z</time>
      </trkpt>
      <trkpt lat="41.495394" lon="1.834415">
        <ele>309.02</ele>
        <time>2017-04-29T11:56:42Z</time>
      </trkpt>
      <trkpt lat="41.495543" lon="1.834469">
        <ele>310.087</ele>
        <time>2017-04-29T11:56:44Z</time>
      </trkpt>
      <trkpt lat="41.495685" lon="1.834513">
        <ele>310.01</ele>
        <time>2017-04-29T11:56:46Z</time>
      </trkpt>
      <trkpt lat="41.495814" lon="1.834553">
        <ele>310.039</ele>
        <time>2017-04-29T11:56:48Z</time>
      </trkpt>
      <trkpt lat="41.495913" lon="1.834597">
        <ele>311.079</ele>
        <time>2017-04-29T11:56:50Z</time>
      </trkpt>
      <trkpt lat="41.49599" lon="1.834684">
        <ele>313.02</ele>
        <time>2017-04-29T11:56:53Z</time>
      </trkpt>
      <trkpt lat="41.496056" lon="1.834779">
        <ele>315.087</ele>
        <time>2017-04-29T11:56:58Z</time>
      </trkpt>
      <trkpt lat="41.496157" lon="1.834894">
        <ele>318.047</ele>
        <time>2017-04-29T11:57:04Z</time>
      </trkpt>
      <trkpt lat="41.496236" lon="1.834999">
        <ele>319.029</ele>
        <time>2017-04-29T11:57:09Z</time>
      </trkpt>
      <trkpt lat="41.49632" lon="1.835073">
        <ele>320.021</ele>
        <time>2017-04-29T11:57:14Z</time>
      </trkpt>
      <trkpt lat="41.496413" lon="1.835138">
        <ele>320.008</ele>
        <time>2017-04-29T11:57:19Z</time>
      </trkpt>
      <trkpt lat="41.49651" lon="1.835196">
        <ele>321.035</ele>
        <time>2017-04-29T11:57:24Z</time>
      </trkpt>
      <trkpt lat="41.496594" lon="1.835263">
        <ele>323.031</ele>
        <time>2017-04-29T11:57:29Z</time>
      </trkpt>
      <trkpt lat="41.49667" lon="1.835331">
        <ele>325.078</ele>
        <time>2017-04-29T11:57:34Z</time>
      </trkpt>
      <trkpt lat="41.496777" lon="1.835377">
        <ele>326.051</ele>
        <time>2017-04-29T11:57:40Z</time>
      </trkpt>
      <trkpt lat="41.496855" lon="1.835452">
        <ele>326.08</ele>
        <time>2017-04-29T11:57:44Z</time>
      </trkpt>
      <trkpt lat="41.496943" lon="1.835527">
        <ele>328.09</ele>
        <time>2017-04-29T11:57:49Z</time>
      </trkpt>
      <trkpt lat="41.497043" lon="1.835591">
        <ele>329.061</ele>
        <time>2017-04-29T11:57:54Z</time>
      </trkpt>
      <trkpt lat="41.497135" lon="1.835652">
        <ele>327.098</ele>
        <time>2017-04-29T11:57:59Z</time>
      </trkpt>
      <trkpt lat="41.497229" lon="1.835707">
        <ele>333.076</ele>
        <time>2017-04-29T11:58:05Z</time>
      </trkpt>
      <trkpt lat="41.497319" lon="1.83578">
        <ele>336.09</ele>
        <time>2017-04-29T11:58:11Z</time>
      </trkpt>
      <trkpt lat="41.497404" lon="1.835827">
        <ele>341.019</ele>
        <time>2017-04-29T11:58:17Z</time>
      </trkpt>
      <trkpt lat="41.497497" lon="1.83587">
        <ele>345.008</ele>
        <time>2017-04-29T11:58:23Z</time>
      </trkpt>
      <trkpt lat="41.497575" lon="1.83597">
        <ele>339.038</ele>
        <time>2017-04-29T11:58:26Z</time>
      </trkpt>
      <trkpt lat="41.497649" lon="1.836047">
        <ele>341.044</ele>
        <time>2017-04-29T11:58:31Z</time>
      </trkpt>
      <trkpt lat="41.497769" lon="1.836072">
        <ele>338.071</ele>
        <time>2017-04-29T11:58:35Z</time>
      </trkpt>
      <trkpt lat="41.497859" lon="1.836136">
        <ele>339.094</ele>
        <time>2017-04-29T11:58:39Z</time>
      </trkpt>
      <trkpt lat="41.497961" lon="1.836234">
        <ele>336.043</ele>
        <time>2017-04-29T11:58:43Z</time>
      </trkpt>
      <trkpt lat="41.498059" lon="1.836327">
        <ele>340.033</ele>
        <time>2017-04-29T11:58:49Z</time>
      </trkpt>
      <trkpt lat="41.49814" lon="1.836447">
        <ele>339.034</ele>
        <time>2017-04-29T11:58:53Z</time>
      </trkpt>
      <trkpt lat="41.498187" lon="1.836597">
        <ele>339.081</ele>
        <time>2017-04-29T11:58:56Z</time>
      </trkpt>
      <trkpt lat="41.498229" lon="1.836704">
        <ele>339.038</ele>
        <time>2017-04-29T11:58:58Z</time>
      </trkpt>
      <trkpt lat="41.498328" lon="1.836739">
        <ele>351.07</ele>
        <time>2017-04-29T11:59:07Z</time>
      </trkpt>
      <trkpt lat="41.498408" lon="1.836659">
        <ele>353.017</ele>
        <time>2017-04-29T11:59:10Z</time>
      </trkpt>
      <trkpt lat="41.498494" lon="1.836525">
        <ele>352.008</ele>
        <time>2017-04-29T11:59:13Z</time>
      </trkpt>
      <trkpt lat="41.498557" lon="1.836378">
        <ele>350.084</ele>
        <time>2017-04-29T11:59:16Z</time>
      </trkpt>
      <trkpt lat="41.498651" lon="1.836237">
        <ele>345.02</ele>
        <time>2017-04-29T11:59:19Z</time>
      </trkpt>
      <trkpt lat="41.49871" lon="1.836113">
        <ele>344.087</ele>
        <time>2017-04-29T11:59:21Z</time>
      </trkpt>
      <trkpt lat="41.498793" lon="1.836035">
        <ele>342.09</ele>
        <time>2017-04-29T11:59:23Z</time>
      </trkpt>
      <trkpt lat="41.498874" lon="1.835858">
        <ele>345.069</ele>
        <time>2017-04-29T11:59:26Z</time>
      </trkpt>
      <trkpt lat="41.49894" lon="1.835703">
        <ele>344.029</ele>
        <time>2017-04-29T11:59:28Z</time>
      </trkpt>
      <trkpt lat="41.499006" lon="1.835554">
        <ele>345.09</ele>
        <time>2017-04-29T11:59:30Z</time>
      </trkpt>
      <trkpt lat="41.499069" lon="1.835389">
        <ele>345.037</ele>
        <time>2017-04-29T11:59:32Z</time>
      </trkpt>
      <trkpt lat="41.499126" lon="1.835246">
        <ele>345.012</ele>
        <time>2017-04-29T11:59:34Z</time>
      </trkpt>
      <trkpt lat="41.499177" lon="1.835132">
        <ele>344.032</ele>
        <time>2017-04-29T11:59:36Z</time>
      </trkpt>
      <trkpt lat="41.499236" lon="1.834993">
        <ele>352.005</ele>
        <time>2017-04-29T11:59:39Z</time>
      </trkpt>
      <trkpt lat="41.49927" lon="1.834859">
        <ele>347.008</ele>
        <time>2017-04-29T11:59:42Z</time>
      </trkpt>
      <trkpt lat="41.499324" lon="1.83473">
        <ele>344.082</ele>
        <time>2017-04-29T11:59:45Z</time>
      </trkpt>
      <trkpt lat="41.499366" lon="1.834609">
        <ele>345.058</ele>
        <time>2017-04-29T11:59:48Z</time>
      </trkpt>
      <trkpt lat="41.4994" lon="1.834459">
        <ele>343.085</ele>
        <time>2017-04-29T11:59:51Z</time>
      </trkpt>
      <trkpt lat="41.499443" lon="1.834334">
        <ele>343.068</ele>
        <time>2017-04-29T11:59:54Z</time>
      </trkpt>
      <trkpt lat="41.499501" lon="1.834197">
        <ele>341.057</ele>
        <time>2017-04-29T11:59:57Z</time>
      </trkpt>
      <trkpt lat="41.499554" lon="1.834081">
        <ele>341.037</ele>
        <time>2017-04-29T12:00:00Z</time>
      </trkpt>
      <trkpt lat="41.500057" lon="1.833472">
        <ele>339.80524319800475</ele>
        <time>2017-04-29T12:00:38Z</time>
      </trkpt>
      <trkpt lat="41.500499" lon="1.832731">
        <ele>338.5202899173517</ele>
        <time>2017-04-29T12:01:18Z</time>
      </trkpt>
      <trkpt lat="41.50055" lon="1.832156">
        <ele>337.7570572736655</ele>
        <time>2017-04-29T12:01:42Z</time>
      </trkpt>
      <trkpt lat="41.500417" lon="1.830997">
        <ele>336.40969083308596</ele>
        <time>2017-04-29T12:02:24Z</time>
      </trkpt>
      <trkpt lat="41.500423" lon="1.83049">
        <ele>335.8647814517657</ele>
        <time>2017-04-29T12:02:41Z</time>
      </trkpt>
      <trkpt lat="41.500938" lon="1.828273">
        <ele>334.01026678133974</ele>
        <time>2017-04-29T12:03:40Z</time>
      </trkpt>
      <trkpt lat="41.501395" lon="1.828115">
        <ele>333.52027829759857</ele>
        <time>2017-04-29T12:03:55Z</time>
      </trkpt>
      <trkpt lat="41.501945" lon="1.827978">
        <ele>332.9621640517327</ele>
        <time>2017-04-29T12:04:12Z</time>
      </trkpt>
      <trkpt lat="41.503024" lon="1.828603">
        <ele>331.7935961483977</ele>
        <time>2017-04-29T12:04:49Z</time>
      </trkpt>
      <trkpt lat="41.503613" lon="1.829014">
        <ele>331.064</ele>
        <time>2017-04-29T12:05:17Z</time>
      </trkpt>
      <trkpt lat="41.503704" lon="1.828943">
        <ele>332.064</ele>
        <time>2017-04-29T12:05:21Z</time>
      </trkpt>
      <trkpt lat="41.503837" lon="1.828932">
        <ele>330.095</ele>
        <time>2017-04-29T12:05:24Z</time>
      </trkpt>
      <trkpt lat="41.503939" lon="1.828951">
        <ele>330.062</ele>
        <time>2017-04-29T12:05:26Z</time>
      </trkpt>
      <trkpt lat="41.504036" lon="1.828975">
        <ele>329.036</ele>
        <time>2017-04-29T12:05:28Z</time>
      </trkpt>
      <trkpt lat="41.50414" lon="1.828993">
        <ele>333.017</ele>
        <time>2017-04-29T12:05:30Z</time>
      </trkpt>
      <trkpt lat="41.504251" lon="1.829001">
        <ele>331.018</ele>
        <time>2017-04-29T12:05:32Z</time>
      </trkpt>
      <trkpt lat="41.50438" lon="1.828983">
        <ele>330.008</ele>
        <time>2017-04-29T12:05:34Z</time>
      </trkpt>
      <trkpt lat="41.504524" lon="1.828959">
        <ele>327.074</ele>
        <time>2017-04-29T12:05:36Z</time>
      </trkpt>
      <trkpt lat="41.504642" lon="1.828905">
        <ele>327.01</ele>
        <time>2017-04-29T12:05:38Z</time>
      </trkpt>
      <trkpt lat="41.504737" lon="1.828841">
        <ele>326.077</ele>
        <time>2017-04-29T12:05:40Z</time>
      </trkpt>
      <trkpt lat="41.504823" lon="1.82878">
        <ele>324.05</ele>
        <time>2017-04-29T12:05:42Z</time>
      </trkpt>
      <trkpt lat="41.504904" lon="1.828648">
        <ele>323.089</ele>
        <time>2017-04-29T12:05:45Z</time>
      </trkpt>
      <trkpt lat="41.504968" lon="1.828525">
        <ele>322.049</ele>
        <time>2017-04-29T12:05:47Z</time>
      </trkpt>
      <trkpt lat="41.505059" lon="1.828464">
        <ele>320.01</ele>
        <time>2017-04-29T12:05:49Z</time>
      </trkpt>
      <trkpt lat="41.505154" lon="1.828443">
        <ele>319.067</ele>
        <time>2017-04-29T12:05:51Z</time>
      </trkpt>
      <trkpt lat="41.505251" lon="1.828451">
        <ele>319.024</ele>
        <time>2017-04-29T12:05:53Z</time>
      </trkpt>
      <trkpt lat="41.505363" lon="1.82844">
        <ele>316.004</ele>
        <time>2017-04-29T12:05:55Z</time>
      </trkpt>
      <trkpt lat="41.505497" lon="1.828425">
        <ele>315.014</ele>
        <time>2017-04-29T12:05:57Z</time>
      </trkpt>
      <trkpt lat="41.505609" lon="1.828387">
        <ele>313.008</ele>
        <time>2017-04-29T12:05:59Z</time>
      </trkpt>
      <trkpt lat="41.505682" lon="1.828313">
        <ele>315.083</ele>
        <time>2017-04-29T12:06:01Z</time>
      </trkpt>
      <trkpt lat="41.505755" lon="1.828196">
        <ele>313.049</ele>
        <time>2017-04-29T12:06:03Z</time>
      </trkpt>
      <trkpt lat="41.50582" lon="1.828056">
        <ele>311.026</ele>
        <time>2017-04-29T12:06:05Z</time>
      </trkpt>
      <trkpt lat="41.50588" lon="1.827921">
        <ele>309.099</ele>
        <time>2017-04-29T12:06:07Z</time>
      </trkpt>
      <trkpt lat="41.505969" lon="1.827815">
        <ele>308.048</ele>
        <time>2017-04-29T12:06:09Z</time>
      </trkpt>
      <trkpt lat="41.506063" lon="1.827709">
        <ele>308.078</ele>
        <time>2017-04-29T12:06:11Z</time>
      </trkpt>
      <trkpt lat="41.506174" lon="1.827584">
        <ele>306.089</ele>
        <time>2017-04-29T12:06:13Z</time>
      </trkpt>
      <trkpt lat="41.506296" lon="1.827441">
        <ele>304.096</ele>
        <time>2017-04-29T12:06:15Z</time>
      </trkpt>
      <trkpt lat="41.506409" lon="1.82733">
        <ele>304.098</ele>
        <time>2017-04-29T12:06:17Z</time>
      </trkpt>
      <trkpt lat="41.50651" lon="1.827228">
        <ele>301.015</ele>
        <time>2017-04-29T12:06:19Z</time>
      </trkpt>
      <trkpt lat="41.506595" lon="1.827127">
        <ele>300.026</ele>
        <time>2017-04-29T12:06:22Z</time>
      </trkpt>
      <trkpt lat="41.506681" lon="1.82702">
        <ele>299.008</ele>
        <time>2017-04-29T12:06:22Z</time>
      </trkpt>
      <trkpt lat="41.506774" lon="1.826913">
        <ele>297.09</ele>
        <time>2017-04-29T12:06:25Z</time>
      </trkpt>
      <trkpt lat="41.506879" lon="1.826869">
        <ele>296.036</ele>
        <time>2017-04-29T12:06:27Z</time>
      </trkpt>
      <trkpt lat="41.50699" lon="1.826775">
        <ele>292.083</ele>
        <time>2017-04-29T12:06:29Z</time>
      </trkpt>
      <trkpt lat="41.507082" lon="1.826671">
        <ele>291.076</ele>
        <time>2017-04-29T12:06:31Z</time>
      </trkpt>
      <trkpt lat="41.507187" lon="1.826555">
        <ele>289.025</ele>
        <time>2017-04-29T12:06:33Z</time>
      </trkpt>
      <trkpt lat="41.507305" lon="1.826436">
        <ele>286.075</ele>
        <time>2017-04-29T12:06:35Z</time>
      </trkpt>
      <trkpt lat="41.50743" lon="1.826337">
        <ele>285.066</ele>
        <time>2017-04-29T12:06:37Z</time>
      </trkpt>
      <trkpt lat="41.507551" lon="1.826241">
        <ele>284.073</ele>
        <time>2017-04-29T12:06:39Z</time>
      </trkpt>
      <trkpt lat="41.507679" lon="1.826167">
        <ele>284.018</ele>
        <time>2017-04-29T12:06:41Z</time>
      </trkpt>
      <trkpt lat="41.507807" lon="1.826063">
        <ele>282.098</ele>
        <time>2017-04-29T12:06:43Z</time>
      </trkpt>
      <trkpt lat="41.50792" lon="1.825969">
        <ele>281.017</ele>
        <time>2017-04-29T12:06:45Z</time>
      </trkpt>
      <trkpt lat="41.508029" lon="1.825895">
        <ele>280.008</ele>
        <time>2017-04-29T12:06:47Z</time>
      </trkpt>
      <trkpt lat="41.508111" lon="1.825826">
        <ele>279.092</ele>
        <time>2017-04-29T12:06:49Z</time>
      </trkpt>
      <trkpt lat="41.508197" lon="1.825742">
        <ele>278.068</ele>
        <time>2017-04-29T12:06:51Z</time>
      </trkpt>
      <trkpt lat="41.508296" lon="1.825657">
        <ele>276.045</ele>
        <time>2017-04-29T12:06:53Z</time>
      </trkpt>
      <trkpt lat="41.508393" lon="1.82558">
        <ele>275.098</ele>
        <time>2017-04-29T12:06:55Z</time>
      </trkpt>
      <trkpt lat="41.508473" lon="1.825517">
        <ele>275.067</ele>
        <time>2017-04-29T12:06:57Z</time>
      </trkpt>
      <trkpt lat="41.508566" lon="1.825416">
        <ele>297.087</ele>
        <time>2017-04-29T12:07:00Z</time>
      </trkpt>
      <trkpt lat="41.508586" lon="1.825294">
        <ele>286.028</ele>
        <time>2017-04-29T12:07:02Z</time>
      </trkpt>
      <trkpt lat="41.508646" lon="1.825137">
        <ele>273.085</ele>
        <time>2017-04-29T12:07:05Z</time>
      </trkpt>
      <trkpt lat="41.508739" lon="1.825065">
        <ele>270.073</ele>
        <time>2017-04-29T12:07:08Z</time>
      </trkpt>
      <trkpt lat="41.508832" lon="1.825073">
        <ele>298.085</ele>
        <time>2017-04-29T12:07:10Z</time>
      </trkpt>
      <trkpt lat="41.508903" lon="1.825167">
        <ele>286.013</ele>
        <time>2017-04-29T12:07:12Z</time>
      </trkpt>
      <trkpt lat="41.509001" lon="1.825262">
        <ele>272.008</ele>
        <time>2017-04-29T12:07:15Z</time>
      </trkpt>
      <trkpt lat="41.509091" lon="1.825273">
        <ele>268.038</ele>
        <time>2017-04-29T12:07:17Z</time>
      </trkpt>
      <trkpt lat="41.509164" lon="1.825187">
        <ele>263.014</ele>
        <time>2017-04-29T12:07:20Z</time>
      </trkpt>
      <trkpt lat="41.509121" lon="1.825036">
        <ele>259.091</ele>
        <time>2017-04-29T12:07:24Z</time>
      </trkpt>
      <trkpt lat="41.509043" lon="1.824944">
        <ele>255.064</ele>
        <time>2017-04-29T12:07:26Z</time>
      </trkpt>
      <trkpt lat="41.508957" lon="1.82478">
        <ele>253.063</ele>
        <time>2017-04-29T12:07:28Z</time>
      </trkpt>
      <trkpt lat="41.508876" lon="1.824582">
        <ele>251.053</ele>
        <time>2017-04-29T12:07:30Z</time>
      </trkpt>
      <trkpt lat="41.508783" lon="1.824397">
        <ele>250.034</ele>
        <time>2017-04-29T12:07:32Z</time>
      </trkpt>
      <trkpt lat="41.508655" lon="1.82426">
        <ele>249.091</ele>
        <time>2017-04-29T12:07:34Z</time>
      </trkpt>
      <trkpt lat="41.508542" lon="1.824173">
        <ele>248.015</ele>
        <time>2017-04-29T12:07:36Z</time>
      </trkpt>
      <trkpt lat="41.508533" lon="1.824053">
        <ele>247.065</ele>
        <time>2017-04-29T12:07:39Z</time>
      </trkpt>
      <trkpt lat="41.50866" lon="1.824016">
        <ele>247.011</ele>
        <time>2017-04-29T12:07:42Z</time>
      </trkpt>
      <trkpt lat="41.508785" lon="1.824012">
        <ele>251.008</ele>
        <time>2017-04-29T12:07:44Z</time>
      </trkpt>
      <trkpt lat="41.508923" lon="1.824078">
        <ele>251.052</ele>
        <time>2017-04-29T12:07:46Z</time>
      </trkpt>
      <trkpt lat="41.509061" lon="1.824142">
        <ele>248.098</ele>
        <time>2017-04-29T12:07:48Z</time>
      </trkpt>
      <trkpt lat="41.509174" lon="1.824216">
        <ele>245.055</ele>
        <time>2017-04-29T12:07:50Z</time>
      </trkpt>
      <trkpt lat="41.509302" lon="1.82425">
        <ele>244.068</ele>
        <time>2017-04-29T12:07:52Z</time>
      </trkpt>
      <trkpt lat="41.509434" lon="1.824252">
        <ele>241.037</ele>
        <time>2017-04-29T12:07:54Z</time>
      </trkpt>
      <trkpt lat="41.509586" lon="1.824246">
        <ele>239.077</ele>
        <time>2017-04-29T12:07:56Z</time>
      </trkpt>
      <trkpt lat="41.509727" lon="1.824221">
        <ele>240.088</ele>
        <time>2017-04-29T12:07:58Z</time>
      </trkpt>
      <trkpt lat="41.509818" lon="1.824232">
        <ele>243.045</ele>
        <time>2017-04-29T12:08:00Z</time>
      </trkpt>
      <trkpt lat="41.509924" lon="1.824214">
        <ele>245.042</ele>
        <time>2017-04-29T12:08:02Z</time>
      </trkpt>
      <trkpt lat="41.510039" lon="1.824222">
        <ele>246.022</ele>
        <time>2017-04-29T12:08:04Z</time>
      </trkpt>
      <trkpt lat="41.510171" lon="1.824332">
        <ele>241.014</ele>
        <time>2017-04-29T12:08:06Z</time>
      </trkpt>
      <trkpt lat="41.510299" lon="1.824369">
        <ele>239.008</ele>
        <time>2017-04-29T12:08:08Z</time>
      </trkpt>
      <trkpt lat="41.510412" lon="1.824382">
        <ele>236.035</ele>
        <time>2017-04-29T12:08:10Z</time>
      </trkpt>
      <trkpt lat="41.510507" lon="1.824404">
        <ele>239.021</ele>
        <time>2017-04-29T12:08:12Z</time>
      </trkpt>
      <trkpt lat="41.510593" lon="1.824453">
        <ele>238.098</ele>
        <time>2017-04-29T12:08:14Z</time>
      </trkpt>
      <trkpt lat="41.510697" lon="1.824522">
        <ele>239.051</ele>
        <time>2017-04-29T12:08:17Z</time>
      </trkpt>
      <trkpt lat="41.510802" lon="1.824621">
        <ele>237.09</ele>
        <time>2017-04-29T12:08:20Z</time>
      </trkpt>
      <trkpt lat="41.510895" lon="1.824688">
        <ele>236.05</ele>
        <time>2017-04-29T12:08:23Z</time>
      </trkpt>
      <trkpt lat="41.510995" lon="1.824711">
        <ele>237.071</ele>
        <time>2017-04-29T12:08:26Z</time>
      </trkpt>
      <trkpt lat="41.511095" lon="1.824703">
        <ele>236.098</ele>
        <time>2017-04-29T12:08:30Z</time>
      </trkpt>
      <trkpt lat="41.511192" lon="1.824728">
        <ele>234.032</ele>
        <time>2017-04-29T12:08:35Z</time>
      </trkpt>
      <trkpt lat="41.511255" lon="1.824815">
        <ele>233.092</ele>
        <time>2017-04-29T12:08:39Z</time>
      </trkpt>
      <trkpt lat="41.511303" lon="1.824929">
        <ele>236.011</ele>
        <time>2017-04-29T12:08:44Z</time>
      </trkpt>
      <trkpt lat="41.511318" lon="1.825071">
        <ele>237.008</ele>
        <time>2017-04-29T12:08:50Z</time>
      </trkpt>
      <trkpt lat="41.511352" lon="1.825189">
        <ele>240.094</ele>
        <time>2017-04-29T12:08:55Z</time>
      </trkpt>
      <trkpt lat="41.511364" lon="1.825324">
        <ele>238.05</ele>
        <time>2017-04-29T12:09:01Z</time>
      </trkpt>
      <trkpt lat="41.511391" lon="1.825455">
        <ele>240.047</ele>
        <time>2017-04-29T12:09:07Z</time>
      </trkpt>
      <trkpt lat="41.51143" lon="1.825571">
        <ele>240.07</ele>
        <time>2017-04-29T12:09:12Z</time>
      </trkpt>
      <trkpt lat="41.511446" lon="1.8257">
        <ele>241.099</ele>
        <time>2017-04-29T12:09:18Z</time>
      </trkpt>
      <trkpt lat="41.511422" lon="1.82584">
        <ele>245.029</ele>
        <time>2017-04-29T12:09:24Z</time>
      </trkpt>
      <trkpt lat="41.511406" lon="1.825962">
        <ele>247.08</ele>
        <time>2017-04-29T12:09:29Z</time>
      </trkpt>
      <trkpt lat="41.511474" lon="1.826043">
        <ele>249.027</ele>
        <time>2017-04-29T12:09:34Z</time>
      </trkpt>
      <trkpt lat="41.511572" lon="1.825991">
        <ele>249.093</ele>
        <time>2017-04-29T12:09:39Z</time>
      </trkpt>
      <trkpt lat="41.511643" lon="1.825907">
        <ele>249.065</ele>
        <time>2017-04-29T12:09:43Z</time>
      </trkpt>
      <trkpt lat="41.511707" lon="1.82582">
        <ele>249.021</ele>
        <time>2017-04-29T12:09:47Z</time>
      </trkpt>
      <trkpt lat="41.51177" lon="1.825727">
        <ele>251.008</ele>
        <time>2017-04-29T12:09:52Z</time>
      </trkpt>
      <trkpt lat="41.511851" lon="1.825643">
        <ele>251.07</ele>
        <time>2017-04-29T12:09:58Z</time>
      </trkpt>
      <trkpt lat="41.511946" lon="1.825619">
        <ele>253.016</ele>
        <time>2017-04-29T12:10:04Z</time>
      </trkpt>
      <trkpt lat="41.512048" lon="1.825604">
        <ele>251.083</ele>
        <time>2017-04-29T12:10:10Z</time>
      </trkpt>
      <trkpt lat="41.512127" lon="1.825684">
        <ele>252.086</ele>
        <time>2017-04-29T12:10:16Z</time>
      </trkpt>
      <trkpt lat="41.512204" lon="1.825755">
        <ele>253.035</ele>
        <time>2017-04-29T12:10:22Z</time>
      </trkpt>
      <trkpt lat="41.512274" lon="1.825857">
        <ele>254.015</ele>
        <time>2017-04-29T12:10:28Z</time>
      </trkpt>
      <trkpt lat="41.512368" lon="1.82588">
        <ele>256.026</ele>
        <time>2017-04-29T12:10:34Z</time>
      </trkpt>
      <trkpt lat="41.512463" lon="1.825841">
        <ele>256.073</ele>
        <time>2017-04-29T12:10:40Z</time>
      </trkpt>
      <trkpt lat="41.512556" lon="1.825832">
        <ele>256.065</ele>
        <time>2017-04-29T12:10:45Z</time>
      </trkpt>
      <trkpt lat="41.512648" lon="1.825838">
        <ele>258.068</ele>
        <time>2017-04-29T12:10:52Z</time>
      </trkpt>
      <trkpt lat="41.512742" lon="1.825886">
        <ele>261.014</ele>
        <time>2017-04-29T12:10:58Z</time>
      </trkpt>
      <trkpt lat="41.512794" lon="1.825995">
        <ele>263.008</ele>
        <time>2017-04-29T12:11:03Z</time>
      </trkpt>
      <trkpt lat="41.512829" lon="1.826118">
        <ele>264.097</ele>
        <time>2017-04-29T12:11:08Z</time>
      </trkpt>
      <trkpt lat="41.512855" lon="1.82624">
        <ele>266.013</ele>
        <time>2017-04-29T12:11:13Z</time>
      </trkpt>
      <trkpt lat="41.512907" lon="1.826342">
        <ele>270.04</ele>
        <time>2017-04-29T12:11:18Z</time>
      </trkpt>
      <trkpt lat="41.512977" lon="1.826236">
        <ele>273.033</ele>
        <time>2017-04-29T12:11:23Z</time>
      </trkpt>
      <trkpt lat="41.513026" lon="1.826115">
        <ele>274.042</ele>
        <time>2017-04-29T12:11:27Z</time>
      </trkpt>
      <trkpt lat="41.513106" lon="1.826017">
        <ele>274.032</ele>
        <time>2017-04-29T12:11:31Z</time>
      </trkpt>
      <trkpt lat="41.513181" lon="1.825907">
        <ele>273.043</ele>
        <time>2017-04-29T12:11:35Z</time>
      </trkpt>
      <trkpt lat="41.513247" lon="1.825814">
        <ele>274.04</ele>
        <time>2017-04-29T12:11:39Z</time>
      </trkpt>
      <trkpt lat="41.513276" lon="1.825697">
        <ele>273.071</ele>
        <time>2017-04-29T12:11:43Z</time>
      </trkpt>
      <trkpt lat="41.513353" lon="1.825595">
        <ele>273.041</ele>
        <time>2017-04-29T12:11:47Z</time>
      </trkpt>
      <trkpt lat="41.513404" lon="1.825476">
        <ele>272.015</ele>
        <time>2017-04-29T12:11:51Z</time>
      </trkpt>
      <trkpt lat="41.513463" lon="1.825372">
        <ele>271.008</ele>
        <time>2017-04-29T12:11:55Z</time>
      </trkpt>
      <trkpt lat="41.513516" lon="1.825271">
        <ele>270.098</ele>
        <time>2017-04-29T12:12:00Z</time>
      </trkpt>
      <trkpt lat="41.513581" lon="1.825175">
        <ele>272.054</ele>
        <time>2017-04-29T12:12:06Z</time>
      </trkpt>
      <trkpt lat="41.513651" lon="1.825065">
        <ele>272.021</ele>
        <time>2017-04-29T12:12:12Z</time>
      </trkpt>
      <trkpt lat="41.513709" lon="1.824956">
        <ele>273.084</ele>
        <time>2017-04-29T12:12:17Z</time>
      </trkpt>
      <trkpt lat="41.513768" lon="1.824859">
        <ele>273.093</ele>
        <time>2017-04-29T12:12:22Z</time>
      </trkpt>
      <trkpt lat="41.513839" lon="1.824769">
        <ele>275.033</ele>
        <time>2017-04-29T12:12:28Z</time>
      </trkpt>
      <trkpt lat="41.513914" lon="1.824674">
        <ele>275.014</ele>
        <time>2017-04-29T12:12:33Z</time>
      </trkpt>
      <trkpt lat="41.513998" lon="1.824582">
        <ele>275.041</ele>
        <time>2017-04-29T12:12:39Z</time>
      </trkpt>
      <trkpt lat="41.514077" lon="1.824513">
        <ele>279.089</ele>
        <time>2017-04-29T12:12:46Z</time>
      </trkpt>
      <trkpt lat="41.514154" lon="1.824426">
        <ele>279.006</ele>
        <time>2017-04-29T12:12:52Z</time>
      </trkpt>
      <trkpt lat="41.514236" lon="1.824352">
        <ele>278.026</ele>
        <time>2017-04-29T12:12:58Z</time>
      </trkpt>
      <trkpt lat="41.514318" lon="1.824266">
        <ele>280.008</ele>
        <time>2017-04-29T12:13:04Z</time>
      </trkpt>
      <trkpt lat="41.514394" lon="1.824202">
        <ele>280.099</ele>
        <time>2017-04-29T12:13:10Z</time>
      </trkpt>
      <trkpt lat="41.514472" lon="1.824113">
        <ele>280.015</ele>
        <time>2017-04-29T12:13:16Z</time>
      </trkpt>
      <trkpt lat="41.514549" lon="1.824039">
        <ele>281.092</ele>
        <time>2017-04-29T12:13:23Z</time>
      </trkpt>
      <trkpt lat="41.514645" lon="1.823977">
        <ele>281.085</ele>
        <time>2017-04-29T12:13:29Z</time>
      </trkpt>
      <trkpt lat="41.514734" lon="1.82391">
        <ele>283.014</ele>
        <time>2017-04-29T12:13:35Z</time>
      </trkpt>
      <trkpt lat="41.514826" lon="1.823856">
        <ele>283.044</ele>
        <time>2017-04-29T12:13:41Z</time>
      </trkpt>
      <trkpt lat="41.514906" lon="1.823787">
        <ele>284.075</ele>
        <time>2017-04-29T12:13:48Z</time>
      </trkpt>
      <trkpt lat="41.514994" lon="1.823706">
        <ele>285.092</ele>
        <time>2017-04-29T12:13:54Z</time>
      </trkpt>
      <trkpt lat="41.515074" lon="1.823623">
        <ele>285.051</ele>
        <time>2017-04-29T12:14:00Z</time>
      </trkpt>
      <trkpt lat="41.515144" lon="1.823548">
        <ele>286.001</ele>
        <time>2017-04-29T12:14:06Z</time>
      </trkpt>
      <trkpt lat="41.515226" lon="1.823492">
        <ele>287.011</ele>
        <time>2017-04-29T12:14:12Z</time>
      </trkpt>
      <trkpt lat="41.515302" lon="1.823425">
        <ele>292.008</ele>
        <time>2017-04-29T12:14:19Z</time>
      </trkpt>
      <trkpt lat="41.515389" lon="1.823362">
        <ele>292.016</ele>
        <time>2017-04-29T12:14:24Z</time>
      </trkpt>
      <trkpt lat="41.515464" lon="1.823296">
        <ele>292.052</ele>
        <time>2017-04-29T12:14:29Z</time>
      </trkpt>
      <trkpt lat="41.515547" lon="1.823235">
        <ele>293.089</ele>
        <time>2017-04-29T12:14:33Z</time>
      </trkpt>
      <trkpt lat="41.515637" lon="1.823168">
        <ele>293.072</ele>
        <time>2017-04-29T12:14:38Z</time>
      </trkpt>
      <trkpt lat="41.515726" lon="1.823102">
        <ele>295.021</ele>
        <time>2017-04-29T12:14:43Z</time>
      </trkpt>
      <trkpt lat="41.515805" lon="1.823021">
        <ele>294.021</ele>
        <time>2017-04-29T12:14:48Z</time>
      </trkpt>
      <trkpt lat="41.515883" lon="1.822941">
        <ele>295.042</ele>
        <time>2017-04-29T12:14:52Z</time>
      </trkpt>
      <trkpt lat="41.515962" lon="1.822862">
        <ele>295.099</ele>
        <time>2017-04-29T12:14:56Z</time>
      </trkpt>
      <trkpt lat="41.516034" lon="1.822777">
        <ele>295.079</ele>
        <time>2017-04-29T12:15:00Z</time>
      </trkpt>
      <trkpt lat="41.516108" lon="1.822699">
        <ele>296.005</ele>
        <time>2017-04-29T12:15:04Z</time>
      </trkpt>
      <trkpt lat="41.516212" lon="1.822592">
        <ele>297.025</ele>
        <time>2017-04-29T12:15:08Z</time>
      </trkpt>
      <trkpt lat="41.516294" lon="1.822511">
        <ele>297.008</ele>
        <time>2017-04-29T12:15:13Z</time>
      </trkpt>
      <trkpt lat="41.51638" lon="1.822444">
        <ele>297.048</ele>
        <time>2017-04-29T12:15:17Z</time>
      </trkpt>
      <trkpt lat="41.516471" lon="1.822381">
        <ele>297.094</ele>
        <time>2017-04-29T12:15:21Z</time>
      </trkpt>
      <trkpt lat="41.51656" lon="1.822309">
        <ele>297.021</ele>
        <time>2017-04-29T12:15:25Z</time>
      </trkpt>
      <trkpt lat="41.516654" lon="1.822233">
        <ele>298.094</ele>
        <time>2017-04-29T12:15:29Z</time>
      </trkpt>
      <trkpt lat="41.516732" lon="1.822173">
        <ele>298.053</ele>
        <time>2017-04-29T12:15:32Z</time>
      </trkpt>
      <trkpt lat="41.516821" lon="1.82211">
        <ele>298.063</ele>
        <time>2017-04-29T12:15:36Z</time>
      </trkpt>
      <trkpt lat="41.516914" lon="1.822043">
        <ele>298.034</ele>
        <time>2017-04-29T12:15:40Z</time>
      </trkpt>
      <trkpt lat="41.517017" lon="1.821975">
        <ele>297.061</ele>
        <time>2017-04-29T12:15:44Z</time>
      </trkpt>
      <trkpt lat="41.517102" lon="1.821908">
        <ele>298.072</ele>
        <time>2017-04-29T12:15:48Z</time>
      </trkpt>
      <trkpt lat="41.517192" lon="1.821853">
        <ele>298.013</ele>
        <time>2017-04-29T12:15:52Z</time>
      </trkpt>
      <trkpt lat="41.517289" lon="1.821786">
        <ele>299.014</ele>
        <time>2017-04-29T12:15:56Z</time>
      </trkpt>
      <trkpt lat="41.517379" lon="1.821747">
        <ele>298.008</ele>
        <time>2017-04-29T12:16:00Z</time>
      </trkpt>
      <trkpt lat="41.517469" lon="1.821678">
        <ele>300.088</ele>
        <time>2017-04-29T12:16:04Z</time>
      </trkpt>
      <trkpt lat="41.517565" lon="1.821615">
        <ele>299.024</ele>
        <time>2017-04-29T12:16:08Z</time>
      </trkpt>
      <trkpt lat="41.517669" lon="1.82156">
        <ele>301.041</ele>
        <time>2017-04-29T12:16:13Z</time>
      </trkpt>
      <trkpt lat="41.517749" lon="1.821496">
        <ele>302.034</ele>
        <time>2017-04-29T12:16:17Z</time>
      </trkpt>
      <trkpt lat="41.517848" lon="1.821421">
        <ele>302.043</ele>
        <time>2017-04-29T12:16:21Z</time>
      </trkpt>
      <trkpt lat="41.517936" lon="1.821377">
        <ele>304.033</ele>
        <time>2017-04-29T12:16:25Z</time>
      </trkpt>
      <trkpt lat="41.518036" lon="1.821357">
        <ele>304.054</ele>
        <time>2017-04-29T12:16:29Z</time>
      </trkpt>
      <trkpt lat="41.518134" lon="1.821331">
        <ele>305.011</ele>
        <time>2017-04-29T12:16:33Z</time>
      </trkpt>
      <trkpt lat="41.518229" lon="1.821304">
        <ele>306.041</ele>
        <time>2017-04-29T12:16:37Z</time>
      </trkpt>
      <trkpt lat="41.518337" lon="1.821246">
        <ele>307.081</ele>
        <time>2017-04-29T12:16:41Z</time>
      </trkpt>
      <trkpt lat="41.518436" lon="1.821197">
        <ele>307.009</ele>
        <time>2017-04-29T12:16:45Z</time>
      </trkpt>
      <trkpt lat="41.518535" lon="1.821127">
        <ele>308.008</ele>
        <time>2017-04-29T12:16:49Z</time>
      </trkpt>
      <trkpt lat="41.518611" lon="1.821061">
        <ele>307.045</ele>
        <time>2017-04-29T12:16:52Z</time>
      </trkpt>
      <trkpt lat="41.518695" lon="1.821012">
        <ele>306.041</ele>
        <time>2017-04-29T12:16:55Z</time>
      </trkpt>
      <trkpt lat="41.518779" lon="1.820928">
        <ele>307.078</ele>
        <time>2017-04-29T12:16:59Z</time>
      </trkpt>
      <trkpt lat="41.518862" lon="1.820809">
        <ele>307.041</ele>
        <time>2017-04-29T12:17:03Z</time>
      </trkpt>
      <trkpt lat="41.518918" lon="1.820709">
        <ele>307.01</ele>
        <time>2017-04-29T12:17:06Z</time>
      </trkpt>
      <trkpt lat="41.51896" lon="1.820568">
        <ele>308.06</ele>
        <time>2017-04-29T12:17:10Z</time>
      </trkpt>
      <trkpt lat="41.519005" lon="1.820422">
        <ele>308.021</ele>
        <time>2017-04-29T12:17:14Z</time>
      </trkpt>
      <trkpt lat="41.519048" lon="1.82028">
        <ele>309.038</ele>
        <time>2017-04-29T12:17:18Z</time>
      </trkpt>
      <trkpt lat="41.519115" lon="1.820163">
        <ele>309.029</ele>
        <time>2017-04-29T12:17:22Z</time>
      </trkpt>
      <trkpt lat="41.519199" lon="1.82007">
        <ele>310.0</ele>
        <time>2017-04-29T12:17:26Z</time>
      </trkpt>
      <trkpt lat="41.51931" lon="1.819996">
        <ele>309.02</ele>
        <time>2017-04-29T12:17:30Z</time>
      </trkpt>
      <trkpt lat="41.519415" lon="1.819923">
        <ele>309.008</ele>
        <time>2017-04-29T12:17:34Z</time>
      </trkpt>
      <trkpt lat="41.519514" lon="1.819856">
        <ele>310.043</ele>
        <time>2017-04-29T12:17:38Z</time>
      </trkpt>
      <trkpt lat="41.519612" lon="1.819792">
        <ele>311.019</ele>
        <time>2017-04-29T12:17:42Z</time>
      </trkpt>
      <trkpt lat="41.519707" lon="1.819719">
        <ele>309.076</ele>
        <time>2017-04-29T12:17:45Z</time>
      </trkpt>
      <trkpt lat="41.519811" lon="1.819653">
        <ele>309.029</ele>
        <time>2017-04-29T12:17:49Z</time>
      </trkpt>
      <trkpt lat="41.519893" lon="1.819594">
        <ele>308.078</ele>
        <time>2017-04-29T12:17:52Z</time>
      </trkpt>
      <trkpt lat="41.519995" lon="1.819529">
        <ele>308.028</ele>
        <time>2017-04-29T12:17:56Z</time>
      </trkpt>
      <trkpt lat="41.520072" lon="1.819464">
        <ele>308.069</ele>
        <time>2017-04-29T12:17:59Z</time>
      </trkpt>
      <trkpt lat="41.520164" lon="1.819411">
        <ele>310.026</ele>
        <time>2017-04-29T12:18:03Z</time>
      </trkpt>
      <trkpt lat="41.520271" lon="1.819351">
        <ele>310.074</ele>
        <time>2017-04-29T12:18:07Z</time>
      </trkpt>
      <trkpt lat="41.520369" lon="1.819307">
        <ele>311.056</ele>
        <time>2017-04-29T12:18:10Z</time>
      </trkpt>
      <trkpt lat="41.52047" lon="1.819278">
        <ele>311.021</ele>
        <time>2017-04-29T12:18:13Z</time>
      </trkpt>
      <trkpt lat="41.520571" lon="1.819265">
        <ele>311.008</ele>
        <time>2017-04-29T12:18:16Z</time>
      </trkpt>
      <trkpt lat="41.520676" lon="1.819232">
        <ele>311.018</ele>
        <time>2017-04-29T12:18:19Z</time>
      </trkpt>
      <trkpt lat="41.520774" lon="1.819237">
        <ele>310.064</ele>
        <time>2017-04-29T12:18:22Z</time>
      </trkpt>
      <trkpt lat="41.520866" lon="1.819262">
        <ele>311.071</ele>
        <time>2017-04-29T12:18:25Z</time>
      </trkpt>
      <trkpt lat="41.520969" lon="1.819266">
        <ele>311.074</ele>
        <time>2017-04-29T12:18:28Z</time>
      </trkpt>
      <trkpt lat="41.521065" lon="1.819274">
        <ele>312.083</ele>
        <time>2017-04-29T12:18:31Z</time>
      </trkpt>
      <trkpt lat="41.521158" lon="1.819278">
        <ele>313.013</ele>
        <time>2017-04-29T12:18:34Z</time>
      </trkpt>
      <trkpt lat="41.521256" lon="1.819275">
        <ele>313.024</ele>
        <time>2017-04-29T12:18:37Z</time>
      </trkpt>
      <trkpt lat="41.521353" lon="1.819259">
        <ele>314.061</ele>
        <time>2017-04-29T12:18:40Z</time>
      </trkpt>
      <trkpt lat="41.521449" lon="1.81922">
        <ele>316.064</ele>
        <time>2017-04-29T12:18:43Z</time>
      </trkpt>
      <trkpt lat="41.521541" lon="1.81917">
        <ele>315.006</ele>
        <time>2017-04-29T12:18:46Z</time>
      </trkpt>
      <trkpt lat="41.521636" lon="1.819123">
        <ele>314.016</ele>
        <time>2017-04-29T12:18:49Z</time>
      </trkpt>
      <trkpt lat="41.521738" lon="1.819094">
        <ele>315.008</ele>
        <time>2017-04-29T12:18:53Z</time>
      </trkpt>
      <trkpt lat="41.521832" lon="1.819081">
        <ele>314.017</ele>
        <time>2017-04-29T12:18:56Z</time>
      </trkpt>
      <trkpt lat="41.521927" lon="1.819074">
        <ele>314.043</ele>
        <time>2017-04-29T12:18:59Z</time>
      </trkpt>
      <trkpt lat="41.522021" lon="1.81907">
        <ele>315.05</ele>
        <time>2017-04-29T12:19:02Z</time>
      </trkpt>
      <trkpt lat="41.522117" lon="1.819068">
        <ele>315.093</ele>
        <time>2017-04-29T12:19:05Z</time>
      </trkpt>
      <trkpt lat="41.522217" lon="1.819073">
        <ele>315.082</ele>
        <time>2017-04-29T12:19:08Z</time>
      </trkpt>
      <trkpt lat="41.522309" lon="1.819075">
        <ele>315.022</ele>
        <time>2017-04-29T12:19:11Z</time>
      </trkpt>
      <trkpt lat="41.52242" lon="1.819091">
        <ele>314.033</ele>
        <time>2017-04-29T12:19:14Z</time>
      </trkpt>
      <trkpt lat="41.522538" lon="1.819101">
        <ele>313.06</ele>
        <time>2017-04-29T12:19:17Z</time>
      </trkpt>
      <trkpt lat="41.522657" lon="1.81912">
        <ele>315.023</ele>
        <time>2017-04-29T12:19:20Z</time>
      </trkpt>
      <trkpt lat="41.522789" lon="1.819154">
        <ele>315.083</ele>
        <time>2017-04-29T12:19:23Z</time>
      </trkpt>
      <trkpt lat="41.522895" lon="1.81917">
        <ele>315.011</ele>
        <time>2017-04-29T12:19:25Z</time>
      </trkpt>
      <trkpt lat="41.523007" lon="1.81917">
        <ele>316.008</ele>
        <time>2017-04-29T12:19:27Z</time>
      </trkpt>
      <trkpt lat="41.523124" lon="1.819178">
        <ele>318.043</ele>
        <time>2017-04-29T12:19:29Z</time>
      </trkpt>
      <trkpt lat="41.523264" lon="1.819192">
        <ele>317.039</ele>
        <time>2017-04-29T12:19:31Z</time>
      </trkpt>
      <trkpt lat="41.523419" lon="1.819204">
        <ele>315.086</ele>
        <time>2017-04-29T12:19:33Z</time>
      </trkpt>
      <trkpt lat="41.523571" lon="1.819197">
        <ele>314.019</ele>
        <time>2017-04-29T12:19:35Z</time>
      </trkpt>
      <trkpt lat="41.523712" lon="1.819151">
        <ele>314.048</ele>
        <time>2017-04-29T12:19:37Z</time>
      </trkpt>
      <trkpt lat="41.523859" lon="1.819095">
        <ele>314.068</ele>
        <time>2017-04-29T12:19:39Z</time>
      </trkpt>
      <trkpt lat="41.524003" lon="1.819018">
        <ele>313.029</ele>
        <time>2017-04-29T12:19:41Z</time>
      </trkpt>
      <trkpt lat="41.52414" lon="1.818912">
        <ele>313.056</ele>
        <time>2017-04-29T12:19:43Z</time>
      </trkpt>
      <trkpt lat="41.524274" lon="1.818806">
        <ele>312.041</ele>
        <time>2017-04-29T12:19:45Z</time>
      </trkpt>
      <trkpt lat="41.524412" lon="1.81873">
        <ele>312.081</ele>
        <time>2017-04-29T12:19:47Z</time>
      </trkpt>
      <trkpt lat="41.524559" lon="1.818698">
        <ele>311.009</ele>
        <time>2017-04-29T12:19:49Z</time>
      </trkpt>
      <trkpt lat="41.524696" lon="1.818676">
        <ele>311.008</ele>
        <time>2017-04-29T12:19:51Z</time>
      </trkpt>
      <trkpt lat="41.524828" lon="1.81865">
        <ele>311.025</ele>
        <time>2017-04-29T12:19:53Z</time>
      </trkpt>
      <trkpt lat="41.52495" lon="1.818677">
        <ele>310.041</ele>
        <time>2017-04-29T12:19:55Z</time>
      </trkpt>
      <trkpt lat="41.525049" lon="1.818755">
        <ele>311.048</ele>
        <time>2017-04-29T12:19:57Z</time>
      </trkpt>
      <trkpt lat="41.52515" lon="1.818844">
        <ele>310.011</ele>
        <time>2017-04-29T12:19:59Z</time>
      </trkpt>
      <trkpt lat="41.525271" lon="1.818938">
        <ele>311.08</ele>
        <time>2017-04-29T12:20:01Z</time>
      </trkpt>
      <trkpt lat="41.525396" lon="1.819">
        <ele>311.08</ele>
        <time>2017-04-29T12:20:05Z</time>
      </trkpt>
      <trkpt lat="41.525498" lon="1.819066">
        <ele>314.031</ele>
        <time>2017-04-29T12:20:09Z</time>
      </trkpt>
      <trkpt lat="41.525582" lon="1.819119">
        <ele>316.048</ele>
        <time>2017-04-29T12:20:13Z</time>
      </trkpt>
      <trkpt lat="41.525663" lon="1.819198">
        <ele>318.054</ele>
        <time>2017-04-29T12:20:17Z</time>
      </trkpt>
      <trkpt lat="41.525759" lon="1.819213">
        <ele>318.056</ele>
        <time>2017-04-29T12:20:21Z</time>
      </trkpt>
      <trkpt lat="41.525865" lon="1.819192">
        <ele>318.011</ele>
        <time>2017-04-29T12:20:26Z</time>
      </trkpt>
      <trkpt lat="41.525943" lon="1.819093">
        <ele>320.008</ele>
        <time>2017-04-29T12:20:31Z</time>
      </trkpt>
      <trkpt lat="41.526023" lon="1.818989">
        <ele>319.066</ele>
        <time>2017-04-29T12:20:35Z</time>
      </trkpt>
      <trkpt lat="41.526074" lon="1.818867">
        <ele>319.062</ele>
        <time>2017-04-29T12:20:39Z</time>
      </trkpt>
      <trkpt lat="41.526092" lon="1.818732">
        <ele>320.089</ele>
        <time>2017-04-29T12:20:43Z</time>
      </trkpt>
      <trkpt lat="41.526114" lon="1.818583">
        <ele>321.072</ele>
        <time>2017-04-29T12:20:47Z</time>
      </trkpt>
      <trkpt lat="41.526134" lon="1.81844">
        <ele>319.081</ele>
        <time>2017-04-29T12:20:51Z</time>
      </trkpt>
      <trkpt lat="41.526168" lon="1.818304">
        <ele>317.061</ele>
        <time>2017-04-29T12:20:55Z</time>
      </trkpt>
      <trkpt lat="41.526201" lon="1.818176">
        <ele>317.012</ele>
        <time>2017-04-29T12:20:59Z</time>
      </trkpt>
      <trkpt lat="41.52624" lon="1.81805">
        <ele>319.039</ele>
        <time>2017-04-29T12:21:03Z</time>
      </trkpt>
      <trkpt lat="41.526305" lon="1.817913">
        <ele>319.052</ele>
        <time>2017-04-29T12:21:07Z</time>
      </trkpt>
      <trkpt lat="41.526362" lon="1.817811">
        <ele>320.053</ele>
        <time>2017-04-29T12:21:10Z</time>
      </trkpt>
      <trkpt lat="41.526426" lon="1.817699">
        <ele>320.008</ele>
        <time>2017-04-29T12:21:14Z</time>
      </trkpt>
      <trkpt lat="41.52648" lon="1.817603">
        <ele>321.008</ele>
        <time>2017-04-29T12:21:17Z</time>
      </trkpt>
      <trkpt lat="41.526556" lon="1.81749">
        <ele>320.046</ele>
        <time>2017-04-29T12:21:21Z</time>
      </trkpt>
      <trkpt lat="41.526643" lon="1.817395">
        <ele>320.042</ele>
        <time>2017-04-29T12:21:25Z</time>
      </trkpt>
      <trkpt lat="41.52672" lon="1.817313">
        <ele>319.099</ele>
        <time>2017-04-29T12:21:28Z</time>
      </trkpt>
      <trkpt lat="41.52679" lon="1.817238">
        <ele>320.092</ele>
        <time>2017-04-29T12:21:31Z</time>
      </trkpt>
      <trkpt lat="41.52687" lon="1.817162">
        <ele>320.011</ele>
        <time>2017-04-29T12:21:34Z</time>
      </trkpt>
      <trkpt lat="41.526965" lon="1.817085">
        <ele>319.071</ele>
        <time>2017-04-29T12:21:37Z</time>
      </trkpt>
      <trkpt lat="41.527049" lon="1.817028">
        <ele>320.012</ele>
        <time>2017-04-29T12:21:40Z</time>
      </trkpt>
      <trkpt lat="41.527142" lon="1.816963">
        <ele>321.029</ele>
        <time>2017-04-29T12:21:43Z</time>
      </trkpt>
      <trkpt lat="41.527246" lon="1.816881">
        <ele>322.025</ele>
        <time>2017-04-29T12:21:47Z</time>
      </trkpt>
      <trkpt lat="41.527333" lon="1.816824">
        <ele>323.026</ele>
        <time>2017-04-29T12:21:50Z</time>
      </trkpt>
      <trkpt lat="41.527447" lon="1.816761">
        <ele>323.008</ele>
        <time>2017-04-29T12:21:54Z</time>
      </trkpt>
      <trkpt lat="41.527536" lon="1.81672">
        <ele>324.008</ele>
        <time>2017-04-29T12:21:57Z</time>
      </trkpt>
      <trkpt lat="41.527625" lon="1.816675">
        <ele>324.073</ele>
        <time>2017-04-29T12:22:00Z</time>
      </trkpt>
      <trkpt lat="41.52774" lon="1.816621">
        <ele>323.049</ele>
        <time>2017-04-29T12:22:04Z</time>
      </trkpt>
      <trkpt lat="41.527834" lon="1.81657">
        <ele>323.076</ele>
        <time>2017-04-29T12:22:07Z</time>
      </trkpt>
      <trkpt lat="41.527927" lon="1.81652">
        <ele>324.099</ele>
        <time>2017-04-29T12:22:10Z</time>
      </trkpt>
      <trkpt lat="41.52802" lon="1.816476">
        <ele>323.078</ele>
        <time>2017-04-29T12:22:13Z</time>
      </trkpt>
      <trkpt lat="41.528105" lon="1.816429">
        <ele>324.018</ele>
        <time>2017-04-29T12:22:16Z</time>
      </trkpt>
      <trkpt lat="41.52819" lon="1.816368">
        <ele>324.029</ele>
        <time>2017-04-29T12:22:20Z</time>
      </trkpt>
      <trkpt lat="41.528253" lon="1.816248">
        <ele>324.036</ele>
        <time>2017-04-29T12:22:25Z</time>
      </trkpt>
      <trkpt lat="41.528289" lon="1.816133">
        <ele>325.048</ele>
        <time>2017-04-29T12:22:33Z</time>
      </trkpt>
      <trkpt lat="41.528573" lon="1.81556">
        <ele>327.7932297415437</ele>
        <time>2017-04-29T12:23:21Z</time>
      </trkpt>
      <trkpt lat="41.528773" lon="1.815095">
        <ele>329.9315588231346</ele>
        <time>2017-04-29T12:23:59Z</time>
      </trkpt>
      <trkpt lat="41.529016" lon="1.814621">
        <ele>332.21761275970846</ele>
        <time>2017-04-29T12:24:40Z</time>
      </trkpt>
      <trkpt lat="41.529146" lon="1.814543">
        <ele>332.9736657014269</ele>
        <time>2017-04-29T12:24:53Z</time>
      </trkpt>
      <trkpt lat="41.529266" lon="1.814332">
        <ele>334.0271851601954</ele>
        <time>2017-04-29T12:25:12Z</time>
      </trkpt>
      <trkpt lat="41.529446" lon="1.814131">
        <ele>335.271828383164</ele>
        <time>2017-04-29T12:25:34Z</time>
      </trkpt>
      <trkpt lat="41.52982" lon="1.814018">
        <ele>337.3026932323784</ele>
        <time>2017-04-29T12:26:10Z</time>
      </trkpt>
      <trkpt lat="41.530123" lon="1.814154">
        <ele>338.99106252901043</ele>
        <time>2017-04-29T12:26:41Z</time>
      </trkpt>
      <trkpt lat="41.530237" lon="1.814322">
        <ele>339.88561194211513</ele>
        <time>2017-04-29T12:26:56Z</time>
      </trkpt>
      <trkpt lat="41.530028" lon="1.814739">
        <ele>341.82255958309423</ele>
        <time>2017-04-29T12:27:31Z</time>
      </trkpt>
      <trkpt lat="41.53002" lon="1.814989">
        <ele>342.7809509359866</ele>
        <time>2017-04-29T12:27:48Z</time>
      </trkpt>
      <trkpt lat="41.530339" lon="1.815362">
        <ele>344.92696601555355</ele>
        <time>2017-04-29T12:28:26Z</time>
      </trkpt>
      <trkpt lat="41.530876" lon="1.815812">
        <ele>348.10148998724617</ele>
        <time>2017-04-29T12:29:23Z</time>
      </trkpt>
      <trkpt lat="41.531085" lon="1.815926">
        <ele>349.2283549029968</ele>
        <time>2017-04-29T12:29:43Z</time>
      </trkpt>
      <trkpt lat="41.531345" lon="1.816385">
        <ele>351.3573206895078</ele>
        <time>2017-04-29T12:30:20Z</time>
      </trkpt>
      <trkpt lat="41.531379" lon="1.816681">
        <ele>352.4554328367443</ele>
        <time>2017-04-29T12:30:40Z</time>
      </trkpt>
      <trkpt lat="41.531535" lon="1.816727">
        <ele>353.234169919992</ele>
        <time>2017-04-29T12:30:54Z</time>
      </trkpt>
      <trkpt lat="41.531709" lon="1.816496">
        <ele>354.43169183985157</ele>
        <time>2017-04-29T12:31:15Z</time>
      </trkpt>
      <trkpt lat="41.531682" lon="1.816262">
        <ele>355.5215589010753</ele>
        <time>2017-04-29T12:31:35Z</time>
      </trkpt>
      <trkpt lat="41.531601" lon="1.815901">
        <ele>357.1438753376027</ele>
        <time>2017-04-29T12:32:03Z</time>
      </trkpt>
      <trkpt lat="41.531646" lon="1.815716">
        <ele>357.970439337844</ele>
        <time>2017-04-29T12:32:18Z</time>
      </trkpt>
      <trkpt lat="41.53175" lon="1.815487">
        <ele>359.0964989188867</ele>
        <time>2017-04-29T12:32:38Z</time>
      </trkpt>
      <trkpt lat="41.53179" lon="1.815251">
        <ele>360.08706611301807</ele>
        <time>2017-04-29T12:32:56Z</time>
      </trkpt>
      <trkpt lat="41.531762" lon="1.814896">
        <ele>361.432772509696</ele>
        <time>2017-04-29T12:33:20Z</time>
      </trkpt>
      <trkpt lat="41.531856" lon="1.814771">
        <ele>362.09496617184817</ele>
        <time>2017-04-29T12:33:31Z</time>
      </trkpt>
      <trkpt lat="41.532144" lon="1.815027">
        <ele>363.709329740053</ele>
        <time>2017-04-29T12:34:00Z</time>
      </trkpt>
      <trkpt lat="41.532284" lon="1.815056">
        <ele>364.36100241044875</ele>
        <time>2017-04-29T12:34:12Z</time>
      </trkpt>
      <trkpt lat="41.53248" lon="1.814785">
        <ele>365.6479661716216</ele>
        <time>2017-04-29T12:34:35Z</time>
      </trkpt>
      <trkpt lat="41.532712" lon="1.814356">
        <ele>367.37383084950613</ele>
        <time>2017-04-29T12:35:05Z</time>
      </trkpt>
      <trkpt lat="41.532893" lon="1.814185">
        <ele>368.32342754534926</ele>
        <time>2017-04-29T12:35:22Z</time>
      </trkpt>
      <trkpt lat="41.533141" lon="1.81426">
        <ele>369.38460957833945</ele>
        <time>2017-04-29T12:35:41Z</time>
      </trkpt>
      <trkpt lat="41.533456" lon="1.814522">
        <ele>370.610482782376</ele>
        <time>2017-04-29T12:36:03Z</time>
      </trkpt>
      <trkpt lat="41.533714" lon="1.814602">
        <ele>371.2739793955616</ele>
        <time>2017-04-29T12:36:15Z</time>
      </trkpt>
      <trkpt lat="41.533866" lon="1.814564">
        <ele>371.5933995822579</ele>
        <time>2017-04-29T12:36:20Z</time>
      </trkpt>
      <trkpt lat="41.533858" lon="1.813976">
        <ele>372.5060466848943</ele>
        <time>2017-04-29T12:36:37Z</time>
      </trkpt>
      <trkpt lat="41.533793" lon="1.81357">
        <ele>373.96451848820016</ele>
        <time>2017-04-29T12:37:03Z</time>
      </trkpt>
      <trkpt lat="41.533881" lon="1.813445">
        <ele>374.56619931596794</ele>
        <time>2017-04-29T12:37:13Z</time>
      </trkpt>
      <trkpt lat="41.534268" lon="1.813419">
        <ele>376.3751209731755</ele>
        <time>2017-04-29T12:37:46Z</time>
      </trkpt>
      <trkpt lat="41.534581" lon="1.813228">
        <ele>377.98250850739186</ele>
        <time>2017-04-29T12:38:14Z</time>
      </trkpt>
      <trkpt lat="41.534954" lon="1.813608">
        <ele>380.15229851198825</ele>
        <time>2017-04-29T12:38:53Z</time>
      </trkpt>
      <trkpt lat="41.535136" lon="1.813863">
        <ele>381.3637506381594</ele>
        <time>2017-04-29T12:39:14Z</time>
      </trkpt>
      <trkpt lat="41.535699" lon="1.814565">
        <ele>384.8271422350973</ele>
        <time>2017-04-29T12:40:16Z</time>
      </trkpt>
      <trkpt lat="41.536031" lon="1.814773">
        <ele>386.4639215990119</ele>
        <time>2017-04-29T12:40:45Z</time>
      </trkpt>
      <trkpt lat="41.536546" lon="1.814636">
        <ele>388.8032776438065</ele>
        <time>2017-04-29T12:41:27Z</time>
      </trkpt>
      <trkpt lat="41.536875" lon="1.814433">
        <ele>390.4183473552185</ele>
        <time>2017-04-29T12:41:55Z</time>
      </trkpt>
      <trkpt lat="41.537138" lon="1.814439">
        <ele>391.5877284881196</ele>
        <time>2017-04-29T12:42:16Z</time>
      </trkpt>
      <trkpt lat="41.538033" lon="1.814983">
        <ele>395.8802718923332</ele>
        <time>2017-04-29T12:43:32Z</time>
      </trkpt>
      <trkpt lat="41.538991" lon="1.815394">
        <ele>400.19803401201654</ele>
        <time>2017-04-29T12:44:49Z</time>
      </trkpt>
      <trkpt lat="41.539552" lon="1.815744">
        <ele>402.81874317435785</ele>
        <time>2017-04-29T12:45:36Z</time>
      </trkpt>
      <trkpt lat="41.54005" lon="1.816135">
        <ele>405.225907090629</ele>
        <time>2017-04-29T12:46:19Z</time>
      </trkpt>
      <trkpt lat="41.540399" lon="1.816367">
        <ele>406.8337901861425</ele>
        <time>2017-04-29T12:46:47Z</time>
      </trkpt>
      <trkpt lat="41.541571" lon="1.814919">
        <ele>413.4243876630325</ele>
        <time>2017-04-29T12:48:45Z</time>
      </trkpt>
      <trkpt lat="41.542482" lon="1.813741">
        <ele>418.658527420819</ele>
        <time>2017-04-29T12:50:18Z</time>
      </trkpt>
      <trkpt lat="41.542846" lon="1.813436">
        <ele>420.4306484797667</ele>
        <time>2017-04-29T12:50:49Z</time>
      </trkpt>
      <trkpt lat="41.543604" lon="1.812231">
        <ele>425.2912697283583</ele>
        <time>2017-04-29T12:52:16Z</time>
      </trkpt>
      <trkpt lat="41.543811" lon="1.811765">
        <ele>426.9634854492049</ele>
        <time>2017-04-29T12:52:45Z</time>
      </trkpt>
      <trkpt lat="41.543775" lon="1.811268">
        <ele>428.49199350307646</ele>
        <time>2017-04-29T12:53:13Z</time>
      </trkpt>
      <trkpt lat="41.544129" lon="1.810944">
        <ele>430.2424477184608</ele>
        <time>2017-04-29T12:53:44Z</time>
      </trkpt>
      <trkpt lat="41.544478" lon="1.810768">
        <ele>431.7614920970187</ele>
        <time>2017-04-29T12:54:11Z</time>
      </trkpt>
      <trkpt lat="41.54468" lon="1.810445">
        <ele>433.04616417433436</ele>
        <time>2017-04-29T12:54:34Z</time>
      </trkpt>
      <trkpt lat="41.544959" lon="1.809723">
        <ele>435.52029045321876</ele>
        <time>2017-04-29T12:55:18Z</time>
      </trkpt>
      <trkpt lat="41.545572" lon="1.808705">
        <ele>439.4894097139146</ele>
        <time>2017-04-29T12:56:28Z</time>
      </trkpt>
      <trkpt lat="41.546092" lon="1.807992">
        <ele>442.51089065184834</ele>
        <time>2017-04-29T12:57:22Z</time>
      </trkpt>
      <trkpt lat="41.547159" lon="1.806949">
        <ele>447.8687196914877</ele>
        <time>2017-04-29T12:58:57Z</time>
      </trkpt>
      <trkpt lat="41.547786" lon="1.806414">
        <ele>450.88249611132653</ele>
        <time>2017-04-29T12:59:51Z</time>
      </trkpt>
      <trkpt lat="41.54883" lon="1.805366">
        <ele>456.1738082361267</ele>
        <time>2017-04-29T13:01:25Z</time>
      </trkpt>
      <trkpt lat="41.549761" lon="1.804219">
        <ele>461.30419318358906</ele>
        <time>2017-04-29T13:02:56Z</time>
      </trkpt>
      <trkpt lat="41.550239" lon="1.803302">
        <ele>464.67949403173907</ele>
        <time>2017-04-29T13:03:56Z</time>
      </trkpt>
      <trkpt lat="41.550687" lon="1.802593">
        <ele>467.473715929988</ele>
        <time>2017-04-29T13:04:46Z</time>
      </trkpt>
      <trkpt lat="41.551061" lon="1.802431">
        <ele>469.05003212951135</ele>
        <time>2017-04-29T13:05:14Z</time>
      </trkpt>
      <trkpt lat="41.551613" lon="1.80218">
        <ele>471.38154676533486</ele>
        <time>2017-04-29T13:05:56Z</time>
      </trkpt>
      <trkpt lat="41.551965" lon="1.801646">
        <ele>473.5106678763287</ele>
        <time>2017-04-29T13:06:33Z</time>
      </trkpt>
      <trkpt lat="41.552497" lon="1.801228">
        <ele>475.97461822212455</ele>
        <time>2017-04-29T13:07:17Z</time>
      </trkpt>
      <trkpt lat="41.552782" lon="1.80108">
        <ele>477.19314234765034</ele>
        <time>2017-04-29T13:07:39Z</time>
      </trkpt>
      <trkpt lat="41.55356" lon="1.801169">
        <ele>480.2061067864646</ele>
        <time>2017-04-29T13:08:33Z</time>
      </trkpt>
      <trkpt lat="41.553837" lon="1.800953">
        <ele>481.44362328809524</ele>
        <time>2017-04-29T13:08:55Z</time>
      </trkpt>
      <trkpt lat="41.554174" lon="1.800484">
        <ele>483.3223046323568</ele>
        <time>2017-04-29T13:09:28Z</time>
      </trkpt>
      <trkpt lat="41.554456" lon="1.800042">
        <ele>484.99905139412874</ele>
        <time>2017-04-29T13:09:58Z</time>
      </trkpt>
      <trkpt lat="41.554881" lon="1.799356">
        <ele>487.5629122467839</ele>
        <time>2017-04-29T13:10:43Z</time>
      </trkpt>
      <trkpt lat="41.555285" lon="1.798672">
        <ele>490.0581939206767</ele>
        <time>2017-04-29T13:11:28Z</time>
      </trkpt>
      <trkpt lat="41.555831" lon="1.797961">
        <ele>492.96429694882744</ele>
        <time>2017-04-29T13:12:19Z</time>
      </trkpt>
      <trkpt lat="41.556452" lon="1.79737">
        <ele>495.86774570264663</ele>
        <time>2017-04-29T13:13:11Z</time>
      </trkpt>
      <trkpt lat="41.556783" lon="1.797126">
        <ele>497.3062985876137</ele>
        <time>2017-04-29T13:13:37Z</time>
      </trkpt>
      <trkpt lat="41.557163" lon="1.796994">
        <ele>498.77404072790074</ele>
        <time>2017-04-29T13:14:03Z</time>
      </trkpt>
      <trkpt lat="41.55765" lon="1.796662">
        <ele>500.780712177846</ele>
        <time>2017-04-29T13:14:39Z</time>
      </trkpt>
      <trkpt lat="41.557968" lon="1.796593">
        <ele>501.76162804303397</ele>
        <time>2017-04-29T13:14:56Z</time>
      </trkpt>
      <trkpt lat="41.558213" lon="1.796581">
        <ele>502.043</ele>
        <time>2017-04-29T13:15:56Z</time>
      </trkpt>
      <trkpt lat="41.558293" lon="1.796654">
        <ele>501.08</ele>
        <time>2017-04-29T13:16:52Z</time>
      </trkpt>
      <trkpt lat="41.558378" lon="1.796719">
        <ele>498.083</ele>
        <time>2017-04-29T13:17:05Z</time>
      </trkpt>
      <trkpt lat="41.558465" lon="1.796767">
        <ele>495.025</ele>
        <time>2017-04-29T13:18:45Z</time>
      </trkpt>
      <trkpt lat="41.558581" lon="1.796843">
        <ele>497.017</ele>
        <time>2017-04-29T13:18:49Z</time>
      </trkpt>
      <trkpt lat="41.558678" lon="1.796952">
        <ele>497.008</ele>
        <time>2017-04-29T13:18:52Z</time>
      </trkpt>
      <trkpt lat="41.558791" lon="1.797062">
        <ele>497.039</ele>
        <time>2017-04-29T13:18:54Z</time>
      </trkpt>
      <trkpt lat="41.558871" lon="1.797196">
        <ele>496.065</ele>
        <time>2017-04-29T13:18:56Z</time>
      </trkpt>
      <trkpt lat="41.558915" lon="1.797308">
        <ele>496.012</ele>
        <time>2017-04-29T13:18:58Z</time>
      </trkpt>
      <trkpt lat="41.558956" lon="1.797441">
        <ele>497.095</ele>
        <time>2017-04-29T13:19:01Z</time>
      </trkpt>
      <trkpt lat="41.558986" lon="1.797583">
        <ele>498.014</ele>
        <time>2017-04-29T13:19:06Z</time>
      </trkpt>
      <trkpt lat="41.558991" lon="1.797721">
        <ele>495.064</ele>
        <time>2017-04-29T13:19:11Z</time>
      </trkpt>
      <trkpt lat="41.559085" lon="1.797734">
        <ele>485.025</ele>
        <time>2017-04-29T13:23:27Z</time>
      </trkpt>
      <trkpt lat="41.559179" lon="1.79781">
        <ele>484.092</ele>
        <time>2017-04-29T13:23:31Z</time>
      </trkpt>
      <trkpt lat="41.559272" lon="1.797859">
        <ele>483.041</ele>
        <time>2017-04-29T13:23:33Z</time>
      </trkpt>
      <trkpt lat="41.559395" lon="1.797889">
        <ele>482.081</ele>
        <time>2017-04-29T13:23:35Z</time>
      </trkpt>
      <trkpt lat="41.559523" lon="1.797902">
        <ele>482.009</ele>
        <time>2017-04-29T13:23:37Z</time>
      </trkpt>
      <trkpt lat="41.559666" lon="1.797856">
        <ele>481.008</ele>
        <time>2017-04-29T13:23:39Z</time>
      </trkpt>
      <trkpt lat="41.559791" lon="1.797793">
        <ele>479.015</ele>
        <time>2017-04-29T13:23:41Z</time>
      </trkpt>
      <trkpt lat="41.559921" lon="1.797687">
        <ele>478.021</ele>
        <time>2017-04-29T13:23:43Z</time>
      </trkpt>
      <trkpt lat="41.56003" lon="1.797637">
        <ele>477.048</ele>
        <time>2017-04-29T13:23:45Z</time>
      </trkpt>
      <trkpt lat="41.560126" lon="1.797661">
        <ele>476.031</ele>
        <time>2017-04-29T13:23:47Z</time>
      </trkpt>
      <trkpt lat="41.560212" lon="1.797808">
        <ele>474.08</ele>
        <time>2017-04-29T13:23:49Z</time>
      </trkpt>
      <trkpt lat="41.560265" lon="1.798031">
        <ele>473.01</ele>
        <time>2017-04-29T13:23:51Z</time>
      </trkpt>
      <trkpt lat="41.560289" lon="1.798149">
        <ele>471.081</ele>
        <time>2017-04-29T13:23:52Z</time>
      </trkpt>
      <trkpt lat="41.560318" lon="1.798264">
        <ele>471.058</ele>
        <time>2017-04-29T13:23:53Z</time>
      </trkpt>
      <trkpt lat="41.560376" lon="1.798477">
        <ele>468.032</ele>
        <time>2017-04-29T13:23:55Z</time>
      </trkpt>
      <trkpt lat="41.560436" lon="1.798681">
        <ele>466.092</ele>
        <time>2017-04-29T13:23:57Z</time>
      </trkpt>
      <trkpt lat="41.560504" lon="1.798894">
        <ele>465.011</ele>
        <time>2017-04-29T13:23:59Z</time>
      </trkpt>
      <trkpt lat="41.560596" lon="1.799119">
        <ele>462.008</ele>
        <time>2017-04-29T13:24:01Z</time>
      </trkpt>
      <trkpt lat="41.560654" lon="1.799235">
        <ele>461.094</ele>
        <time>2017-04-29T13:24:02Z</time>
      </trkpt>
      <trkpt lat="41.560711" lon="1.79935">
        <ele>460.09</ele>
        <time>2017-04-29T13:24:03Z</time>
      </trkpt>
      <trkpt lat="41.560762" lon="1.799478">
        <ele>458.077</ele>
        <time>2017-04-29T13:24:04Z</time>
      </trkpt>
      <trkpt lat="41.560821" lon="1.799599">
        <ele>456.02</ele>
        <time>2017-04-29T13:24:05Z</time>
      </trkpt>
      <trkpt lat="41.560877" lon="1.799728">
        <ele>455.069</ele>
        <time>2017-04-29T13:24:06Z</time>
      </trkpt>
      <trkpt lat="41.560931" lon="1.799841">
        <ele>455.019</ele>
        <time>2017-04-29T13:24:07Z</time>
      </trkpt>
      <trkpt lat="41.560977" lon="1.799979">
        <ele>454.03</ele>
        <time>2017-04-29T13:24:08Z</time>
      </trkpt>
      <trkpt lat="41.561024" lon="1.800096">
        <ele>454.037</ele>
        <time>2017-04-29T13:24:09Z</time>
      </trkpt>
      <trkpt lat="41.561086" lon="1.800204">
        <ele>452.074</ele>
        <time>2017-04-29T13:24:10Z</time>
      </trkpt>
      <trkpt lat="41.561145" lon="1.80031">
        <ele>452.056</ele>
        <time>2017-04-29T13:24:11Z</time>
      </trkpt>
      <trkpt lat="41.561217" lon="1.800414">
        <ele>450.021</ele>
        <time>2017-04-29T13:24:12Z</time>
      </trkpt>
      <trkpt lat="41.56129" lon="1.800515">
        <ele>448.008</ele>
        <time>2017-04-29T13:24:13Z</time>
      </trkpt>
      <trkpt lat="41.561363" lon="1.800593">
        <ele>447.058</ele>
        <time>2017-04-29T13:24:14Z</time>
      </trkpt>
      <trkpt lat="41.561473" lon="1.800718">
        <ele>445.064</ele>
        <time>2017-04-29T13:24:16Z</time>
      </trkpt>
      <trkpt lat="41.561582" lon="1.800841">
        <ele>444.091</ele>
        <time>2017-04-29T13:24:18Z</time>
      </trkpt>
      <trkpt lat="41.561706" lon="1.801">
        <ele>441.024</ele>
        <time>2017-04-29T13:24:20Z</time>
      </trkpt>
      <trkpt lat="41.561773" lon="1.801083">
        <ele>441.043</ele>
        <time>2017-04-29T13:24:21Z</time>
      </trkpt>
      <trkpt lat="41.561845" lon="1.801182">
        <ele>441.023</ele>
        <time>2017-04-29T13:24:22Z</time>
      </trkpt>
      <trkpt lat="41.561911" lon="1.801289">
        <ele>439.094</ele>
        <time>2017-04-29T13:24:23Z</time>
      </trkpt>
      <trkpt lat="41.561992" lon="1.8014">
        <ele>438.021</ele>
        <time>2017-04-29T13:24:24Z</time>
      </trkpt>
      <trkpt lat="41.562069" lon="1.801512">
        <ele>436.042</ele>
        <time>2017-04-29T13:24:25Z</time>
      </trkpt>
      <trkpt lat="41.56214" lon="1.801627">
        <ele>434.022</ele>
        <time>2017-04-29T13:24:26Z</time>
      </trkpt>
      <trkpt lat="41.562212" lon="1.80173">
        <ele>433.014</ele>
        <time>2017-04-29T13:24:27Z</time>
      </trkpt>
      <trkpt lat="41.562274" lon="1.801827">
        <ele>433.008</ele>
        <time>2017-04-29T13:24:28Z</time>
      </trkpt>
      <trkpt lat="41.562369" lon="1.801987">
        <ele>432.055</ele>
        <time>2017-04-29T13:24:30Z</time>
      </trkpt>
      <trkpt lat="41.562468" lon="1.80216">
        <ele>430.021</ele>
        <time>2017-04-29T13:24:32Z</time>
      </trkpt>
      <trkpt lat="41.562533" lon="1.802257">
        <ele>428.068</ele>
        <time>2017-04-29T13:24:33Z</time>
      </trkpt>
      <trkpt lat="41.562589" lon="1.802351">
        <ele>428.021</ele>
        <time>2017-04-29T13:24:34Z</time>
      </trkpt>
      <trkpt lat="41.562645" lon="1.802453">
        <ele>427.05</ele>
        <time>2017-04-29T13:24:35Z</time>
      </trkpt>
      <trkpt lat="41.562702" lon="1.802572">
        <ele>426.08</ele>
        <time>2017-04-29T13:24:36Z</time>
      </trkpt>
      <trkpt lat="41.562752" lon="1.80268">
        <ele>425.091</ele>
        <time>2017-04-29T13:24:37Z</time>
      </trkpt>
      <trkpt lat="41.562808" lon="1.802784">
        <ele>425.028</ele>
        <time>2017-04-29T13:24:38Z</time>
      </trkpt>
      <trkpt lat="41.562865" lon="1.80289">
        <ele>424.095</ele>
        <time>2017-04-29T13:24:39Z</time>
      </trkpt>
      <trkpt lat="41.562925" lon="1.802985">
        <ele>423.049</ele>
        <time>2017-04-29T13:24:40Z</time>
      </trkpt>
      <trkpt lat="41.562977" lon="1.80309">
        <ele>423.023</ele>
        <time>2017-04-29T13:24:41Z</time>
      </trkpt>
      <trkpt lat="41.563031" lon="1.803203">
        <ele>422.008</ele>
        <time>2017-04-29T13:24:42Z</time>
      </trkpt>
      <trkpt lat="41.563076" lon="1.803308">
        <ele>421.04</ele>
        <time>2017-04-29T13:24:43Z</time>
      </trkpt>
      <trkpt lat="41.563118" lon="1.80343">
        <ele>420.026</ele>
        <time>2017-04-29T13:24:44Z</time>
      </trkpt>
      <trkpt lat="41.563159" lon="1.803562">
        <ele>418.013</ele>
        <time>2017-04-29T13:24:45Z</time>
      </trkpt>
      <trkpt lat="41.563189" lon="1.803687">
        <ele>418.036</ele>
        <time>2017-04-29T13:24:46Z</time>
      </trkpt>
      <trkpt lat="41.563225" lon="1.803822">
        <ele>416.015</ele>
        <time>2017-04-29T13:24:47Z</time>
      </trkpt>
      <trkpt lat="41.563274" lon="1.804081">
        <ele>415.085</ele>
        <time>2017-04-29T13:24:48Z</time>
      </trkpt>
      <trkpt lat="41.563302" lon="1.804199">
        <ele>415.066</ele>
        <time>2017-04-29T13:24:49Z</time>
      </trkpt>
      <trkpt lat="41.563323" lon="1.804326">
        <ele>415.083</ele>
        <time>2017-04-29T13:24:50Z</time>
      </trkpt>
      <trkpt lat="41.563349" lon="1.804442">
        <ele>415.056</ele>
        <time>2017-04-29T13:24:51Z</time>
      </trkpt>
      <trkpt lat="41.563375" lon="1.804557">
        <ele>414.059</ele>
        <time>2017-04-29T13:24:52Z</time>
      </trkpt>
      <trkpt lat="41.563429" lon="1.80475">
        <ele>413.014</ele>
        <time>2017-04-29T13:24:54Z</time>
      </trkpt>
      <trkpt lat="41.563469" lon="1.804864">
        <ele>414.008</ele>
        <time>2017-04-29T13:24:56Z</time>
      </trkpt>
      <trkpt lat="41.563519" lon="1.805008">
        <ele>417.076</ele>
        <time>2017-04-29T13:25:00Z</time>
      </trkpt>
      <trkpt lat="41.563562" lon="1.805113">
        <ele>419.062</ele>
        <time>2017-04-29T13:25:03Z</time>
      </trkpt>
      <trkpt lat="41.563624" lon="1.805206">
        <ele>416.079</ele>
        <time>2017-04-29T13:25:06Z</time>
      </trkpt>
      <trkpt lat="41.563657" lon="1.805325">
        <ele>419.062</ele>
        <time>2017-04-29T13:25:09Z</time>
      </trkpt>
      <trkpt lat="41.563692" lon="1.805472">
        <ele>416.061</ele>
        <time>2017-04-29T13:25:12Z</time>
      </trkpt>
      <trkpt lat="41.56374" lon="1.805612">
        <ele>418.041</ele>
        <time>2017-04-29T13:25:15Z</time>
      </trkpt>
      <trkpt lat="41.563773" lon="1.805769">
        <ele>419.082</ele>
        <time>2017-04-29T13:25:18Z</time>
      </trkpt>
      <trkpt lat="41.563832" lon="1.805924">
        <ele>419.079</ele>
        <time>2017-04-29T13:25:21Z</time>
      </trkpt>
      <trkpt lat="41.563896" lon="1.806062">
        <ele>419.079</ele>
        <time>2017-04-29T13:25:24Z</time>
      </trkpt>
      <trkpt lat="41.563942" lon="1.806173">
        <ele>422.005</ele>
        <time>2017-04-29T13:25:27Z</time>
      </trkpt>
      <trkpt lat="41.563978" lon="1.806326">
        <ele>422.025</ele>
        <time>2017-04-29T13:25:30Z</time>
      </trkpt>
      <trkpt lat="41.564026" lon="1.80648">
        <ele>421.008</ele>
        <time>2017-04-29T13:25:33Z</time>
      </trkpt>
      <trkpt lat="41.564088" lon="1.806599">
        <ele>419.088</ele>
        <time>2017-04-29T13:25:36Z</time>
      </trkpt>
      <trkpt lat="41.564154" lon="1.806692">
        <ele>419.014</ele>
        <time>2017-04-29T13:25:39Z</time>
      </trkpt>
      <trkpt lat="41.564222" lon="1.806777">
        <ele>419.021</ele>
        <time>2017-04-29T13:25:42Z</time>
      </trkpt>
      <trkpt lat="41.564294" lon="1.806877">
        <ele>420.074</ele>
        <time>2017-04-29T13:25:45Z</time>
      </trkpt>
      <trkpt lat="41.564371" lon="1.806991">
        <ele>422.063</ele>
        <time>2017-04-29T13:25:49Z</time>
      </trkpt>
      <trkpt lat="41.564447" lon="1.807101">
        <ele>423.033</ele>
        <time>2017-04-29T13:25:52Z</time>
      </trkpt>
      <trkpt lat="41.564535" lon="1.807211">
        <ele>423.044</ele>
        <time>2017-04-29T13:25:55Z</time>
      </trkpt>
      <trkpt lat="41.564617" lon="1.807328">
        <ele>423.061</ele>
        <time>2017-04-29T13:25:58Z</time>
      </trkpt>
      <trkpt lat="41.56472" lon="1.807423">
        <ele>424.058</ele>
        <time>2017-04-29T13:26:01Z</time>
      </trkpt>
      <trkpt lat="41.564802" lon="1.807527">
        <ele>423.052</ele>
        <time>2017-04-29T13:26:04Z</time>
      </trkpt>
      <trkpt lat="41.56488" lon="1.807662">
        <ele>423.017</ele>
        <time>2017-04-29T13:26:07Z</time>
      </trkpt>
      <trkpt lat="41.564976" lon="1.807782">
        <ele>423.008</ele>
        <time>2017-04-29T13:26:10Z</time>
      </trkpt>
      <trkpt lat="41.565089" lon="1.807836">
        <ele>424.096</ele>
        <time>2017-04-29T13:26:13Z</time>
      </trkpt>
      <trkpt lat="41.565178" lon="1.807896">
        <ele>423.042</ele>
        <time>2017-04-29T13:26:16Z</time>
      </trkpt>
      <trkpt lat="41.565268" lon="1.807941">
        <ele>424.019</ele>
        <time>2017-04-29T13:26:20Z</time>
      </trkpt>
      <trkpt lat="41.565363" lon="1.80795">
        <ele>428.082</ele>
        <time>2017-04-29T13:26:26Z</time>
      </trkpt>
      <trkpt lat="41.565472" lon="1.808003">
        <ele>426.011</ele>
        <time>2017-04-29T13:26:31Z</time>
      </trkpt>
      <trkpt lat="41.565565" lon="1.807984">
        <ele>426.031</ele>
        <time>2017-04-29T13:26:35Z</time>
      </trkpt>
      <trkpt lat="41.565663" lon="1.80798">
        <ele>426.062</ele>
        <time>2017-04-29T13:26:39Z</time>
      </trkpt>
      <trkpt lat="41.565758" lon="1.807944">
        <ele>424.089</ele>
        <time>2017-04-29T13:26:43Z</time>
      </trkpt>
      <trkpt lat="41.565866" lon="1.807945">
        <ele>424.071</ele>
        <time>2017-04-29T13:26:48Z</time>
      </trkpt>
      <trkpt lat="41.565965" lon="1.807936">
        <ele>424.041</ele>
        <time>2017-04-29T13:26:54Z</time>
      </trkpt>
      <trkpt lat="41.566064" lon="1.807947">
        <ele>423.015</ele>
        <time>2017-04-29T13:26:58Z</time>
      </trkpt>
      <trkpt lat="41.566184" lon="1.807955">
        <ele>421.008</ele>
        <time>2017-04-29T13:27:04Z</time>
      </trkpt>
      <trkpt lat="41.56628" lon="1.80796">
        <ele>419.088</ele>
        <time>2017-04-29T13:27:10Z</time>
      </trkpt>
      <trkpt lat="41.566357" lon="1.808027">
        <ele>421.014</ele>
        <time>2017-04-29T13:27:16Z</time>
      </trkpt>
      <trkpt lat="41.566454" lon="1.808054">
        <ele>422.051</ele>
        <time>2017-04-29T13:27:23Z</time>
      </trkpt>
      <trkpt lat="41.56654" lon="1.80809">
        <ele>422.034</ele>
        <time>2017-04-29T13:27:30Z</time>
      </trkpt>
      <trkpt lat="41.566639" lon="1.808143">
        <ele>427.033</ele>
        <time>2017-04-29T13:30:16Z</time>
      </trkpt>
      <trkpt lat="41.566739" lon="1.808134">
        <ele>426.013</ele>
        <time>2017-04-29T13:30:19Z</time>
      </trkpt>
      <trkpt lat="41.566852" lon="1.808154">
        <ele>426.044</ele>
        <time>2017-04-29T13:30:22Z</time>
      </trkpt>
      <trkpt lat="41.566977" lon="1.808162">
        <ele>426.011</ele>
        <time>2017-04-29T13:30:25Z</time>
      </trkpt>
      <trkpt lat="41.567066" lon="1.808201">
        <ele>425.039</ele>
        <time>2017-04-29T13:30:29Z</time>
      </trkpt>
      <trkpt lat="41.567401" lon="1.808934">
        <ele>418.001</ele>
        <time>2017-04-29T13:30:38Z</time>
      </trkpt>
      <trkpt lat="41.567595" lon="1.808481">
        <ele>423.021</ele>
        <time>2017-04-29T13:30:39Z</time>
      </trkpt>
      <trkpt lat="41.567508" lon="1.808277">
        <ele>420.008</ele>
        <time>2017-04-29T13:30:40Z</time>
      </trkpt>
      <trkpt lat="41.567605" lon="1.808226">
        <ele>421.024</ele>
        <time>2017-04-29T13:30:42Z</time>
      </trkpt>
      <trkpt lat="41.567691" lon="1.808156">
        <ele>423.03</ele>
        <time>2017-04-29T13:30:45Z</time>
      </trkpt>
      <trkpt lat="41.567784" lon="1.808187">
        <ele>429.047</ele>
        <time>2017-04-29T13:30:50Z</time>
      </trkpt>
      <trkpt lat="41.567877" lon="1.808139">
        <ele>432.09</ele>
        <time>2017-04-29T13:30:56Z</time>
      </trkpt>
      <trkpt lat="41.567813" lon="1.808036">
        <ele>432.089</ele>
        <time>2017-04-29T13:31:04Z</time>
      </trkpt>
      <trkpt lat="41.567763" lon="1.807926">
        <ele>433.079</ele>
        <time>2017-04-29T13:31:11Z</time>
      </trkpt>
      <trkpt lat="41.567701" lon="1.807815">
        <ele>432.01</ele>
        <time>2017-04-29T13:31:16Z</time>
      </trkpt>
      <trkpt lat="41.567676" lon="1.807693">
        <ele>433.037</ele>
        <time>2017-04-29T13:31:20Z</time>
      </trkpt>
      <trkpt lat="41.56768" lon="1.807556">
        <ele>434.086</ele>
        <time>2017-04-29T13:31:25Z</time>
      </trkpt>
      <trkpt lat="41.567716" lon="1.807435">
        <ele>434.06</ele>
        <time>2017-04-29T13:31:29Z</time>
      </trkpt>
      <trkpt lat="41.567754" lon="1.807322">
        <ele>433.026</ele>
        <time>2017-04-29T13:31:33Z</time>
      </trkpt>
      <trkpt lat="41.567789" lon="1.807185">
        <ele>433.008</ele>
        <time>2017-04-29T13:31:38Z</time>
      </trkpt>
      <trkpt lat="41.56783" lon="1.807049">
        <ele>434.039</ele>
        <time>2017-04-29T13:31:43Z</time>
      </trkpt>
      <trkpt lat="41.567858" lon="1.806904">
        <ele>436.045</ele>
        <time>2017-04-29T13:31:48Z</time>
      </trkpt>
      <trkpt lat="41.56789" lon="1.806765">
        <ele>438.082</ele>
        <time>2017-04-29T13:31:53Z</time>
      </trkpt>
      <trkpt lat="41.567924" lon="1.806641">
        <ele>438.095</ele>
        <time>2017-04-29T13:31:57Z</time>
      </trkpt>
      <trkpt lat="41.567956" lon="1.806523">
        <ele>438.074</ele>
        <time>2017-04-29T13:32:01Z</time>
      </trkpt>
      <trkpt lat="41.567986" lon="1.806401">
        <ele>440.064</ele>
        <time>2017-04-29T13:32:05Z</time>
      </trkpt>
      <trkpt lat="41.56801" lon="1.806282">
        <ele>441.055</ele>
        <time>2017-04-29T13:32:09Z</time>
      </trkpt>
      <trkpt lat="41.568041" lon="1.806164">
        <ele>442.062</ele>
        <time>2017-04-29T13:32:13Z</time>
      </trkpt>
      <trkpt lat="41.568074" lon="1.806035">
        <ele>444.059</ele>
        <time>2017-04-29T13:32:18Z</time>
      </trkpt>
      <trkpt lat="41.568117" lon="1.80591">
        <ele>445.003</ele>
        <time>2017-04-29T13:32:23Z</time>
      </trkpt>
      <trkpt lat="41.568165" lon="1.805778">
        <ele>445.023</ele>
        <time>2017-04-29T13:32:28Z</time>
      </trkpt>
      <trkpt lat="41.568212" lon="1.805672">
        <ele>443.008</ele>
        <time>2017-04-29T13:32:33Z</time>
      </trkpt>
      <trkpt lat="41.568238" lon="1.805552">
        <ele>443.066</ele>
        <time>2017-04-29T13:32:41Z</time>
      </trkpt>
      <trkpt lat="41.56827" lon="1.805428">
        <ele>445.012</ele>
        <time>2017-04-29T13:32:49Z</time>
      </trkpt>
      <trkpt lat="41.568309" lon="1.805313">
        <ele>447.039</ele>
        <time>2017-04-29T13:32:55Z</time>
      </trkpt>
      <trkpt lat="41.568339" lon="1.80517">
        <ele>453.032</ele>
        <time>2017-04-29T13:33:03Z</time>
      </trkpt>
      <trkpt lat="41.568372" lon="1.805038">
        <ele>453.071</ele>
        <time>2017-04-29T13:33:07Z</time>
      </trkpt>
      <trkpt lat="41.568419" lon="1.804911">
        <ele>454.081</ele>
        <time>2017-04-29T13:33:12Z</time>
      </trkpt>
      <trkpt lat="41.568448" lon="1.804789">
        <ele>454.082</ele>
        <time>2017-04-29T13:33:16Z</time>
      </trkpt>
      <trkpt lat="41.568495" lon="1.804653">
        <ele>456.079</ele>
        <time>2017-04-29T13:33:21Z</time>
      </trkpt>
      <trkpt lat="41.568535" lon="1.804518">
        <ele>457.016</ele>
        <time>2017-04-29T13:33:25Z</time>
      </trkpt>
      <trkpt lat="41.568568" lon="1.804374">
        <ele>457.076</ele>
        <time>2017-04-29T13:33:29Z</time>
      </trkpt>
      <trkpt lat="41.568589" lon="1.804252">
        <ele>455.013</ele>
        <time>2017-04-29T13:33:32Z</time>
      </trkpt>
      <trkpt lat="41.568615" lon="1.804115">
        <ele>456.008</ele>
        <time>2017-04-29T13:33:36Z</time>
      </trkpt>
      <trkpt lat="41.568653" lon="1.803988">
        <ele>458.012</ele>
        <time>2017-04-29T13:33:40Z</time>
      </trkpt>
      <trkpt lat="41.568683" lon="1.80386">
        <ele>459.038</ele>
        <time>2017-04-29T13:33:44Z</time>
      </trkpt>
      <trkpt lat="41.568713" lon="1.803744">
        <ele>458.085</ele>
        <time>2017-04-29T13:33:47Z</time>
      </trkpt>
      <trkpt lat="41.568731" lon="1.803608">
        <ele>458.098</ele>
        <time>2017-04-29T13:33:51Z</time>
      </trkpt>
      <trkpt lat="41.568755" lon="1.803461">
        <ele>459.077</ele>
        <time>2017-04-29T13:33:55Z</time>
      </trkpt>
      <trkpt lat="41.56877" lon="1.803324">
        <ele>460.017</ele>
        <time>2017-04-29T13:33:59Z</time>
      </trkpt>
      <trkpt lat="41.568796" lon="1.803202">
        <ele>460.018</ele>
        <time>2017-04-29T13:34:02Z</time>
      </trkpt>
      <trkpt lat="41.568824" lon="1.803056">
        <ele>457.045</ele>
        <time>2017-04-29T13:34:05Z</time>
      </trkpt>
      <trkpt lat="41.568839" lon="1.802923">
        <ele>458.015</ele>
        <time>2017-04-29T13:34:09Z</time>
      </trkpt>
      <trkpt lat="41.568856" lon="1.802774">
        <ele>458.065</ele>
        <time>2017-04-29T13:34:13Z</time>
      </trkpt>
      <trkpt lat="41.568872" lon="1.802621">
        <ele>457.011</ele>
        <time>2017-04-29T13:34:17Z</time>
      </trkpt>
      <trkpt lat="41.568879" lon="1.802469">
        <ele>458.008</ele>
        <time>2017-04-29T13:34:22Z</time>
      </trkpt>
      <trkpt lat="41.568895" lon="1.802349">
        <ele>457.022</ele>
        <time>2017-04-29T13:34:25Z</time>
      </trkpt>
      <trkpt lat="41.568914" lon="1.802193">
        <ele>455.068</ele>
        <time>2017-04-29T13:34:29Z</time>
      </trkpt>
      <trkpt lat="41.568925" lon="1.802064">
        <ele>455.045</ele>
        <time>2017-04-29T13:34:32Z</time>
      </trkpt>
      <trkpt lat="41.568935" lon="1.801927">
        <ele>455.078</ele>
        <time>2017-04-29T13:34:35Z</time>
      </trkpt>
      <trkpt lat="41.568934" lon="1.801804">
        <ele>456.017</ele>
        <time>2017-04-29T13:34:38Z</time>
      </trkpt>
      <trkpt lat="41.568937" lon="1.801676">
        <ele>456.077</ele>
        <time>2017-04-29T13:34:41Z</time>
      </trkpt>
      <trkpt lat="41.568945" lon="1.801531">
        <ele>456.058</ele>
        <time>2017-04-29T13:34:44Z</time>
      </trkpt>
      <trkpt lat="41.568953" lon="1.801379">
        <ele>458.035</ele>
        <time>2017-04-29T13:34:48Z</time>
      </trkpt>
      <trkpt lat="41.568959" lon="1.801254">
        <ele>459.068</ele>
        <time>2017-04-29T13:34:51Z</time>
      </trkpt>
      <trkpt lat="41.568971" lon="1.80113">
        <ele>459.042</ele>
        <time>2017-04-29T13:34:54Z</time>
      </trkpt>
      <trkpt lat="41.568989" lon="1.801006">
        <ele>457.026</ele>
        <time>2017-04-29T13:34:57Z</time>
      </trkpt>
      <trkpt lat="41.568999" lon="1.800871">
        <ele>458.008</ele>
        <time>2017-04-29T13:35:00Z</time>
      </trkpt>
      <trkpt lat="41.569004" lon="1.800733">
        <ele>458.037</ele>
        <time>2017-04-29T13:35:03Z</time>
      </trkpt>
      <trkpt lat="41.569007" lon="1.800602">
        <ele>459.043</ele>
        <time>2017-04-29T13:35:06Z</time>
      </trkpt>
      <trkpt lat="41.56902" lon="1.80046">
        <ele>460.07</ele>
        <time>2017-04-29T13:35:09Z</time>
      </trkpt>
      <trkpt lat="41.569038" lon="1.800299">
        <ele>459.013</ele>
        <time>2017-04-29T13:35:13Z</time>
      </trkpt>
      <trkpt lat="41.569054" lon="1.800161">
        <ele>458.042</ele>
        <time>2017-04-29T13:35:16Z</time>
      </trkpt>
      <trkpt lat="41.569065" lon="1.800031">
        <ele>458.092</ele>
        <time>2017-04-29T13:35:19Z</time>
      </trkpt>
      <trkpt lat="41.569068" lon="1.799902">
        <ele>460.023</ele>
        <time>2017-04-29T13:35:22Z</time>
      </trkpt>
      <trkpt lat="41.569071" lon="1.799775">
        <ele>460.07</ele>
        <time>2017-04-29T13:35:25Z</time>
      </trkpt>
      <trkpt lat="41.569074" lon="1.799623">
        <ele>462.096</ele>
        <time>2017-04-29T13:35:29Z</time>
      </trkpt>
      <trkpt lat="41.569083" lon="1.799495">
        <ele>462.031</ele>
        <time>2017-04-29T13:35:32Z</time>
      </trkpt>
      <trkpt lat="41.569105" lon="1.799357">
        <ele>461.024</ele>
        <time>2017-04-29T13:35:35Z</time>
      </trkpt>
      <trkpt lat="41.569127" lon="1.799231">
        <ele>461.008</ele>
        <time>2017-04-29T13:35:38Z</time>
      </trkpt>
      <trkpt lat="41.569131" lon="1.799078">
        <ele>462.03</ele>
        <time>2017-04-29T13:35:42Z</time>
      </trkpt>
      <trkpt lat="41.569162" lon="1.798925">
        <ele>464.046</ele>
        <time>2017-04-29T13:35:46Z</time>
      </trkpt>
      <trkpt lat="41.569183" lon="1.798795">
        <ele>464.043</ele>
        <time>2017-04-29T13:35:49Z</time>
      </trkpt>
      <trkpt lat="41.569204" lon="1.798657">
        <ele>464.066</ele>
        <time>2017-04-29T13:35:52Z</time>
      </trkpt>
      <trkpt lat="41.569236" lon="1.798523">
        <ele>463.025</ele>
        <time>2017-04-29T13:35:55Z</time>
      </trkpt>
      <trkpt lat="41.569251" lon="1.798391">
        <ele>463.045</ele>
        <time>2017-04-29T13:35:58Z</time>
      </trkpt>
      <trkpt lat="41.569262" lon="1.798263">
        <ele>463.026</ele>
        <time>2017-04-29T13:36:01Z</time>
      </trkpt>
      <trkpt lat="41.569287" lon="1.79814">
        <ele>462.023</ele>
        <time>2017-04-29T13:36:03Z</time>
      </trkpt>
      <trkpt lat="41.56931" lon="1.798014">
        <ele>461.066</ele>
        <time>2017-04-29T13:36:06Z</time>
      </trkpt>
      <trkpt lat="41.569343" lon="1.797871">
        <ele>460.029</ele>
        <time>2017-04-29T13:36:09Z</time>
      </trkpt>
      <trkpt lat="41.569381" lon="1.797754">
        <ele>462.021</ele>
        <time>2017-04-29T13:36:12Z</time>
      </trkpt>
      <trkpt lat="41.569423" lon="1.797635">
        <ele>462.008</ele>
        <time>2017-04-29T13:36:15Z</time>
      </trkpt>
      <trkpt lat="41.569466" lon="1.797517">
        <ele>461.037</ele>
        <time>2017-04-29T13:36:18Z</time>
      </trkpt>
      <trkpt lat="41.569516" lon="1.797377">
        <ele>462.093</ele>
        <time>2017-04-29T13:36:22Z</time>
      </trkpt>
      <trkpt lat="41.569567" lon="1.797266">
        <ele>462.01</ele>
        <time>2017-04-29T13:36:25Z</time>
      </trkpt>
      <trkpt lat="41.569603" lon="1.797152">
        <ele>463.033</ele>
        <time>2017-04-29T13:36:28Z</time>
      </trkpt>
      <trkpt lat="41.569658" lon="1.797028">
        <ele>462.072</ele>
        <time>2017-04-29T13:36:31Z</time>
      </trkpt>
      <trkpt lat="41.569706" lon="1.796925">
        <ele>463.082</ele>
        <time>2017-04-29T13:36:34Z</time>
      </trkpt>
      <trkpt lat="41.569764" lon="1.796804">
        <ele>463.053</ele>
        <time>2017-04-29T13:36:37Z</time>
      </trkpt>
      <trkpt lat="41.569818" lon="1.796694">
        <ele>464.07</ele>
        <time>2017-04-29T13:36:41Z</time>
      </trkpt>
      <trkpt lat="41.569877" lon="1.796545">
        <ele>466.042</ele>
        <time>2017-04-29T13:36:45Z</time>
      </trkpt>
      <trkpt lat="41.569926" lon="1.796432">
        <ele>465.022</ele>
        <time>2017-04-29T13:36:48Z</time>
      </trkpt>
      <trkpt lat="41.569976" lon="1.796316">
        <ele>466.014</ele>
        <time>2017-04-29T13:36:51Z</time>
      </trkpt>
      <trkpt lat="41.570026" lon="1.796195">
        <ele>466.008</ele>
        <time>2017-04-29T13:36:54Z</time>
      </trkpt>
      <trkpt lat="41.5701" lon="1.796067">
        <ele>467.035</ele>
        <time>2017-04-29T13:36:58Z</time>
      </trkpt>
      <trkpt lat="41.570153" lon="1.79596">
        <ele>467.041</ele>
        <time>2017-04-29T13:37:01Z</time>
      </trkpt>
      <trkpt lat="41.570211" lon="1.795859">
        <ele>468.048</ele>
        <time>2017-04-29T13:37:04Z</time>
      </trkpt>
      <trkpt lat="41.570277" lon="1.795729">
        <ele>469.011</ele>
        <time>2017-04-29T13:37:08Z</time>
      </trkpt>
      <trkpt lat="41.570332" lon="1.795617">
        <ele>468.03</ele>
        <time>2017-04-29T13:37:11Z</time>
      </trkpt>
      <trkpt lat="41.570389" lon="1.795505">
        <ele>467.01</ele>
        <time>2017-04-29T13:37:14Z</time>
      </trkpt>
      <trkpt lat="41.570446" lon="1.795389">
        <ele>467.071</ele>
        <time>2017-04-29T13:37:17Z</time>
      </trkpt>
      <trkpt lat="41.5705" lon="1.795271">
        <ele>467.048</ele>
        <time>2017-04-29T13:37:20Z</time>
      </trkpt>
      <trkpt lat="41.570556" lon="1.795161">
        <ele>466.081</ele>
        <time>2017-04-29T13:37:23Z</time>
      </trkpt>
      <trkpt lat="41.570615" lon="1.795047">
        <ele>466.061</ele>
        <time>2017-04-29T13:37:26Z</time>
      </trkpt>
      <trkpt lat="41.570679" lon="1.794942">
        <ele>466.017</ele>
        <time>2017-04-29T13:37:29Z</time>
      </trkpt>
      <trkpt lat="41.570733" lon="1.794828">
        <ele>467.008</ele>
        <time>2017-04-29T13:37:32Z</time>
      </trkpt>
      <trkpt lat="41.570791" lon="1.79471">
        <ele>467.019</ele>
        <time>2017-04-29T13:37:35Z</time>
      </trkpt>
      <trkpt lat="41.570852" lon="1.794605">
        <ele>467.035</ele>
        <time>2017-04-29T13:37:38Z</time>
      </trkpt>
      <trkpt lat="41.570911" lon="1.794459">
        <ele>466.012</ele>
        <time>2017-04-29T13:37:41Z</time>
      </trkpt>
      <trkpt lat="41.570968" lon="1.794351">
        <ele>466.075</ele>
        <time>2017-04-29T13:37:44Z</time>
      </trkpt>
      <trkpt lat="41.571029" lon="1.794248">
        <ele>467.064</ele>
        <time>2017-04-29T13:37:47Z</time>
      </trkpt>
      <trkpt lat="41.571084" lon="1.794129">
        <ele>467.034</ele>
        <time>2017-04-29T13:37:50Z</time>
      </trkpt>
      <trkpt lat="41.571142" lon="1.794009">
        <ele>466.085</ele>
        <time>2017-04-29T13:37:53Z</time>
      </trkpt>
      <trkpt lat="41.571201" lon="1.793899">
        <ele>466.012</ele>
        <time>2017-04-29T13:37:56Z</time>
      </trkpt>
      <trkpt lat="41.571257" lon="1.793789">
        <ele>467.059</ele>
        <time>2017-04-29T13:37:59Z</time>
      </trkpt>
      <trkpt lat="41.571309" lon="1.793678">
        <ele>468.003</ele>
        <time>2017-04-29T13:38:02Z</time>
      </trkpt>
      <trkpt lat="41.571366" lon="1.793565">
        <ele>469.023</ele>
        <time>2017-04-29T13:38:05Z</time>
      </trkpt>
      <trkpt lat="41.571427" lon="1.793457">
        <ele>471.008</ele>
        <time>2017-04-29T13:38:08Z</time>
      </trkpt>
      <trkpt lat="41.571493" lon="1.793326">
        <ele>476.066</ele>
        <time>2017-04-29T13:38:13Z</time>
      </trkpt>
      <trkpt lat="41.571585" lon="1.793273">
        <ele>484.022</ele>
        <time>2017-04-29T13:38:18Z</time>
      </trkpt>
      <trkpt lat="41.571642" lon="1.79316">
        <ele>485.069</ele>
        <time>2017-04-29T13:38:21Z</time>
      </trkpt>
      <trkpt lat="41.571686" lon="1.793044">
        <ele>486.072</ele>
        <time>2017-04-29T13:38:24Z</time>
      </trkpt>
      <trkpt lat="41.571748" lon="1.792922">
        <ele>486.071</ele>
        <time>2017-04-29T13:38:27Z</time>
      </trkpt>
      <trkpt lat="41.5718" lon="1.792822">
        <ele>487.081</ele>
        <time>2017-04-29T13:38:30Z</time>
      </trkpt>
      <trkpt lat="41.571849" lon="1.792712">
        <ele>488.032</ele>
        <time>2017-04-29T13:38:33Z</time>
      </trkpt>
      <trkpt lat="41.571911" lon="1.792561">
        <ele>489.069</ele>
        <time>2017-04-29T13:38:37Z</time>
      </trkpt>
      <trkpt lat="41.571966" lon="1.792449">
        <ele>488.073</ele>
        <time>2017-04-29T13:38:40Z</time>
      </trkpt>
      <trkpt lat="41.572014" lon="1.792315">
        <ele>488.085</ele>
        <time>2017-04-29T13:38:43Z</time>
      </trkpt>
      <trkpt lat="41.572071" lon="1.792215">
        <ele>487.013</ele>
        <time>2017-04-29T13:38:45Z</time>
      </trkpt>
      <trkpt lat="41.572129" lon="1.792118">
        <ele>487.008</ele>
        <time>2017-04-29T13:38:48Z</time>
      </trkpt>
      <trkpt lat="41.572194" lon="1.792025">
        <ele>489.078</ele>
        <time>2017-04-29T13:38:52Z</time>
      </trkpt>
      <trkpt lat="41.572271" lon="1.791921">
        <ele>489.044</ele>
        <time>2017-04-29T13:38:56Z</time>
      </trkpt>
      <trkpt lat="41.572335" lon="1.791815">
        <ele>490.091</ele>
        <time>2017-04-29T13:39:00Z</time>
      </trkpt>
      <trkpt lat="41.57241" lon="1.791704">
        <ele>490.034</ele>
        <time>2017-04-29T13:39:05Z</time>
      </trkpt>
      <trkpt lat="41.572467" lon="1.791605">
        <ele>489.043</ele>
        <time>2017-04-29T13:39:08Z</time>
      </trkpt>
      <trkpt lat="41.572536" lon="1.791502">
        <ele>489.073</ele>
        <time>2017-04-29T13:39:12Z</time>
      </trkpt>
      <trkpt lat="41.572606" lon="1.791386">
        <ele>487.074</ele>
        <time>2017-04-29T13:39:16Z</time>
      </trkpt>
      <trkpt lat="41.572686" lon="1.79128">
        <ele>487.031</ele>
        <time>2017-04-29T13:39:21Z</time>
      </trkpt>
      <trkpt lat="41.57276" lon="1.791176">
        <ele>487.059</ele>
        <time>2017-04-29T13:39:26Z</time>
      </trkpt>
      <trkpt lat="41.572827" lon="1.791076">
        <ele>486.003</ele>
        <time>2017-04-29T13:39:30Z</time>
      </trkpt>
      <trkpt lat="41.57289" lon="1.790974">
        <ele>486.023</ele>
        <time>2017-04-29T13:39:34Z</time>
      </trkpt>
      <trkpt lat="41.572956" lon="1.790852">
        <ele>484.008</ele>
        <time>2017-04-29T13:39:39Z</time>
      </trkpt>
      <trkpt lat="41.573006" lon="1.79075">
        <ele>484.096</ele>
        <time>2017-04-29T13:39:43Z</time>
      </trkpt>
      <trkpt lat="41.573031" lon="1.790632">
        <ele>484.062</ele>
        <time>2017-04-29T13:39:47Z</time>
      </trkpt>
      <trkpt lat="41.573058" lon="1.790496">
        <ele>485.019</ele>
        <time>2017-04-29T13:39:52Z</time>
      </trkpt>
      <trkpt lat="41.573115" lon="1.790391">
        <ele>487.062</ele>
        <time>2017-04-29T13:39:56Z</time>
      </trkpt>
      <trkpt lat="41.57319" lon="1.790296">
        <ele>486.091</ele>
        <time>2017-04-29T13:40:00Z</time>
      </trkpt>
      <trkpt lat="41.573255" lon="1.79019">
        <ele>486.011</ele>
        <time>2017-04-29T13:40:04Z</time>
      </trkpt>
      <trkpt lat="41.573315" lon="1.790099">
        <ele>487.042</ele>
        <time>2017-04-29T13:40:08Z</time>
      </trkpt>
      <trkpt lat="41.573375" lon="1.789996">
        <ele>488.079</ele>
        <time>2017-04-29T13:40:12Z</time>
      </trkpt>
      <trkpt lat="41.573446" lon="1.789911">
        <ele>489.058</ele>
        <time>2017-04-29T13:40:16Z</time>
      </trkpt>
      <trkpt lat="41.573504" lon="1.789807">
        <ele>489.052</ele>
        <time>2017-04-29T13:40:20Z</time>
      </trkpt>
      <trkpt lat="41.573574" lon="1.789714">
        <ele>490.017</ele>
        <time>2017-04-29T13:40:24Z</time>
      </trkpt>
      <trkpt lat="41.573647" lon="1.789619">
        <ele>490.008</ele>
        <time>2017-04-29T13:40:28Z</time>
      </trkpt>
      <trkpt lat="41.573716" lon="1.789526">
        <ele>491.026</ele>
        <time>2017-04-29T13:40:32Z</time>
      </trkpt>
      <trkpt lat="41.57378" lon="1.789413">
        <ele>490.032</ele>
        <time>2017-04-29T13:40:36Z</time>
      </trkpt>
      <trkpt lat="41.573845" lon="1.789323">
        <ele>490.089</ele>
        <time>2017-04-29T13:40:40Z</time>
      </trkpt>
      <trkpt lat="41.57391" lon="1.789204">
        <ele>492.082</ele>
        <time>2017-04-29T13:40:45Z</time>
      </trkpt>
      <trkpt lat="41.573972" lon="1.789084">
        <ele>491.011</ele>
        <time>2017-04-29T13:40:49Z</time>
      </trkpt>
      <trkpt lat="41.574027" lon="1.788985">
        <ele>492.021</ele>
        <time>2017-04-29T13:40:53Z</time>
      </trkpt>
      <trkpt lat="41.574104" lon="1.788878">
        <ele>494.052</ele>
        <time>2017-04-29T13:40:58Z</time>
      </trkpt>
      <trkpt lat="41.574157" lon="1.788781">
        <ele>495.079</ele>
        <time>2017-04-29T13:41:02Z</time>
      </trkpt>
      <trkpt lat="41.574214" lon="1.788676">
        <ele>495.097</ele>
        <time>2017-04-29T13:41:06Z</time>
      </trkpt>
      <trkpt lat="41.57428" lon="1.788578">
        <ele>497.023</ele>
        <time>2017-04-29T13:41:11Z</time>
      </trkpt>
      <trkpt lat="41.574344" lon="1.788487">
        <ele>498.025</ele>
        <time>2017-04-29T13:41:15Z</time>
      </trkpt>
      <trkpt lat="41.574407" lon="1.788378">
        <ele>497.008</ele>
        <time>2017-04-29T13:41:19Z</time>
      </trkpt>
      <trkpt lat="41.574475" lon="1.788272">
        <ele>497.06</ele>
        <time>2017-04-29T13:41:23Z</time>
      </trkpt>
      <trkpt lat="41.574538" lon="1.788183">
        <ele>497.056</ele>
        <time>2017-04-29T13:41:27Z</time>
      </trkpt>
      <trkpt lat="41.574603" lon="1.788065">
        <ele>498.083</ele>
        <time>2017-04-29T13:41:31Z</time>
      </trkpt>
      <trkpt lat="41.574649" lon="1.787956">
        <ele>499.066</ele>
        <time>2017-04-29T13:41:35Z</time>
      </trkpt>
      <trkpt lat="41.574698" lon="1.78785">
        <ele>500.035</ele>
        <time>2017-04-29T13:41:39Z</time>
      </trkpt>
      <trkpt lat="41.57475" lon="1.787721">
        <ele>502.075</ele>
        <time>2017-04-29T13:41:44Z</time>
      </trkpt>
      <trkpt lat="41.574802" lon="1.787611">
        <ele>503.026</ele>
        <time>2017-04-29T13:41:49Z</time>
      </trkpt>
      <trkpt lat="41.574843" lon="1.787503">
        <ele>502.013</ele>
        <time>2017-04-29T13:41:53Z</time>
      </trkpt>
      <trkpt lat="41.574873" lon="1.787388">
        <ele>504.011</ele>
        <time>2017-04-29T13:41:57Z</time>
      </trkpt>
      <trkpt lat="41.574908" lon="1.787247">
        <ele>506.021</ele>
        <time>2017-04-29T13:42:02Z</time>
      </trkpt>
      <trkpt lat="41.574929" lon="1.787117">
        <ele>505.003</ele>
        <time>2017-04-29T13:42:06Z</time>
      </trkpt>
      <trkpt lat="41.574954" lon="1.786996">
        <ele>507.008</ele>
        <time>2017-04-29T13:42:11Z</time>
      </trkpt>
      <trkpt lat="41.574976" lon="1.786854">
        <ele>510.072</ele>
        <time>2017-04-29T13:42:16Z</time>
      </trkpt>
      <trkpt lat="41.575004" lon="1.786728">
        <ele>510.048</ele>
        <time>2017-04-29T13:42:20Z</time>
      </trkpt>
      <trkpt lat="41.575022" lon="1.786592">
        <ele>510.065</ele>
        <time>2017-04-29T13:42:24Z</time>
      </trkpt>
      <trkpt lat="41.575041" lon="1.78646">
        <ele>511.078</ele>
        <time>2017-04-29T13:42:28Z</time>
      </trkpt>
      <trkpt lat="41.575065" lon="1.786323">
        <ele>512.057</ele>
        <time>2017-04-29T13:42:33Z</time>
      </trkpt>
      <trkpt lat="41.575077" lon="1.786188">
        <ele>514.017</ele>
        <time>2017-04-29T13:42:37Z</time>
      </trkpt>
      <trkpt lat="41.575115" lon="1.786059">
        <ele>511.018</ele>
        <time>2017-04-29T13:42:41Z</time>
      </trkpt>
      <trkpt lat="41.575138" lon="1.78592">
        <ele>511.055</ele>
        <time>2017-04-29T13:42:45Z</time>
      </trkpt>
      <trkpt lat="41.575161" lon="1.785796">
        <ele>511.036</ele>
        <time>2017-04-29T13:42:49Z</time>
      </trkpt>
      <trkpt lat="41.575162" lon="1.785657">
        <ele>513.017</ele>
        <time>2017-04-29T13:42:54Z</time>
      </trkpt>
      <trkpt lat="41.575176" lon="1.785516">
        <ele>514.018</ele>
        <time>2017-04-29T13:42:58Z</time>
      </trkpt>
      <trkpt lat="41.575201" lon="1.785378">
        <ele>514.008</ele>
        <time>2017-04-29T13:43:02Z</time>
      </trkpt>
      <trkpt lat="41.575241" lon="1.785269">
        <ele>512.084</ele>
        <time>2017-04-29T13:43:05Z</time>
      </trkpt>
      <trkpt lat="41.575286" lon="1.785131">
        <ele>512.05</ele>
        <time>2017-04-29T13:43:10Z</time>
      </trkpt>
      <trkpt lat="41.57535" lon="1.785027">
        <ele>511.087</ele>
        <time>2017-04-29T13:43:14Z</time>
      </trkpt>
      <trkpt lat="41.575402" lon="1.784923">
        <ele>510.07</ele>
        <time>2017-04-29T13:43:17Z</time>
      </trkpt>
      <trkpt lat="41.575459" lon="1.784828">
        <ele>508.019</ele>
        <time>2017-04-29T13:43:20Z</time>
      </trkpt>
      <trkpt lat="41.575504" lon="1.784723">
        <ele>507.059</ele>
        <time>2017-04-29T13:43:23Z</time>
      </trkpt>
      <trkpt lat="41.575559" lon="1.784609">
        <ele>507.05</ele>
        <time>2017-04-29T13:43:27Z</time>
      </trkpt>
      <trkpt lat="41.575614" lon="1.784493">
        <ele>513.087</ele>
        <time>2017-04-29T13:43:32Z</time>
      </trkpt>
      <trkpt lat="41.575667" lon="1.784381">
        <ele>516.023</ele>
        <time>2017-04-29T13:43:38Z</time>
      </trkpt>
      <trkpt lat="41.575728" lon="1.784292">
        <ele>519.083</ele>
        <time>2017-04-29T13:43:42Z</time>
      </trkpt>
      <trkpt lat="41.575794" lon="1.78419">
        <ele>524.011</ele>
        <time>2017-04-29T13:43:48Z</time>
      </trkpt>
      <trkpt lat="41.575839" lon="1.784081">
        <ele>524.008</ele>
        <time>2017-04-29T13:43:51Z</time>
      </trkpt>
      <trkpt lat="41.575889" lon="1.783979">
        <ele>523.063</ele>
        <time>2017-04-29T13:43:54Z</time>
      </trkpt>
      <trkpt lat="41.575927" lon="1.783866">
        <ele>523.039</ele>
        <time>2017-04-29T13:43:58Z</time>
      </trkpt>
      <trkpt lat="41.575993" lon="1.783754">
        <ele>524.016</ele>
        <time>2017-04-29T13:44:03Z</time>
      </trkpt>
      <trkpt lat="41.57606" lon="1.783638">
        <ele>524.049</ele>
        <time>2017-04-29T13:44:08Z</time>
      </trkpt>
      <trkpt lat="41.576128" lon="1.783546">
        <ele>524.018</ele>
        <time>2017-04-29T13:44:12Z</time>
      </trkpt>
      <trkpt lat="41.57619" lon="1.783439">
        <ele>524.078</ele>
        <time>2017-04-29T13:44:16Z</time>
      </trkpt>
      <trkpt lat="41.576263" lon="1.783328">
        <ele>526.079</ele>
        <time>2017-04-29T13:44:21Z</time>
      </trkpt>
      <trkpt lat="41.576334" lon="1.783224">
        <ele>527.026</ele>
        <time>2017-04-29T13:44:26Z</time>
      </trkpt>
      <trkpt lat="41.57639" lon="1.783127">
        <ele>527.055</ele>
        <time>2017-04-29T13:44:30Z</time>
      </trkpt>
      <trkpt lat="41.576448" lon="1.783017">
        <ele>531.007</ele>
        <time>2017-04-29T13:44:35Z</time>
      </trkpt>
      <trkpt lat="41.576515" lon="1.78289">
        <ele>531.017</ele>
        <time>2017-04-29T13:44:40Z</time>
      </trkpt>
      <trkpt lat="41.57658" lon="1.782768">
        <ele>529.008</ele>
        <time>2017-04-29T13:44:44Z</time>
      </trkpt>
      <trkpt lat="41.576639" lon="1.782676">
        <ele>528.036</ele>
        <time>2017-04-29T13:44:48Z</time>
      </trkpt>
      <trkpt lat="41.576711" lon="1.782569">
        <ele>528.092</ele>
        <time>2017-04-29T13:44:53Z</time>
      </trkpt>
      <trkpt lat="41.576778" lon="1.782471">
        <ele>528.049</ele>
        <time>2017-04-29T13:44:57Z</time>
      </trkpt>
      <trkpt lat="41.576868" lon="1.782399">
        <ele>532.042</ele>
        <time>2017-04-29T13:45:02Z</time>
      </trkpt>
      <trkpt lat="41.57693" lon="1.782312">
        <ele>531.051</ele>
        <time>2017-04-29T13:45:05Z</time>
      </trkpt>
      <trkpt lat="41.577017" lon="1.782237">
        <ele>530.041</ele>
        <time>2017-04-29T13:45:09Z</time>
      </trkpt>
      <trkpt lat="41.577095" lon="1.782145">
        <ele>527.042</ele>
        <time>2017-04-29T13:45:12Z</time>
      </trkpt>
      <trkpt lat="41.577181" lon="1.78206">
        <ele>530.059</ele>
        <time>2017-04-29T13:45:17Z</time>
      </trkpt>
      <trkpt lat="41.577254" lon="1.78194">
        <ele>528.094</ele>
        <time>2017-04-29T13:45:21Z</time>
      </trkpt>
      <trkpt lat="41.577331" lon="1.781858">
        <ele>530.057</ele>
        <time>2017-04-29T13:45:26Z</time>
      </trkpt>
      <trkpt lat="41.577413" lon="1.781776">
        <ele>531.022</ele>
        <time>2017-04-29T13:45:31Z</time>
      </trkpt>
      <trkpt lat="41.577493" lon="1.781692">
        <ele>532.008</ele>
        <time>2017-04-29T13:45:35Z</time>
      </trkpt>
      <trkpt lat="41.577572" lon="1.781593">
        <ele>535.03</ele>
        <time>2017-04-29T13:45:40Z</time>
      </trkpt>
      <trkpt lat="41.577663" lon="1.781508">
        <ele>536.036</ele>
        <time>2017-04-29T13:45:45Z</time>
      </trkpt>
      <trkpt lat="41.577746" lon="1.78141">
        <ele>537.033</ele>
        <time>2017-04-29T13:45:50Z</time>
      </trkpt>
      <trkpt lat="41.577822" lon="1.78132">
        <ele>537.096</ele>
        <time>2017-04-29T13:45:54Z</time>
      </trkpt>
      <trkpt lat="41.577892" lon="1.781223">
        <ele>536.025</ele>
        <time>2017-04-29T13:45:58Z</time>
      </trkpt>
      <trkpt lat="41.577979" lon="1.781151">
        <ele>539.025</ele>
        <time>2017-04-29T13:46:03Z</time>
      </trkpt>
      <trkpt lat="41.578048" lon="1.781074">
        <ele>540.026</ele>
        <time>2017-04-29T13:46:07Z</time>
      </trkpt>
      <trkpt lat="41.57813" lon="1.780985">
        <ele>541.053</ele>
        <time>2017-04-29T13:46:12Z</time>
      </trkpt>
      <trkpt lat="41.578219" lon="1.780918">
        <ele>542.043</ele>
        <time>2017-04-29T13:46:17Z</time>
      </trkpt>
      <trkpt lat="41.578315" lon="1.780845">
        <ele>543.064</ele>
        <time>2017-04-29T13:46:22Z</time>
      </trkpt>
      <trkpt lat="41.578413" lon="1.780782">
        <ele>544.01</ele>
        <time>2017-04-29T13:46:27Z</time>
      </trkpt>
      <trkpt lat="41.578513" lon="1.78074">
        <ele>544.008</ele>
        <time>2017-04-29T13:46:32Z</time>
      </trkpt>
      <trkpt lat="41.578608" lon="1.780764">
        <ele>547.025</ele>
        <time>2017-04-29T13:46:38Z</time>
      </trkpt>
      <trkpt lat="41.57867" lon="1.780668">
        <ele>550.091</ele>
        <time>2017-04-29T13:46:45Z</time>
      </trkpt>
      <trkpt lat="41.578763" lon="1.780679">
        <ele>541.088</ele>
        <time>2017-04-29T13:46:58Z</time>
      </trkpt>
      <trkpt lat="41.578854" lon="1.78069">
        <ele>535.071</ele>
        <time>2017-04-29T14:03:56Z</time>
      </trkpt>
      <trkpt lat="41.578935" lon="1.780613">
        <ele>548.06</ele>
        <time>2017-04-29T14:04:19Z</time>
      </trkpt>
      <trkpt lat="41.579035" lon="1.780556">
        <ele>552.02</ele>
        <time>2017-04-29T14:04:25Z</time>
      </trkpt>
      <trkpt lat="41.579134" lon="1.78056">
        <ele>550.011</ele>
        <time>2017-04-29T14:04:30Z</time>
      </trkpt>
      <trkpt lat="41.579231" lon="1.780507">
        <ele>552.078</ele>
        <time>2017-04-29T14:04:35Z</time>
      </trkpt>
      <trkpt lat="41.579337" lon="1.780459">
        <ele>552.078</ele>
        <time>2017-04-29T14:04:40Z</time>
      </trkpt>
      <trkpt lat="41.579445" lon="1.780436">
        <ele>552.033</ele>
        <time>2017-04-29T14:04:45Z</time>
      </trkpt>
      <trkpt lat="41.579536" lon="1.780403">
        <ele>551.026</ele>
        <time>2017-04-29T14:04:49Z</time>
      </trkpt>
      <trkpt lat="41.579648" lon="1.780334">
        <ele>554.008</ele>
        <time>2017-04-29T14:04:55Z</time>
      </trkpt>
      <trkpt lat="41.57976" lon="1.780281">
        <ele>551.078</ele>
        <time>2017-04-29T14:05:00Z</time>
      </trkpt>
      <trkpt lat="41.57985" lon="1.780281">
        <ele>546.084</ele>
        <time>2017-04-29T14:05:03Z</time>
      </trkpt>
      <trkpt lat="41.579943" lon="1.780251">
        <ele>546.081</ele>
        <time>2017-04-29T14:05:07Z</time>
      </trkpt>
      <trkpt lat="41.580044" lon="1.780225">
        <ele>549.054</ele>
        <time>2017-04-29T14:05:12Z</time>
      </trkpt>
      <trkpt lat="41.58016" lon="1.780169">
        <ele>545.053</ele>
        <time>2017-04-29T14:05:17Z</time>
      </trkpt>
      <trkpt lat="41.580277" lon="1.780124">
        <ele>545.073</ele>
        <time>2017-04-29T14:05:22Z</time>
      </trkpt>
      <trkpt lat="41.580377" lon="1.780102">
        <ele>544.074</ele>
        <time>2017-04-29T14:05:27Z</time>
      </trkpt>
      <trkpt lat="41.580469" lon="1.780096">
        <ele>549.051</ele>
        <time>2017-04-29T14:05:32Z</time>
      </trkpt>
      <trkpt lat="41.580592" lon="1.780078">
        <ele>550.044</ele>
        <time>2017-04-29T14:05:38Z</time>
      </trkpt>
      <trkpt lat="41.580685" lon="1.780068">
        <ele>549.005</ele>
        <time>2017-04-29T14:05:41Z</time>
      </trkpt>
      <trkpt lat="41.580782" lon="1.780036">
        <ele>552.015</ele>
        <time>2017-04-29T14:05:46Z</time>
      </trkpt>
      <trkpt lat="41.580875" lon="1.780014">
        <ele>550.008</ele>
        <time>2017-04-29T14:05:49Z</time>
      </trkpt>
      <trkpt lat="41.580978" lon="1.779972">
        <ele>551.065</ele>
        <time>2017-04-29T14:05:53Z</time>
      </trkpt>
      <trkpt lat="41.581071" lon="1.779979">
        <ele>552.051</ele>
        <time>2017-04-29T14:05:57Z</time>
      </trkpt>
      <trkpt lat="41.581173" lon="1.77996">
        <ele>556.088</ele>
        <time>2017-04-29T14:06:02Z</time>
      </trkpt>
      <trkpt lat="41.581264" lon="1.779934">
        <ele>557.021</ele>
        <time>2017-04-29T14:06:06Z</time>
      </trkpt>
      <trkpt lat="41.581362" lon="1.779864">
        <ele>560.03</ele>
        <time>2017-04-29T14:06:11Z</time>
      </trkpt>
      <trkpt lat="41.581457" lon="1.779824">
        <ele>557.05</ele>
        <time>2017-04-29T14:06:15Z</time>
      </trkpt>
      <trkpt lat="41.581544" lon="1.77978">
        <ele>559.041</ele>
        <time>2017-04-29T14:06:20Z</time>
      </trkpt>
      <trkpt lat="41.581631" lon="1.779686">
        <ele>560.058</ele>
        <time>2017-04-29T14:06:25Z</time>
      </trkpt>
      <trkpt lat="41.581721" lon="1.77962">
        <ele>556.026</ele>
        <time>2017-04-29T14:06:28Z</time>
      </trkpt>
      <trkpt lat="41.581804" lon="1.779558">
        <ele>554.047</ele>
        <time>2017-04-29T14:06:32Z</time>
      </trkpt>
      <trkpt lat="41.581893" lon="1.779513">
        <ele>553.011</ele>
        <time>2017-04-29T14:06:37Z</time>
      </trkpt>
      <trkpt lat="41.581982" lon="1.77946">
        <ele>557.008</ele>
        <time>2017-04-29T14:06:43Z</time>
      </trkpt>
      <trkpt lat="41.582064" lon="1.77939">
        <ele>561.073</ele>
        <time>2017-04-29T14:06:48Z</time>
      </trkpt>
      <trkpt lat="41.582138" lon="1.779294">
        <ele>559.099</ele>
        <time>2017-04-29T14:06:52Z</time>
      </trkpt>
      <trkpt lat="41.582219" lon="1.779214">
        <ele>559.046</ele>
        <time>2017-04-29T14:06:57Z</time>
      </trkpt>
      <trkpt lat="41.582309" lon="1.779149">
        <ele>558.089</ele>
        <time>2017-04-29T14:07:02Z</time>
      </trkpt>
      <trkpt lat="41.582396" lon="1.779075">
        <ele>561.038</ele>
        <time>2017-04-29T14:07:08Z</time>
      </trkpt>
      <trkpt lat="41.582461" lon="1.778989">
        <ele>563.088</ele>
        <time>2017-04-29T14:07:12Z</time>
      </trkpt>
      <trkpt lat="41.582551" lon="1.778927">
        <ele>563.079</ele>
        <time>2017-04-29T14:07:17Z</time>
      </trkpt>
      <trkpt lat="41.582649" lon="1.77886">
        <ele>561.066</ele>
        <time>2017-04-29T14:07:23Z</time>
      </trkpt>
      <trkpt lat="41.582735" lon="1.778817">
        <ele>560.059</ele>
        <time>2017-04-29T14:07:28Z</time>
      </trkpt>
      <trkpt lat="41.582812" lon="1.778732">
        <ele>561.003</ele>
        <time>2017-04-29T14:07:33Z</time>
      </trkpt>
      <trkpt lat="41.582905" lon="1.778658">
        <ele>560.023</ele>
        <time>2017-04-29T14:07:38Z</time>
      </trkpt>
      <trkpt lat="41.582982" lon="1.778594">
        <ele>564.008</ele>
        <time>2017-04-29T14:07:44Z</time>
      </trkpt>
      <trkpt lat="41.583072" lon="1.778545">
        <ele>564.066</ele>
        <time>2017-04-29T14:07:50Z</time>
      </trkpt>
      <trkpt lat="41.583159" lon="1.778476">
        <ele>565.062</ele>
        <time>2017-04-29T14:07:56Z</time>
      </trkpt>
      <trkpt lat="41.583244" lon="1.7784">
        <ele>560.069</ele>
        <time>2017-04-29T14:08:21Z</time>
      </trkpt>
      <trkpt lat="41.583321" lon="1.778334">
        <ele>562.042</ele>
        <time>2017-04-29T14:08:27Z</time>
      </trkpt>
      <trkpt lat="41.583414" lon="1.778283">
        <ele>565.091</ele>
        <time>2017-04-29T14:08:34Z</time>
      </trkpt>
      <trkpt lat="41.583503" lon="1.778212">
        <ele>564.041</ele>
        <time>2017-04-29T14:08:39Z</time>
      </trkpt>
      <trkpt lat="41.5836" lon="1.778143">
        <ele>565.032</ele>
        <time>2017-04-29T14:08:44Z</time>
      </trkpt>
      <trkpt lat="41.583685" lon="1.778092">
        <ele>565.089</ele>
        <time>2017-04-29T14:08:49Z</time>
      </trkpt>
      <trkpt lat="41.583778" lon="1.778045">
        <ele>567.093</ele>
        <time>2017-04-29T14:08:55Z</time>
      </trkpt>
      <trkpt lat="41.583872" lon="1.778007">
        <ele>568.065</ele>
        <time>2017-04-29T14:09:00Z</time>
      </trkpt>
      <trkpt lat="41.583979" lon="1.777975">
        <ele>570.021</ele>
        <time>2017-04-29T14:09:06Z</time>
      </trkpt>
      <trkpt lat="41.584073" lon="1.777941">
        <ele>572.008</ele>
        <time>2017-04-29T14:09:11Z</time>
      </trkpt>
      <trkpt lat="41.584164" lon="1.777913">
        <ele>571.01</ele>
        <time>2017-04-29T14:09:15Z</time>
      </trkpt>
      <trkpt lat="41.584256" lon="1.777884">
        <ele>569.046</ele>
        <time>2017-04-29T14:09:19Z</time>
      </trkpt>
      <trkpt lat="41.584353" lon="1.777844">
        <ele>569.013</ele>
        <time>2017-04-29T14:09:24Z</time>
      </trkpt>
      <trkpt lat="41.584439" lon="1.777779">
        <ele>569.016</ele>
        <time>2017-04-29T14:09:28Z</time>
      </trkpt>
      <trkpt lat="41.584535" lon="1.777721">
        <ele>571.035</ele>
        <time>2017-04-29T14:09:33Z</time>
      </trkpt>
      <trkpt lat="41.584617" lon="1.777666">
        <ele>570.035</ele>
        <time>2017-04-29T14:09:37Z</time>
      </trkpt>
      <trkpt lat="41.584696" lon="1.777601">
        <ele>569.096</ele>
        <time>2017-04-29T14:09:41Z</time>
      </trkpt>
      <trkpt lat="41.584788" lon="1.777527">
        <ele>570.013</ele>
        <time>2017-04-29T14:09:46Z</time>
      </trkpt>
      <trkpt lat="41.584872" lon="1.777447">
        <ele>572.022</ele>
        <time>2017-04-29T14:09:50Z</time>
      </trkpt>
      <trkpt lat="41.584951" lon="1.777362">
        <ele>572.062</ele>
        <time>2017-04-29T14:09:55Z</time>
      </trkpt>
      <trkpt lat="41.585035" lon="1.777272">
        <ele>569.008</ele>
        <time>2017-04-29T14:09:59Z</time>
      </trkpt>
      <trkpt lat="41.585114" lon="1.777197">
        <ele>571.008</ele>
        <time>2017-04-29T14:10:05Z</time>
      </trkpt>
      <trkpt lat="41.585193" lon="1.777139">
        <ele>572.093</ele>
        <time>2017-04-29T14:10:10Z</time>
      </trkpt>
      <trkpt lat="41.58528" lon="1.777072">
        <ele>576.089</ele>
        <time>2017-04-29T14:10:15Z</time>
      </trkpt>
      <trkpt lat="41.585355" lon="1.776997">
        <ele>575.056</ele>
        <time>2017-04-29T14:10:20Z</time>
      </trkpt>
      <trkpt lat="41.585429" lon="1.776925">
        <ele>575.089</ele>
        <time>2017-04-29T14:10:24Z</time>
      </trkpt>
      <trkpt lat="41.585521" lon="1.776837">
        <ele>573.038</ele>
        <time>2017-04-29T14:10:29Z</time>
      </trkpt>
      <trkpt lat="41.585601" lon="1.776757">
        <ele>575.098</ele>
        <time>2017-04-29T14:10:34Z</time>
      </trkpt>
      <trkpt lat="41.58569" lon="1.776694">
        <ele>576.059</ele>
        <time>2017-04-29T14:10:39Z</time>
      </trkpt>
      <trkpt lat="41.585776" lon="1.776621">
        <ele>578.046</ele>
        <time>2017-04-29T14:10:44Z</time>
      </trkpt>
      <trkpt lat="41.58585" lon="1.776544">
        <ele>577.028</ele>
        <time>2017-04-29T14:10:48Z</time>
      </trkpt>
      <trkpt lat="41.585922" lon="1.776466">
        <ele>576.089</ele>
        <time>2017-04-29T14:10:52Z</time>
      </trkpt>
      <trkpt lat="41.586" lon="1.776398">
        <ele>576.017</ele>
        <time>2017-04-29T14:10:56Z</time>
      </trkpt>
      <trkpt lat="41.586088" lon="1.776311">
        <ele>579.008</ele>
        <time>2017-04-29T14:11:04Z</time>
      </trkpt>
      <trkpt lat="41.586152" lon="1.776226">
        <ele>580.023</ele>
        <time>2017-04-29T14:11:09Z</time>
      </trkpt>
      <trkpt lat="41.586233" lon="1.776139">
        <ele>582.059</ele>
        <time>2017-04-29T14:11:15Z</time>
      </trkpt>
      <trkpt lat="41.586327" lon="1.77607">
        <ele>585.086</ele>
        <time>2017-04-29T14:11:21Z</time>
      </trkpt>
      <trkpt lat="41.586385" lon="1.776022">
        <ele>516.096</ele>
        <time>2014-10-19T07:00:07Z</time>
      </trkpt>
      <trkpt lat="41.586487" lon="1.775924">
        <ele>517.093</ele>
        <time>2014-10-19T07:00:11Z</time>
      </trkpt>
      <trkpt lat="41.586587" lon="1.775824">
        <ele>518.036</ele>
        <time>2014-10-19T07:00:15Z</time>
      </trkpt>
      <trkpt lat="41.58668" lon="1.77572">
        <ele>520.072</ele>
        <time>2014-10-19T07:00:19Z</time>
      </trkpt>
      <trkpt lat="41.586767" lon="1.775606">
        <ele>521.013</ele>
        <time>2014-10-19T07:00:23Z</time>
      </trkpt>
      <trkpt lat="41.586848" lon="1.775487">
        <ele>522.014</ele>
        <time>2014-10-19T07:00:27Z</time>
      </trkpt>
      <trkpt lat="41.586917" lon="1.775366">
        <ele>523.007</ele>
        <time>2014-10-19T07:00:31Z</time>
      </trkpt>
      <trkpt lat="41.586983" lon="1.775244">
        <ele>523.095</ele>
        <time>2014-10-19T07:00:35Z</time>
      </trkpt>
      <trkpt lat="41.587053" lon="1.775121">
        <ele>524.047</ele>
        <time>2014-10-19T07:00:39Z</time>
      </trkpt>
      <trkpt lat="41.587133" lon="1.775004">
        <ele>525.013</ele>
        <time>2014-10-19T07:00:43Z</time>
      </trkpt>
      <trkpt lat="41.587225" lon="1.774916">
        <ele>525.097</ele>
        <time>2014-10-19T07:00:47Z</time>
      </trkpt>
      <trkpt lat="41.587327" lon="1.774849">
        <ele>526.08</ele>
        <time>2014-10-19T07:00:51Z</time>
      </trkpt>
      <trkpt lat="41.587436" lon="1.774818">
        <ele>526.097</ele>
        <time>2014-10-19T07:00:55Z</time>
      </trkpt>
      <trkpt lat="41.587545" lon="1.77481">
        <ele>526.14</ele>
        <time>2014-10-19T07:01:00Z</time>
      </trkpt>
      <trkpt lat="41.587643" lon="1.774818">
        <ele>527.848</ele>
        <time>2014-10-19T07:01:05Z</time>
      </trkpt>
      <trkpt lat="41.587736" lon="1.774826">
        <ele>529.061</ele>
        <time>2014-10-19T07:01:09Z</time>
      </trkpt>
      <trkpt lat="41.587831" lon="1.774819">
        <ele>530.017</ele>
        <time>2014-10-19T07:01:13Z</time>
      </trkpt>
      <trkpt lat="41.587931" lon="1.774781">
        <ele>530.007</ele>
        <time>2014-10-19T07:01:17Z</time>
      </trkpt>
      <trkpt lat="41.588024" lon="1.774724">
        <ele>531.072</ele>
        <time>2014-10-19T07:01:21Z</time>
      </trkpt>
      <trkpt lat="41.588123" lon="1.774658">
        <ele>532.414</ele>
        <time>2014-10-19T07:01:25Z</time>
      </trkpt>
      <trkpt lat="41.588215" lon="1.774592">
        <ele>533.26</ele>
        <time>2014-10-19T07:01:29Z</time>
      </trkpt>
      <trkpt lat="41.588303" lon="1.774535">
        <ele>534.154</ele>
        <time>2014-10-19T07:01:33Z</time>
      </trkpt>
      <trkpt lat="41.588386" lon="1.774478">
        <ele>533.087</ele>
        <time>2014-10-19T07:01:36Z</time>
      </trkpt>
      <trkpt lat="41.588489" lon="1.774406">
        <ele>534.014</ele>
        <time>2014-10-19T07:01:40Z</time>
      </trkpt>
      <trkpt lat="41.588602" lon="1.774325">
        <ele>535.057</ele>
        <time>2014-10-19T07:01:44Z</time>
      </trkpt>
      <trkpt lat="41.588719" lon="1.774225">
        <ele>537.021</ele>
        <time>2014-10-19T07:01:48Z</time>
      </trkpt>
      <trkpt lat="41.588835" lon="1.774119">
        <ele>537.041</ele>
        <time>2014-10-19T07:01:52Z</time>
      </trkpt>
      <trkpt lat="41.58894" lon="1.774008">
        <ele>538.005</ele>
        <time>2014-10-19T07:01:56Z</time>
      </trkpt>
      <trkpt lat="41.589037" lon="1.773899">
        <ele>539.007</ele>
        <time>2014-10-19T07:02:00Z</time>
      </trkpt>
      <trkpt lat="41.589132" lon="1.773802">
        <ele>539.06</ele>
        <time>2014-10-19T07:02:04Z</time>
      </trkpt>
      <trkpt lat="41.589221" lon="1.773701">
        <ele>540.012</ele>
        <time>2014-10-19T07:02:08Z</time>
      </trkpt>
      <trkpt lat="41.5893" lon="1.77361">
        <ele>540.418</ele>
        <time>2014-10-19T07:02:13Z</time>
      </trkpt>
      <trkpt lat="41.589372" lon="1.773528">
        <ele>540.772</ele>
        <time>2014-10-19T07:02:18Z</time>
      </trkpt>
      <trkpt lat="41.589457" lon="1.773457">
        <ele>541.545</ele>
        <time>2014-10-19T07:02:23Z</time>
      </trkpt>
      <trkpt lat="41.589548" lon="1.773398">
        <ele>542.162</ele>
        <time>2014-10-19T07:02:30Z</time>
      </trkpt>
      <trkpt lat="41.589689" lon="1.773328">
        <ele>543.025</ele>
        <time>2014-10-19T07:02:38Z</time>
      </trkpt>
      <trkpt lat="41.58978" lon="1.773288">
        <ele>543.076</ele>
        <time>2014-10-19T07:02:42Z</time>
      </trkpt>
      <trkpt lat="41.589885" lon="1.773235">
        <ele>543.09</ele>
        <time>2014-10-19T07:02:46Z</time>
      </trkpt>
      <trkpt lat="41.590015" lon="1.773155">
        <ele>544.019</ele>
        <time>2014-10-19T07:02:51Z</time>
      </trkpt>
      <trkpt lat="41.590095" lon="1.773097">
        <ele>545.407</ele>
        <time>2014-10-19T07:02:55Z</time>
      </trkpt>
      <trkpt lat="41.590172" lon="1.773008">
        <ele>546.445</ele>
        <time>2014-10-19T07:02:59Z</time>
      </trkpt>
      <trkpt lat="41.590242" lon="1.772923">
        <ele>546.947</ele>
        <time>2014-10-19T07:03:03Z</time>
      </trkpt>
      <trkpt lat="41.590315" lon="1.772833">
        <ele>548.443</ele>
        <time>2014-10-19T07:03:07Z</time>
      </trkpt>
      <trkpt lat="41.590387" lon="1.772753">
        <ele>549.167</ele>
        <time>2014-10-19T07:03:11Z</time>
      </trkpt>
      <trkpt lat="41.590485" lon="1.7727">
        <ele>549.75</ele>
        <time>2014-10-19T07:03:15Z</time>
      </trkpt>
      <trkpt lat="41.590618" lon="1.772614">
        <ele>549.087</ele>
        <time>2014-10-19T07:03:21Z</time>
      </trkpt>
      <trkpt lat="41.590768" lon="1.77259">
        <ele>551.25</ele>
        <time>2014-10-19T07:03:28Z</time>
      </trkpt>
      <trkpt lat="41.59086" lon="1.772584">
        <ele>551.064</ele>
        <time>2014-10-19T07:03:31Z</time>
      </trkpt>
      <trkpt lat="41.590967" lon="1.772558">
        <ele>551.006</ele>
        <time>2014-10-19T07:03:35Z</time>
      </trkpt>
      <trkpt lat="41.591071" lon="1.772517">
        <ele>552.016</ele>
        <time>2014-10-19T07:03:39Z</time>
      </trkpt>
      <trkpt lat="41.591168" lon="1.772455">
        <ele>552.507</ele>
        <time>2014-10-19T07:03:44Z</time>
      </trkpt>
      <trkpt lat="41.591319" lon="1.772337">
        <ele>553.054</ele>
        <time>2014-10-19T07:03:50Z</time>
      </trkpt>
      <trkpt lat="41.591436" lon="1.772264">
        <ele>553.016</ele>
        <time>2014-10-19T07:03:54Z</time>
      </trkpt>
      <trkpt lat="41.591542" lon="1.772184">
        <ele>553.072</ele>
        <time>2014-10-19T07:03:58Z</time>
      </trkpt>
      <trkpt lat="41.591663" lon="1.772067">
        <ele>553.066</ele>
        <time>2014-10-19T07:04:02Z</time>
      </trkpt>
      <trkpt lat="41.591798" lon="1.771941">
        <ele>552.099</ele>
        <time>2014-10-19T07:04:06Z</time>
      </trkpt>
      <trkpt lat="41.591955" lon="1.771786">
        <ele>552.086</ele>
        <time>2014-10-19T07:04:10Z</time>
      </trkpt>
      <trkpt lat="41.592115" lon="1.771626">
        <ele>551.079</ele>
        <time>2014-10-19T07:04:14Z</time>
      </trkpt>
      <trkpt lat="41.592301" lon="1.771489">
        <ele>550.098</ele>
        <time>2014-10-19T07:04:18Z</time>
      </trkpt>
      <trkpt lat="41.59249" lon="1.771383">
        <ele>549.015</ele>
        <time>2014-10-19T07:04:22Z</time>
      </trkpt>
      <trkpt lat="41.592656" lon="1.771318">
        <ele>549.026</ele>
        <time>2014-10-19T07:04:26Z</time>
      </trkpt>
      <trkpt lat="41.592829" lon="1.771261">
        <ele>548.007</ele>
        <time>2014-10-19T07:04:30Z</time>
      </trkpt>
      <trkpt lat="41.592987" lon="1.77123">
        <ele>548.077</ele>
        <time>2014-10-19T07:04:34Z</time>
      </trkpt>
      <trkpt lat="41.59314" lon="1.771192">
        <ele>548.089</ele>
        <time>2014-10-19T07:04:38Z</time>
      </trkpt>
      <trkpt lat="41.593303" lon="1.771125">
        <ele>548.015</ele>
        <time>2014-10-19T07:04:42Z</time>
      </trkpt>
      <trkpt lat="41.593457" lon="1.771075">
        <ele>547.069</ele>
        <time>2014-10-19T07:04:46Z</time>
      </trkpt>
      <trkpt lat="41.593603" lon="1.771046">
        <ele>548.042</ele>
        <time>2014-10-19T07:04:50Z</time>
      </trkpt>
      <trkpt lat="41.593688" lon="1.771165">
        <ele>548.069</ele>
        <time>2014-10-19T07:04:54Z</time>
      </trkpt>
      <trkpt lat="41.593649" lon="1.771285">
        <ele>548.012</ele>
        <time>2014-10-19T07:04:58Z</time>
      </trkpt>
      <trkpt lat="41.593554" lon="1.771364">
        <ele>548.048</ele>
        <time>2014-10-19T07:05:02Z</time>
      </trkpt>
      <trkpt lat="41.59345" lon="1.771434">
        <ele>548.061</ele>
        <time>2014-10-19T07:05:06Z</time>
      </trkpt>
      <trkpt lat="41.593355" lon="1.771493">
        <ele>549.917</ele>
        <time>2014-10-19T07:05:10Z</time>
      </trkpt>
      <trkpt lat="41.593272" lon="1.77155">
        <ele>549.907</ele>
        <time>2014-10-19T07:05:13Z</time>
      </trkpt>
      <trkpt lat="41.593163" lon="1.771595">
        <ele>550.682</ele>
        <time>2014-10-19T07:05:17Z</time>
      </trkpt>
      <trkpt lat="41.593075" lon="1.771622">
        <ele>551.344</ele>
        <time>2014-10-19T07:05:20Z</time>
      </trkpt>
      <trkpt lat="41.592967" lon="1.771673">
        <ele>551.62</ele>
        <time>2014-10-19T07:05:24Z</time>
      </trkpt>
      <trkpt lat="41.592888" lon="1.771738">
        <ele>551.964</ele>
        <time>2014-10-19T07:05:27Z</time>
      </trkpt>
      <trkpt lat="41.592807" lon="1.771807">
        <ele>551.887</ele>
        <time>2014-10-19T07:05:30Z</time>
      </trkpt>
      <trkpt lat="41.592723" lon="1.771872">
        <ele>552.864</ele>
        <time>2014-10-19T07:05:33Z</time>
      </trkpt>
      <trkpt lat="41.592635" lon="1.77197">
        <ele>553.017</ele>
        <time>2014-10-19T07:05:37Z</time>
      </trkpt>
      <trkpt lat="41.592635" lon="1.772095">
        <ele>553.265</ele>
        <time>2014-10-19T07:05:40Z</time>
      </trkpt>
      <trkpt lat="41.59269" lon="1.772203">
        <ele>553.868</ele>
        <time>2014-10-19T07:05:43Z</time>
      </trkpt>
      <trkpt lat="41.59273" lon="1.772347">
        <ele>554.914</ele>
        <time>2014-10-19T07:05:47Z</time>
      </trkpt>
      <trkpt lat="41.592668" lon="1.77244">
        <ele>554.907</ele>
        <time>2014-10-19T07:05:50Z</time>
      </trkpt>
      <trkpt lat="41.592579" lon="1.772493">
        <ele>555.564</ele>
        <time>2014-10-19T07:05:53Z</time>
      </trkpt>
      <trkpt lat="41.592483" lon="1.772542">
        <ele>555.666</ele>
        <time>2014-10-19T07:05:56Z</time>
      </trkpt>
      <trkpt lat="41.592402" lon="1.772598">
        <ele>556.582</ele>
        <time>2014-10-19T07:05:59Z</time>
      </trkpt>
      <trkpt lat="41.592335" lon="1.772687">
        <ele>557.066</ele>
        <time>2014-10-19T07:06:02Z</time>
      </trkpt>
      <trkpt lat="41.592285" lon="1.772805">
        <ele>557.129</ele>
        <time>2014-10-19T07:06:05Z</time>
      </trkpt>
      <trkpt lat="41.592245" lon="1.772932">
        <ele>557.396</ele>
        <time>2014-10-19T07:06:08Z</time>
      </trkpt>
      <trkpt lat="41.592197" lon="1.77305">
        <ele>557.569</ele>
        <time>2014-10-19T07:06:11Z</time>
      </trkpt>
      <trkpt lat="41.592167" lon="1.773167">
        <ele>557.735</ele>
        <time>2014-10-19T07:06:14Z</time>
      </trkpt>
      <trkpt lat="41.592217" lon="1.773298">
        <ele>558.086</ele>
        <time>2014-10-19T07:06:19Z</time>
      </trkpt>
      <trkpt lat="41.59231" lon="1.77328">
        <ele>559.214</ele>
        <time>2014-10-19T07:06:26Z</time>
      </trkpt>
      <trkpt lat="41.5924" lon="1.773292">
        <ele>561.107</ele>
        <time>2014-10-19T07:06:33Z</time>
      </trkpt>
      <trkpt lat="41.592487" lon="1.773222">
        <ele>562.741</ele>
        <time>2014-10-19T07:06:40Z</time>
      </trkpt>
      <trkpt lat="41.592545" lon="1.77313">
        <ele>563.823</ele>
        <time>2014-10-19T07:06:45Z</time>
      </trkpt>
      <trkpt lat="41.592615" lon="1.773025">
        <ele>565.479</ele>
        <time>2014-10-19T07:06:50Z</time>
      </trkpt>
      <trkpt lat="41.59268" lon="1.772928">
        <ele>566.293</ele>
        <time>2014-10-19T07:06:54Z</time>
      </trkpt>
      <trkpt lat="41.59278" lon="1.772877">
        <ele>566.896</ele>
        <time>2014-10-19T07:07:00Z</time>
      </trkpt>
      <trkpt lat="41.59289" lon="1.77284">
        <ele>567.453</ele>
        <time>2014-10-19T07:07:05Z</time>
      </trkpt>
      <trkpt lat="41.592988" lon="1.772792">
        <ele>567.596</ele>
        <time>2014-10-19T07:07:09Z</time>
      </trkpt>
      <trkpt lat="41.593093" lon="1.772743">
        <ele>568.192</ele>
        <time>2014-10-19T07:07:13Z</time>
      </trkpt>
      <trkpt lat="41.593187" lon="1.7727">
        <ele>568.873</ele>
        <time>2014-10-19T07:07:17Z</time>
      </trkpt>
      <trkpt lat="41.593282" lon="1.772655">
        <ele>569.72</ele>
        <time>2014-10-19T07:07:21Z</time>
      </trkpt>
      <trkpt lat="41.593375" lon="1.772657">
        <ele>570.407</ele>
        <time>2014-10-19T07:07:25Z</time>
      </trkpt>
      <trkpt lat="41.593477" lon="1.772688">
        <ele>571.247</ele>
        <time>2014-10-19T07:07:29Z</time>
      </trkpt>
      <trkpt lat="41.593578" lon="1.772708">
        <ele>572.959</ele>
        <time>2014-10-19T07:07:33Z</time>
      </trkpt>
      <trkpt lat="41.593683" lon="1.772715">
        <ele>573.965</ele>
        <time>2014-10-19T07:07:37Z</time>
      </trkpt>
      <trkpt lat="41.593782" lon="1.772703">
        <ele>574.159</ele>
        <time>2014-10-19T07:07:41Z</time>
      </trkpt>
      <trkpt lat="41.59387" lon="1.772668">
        <ele>575.032</ele>
        <time>2014-10-19T07:07:45Z</time>
      </trkpt>
      <trkpt lat="41.593963" lon="1.772645">
        <ele>576.629</ele>
        <time>2014-10-19T07:07:49Z</time>
      </trkpt>
      <trkpt lat="41.594057" lon="1.77262">
        <ele>577.972</ele>
        <time>2014-10-19T07:07:53Z</time>
      </trkpt>
      <trkpt lat="41.594153" lon="1.772625">
        <ele>579.748</ele>
        <time>2014-10-19T07:07:57Z</time>
      </trkpt>
      <trkpt lat="41.594265" lon="1.772643">
        <ele>580.861</ele>
        <time>2014-10-19T07:08:02Z</time>
      </trkpt>
      <trkpt lat="41.594367" lon="1.772668">
        <ele>583.117</ele>
        <time>2014-10-19T07:08:07Z</time>
      </trkpt>
      <trkpt lat="41.594465" lon="1.77268">
        <ele>584.707</ele>
        <time>2014-10-19T07:08:12Z</time>
      </trkpt>
      <trkpt lat="41.594555" lon="1.772695">
        <ele>585.482</ele>
        <time>2014-10-19T07:08:16Z</time>
      </trkpt>
      <trkpt lat="41.59465" lon="1.772723">
        <ele>586.674</ele>
        <time>2014-10-19T07:08:21Z</time>
      </trkpt>
      <trkpt lat="41.594743" lon="1.772725">
        <ele>588.57</ele>
        <time>2014-10-19T07:08:25Z</time>
      </trkpt>
      <trkpt lat="41.594847" lon="1.77272">
        <ele>590.234</ele>
        <time>2014-10-19T07:08:30Z</time>
      </trkpt>
      <trkpt lat="41.594952" lon="1.772708">
        <ele>591.457</ele>
        <time>2014-10-19T07:08:35Z</time>
      </trkpt>
      <trkpt lat="41.595048" lon="1.772677">
        <ele>592.894</ele>
        <time>2014-10-19T07:08:40Z</time>
      </trkpt>
      <trkpt lat="41.595137" lon="1.77263">
        <ele>591.747</ele>
        <time>2014-10-19T07:08:44Z</time>
      </trkpt>
      <trkpt lat="41.595217" lon="1.772573">
        <ele>592.286</ele>
        <time>2014-10-19T07:08:48Z</time>
      </trkpt>
      <trkpt lat="41.595322" lon="1.772539">
        <ele>592.26</ele>
        <time>2014-10-19T07:08:53Z</time>
      </trkpt>
      <trkpt lat="41.595408" lon="1.77249">
        <ele>592.926</ele>
        <time>2014-10-19T07:08:57Z</time>
      </trkpt>
      <trkpt lat="41.595507" lon="1.772433">
        <ele>592.907</ele>
        <time>2014-10-19T07:09:01Z</time>
      </trkpt>
      <trkpt lat="41.595613" lon="1.7724">
        <ele>593.776</ele>
        <time>2014-10-19T07:09:05Z</time>
      </trkpt>
      <trkpt lat="41.595718" lon="1.772362">
        <ele>594.168</ele>
        <time>2014-10-19T07:09:09Z</time>
      </trkpt>
      <trkpt lat="41.595815" lon="1.772335">
        <ele>594.394</ele>
        <time>2014-10-19T07:09:13Z</time>
      </trkpt>
      <trkpt lat="41.59591" lon="1.772327">
        <ele>594.448</ele>
        <time>2014-10-19T07:09:17Z</time>
      </trkpt>
      <trkpt lat="41.596005" lon="1.772328">
        <ele>594.711</ele>
        <time>2014-10-19T07:09:21Z</time>
      </trkpt>
      <trkpt lat="41.59611" lon="1.772335">
        <ele>595.968</ele>
        <time>2014-10-19T07:09:26Z</time>
      </trkpt>
      <trkpt lat="41.596212" lon="1.772332">
        <ele>596.731</ele>
        <time>2014-10-19T07:09:31Z</time>
      </trkpt>
      <trkpt lat="41.596303" lon="1.772335">
        <ele>597.552</ele>
        <time>2014-10-19T07:09:35Z</time>
      </trkpt>
      <trkpt lat="41.596395" lon="1.772342">
        <ele>599.453</ele>
        <time>2014-10-19T07:09:39Z</time>
      </trkpt>
      <trkpt lat="41.596498" lon="1.772322">
        <ele>600.508</ele>
        <time>2014-10-19T07:09:43Z</time>
      </trkpt>
      <trkpt lat="41.596592" lon="1.772322">
        <ele>600.907</ele>
        <time>2014-10-19T07:09:47Z</time>
      </trkpt>
      <trkpt lat="41.596683" lon="1.772347">
        <ele>601.743</ele>
        <time>2014-10-19T07:09:51Z</time>
      </trkpt>
      <trkpt lat="41.596779" lon="1.772373">
        <ele>602.495</ele>
        <time>2014-10-19T07:09:55Z</time>
      </trkpt>
      <trkpt lat="41.59687" lon="1.772398">
        <ele>603.921</ele>
        <time>2014-10-19T07:09:59Z</time>
      </trkpt>
      <trkpt lat="41.596967" lon="1.772402">
        <ele>604.455</ele>
        <time>2014-10-19T07:10:03Z</time>
      </trkpt>
      <trkpt lat="41.597063" lon="1.772393">
        <ele>605.678</ele>
        <time>2014-10-19T07:10:07Z</time>
      </trkpt>
      <trkpt lat="41.59716" lon="1.772393">
        <ele>607.075</ele>
        <time>2014-10-19T07:10:11Z</time>
      </trkpt>
      <trkpt lat="41.597257" lon="1.772417">
        <ele>608.588</ele>
        <time>2014-10-19T07:10:15Z</time>
      </trkpt>
      <trkpt lat="41.597354" lon="1.772433">
        <ele>609.274</ele>
        <time>2014-10-19T07:10:19Z</time>
      </trkpt>
      <trkpt lat="41.597462" lon="1.772447">
        <ele>609.956</ele>
        <time>2014-10-19T07:10:24Z</time>
      </trkpt>
      <trkpt lat="41.597553" lon="1.772447">
        <ele>610.921</ele>
        <time>2014-10-19T07:10:28Z</time>
      </trkpt>
      <trkpt lat="41.597665" lon="1.772435">
        <ele>611.707</ele>
        <time>2014-10-19T07:10:33Z</time>
      </trkpt>
      <trkpt lat="41.597757" lon="1.77242">
        <ele>612.195</ele>
        <time>2014-10-19T07:10:37Z</time>
      </trkpt>
      <trkpt lat="41.597848" lon="1.772413">
        <ele>612.857</ele>
        <time>2014-10-19T07:10:41Z</time>
      </trkpt>
      <trkpt lat="41.597953" lon="1.772393">
        <ele>614.393</ele>
        <time>2014-10-19T07:10:46Z</time>
      </trkpt>
      <trkpt lat="41.598063" lon="1.772387">
        <ele>615.377</ele>
        <time>2014-10-19T07:10:51Z</time>
      </trkpt>
      <trkpt lat="41.598153" lon="1.772393">
        <ele>616.95</ele>
        <time>2014-10-19T07:10:56Z</time>
      </trkpt>
      <trkpt lat="41.598242" lon="1.772367">
        <ele>617.377</ele>
        <time>2014-10-19T07:11:04Z</time>
      </trkpt>
      <trkpt lat="41.598335" lon="1.77238">
        <ele>618.36</ele>
        <time>2014-10-19T07:11:10Z</time>
      </trkpt>
      <trkpt lat="41.598422" lon="1.772418">
        <ele>619.845</ele>
        <time>2014-10-19T07:11:16Z</time>
      </trkpt>
      <trkpt lat="41.598505" lon="1.772368">
        <ele>621.747</ele>
        <time>2014-10-19T07:15:23Z</time>
      </trkpt>
      <trkpt lat="41.598597" lon="1.772337">
        <ele>624.411</ele>
        <time>2014-10-19T07:15:39Z</time>
      </trkpt>
      <trkpt lat="41.598685" lon="1.772298">
        <ele>624.807</ele>
        <time>2014-10-19T07:15:46Z</time>
      </trkpt>
      <trkpt lat="41.598787" lon="1.77225">
        <ele>624.642</ele>
        <time>2014-10-19T07:15:52Z</time>
      </trkpt>
      <trkpt lat="41.59888" lon="1.772242">
        <ele>625.664</ele>
        <time>2014-10-19T07:15:57Z</time>
      </trkpt>
      <trkpt lat="41.598973" lon="1.772235">
        <ele>626.89</ele>
        <time>2014-10-19T07:16:02Z</time>
      </trkpt>
      <trkpt lat="41.599065" lon="1.772255">
        <ele>628.264</ele>
        <time>2014-10-19T07:16:07Z</time>
      </trkpt>
      <trkpt lat="41.599165" lon="1.772282">
        <ele>629.067</ele>
        <time>2014-10-19T07:16:12Z</time>
      </trkpt>
      <trkpt lat="41.599273" lon="1.77231">
        <ele>630.344</ele>
        <time>2014-10-19T07:16:17Z</time>
      </trkpt>
      <trkpt lat="41.599365" lon="1.772332">
        <ele>630.137</ele>
        <time>2014-10-19T07:16:21Z</time>
      </trkpt>
      <trkpt lat="41.599455" lon="1.77235">
        <ele>631.568</ele>
        <time>2014-10-19T07:16:25Z</time>
      </trkpt>
      <trkpt lat="41.599552" lon="1.772378">
        <ele>631.542</ele>
        <time>2014-10-19T07:16:29Z</time>
      </trkpt>
      <trkpt lat="41.599648" lon="1.772395">
        <ele>632.226</ele>
        <time>2014-10-19T07:16:33Z</time>
      </trkpt>
      <trkpt lat="41.599742" lon="1.772413">
        <ele>633.307</ele>
        <time>2014-10-19T07:16:37Z</time>
      </trkpt>
      <trkpt lat="41.599847" lon="1.772433">
        <ele>634.594</ele>
        <time>2014-10-19T07:16:42Z</time>
      </trkpt>
      <trkpt lat="41.599952" lon="1.772424">
        <ele>635.246</ele>
        <time>2014-10-19T07:16:47Z</time>
      </trkpt>
      <trkpt lat="41.600062" lon="1.77241">
        <ele>635.972</ele>
        <time>2014-10-19T07:16:52Z</time>
      </trkpt>
      <trkpt lat="41.600188" lon="1.772467">
        <ele>637.696</ele>
        <time>2014-10-19T07:16:58Z</time>
      </trkpt>
      <trkpt lat="41.600287" lon="1.772539">
        <ele>638.319</ele>
        <time>2014-10-19T07:17:03Z</time>
      </trkpt>
      <trkpt lat="41.600372" lon="1.772583">
        <ele>638.916</ele>
        <time>2014-10-19T07:17:07Z</time>
      </trkpt>
      <trkpt lat="41.60046" lon="1.772628">
        <ele>639.639</ele>
        <time>2014-10-19T07:17:11Z</time>
      </trkpt>
      <trkpt lat="41.60055" lon="1.77266">
        <ele>640.319</ele>
        <time>2014-10-19T07:17:15Z</time>
      </trkpt>
      <trkpt lat="41.600653" lon="1.7727">
        <ele>642.009</ele>
        <time>2014-10-19T07:17:20Z</time>
      </trkpt>
      <trkpt lat="41.600765" lon="1.772727">
        <ele>643.119</ele>
        <time>2014-10-19T07:17:25Z</time>
      </trkpt>
      <trkpt lat="41.600875" lon="1.772753">
        <ele>644.007</ele>
        <time>2014-10-19T07:17:30Z</time>
      </trkpt>
      <trkpt lat="41.60098" lon="1.772788">
        <ele>645.669</ele>
        <time>2014-10-19T07:17:35Z</time>
      </trkpt>
      <trkpt lat="41.601065" lon="1.772832">
        <ele>646.711</ele>
        <time>2014-10-19T07:17:39Z</time>
      </trkpt>
      <trkpt lat="41.60115" lon="1.772872">
        <ele>647.997</ele>
        <time>2014-10-19T07:17:43Z</time>
      </trkpt>
      <trkpt lat="41.601235" lon="1.772922">
        <ele>648.231</ele>
        <time>2014-10-19T07:17:47Z</time>
      </trkpt>
      <trkpt lat="41.601325" lon="1.772947">
        <ele>648.794</ele>
        <time>2014-10-19T07:17:51Z</time>
      </trkpt>
      <trkpt lat="41.601435" lon="1.772977">
        <ele>649.261</ele>
        <time>2014-10-19T07:17:56Z</time>
      </trkpt>
      <trkpt lat="41.601538" lon="1.773015">
        <ele>650.674</ele>
        <time>2014-10-19T07:18:01Z</time>
      </trkpt>
      <trkpt lat="41.601643" lon="1.77307">
        <ele>652.325</ele>
        <time>2014-10-19T07:18:06Z</time>
      </trkpt>
      <trkpt lat="41.60173" lon="1.773117">
        <ele>653.526</ele>
        <time>2014-10-19T07:18:10Z</time>
      </trkpt>
      <trkpt lat="41.601817" lon="1.773163">
        <ele>653.908</ele>
        <time>2014-10-19T07:18:14Z</time>
      </trkpt>
      <trkpt lat="41.601908" lon="1.7732">
        <ele>653.907</ele>
        <time>2014-10-19T07:18:18Z</time>
      </trkpt>
      <trkpt lat="41.602005" lon="1.773207">
        <ele>654.52</ele>
        <time>2014-10-19T07:18:22Z</time>
      </trkpt>
      <trkpt lat="41.6021" lon="1.773182">
        <ele>655.462</ele>
        <time>2014-10-19T07:18:26Z</time>
      </trkpt>
      <trkpt lat="41.602173" lon="1.77311">
        <ele>656.458</ele>
        <time>2014-10-19T07:18:30Z</time>
      </trkpt>
      <trkpt lat="41.60225" lon="1.773025">
        <ele>657.242</ele>
        <time>2014-10-19T07:18:35Z</time>
      </trkpt>
      <trkpt lat="41.60235" lon="1.772957">
        <ele>657.785</ele>
        <time>2014-10-19T07:18:40Z</time>
      </trkpt>
      <trkpt lat="41.602451" lon="1.772916">
        <ele>658.082</ele>
        <time>2014-10-19T07:18:44Z</time>
      </trkpt>
      <trkpt lat="41.602555" lon="1.772895">
        <ele>658.945</ele>
        <time>2014-10-19T07:18:48Z</time>
      </trkpt>
      <trkpt lat="41.602657" lon="1.772884">
        <ele>659.099</ele>
        <time>2014-10-19T07:18:51Z</time>
      </trkpt>
      <trkpt lat="41.602767" lon="1.772875">
        <ele>658.607</ele>
        <time>2014-10-19T07:18:54Z</time>
      </trkpt>
      <trkpt lat="41.602877" lon="1.77287">
        <ele>658.227</ele>
        <time>2014-10-19T07:18:57Z</time>
      </trkpt>
      <trkpt lat="41.602978" lon="1.772868">
        <ele>658.107</ele>
        <time>2014-10-19T07:19:00Z</time>
      </trkpt>
      <trkpt lat="41.603072" lon="1.77286">
        <ele>659.047</ele>
        <time>2014-10-19T07:19:03Z</time>
      </trkpt>
      <trkpt lat="41.603162" lon="1.772872">
        <ele>659.329</ele>
        <time>2014-10-19T07:19:07Z</time>
      </trkpt>
      <trkpt lat="41.603297" lon="1.772865">
        <ele>660.055</ele>
        <time>2014-10-19T07:19:13Z</time>
      </trkpt>
      <trkpt lat="41.603387" lon="1.77286">
        <ele>661.359</ele>
        <time>2014-10-19T07:19:17Z</time>
      </trkpt>
      <trkpt lat="41.60348" lon="1.772865">
        <ele>662.882</ele>
        <time>2014-10-19T07:19:21Z</time>
      </trkpt>
      <trkpt lat="41.603587" lon="1.772873">
        <ele>664.459</ele>
        <time>2014-10-19T07:19:26Z</time>
      </trkpt>
      <trkpt lat="41.603695" lon="1.772847">
        <ele>665.652</ele>
        <time>2014-10-19T07:19:31Z</time>
      </trkpt>
      <trkpt lat="41.603782" lon="1.772762">
        <ele>667.484</ele>
        <time>2014-10-19T07:19:36Z</time>
      </trkpt>
      <trkpt lat="41.603882" lon="1.772702">
        <ele>668.207</ele>
        <time>2014-10-19T07:19:41Z</time>
      </trkpt>
      <trkpt lat="41.60397" lon="1.77267">
        <ele>668.217</ele>
        <time>2014-10-19T07:19:44Z</time>
      </trkpt>
      <trkpt lat="41.604072" lon="1.772647">
        <ele>668.107</ele>
        <time>2014-10-19T07:19:47Z</time>
      </trkpt>
      <trkpt lat="41.60417" lon="1.772627">
        <ele>668.816</ele>
        <time>2014-10-19T07:19:50Z</time>
      </trkpt>
      <trkpt lat="41.604275" lon="1.772608">
        <ele>668.928</ele>
        <time>2014-10-19T07:19:53Z</time>
      </trkpt>
      <trkpt lat="41.604382" lon="1.772592">
        <ele>669.344</ele>
        <time>2014-10-19T07:19:56Z</time>
      </trkpt>
      <trkpt lat="41.60448" lon="1.772563">
        <ele>669.328</ele>
        <time>2014-10-19T07:19:59Z</time>
      </trkpt>
      <trkpt lat="41.604605" lon="1.77253">
        <ele>669.091</ele>
        <time>2014-10-19T07:20:02Z</time>
      </trkpt>
      <trkpt lat="41.604697" lon="1.772492">
        <ele>669.178</ele>
        <time>2014-10-19T07:20:04Z</time>
      </trkpt>
      <trkpt lat="41.604793" lon="1.772443">
        <ele>669.091</ele>
        <time>2014-10-19T07:20:06Z</time>
      </trkpt>
      <trkpt lat="41.604898" lon="1.772403">
        <ele>668.487</ele>
        <time>2014-10-19T07:20:08Z</time>
      </trkpt>
      <trkpt lat="41.605008" lon="1.772373">
        <ele>668.142</ele>
        <time>2014-10-19T07:20:10Z</time>
      </trkpt>
      <trkpt lat="41.60512" lon="1.772343">
        <ele>667.626</ele>
        <time>2014-10-19T07:20:12Z</time>
      </trkpt>
      <trkpt lat="41.605222" lon="1.772278">
        <ele>667.307</ele>
        <time>2014-10-19T07:20:14Z</time>
      </trkpt>
      <trkpt lat="41.605313" lon="1.772198">
        <ele>667.276</ele>
        <time>2014-10-19T07:20:16Z</time>
      </trkpt>
      <trkpt lat="41.605397" lon="1.772103">
        <ele>667.038</ele>
        <time>2014-10-19T07:20:18Z</time>
      </trkpt>
      <trkpt lat="41.60548" lon="1.77197">
        <ele>666.064</ele>
        <time>2014-10-19T07:20:20Z</time>
      </trkpt>
      <trkpt lat="41.605481" lon="1.771774">
        <ele>666.048</ele>
        <time>2014-10-19T07:20:24Z</time>
      </trkpt>
      <trkpt lat="41.605388" lon="1.771651">
        <ele>666.051</ele>
        <time>2014-10-19T07:20:28Z</time>
      </trkpt>
      <trkpt lat="41.605303" lon="1.771533">
        <ele>666.058</ele>
        <time>2014-10-19T07:20:32Z</time>
      </trkpt>
      <trkpt lat="41.605209" lon="1.771435">
        <ele>667.021</ele>
        <time>2014-10-19T07:20:36Z</time>
      </trkpt>
      <trkpt lat="41.605113" lon="1.771366">
        <ele>667.068</ele>
        <time>2014-10-19T07:20:40Z</time>
      </trkpt>
      <trkpt lat="41.605017" lon="1.771303">
        <ele>668.042</ele>
        <time>2014-10-19T07:20:44Z</time>
      </trkpt>
      <trkpt lat="41.60492" lon="1.771239">
        <ele>670.026</ele>
        <time>2014-10-19T07:20:48Z</time>
      </trkpt>
      <trkpt lat="41.604835" lon="1.771145">
        <ele>671.507</ele>
        <time>2014-10-19T07:20:53Z</time>
      </trkpt>
      <trkpt lat="41.6049" lon="1.771045">
        <ele>673.984</ele>
        <time>2014-10-19T07:20:59Z</time>
      </trkpt>
      <trkpt lat="41.604998" lon="1.771015">
        <ele>675.316</ele>
        <time>2014-10-19T07:21:04Z</time>
      </trkpt>
      <trkpt lat="41.605083" lon="1.770972">
        <ele>676.782</ele>
        <time>2014-10-19T07:21:09Z</time>
      </trkpt>
      <trkpt lat="41.605172" lon="1.770928">
        <ele>678.416</ele>
        <time>2014-10-19T07:21:15Z</time>
      </trkpt>
      <trkpt lat="41.605265" lon="1.770978">
        <ele>679.849</ele>
        <time>2014-10-19T07:21:22Z</time>
      </trkpt>
      <trkpt lat="41.605343" lon="1.771047">
        <ele>682.156</ele>
        <time>2014-10-19T07:21:28Z</time>
      </trkpt>
      <trkpt lat="41.605437" lon="1.77108">
        <ele>683.719</ele>
        <time>2014-10-19T07:21:34Z</time>
      </trkpt>
      <trkpt lat="41.605533" lon="1.771092">
        <ele>686.078</ele>
        <time>2014-10-19T07:21:40Z</time>
      </trkpt>
      <trkpt lat="41.605622" lon="1.771118">
        <ele>687.533</ele>
        <time>2014-10-19T07:21:46Z</time>
      </trkpt>
      <trkpt lat="41.605724" lon="1.771128">
        <ele>687.826</ele>
        <time>2014-10-19T07:21:53Z</time>
      </trkpt>
      <trkpt lat="41.605823" lon="1.771117">
        <ele>689.807</ele>
        <time>2014-10-19T07:22:00Z</time>
      </trkpt>
      <trkpt lat="41.605907" lon="1.771067">
        <ele>691.055</ele>
        <time>2014-10-19T07:22:06Z</time>
      </trkpt>
      <trkpt lat="41.605985" lon="1.770995">
        <ele>693.267</ele>
        <time>2014-10-19T07:22:13Z</time>
      </trkpt>
      <trkpt lat="41.606077" lon="1.770938">
        <ele>694.963</ele>
        <time>2014-10-19T07:22:20Z</time>
      </trkpt>
      <trkpt lat="41.606152" lon="1.770863">
        <ele>696.077</ele>
        <time>2014-10-19T07:22:26Z</time>
      </trkpt>
      <trkpt lat="41.6062" lon="1.77074">
        <ele>697.04</ele>
        <time>2014-10-19T07:22:32Z</time>
      </trkpt>
      <trkpt lat="41.606227" lon="1.770623">
        <ele>696.627</ele>
        <time>2014-10-19T07:22:36Z</time>
      </trkpt>
      <trkpt lat="41.606287" lon="1.770495">
        <ele>696.65</ele>
        <time>2014-10-19T07:22:39Z</time>
      </trkpt>
      <trkpt lat="41.606403" lon="1.770442">
        <ele>696.281</ele>
        <time>2014-10-19T07:22:42Z</time>
      </trkpt>
      <trkpt lat="41.606513" lon="1.770428">
        <ele>695.961</ele>
        <time>2014-10-19T07:22:44Z</time>
      </trkpt>
      <trkpt lat="41.606605" lon="1.770425">
        <ele>695.717</ele>
        <time>2014-10-19T07:22:46Z</time>
      </trkpt>
      <trkpt lat="41.60671" lon="1.770433">
        <ele>695.407</ele>
        <time>2014-10-19T07:22:49Z</time>
      </trkpt>
      <trkpt lat="41.606812" lon="1.77048">
        <ele>695.196</ele>
        <time>2014-10-19T07:22:52Z</time>
      </trkpt>
      <trkpt lat="41.60692" lon="1.770538">
        <ele>694.888</ele>
        <time>2014-10-19T07:22:55Z</time>
      </trkpt>
      <trkpt lat="41.607025" lon="1.77059">
        <ele>695.044</ele>
        <time>2014-10-19T07:22:58Z</time>
      </trkpt>
      <trkpt lat="41.607135" lon="1.770622">
        <ele>694.538</ele>
        <time>2014-10-19T07:23:01Z</time>
      </trkpt>
      <trkpt lat="41.607258" lon="1.770592">
        <ele>694.651</ele>
        <time>2014-10-19T07:23:04Z</time>
      </trkpt>
      <trkpt lat="41.607343" lon="1.77054">
        <ele>694.238</ele>
        <time>2014-10-19T07:23:06Z</time>
      </trkpt>
      <trkpt lat="41.60744" lon="1.770537">
        <ele>694.211</ele>
        <time>2014-10-19T07:23:08Z</time>
      </trkpt>
      <trkpt lat="41.607538" lon="1.770555">
        <ele>694.275</ele>
        <time>2014-10-19T07:23:10Z</time>
      </trkpt>
      <trkpt lat="41.607642" lon="1.770472">
        <ele>693.328</ele>
        <time>2014-10-19T07:23:13Z</time>
      </trkpt>
      <trkpt lat="41.607647" lon="1.770345">
        <ele>693.22</ele>
        <time>2014-10-19T07:23:15Z</time>
      </trkpt>
      <trkpt lat="41.607618" lon="1.770185">
        <ele>692.607</ele>
        <time>2014-10-19T07:23:17Z</time>
      </trkpt>
      <trkpt lat="41.607545" lon="1.770052">
        <ele>691.895</ele>
        <time>2014-10-19T07:23:19Z</time>
      </trkpt>
      <trkpt lat="41.607435" lon="1.769992">
        <ele>690.777</ele>
        <time>2014-10-19T07:23:21Z</time>
      </trkpt>
      <trkpt lat="41.607325" lon="1.769923">
        <ele>689.053</ele>
        <time>2014-10-19T07:23:23Z</time>
      </trkpt>
      <trkpt lat="41.607272" lon="1.769808">
        <ele>689.227</ele>
        <time>2014-10-19T07:23:26Z</time>
      </trkpt>
      <trkpt lat="41.607278" lon="1.76968">
        <ele>688.55</ele>
        <time>2014-10-19T07:23:28Z</time>
      </trkpt>
      <trkpt lat="41.607262" lon="1.769538">
        <ele>687.477</ele>
        <time>2014-10-19T07:23:30Z</time>
      </trkpt>
      <trkpt lat="41.607315" lon="1.769415">
        <ele>683.86</ele>
        <time>2014-10-19T07:23:34Z</time>
      </trkpt>
      <trkpt lat="41.60743" lon="1.769375">
        <ele>681.961</ele>
        <time>2014-10-19T07:23:37Z</time>
      </trkpt>
      <trkpt lat="41.607502" lon="1.76929">
        <ele>680.921</ele>
        <time>2014-10-19T07:23:39Z</time>
      </trkpt>
      <trkpt lat="41.607518" lon="1.769107">
        <ele>679.113</ele>
        <time>2014-10-19T07:23:42Z</time>
      </trkpt>
      <trkpt lat="41.607523" lon="1.768945">
        <ele>677.607</ele>
        <time>2014-10-19T07:23:45Z</time>
      </trkpt>
      <trkpt lat="41.607655" lon="1.768885">
        <ele>675.544</ele>
        <time>2014-10-19T07:23:48Z</time>
      </trkpt>
      <trkpt lat="41.607768" lon="1.768827">
        <ele>674.246</ele>
        <time>2014-10-19T07:23:50Z</time>
      </trkpt>
      <trkpt lat="41.607888" lon="1.768757">
        <ele>673.332</ele>
        <time>2014-10-19T07:23:52Z</time>
      </trkpt>
      <trkpt lat="41.607992" lon="1.768752">
        <ele>672.056</ele>
        <time>2014-10-19T07:23:54Z</time>
      </trkpt>
      <trkpt lat="41.60812" lon="1.768758">
        <ele>670.219</ele>
        <time>2014-10-19T07:23:57Z</time>
      </trkpt>
      <trkpt lat="41.608242" lon="1.768717">
        <ele>668.066</ele>
        <time>2014-10-19T07:24:00Z</time>
      </trkpt>
      <trkpt lat="41.608323" lon="1.768653">
        <ele>666.059</ele>
        <time>2014-10-19T07:24:04Z</time>
      </trkpt>
      <trkpt lat="41.608422" lon="1.768627">
        <ele>666.131</ele>
        <time>2014-10-19T07:24:10Z</time>
      </trkpt>
      <trkpt lat="41.608515" lon="1.76864">
        <ele>667.761</ele>
        <time>2014-10-19T07:24:21Z</time>
      </trkpt>
      <trkpt lat="41.608598" lon="1.768695">
        <ele>668.407</ele>
        <time>2014-10-19T07:24:33Z</time>
      </trkpt>
      <trkpt lat="41.608683" lon="1.768738">
        <ele>669.407</ele>
        <time>2014-10-19T07:24:40Z</time>
      </trkpt>
      <trkpt lat="41.608773" lon="1.768792">
        <ele>670.671</ele>
        <time>2014-10-19T07:24:47Z</time>
      </trkpt>
      <trkpt lat="41.608865" lon="1.768834">
        <ele>673.013</ele>
        <time>2014-10-19T07:24:57Z</time>
      </trkpt>
      <trkpt lat="41.608948" lon="1.768883">
        <ele>676.439</ele>
        <time>2014-10-19T07:25:14Z</time>
      </trkpt>
      <trkpt lat="41.609048" lon="1.768909">
        <ele>676.043</ele>
        <time>2014-10-19T07:25:22Z</time>
      </trkpt>
      <trkpt lat="41.609142" lon="1.768987">
        <ele>679.076</ele>
        <time>2014-10-19T07:25:30Z</time>
      </trkpt>
      <trkpt lat="41.609207" lon="1.769097">
        <ele>683.053</ele>
        <time>2014-10-19T07:25:38Z</time>
      </trkpt>
      <trkpt lat="41.609259" lon="1.76895">
        <ele>683.016</ele>
        <time>2014-10-19T07:25:48Z</time>
      </trkpt>
      <trkpt lat="41.609233" lon="1.76883">
        <ele>683.049</ele>
        <time>2014-10-19T07:25:52Z</time>
      </trkpt>
      <trkpt lat="41.609163" lon="1.76868">
        <ele>682.002</ele>
        <time>2014-10-19T07:25:56Z</time>
      </trkpt>
      <trkpt lat="41.60914" lon="1.76856">
        <ele>683.322</ele>
        <time>2014-10-19T07:25:59Z</time>
      </trkpt>
      <trkpt lat="41.609177" lon="1.768397">
        <ele>683.607</ele>
        <time>2014-10-19T07:26:05Z</time>
      </trkpt>
      <trkpt lat="41.609205" lon="1.76828">
        <ele>685.262</ele>
        <time>2014-10-19T07:26:11Z</time>
      </trkpt>
      <trkpt lat="41.609247" lon="1.768158">
        <ele>687.094</ele>
        <time>2014-10-19T07:26:18Z</time>
      </trkpt>
      <trkpt lat="41.609278" lon="1.768038">
        <ele>688.78</ele>
        <time>2014-10-19T07:26:24Z</time>
      </trkpt>
      <trkpt lat="41.60931" lon="1.767918">
        <ele>691.894</ele>
        <time>2014-10-19T07:26:42Z</time>
      </trkpt>
      <trkpt lat="41.609377" lon="1.767823">
        <ele>692.117</ele>
        <time>2014-10-19T07:26:48Z</time>
      </trkpt>
      <trkpt lat="41.609462" lon="1.767783">
        <ele>692.164</ele>
        <time>2014-10-19T07:26:53Z</time>
      </trkpt>
      <trkpt lat="41.609558" lon="1.767747">
        <ele>692.877</ele>
        <time>2014-10-19T07:26:59Z</time>
      </trkpt>
      <trkpt lat="41.609632" lon="1.76783">
        <ele>693.513</ele>
        <time>2014-10-19T07:27:11Z</time>
      </trkpt>
      <trkpt lat="41.609643" lon="1.767963">
        <ele>693.643</ele>
        <time>2014-10-19T07:27:16Z</time>
      </trkpt>
      <trkpt lat="41.609733" lon="1.767915">
        <ele>696.007</ele>
        <time>2014-10-19T07:27:24Z</time>
      </trkpt>
      <trkpt lat="41.610021" lon="1.767517">
        <ele>768.041</ele>
        <time>2017-04-29T14:38:08Z</time>
      </trkpt>
      <trkpt lat="41.610155" lon="1.767515">
        <ele>769.078</ele>
        <time>2017-04-29T14:38:13Z</time>
      </trkpt>
      <trkpt lat="41.610276" lon="1.767511">
        <ele>767.011</ele>
        <time>2017-04-29T14:38:17Z</time>
      </trkpt>
      <trkpt lat="41.610364" lon="1.767534">
        <ele>768.07</ele>
        <time>2017-04-29T14:38:20Z</time>
      </trkpt>
      <trkpt lat="41.610465" lon="1.767618">
        <ele>767.01</ele>
        <time>2017-04-29T14:38:23Z</time>
      </trkpt>
      <trkpt lat="41.610511" lon="1.767744">
        <ele>766.041</ele>
        <time>2017-04-29T14:38:25Z</time>
      </trkpt>
      <trkpt lat="41.610515" lon="1.767889">
        <ele>766.038</ele>
        <time>2017-04-29T14:38:27Z</time>
      </trkpt>
      <trkpt lat="41.610515" lon="1.768069">
        <ele>765.024</ele>
        <time>2017-04-29T14:38:29Z</time>
      </trkpt>
      <trkpt lat="41.610513" lon="1.768266">
        <ele>765.004</ele>
        <time>2017-04-29T14:38:31Z</time>
      </trkpt>
      <trkpt lat="41.610526" lon="1.768455">
        <ele>766.014</ele>
        <time>2017-04-29T14:38:33Z</time>
      </trkpt>
      <trkpt lat="41.610567" lon="1.76866">
        <ele>765.008</ele>
        <time>2017-04-29T14:38:35Z</time>
      </trkpt>
      <trkpt lat="41.610644" lon="1.768873">
        <ele>763.083</ele>
        <time>2017-04-29T14:38:38Z</time>
      </trkpt>
      <trkpt lat="41.61069" lon="1.768982">
        <ele>763.069</ele>
        <time>2017-04-29T14:38:39Z</time>
      </trkpt>
      <trkpt lat="41.610734" lon="1.769106">
        <ele>762.036</ele>
        <time>2017-04-29T14:38:40Z</time>
      </trkpt>
      <trkpt lat="41.61078" lon="1.769214">
        <ele>762.059</ele>
        <time>2017-04-29T14:38:41Z</time>
      </trkpt>
      <trkpt lat="41.61082" lon="1.769324">
        <ele>761.078</ele>
        <time>2017-04-29T14:38:42Z</time>
      </trkpt>
      <trkpt lat="41.610861" lon="1.769437">
        <ele>761.068</ele>
        <time>2017-04-29T14:38:43Z</time>
      </trkpt>
      <trkpt lat="41.610911" lon="1.769553">
        <ele>760.019</ele>
        <time>2017-04-29T14:38:44Z</time>
      </trkpt>
      <trkpt lat="41.610964" lon="1.769658">
        <ele>758.066</ele>
        <time>2017-04-29T14:38:45Z</time>
      </trkpt>
      <trkpt lat="41.611009" lon="1.769772">
        <ele>758.083</ele>
        <time>2017-04-29T14:38:46Z</time>
      </trkpt>
      <trkpt lat="41.611124" lon="1.76996">
        <ele>758.025</ele>
        <time>2017-04-29T14:38:48Z</time>
      </trkpt>
      <trkpt lat="41.611199" lon="1.770032">
        <ele>757.017</ele>
        <time>2017-04-29T14:38:49Z</time>
      </trkpt>
      <trkpt lat="41.611367" lon="1.770114">
        <ele>756.008</ele>
        <time>2017-04-29T14:38:51Z</time>
      </trkpt>
      <trkpt lat="41.61146" lon="1.77015">
        <ele>755.069</ele>
        <time>2017-04-29T14:38:52Z</time>
      </trkpt>
      <trkpt lat="41.611562" lon="1.770166">
        <ele>754.075</ele>
        <time>2017-04-29T14:38:53Z</time>
      </trkpt>
      <trkpt lat="41.61165" lon="1.770195">
        <ele>754.022</ele>
        <time>2017-04-29T14:38:54Z</time>
      </trkpt>
      <trkpt lat="41.611801" lon="1.770303">
        <ele>754.025</ele>
        <time>2017-04-29T14:38:56Z</time>
      </trkpt>
      <trkpt lat="41.611891" lon="1.770477">
        <ele>754.034</ele>
        <time>2017-04-29T14:38:58Z</time>
      </trkpt>
      <trkpt lat="41.611926" lon="1.770648">
        <ele>754.014</ele>
        <time>2017-04-29T14:38:59Z</time>
      </trkpt>
      <trkpt lat="41.611958" lon="1.770817">
        <ele>754.085</ele>
        <time>2017-04-29T14:39:01Z</time>
      </trkpt>
      <trkpt lat="41.611978" lon="1.770949">
        <ele>753.042</ele>
        <time>2017-04-29T14:39:03Z</time>
      </trkpt>
      <trkpt lat="41.61199" lon="1.771119">
        <ele>755.011</ele>
        <time>2017-04-29T14:39:06Z</time>
      </trkpt>
      <trkpt lat="41.612005" lon="1.771272">
        <ele>753.021</ele>
        <time>2017-04-29T14:39:09Z</time>
      </trkpt>
      <trkpt lat="41.611984" lon="1.771416">
        <ele>754.003</ele>
        <time>2017-04-29T14:39:12Z</time>
      </trkpt>
      <trkpt lat="41.611939" lon="1.771521">
        <ele>752.008</ele>
        <time>2017-04-29T14:39:15Z</time>
      </trkpt>
      <trkpt lat="41.61187" lon="1.771611">
        <ele>752.042</ele>
        <time>2017-04-29T14:39:18Z</time>
      </trkpt>
      <trkpt lat="41.611792" lon="1.771682">
        <ele>752.058</ele>
        <time>2017-04-29T14:39:21Z</time>
      </trkpt>
      <trkpt lat="41.611702" lon="1.771722">
        <ele>753.075</ele>
        <time>2017-04-29T14:39:24Z</time>
      </trkpt>
      <trkpt lat="41.611604" lon="1.771759">
        <ele>752.068</ele>
        <time>2017-04-29T14:39:27Z</time>
      </trkpt>
      <trkpt lat="41.611527" lon="1.771821">
        <ele>753.087</ele>
        <time>2017-04-29T14:39:30Z</time>
      </trkpt>
      <trkpt lat="41.611432" lon="1.771875">
        <ele>753.027</ele>
        <time>2017-04-29T14:39:33Z</time>
      </trkpt>
      <trkpt lat="41.611351" lon="1.77193">
        <ele>753.048</ele>
        <time>2017-04-29T14:39:36Z</time>
      </trkpt>
      <trkpt lat="41.611266" lon="1.772027">
        <ele>753.035</ele>
        <time>2017-04-29T14:39:40Z</time>
      </trkpt>
      <trkpt lat="41.611241" lon="1.77218">
        <ele>754.042</ele>
        <time>2017-04-29T14:39:44Z</time>
      </trkpt>
      <trkpt lat="41.611239" lon="1.772333">
        <ele>753.022</ele>
        <time>2017-04-29T14:39:47Z</time>
      </trkpt>
      <trkpt lat="41.611237" lon="1.772462">
        <ele>751.014</ele>
        <time>2017-04-29T14:39:49Z</time>
      </trkpt>
      <trkpt lat="41.611291" lon="1.772589">
        <ele>750.008</ele>
        <time>2017-04-29T14:39:51Z</time>
      </trkpt>
      <trkpt lat="41.611374" lon="1.772695">
        <ele>751.065</ele>
        <time>2017-04-29T14:39:53Z</time>
      </trkpt>
      <trkpt lat="41.611475" lon="1.772799">
        <ele>750.071</ele>
        <time>2017-04-29T14:39:55Z</time>
      </trkpt>
      <trkpt lat="41.611591" lon="1.772908">
        <ele>749.048</ele>
        <time>2017-04-29T14:39:57Z</time>
      </trkpt>
      <trkpt lat="41.611699" lon="1.773059">
        <ele>749.021</ele>
        <time>2017-04-29T14:39:59Z</time>
      </trkpt>
      <trkpt lat="41.611783" lon="1.773248">
        <ele>749.02</ele>
        <time>2017-04-29T14:40:01Z</time>
      </trkpt>
      <trkpt lat="41.611819" lon="1.77345">
        <ele>749.04</ele>
        <time>2017-04-29T14:40:03Z</time>
      </trkpt>
      <trkpt lat="41.611771" lon="1.773645">
        <ele>747.041</ele>
        <time>2017-04-29T14:40:05Z</time>
      </trkpt>
      <trkpt lat="41.611678" lon="1.773848">
        <ele>746.048</ele>
        <time>2017-04-29T14:40:07Z</time>
      </trkpt>
      <trkpt lat="41.611636" lon="1.773954">
        <ele>745.055</ele>
        <time>2017-04-29T14:40:08Z</time>
      </trkpt>
      <trkpt lat="41.61159" lon="1.774063">
        <ele>744.007</ele>
        <time>2017-04-29T14:40:09Z</time>
      </trkpt>
      <trkpt lat="41.611556" lon="1.774176">
        <ele>744.017</ele>
        <time>2017-04-29T14:40:10Z</time>
      </trkpt>
      <trkpt lat="41.611542" lon="1.774419">
        <ele>743.008</ele>
        <time>2017-04-29T14:40:12Z</time>
      </trkpt>
      <trkpt lat="41.611548" lon="1.774543">
        <ele>743.076</ele>
        <time>2017-04-29T14:40:13Z</time>
      </trkpt>
      <trkpt lat="41.611577" lon="1.774788">
        <ele>741.072</ele>
        <time>2017-04-29T14:40:15Z</time>
      </trkpt>
      <trkpt lat="41.611599" lon="1.774911">
        <ele>740.029</ele>
        <time>2017-04-29T14:40:16Z</time>
      </trkpt>
      <trkpt lat="41.611615" lon="1.775046">
        <ele>739.092</ele>
        <time>2017-04-29T14:40:17Z</time>
      </trkpt>
      <trkpt lat="41.611619" lon="1.775171">
        <ele>737.011</ele>
        <time>2017-04-29T14:40:18Z</time>
      </trkpt>
      <trkpt lat="41.611624" lon="1.775301">
        <ele>736.091</ele>
        <time>2017-04-29T14:40:19Z</time>
      </trkpt>
      <trkpt lat="41.611621" lon="1.775436">
        <ele>735.052</ele>
        <time>2017-04-29T14:40:20Z</time>
      </trkpt>
      <trkpt lat="41.611605" lon="1.775569">
        <ele>734.049</ele>
        <time>2017-04-29T14:40:21Z</time>
      </trkpt>
      <trkpt lat="41.611575" lon="1.775699">
        <ele>733.043</ele>
        <time>2017-04-29T14:40:22Z</time>
      </trkpt>
      <trkpt lat="41.61154" lon="1.775822">
        <ele>733.064</ele>
        <time>2017-04-29T14:40:23Z</time>
      </trkpt>
      <trkpt lat="41.611492" lon="1.775941">
        <ele>733.01</ele>
        <time>2017-04-29T14:40:24Z</time>
      </trkpt>
      <trkpt lat="41.611437" lon="1.776055">
        <ele>740.008</ele>
        <time>2017-04-29T14:40:25Z</time>
      </trkpt>
      <trkpt lat="41.611388" lon="1.776176">
        <ele>737.035</ele>
        <time>2017-04-29T14:40:26Z</time>
      </trkpt>
      <trkpt lat="41.611342" lon="1.776302">
        <ele>734.091</ele>
        <time>2017-04-29T14:40:27Z</time>
      </trkpt>
      <trkpt lat="41.611289" lon="1.776413">
        <ele>732.038</ele>
        <time>2017-04-29T14:40:28Z</time>
      </trkpt>
      <trkpt lat="41.611228" lon="1.776515">
        <ele>732.051</ele>
        <time>2017-04-29T14:40:29Z</time>
      </trkpt>
      <trkpt lat="41.611158" lon="1.776724">
        <ele>732.05</ele>
        <time>2017-04-29T14:40:31Z</time>
      </trkpt>
      <trkpt lat="41.611135" lon="1.776941">
        <ele>732.05</ele>
        <time>2017-04-29T14:40:33Z</time>
      </trkpt>
      <trkpt lat="41.611113" lon="1.777171">
        <ele>729.061</ele>
        <time>2017-04-29T14:40:35Z</time>
      </trkpt>
      <trkpt lat="41.611087" lon="1.777371">
        <ele>727.068</ele>
        <time>2017-04-29T14:40:37Z</time>
      </trkpt>
      <trkpt lat="41.611062" lon="1.777566">
        <ele>727.043</ele>
        <time>2017-04-29T14:40:39Z</time>
      </trkpt>
      <trkpt lat="41.611054" lon="1.777746">
        <ele>726.064</ele>
        <time>2017-04-29T14:40:41Z</time>
      </trkpt>
      <trkpt lat="41.611045" lon="1.777917">
        <ele>724.01</ele>
        <time>2017-04-29T14:40:43Z</time>
      </trkpt>
      <trkpt lat="41.61105" lon="1.778089">
        <ele>724.008</ele>
        <time>2017-04-29T14:40:45Z</time>
      </trkpt>
      <trkpt lat="41.61106" lon="1.778233">
        <ele>722.045</ele>
        <time>2017-04-29T14:40:47Z</time>
      </trkpt>
      <trkpt lat="41.611081" lon="1.778374">
        <ele>724.041</ele>
        <time>2017-04-29T14:40:49Z</time>
      </trkpt>
      <trkpt lat="41.611119" lon="1.778522">
        <ele>723.078</ele>
        <time>2017-04-29T14:40:51Z</time>
      </trkpt>
      <trkpt lat="41.611182" lon="1.778669">
        <ele>723.081</ele>
        <time>2017-04-29T14:40:53Z</time>
      </trkpt>
      <trkpt lat="41.611266" lon="1.778809">
        <ele>721.07</ele>
        <time>2017-04-29T14:40:55Z</time>
      </trkpt>
      <trkpt lat="41.611362" lon="1.778921">
        <ele>721.09</ele>
        <time>2017-04-29T14:40:58Z</time>
      </trkpt>
      <trkpt lat="41.611483" lon="1.779043">
        <ele>721.071</ele>
        <time>2017-04-29T14:41:00Z</time>
      </trkpt>
      <trkpt lat="41.611598" lon="1.779161">
        <ele>721.028</ele>
        <time>2017-04-29T14:41:02Z</time>
      </trkpt>
      <trkpt lat="41.61173" lon="1.779286">
        <ele>722.079</ele>
        <time>2017-04-29T14:41:04Z</time>
      </trkpt>
      <trkpt lat="41.611853" lon="1.779431">
        <ele>722.005</ele>
        <time>2017-04-29T14:41:06Z</time>
      </trkpt>
      <trkpt lat="41.611979" lon="1.779563">
        <ele>722.025</ele>
        <time>2017-04-29T14:41:08Z</time>
      </trkpt>
      <trkpt lat="41.612119" lon="1.779703">
        <ele>721.008</ele>
        <time>2017-04-29T14:41:10Z</time>
      </trkpt>
      <trkpt lat="41.612248" lon="1.77985">
        <ele>721.098</ele>
        <time>2017-04-29T14:41:12Z</time>
      </trkpt>
      <trkpt lat="41.612358" lon="1.779996">
        <ele>720.094</ele>
        <time>2017-04-29T14:41:14Z</time>
      </trkpt>
      <trkpt lat="41.612483" lon="1.780115">
        <ele>721.091</ele>
        <time>2017-04-29T14:41:16Z</time>
      </trkpt>
      <trkpt lat="41.612611" lon="1.780244">
        <ele>721.014</ele>
        <time>2017-04-29T14:41:18Z</time>
      </trkpt>
      <trkpt lat="41.612712" lon="1.780353">
        <ele>723.093</ele>
        <time>2017-04-29T14:41:20Z</time>
      </trkpt>
      <trkpt lat="41.61279" lon="1.780462">
        <ele>722.043</ele>
        <time>2017-04-29T14:41:22Z</time>
      </trkpt>
      <trkpt lat="41.612878" lon="1.780686">
        <ele>721.094</ele>
        <time>2017-04-29T14:41:24Z</time>
      </trkpt>
      <trkpt lat="41.612985" lon="1.780816">
        <ele>722.011</ele>
        <time>2017-04-29T14:41:26Z</time>
      </trkpt>
      <trkpt lat="41.612831" lon="1.780988">
        <ele>722.031</ele>
        <time>2017-04-29T14:41:27Z</time>
      </trkpt>
      <trkpt lat="41.612737" lon="1.781083">
        <ele>723.061</ele>
        <time>2017-04-29T14:41:28Z</time>
      </trkpt>
      <trkpt lat="41.612675" lon="1.781234">
        <ele>724.007</ele>
        <time>2017-04-29T14:41:30Z</time>
      </trkpt>
      <trkpt lat="41.612635" lon="1.781355">
        <ele>723.008</ele>
        <time>2017-04-29T14:41:32Z</time>
      </trkpt>
      <trkpt lat="41.612575" lon="1.781484">
        <ele>723.014</ele>
        <time>2017-04-29T14:41:35Z</time>
      </trkpt>
      <trkpt lat="41.61253" lon="1.78162">
        <ele>724.01</ele>
        <time>2017-04-29T14:41:38Z</time>
      </trkpt>
      <trkpt lat="41.612511" lon="1.781762">
        <ele>725.047</ele>
        <time>2017-04-29T14:41:41Z</time>
      </trkpt>
      <trkpt lat="41.612529" lon="1.78191">
        <ele>725.01</ele>
        <time>2017-04-29T14:41:44Z</time>
      </trkpt>
      <trkpt lat="41.612559" lon="1.782035">
        <ele>725.059</ele>
        <time>2017-04-29T14:41:47Z</time>
      </trkpt>
      <trkpt lat="41.612608" lon="1.782183">
        <ele>724.079</ele>
        <time>2017-04-29T14:41:50Z</time>
      </trkpt>
      <trkpt lat="41.612646" lon="1.782333">
        <ele>723.08</ele>
        <time>2017-04-29T14:41:53Z</time>
      </trkpt>
      <trkpt lat="41.612677" lon="1.782466">
        <ele>724.037</ele>
        <time>2017-04-29T14:41:56Z</time>
      </trkpt>
      <trkpt lat="41.612706" lon="1.782608">
        <ele>724.048</ele>
        <time>2017-04-29T14:41:59Z</time>
      </trkpt>
      <trkpt lat="41.612756" lon="1.78276">
        <ele>723.061</ele>
        <time>2017-04-29T14:42:02Z</time>
      </trkpt>
      <trkpt lat="41.612813" lon="1.78288">
        <ele>724.017</ele>
        <time>2017-04-29T14:42:05Z</time>
      </trkpt>
      <trkpt lat="41.612868" lon="1.782985">
        <ele>723.008</ele>
        <time>2017-04-29T14:42:08Z</time>
      </trkpt>
      <trkpt lat="41.61296" lon="1.783083">
        <ele>722.065</ele>
        <time>2017-04-29T14:42:11Z</time>
      </trkpt>
      <trkpt lat="41.613077" lon="1.783159">
        <ele>723.081</ele>
        <time>2017-04-29T14:42:14Z</time>
      </trkpt>
      <trkpt lat="41.613165" lon="1.783196">
        <ele>723.018</ele>
        <time>2017-04-29T14:42:16Z</time>
      </trkpt>
      <trkpt lat="41.613258" lon="1.783239">
        <ele>724.091</ele>
        <time>2017-04-29T14:42:18Z</time>
      </trkpt>
      <trkpt lat="41.613344" lon="1.783284">
        <ele>727.05</ele>
        <time>2017-04-29T14:42:20Z</time>
      </trkpt>
      <trkpt lat="41.613444" lon="1.783332">
        <ele>727.06</ele>
        <time>2017-04-29T14:42:22Z</time>
      </trkpt>
      <trkpt lat="41.613556" lon="1.783355">
        <ele>727.021</ele>
        <time>2017-04-29T14:42:24Z</time>
      </trkpt>
      <trkpt lat="41.613684" lon="1.783354">
        <ele>727.038</ele>
        <time>2017-04-29T14:42:26Z</time>
      </trkpt>
      <trkpt lat="41.613814" lon="1.783326">
        <ele>727.098</ele>
        <time>2017-04-29T14:42:28Z</time>
      </trkpt>
      <trkpt lat="41.613954" lon="1.783269">
        <ele>726.015</ele>
        <time>2017-04-29T14:42:30Z</time>
      </trkpt>
      <trkpt lat="41.614094" lon="1.783191">
        <ele>725.026</ele>
        <time>2017-04-29T14:42:32Z</time>
      </trkpt>
      <trkpt lat="41.614248" lon="1.783105">
        <ele>725.008</ele>
        <time>2017-04-29T14:42:34Z</time>
      </trkpt>
      <trkpt lat="41.61441" lon="1.783015">
        <ele>723.06</ele>
        <time>2017-04-29T14:42:36Z</time>
      </trkpt>
      <trkpt lat="41.614499" lon="1.782971">
        <ele>723.026</ele>
        <time>2017-04-29T14:42:37Z</time>
      </trkpt>
      <trkpt lat="41.614648" lon="1.782923">
        <ele>722.093</ele>
        <time>2017-04-29T14:42:39Z</time>
      </trkpt>
      <trkpt lat="41.61478" lon="1.78296">
        <ele>719.026</ele>
        <time>2017-04-29T14:42:41Z</time>
      </trkpt>
      <trkpt lat="41.614888" lon="1.783069">
        <ele>717.075</ele>
        <time>2017-04-29T14:42:42Z</time>
      </trkpt>
      <trkpt lat="41.614995" lon="1.78324">
        <ele>731.075</ele>
        <time>2017-04-29T14:42:44Z</time>
      </trkpt>
      <trkpt lat="41.61505" lon="1.783336">
        <ele>724.086</ele>
        <time>2017-04-29T14:42:45Z</time>
      </trkpt>
      <trkpt lat="41.615115" lon="1.783424">
        <ele>719.093</ele>
        <time>2017-04-29T14:42:46Z</time>
      </trkpt>
      <trkpt lat="41.615192" lon="1.783495">
        <ele>716.066</ele>
        <time>2017-04-29T14:42:47Z</time>
      </trkpt>
      <trkpt lat="41.615283" lon="1.783538">
        <ele>714.029</ele>
        <time>2017-04-29T14:42:48Z</time>
      </trkpt>
      <trkpt lat="41.615376" lon="1.78356">
        <ele>713.021</ele>
        <time>2017-04-29T14:42:49Z</time>
      </trkpt>
      <trkpt lat="41.615472" lon="1.783562">
        <ele>711.008</ele>
        <time>2017-04-29T14:42:50Z</time>
      </trkpt>
      <trkpt lat="41.615573" lon="1.783551">
        <ele>710.097</ele>
        <time>2017-04-29T14:42:51Z</time>
      </trkpt>
      <trkpt lat="41.615673" lon="1.78353">
        <ele>709.023</ele>
        <time>2017-04-29T14:42:52Z</time>
      </trkpt>
      <trkpt lat="41.615771" lon="1.783504">
        <ele>707.09</ele>
        <time>2017-04-29T14:42:53Z</time>
      </trkpt>
      <trkpt lat="41.615872" lon="1.78348">
        <ele>705.073</ele>
        <time>2017-04-29T14:42:54Z</time>
      </trkpt>
      <trkpt lat="41.615969" lon="1.783458">
        <ele>704.052</ele>
        <time>2017-04-29T14:42:55Z</time>
      </trkpt>
      <trkpt lat="41.61607" lon="1.783459">
        <ele>703.092</ele>
        <time>2017-04-29T14:42:56Z</time>
      </trkpt>
      <trkpt lat="41.616171" lon="1.783473">
        <ele>702.093</ele>
        <time>2017-04-29T14:42:57Z</time>
      </trkpt>
      <trkpt lat="41.616274" lon="1.783503">
        <ele>701.03</ele>
        <time>2017-04-29T14:42:58Z</time>
      </trkpt>
      <trkpt lat="41.616373" lon="1.78355">
        <ele>700.089</ele>
        <time>2017-04-29T14:42:59Z</time>
      </trkpt>
      <trkpt lat="41.61647" lon="1.783611">
        <ele>699.006</ele>
        <time>2017-04-29T14:43:00Z</time>
      </trkpt>
      <trkpt lat="41.616562" lon="1.783674">
        <ele>698.026</ele>
        <time>2017-04-29T14:43:01Z</time>
      </trkpt>
      <trkpt lat="41.616654" lon="1.783743">
        <ele>697.008</ele>
        <time>2017-04-29T14:43:02Z</time>
      </trkpt>
      <trkpt lat="41.616754" lon="1.783813">
        <ele>696.099</ele>
        <time>2017-04-29T14:43:03Z</time>
      </trkpt>
      <trkpt lat="41.616854" lon="1.783874">
        <ele>695.045</ele>
        <time>2017-04-29T14:43:04Z</time>
      </trkpt>
      <trkpt lat="41.616953" lon="1.783947">
        <ele>694.022</ele>
        <time>2017-04-29T14:43:05Z</time>
      </trkpt>
      <trkpt lat="41.617052" lon="1.784021">
        <ele>693.065</ele>
        <time>2017-04-29T14:43:06Z</time>
      </trkpt>
      <trkpt lat="41.617161" lon="1.784097">
        <ele>692.054</ele>
        <time>2017-04-29T14:43:07Z</time>
      </trkpt>
      <trkpt lat="41.617267" lon="1.784157">
        <ele>692.054</ele>
        <time>2017-04-29T14:43:08Z</time>
      </trkpt>
      <trkpt lat="41.617377" lon="1.78422">
        <ele>692.095</ele>
        <time>2017-04-29T14:43:09Z</time>
      </trkpt>
      <trkpt lat="41.617495" lon="1.784285">
        <ele>691.012</ele>
        <time>2017-04-29T14:43:10Z</time>
      </trkpt>
      <trkpt lat="41.617614" lon="1.784351">
        <ele>690.039</ele>
        <time>2017-04-29T14:43:11Z</time>
      </trkpt>
      <trkpt lat="41.617728" lon="1.784417">
        <ele>689.001</ele>
        <time>2017-04-29T14:43:12Z</time>
      </trkpt>
      <trkpt lat="41.617842" lon="1.784485">
        <ele>688.021</ele>
        <time>2017-04-29T14:43:13Z</time>
      </trkpt>
      <trkpt lat="41.617956" lon="1.784548">
        <ele>686.008</ele>
        <time>2017-04-29T14:43:14Z</time>
      </trkpt>
      <trkpt lat="41.618057" lon="1.784608">
        <ele>686.084</ele>
        <time>2017-04-29T14:43:15Z</time>
      </trkpt>
      <trkpt lat="41.618148" lon="1.784667">
        <ele>686.01</ele>
        <time>2017-04-29T14:43:16Z</time>
      </trkpt>
      <trkpt lat="41.618234" lon="1.784732">
        <ele>685.027</ele>
        <time>2017-04-29T14:43:17Z</time>
      </trkpt>
      <trkpt lat="41.618307" lon="1.784815">
        <ele>685.05</ele>
        <time>2017-04-29T14:43:18Z</time>
      </trkpt>
      <trkpt lat="41.618386" lon="1.784998">
        <ele>684.019</ele>
        <time>2017-04-29T14:43:20Z</time>
      </trkpt>
      <trkpt lat="41.618406" lon="1.785195">
        <ele>683.069</ele>
        <time>2017-04-29T14:43:22Z</time>
      </trkpt>
      <trkpt lat="41.618364" lon="1.785389">
        <ele>682.06</ele>
        <time>2017-04-29T14:43:24Z</time>
      </trkpt>
      <trkpt lat="41.618253" lon="1.785511">
        <ele>680.057</ele>
        <time>2017-04-29T14:43:26Z</time>
      </trkpt>
      <trkpt lat="41.618117" lon="1.785593">
        <ele>681.073</ele>
        <time>2017-04-29T14:43:28Z</time>
      </trkpt>
      <trkpt lat="41.617997" lon="1.785649">
        <ele>680.085</ele>
        <time>2017-04-29T14:43:30Z</time>
      </trkpt>
      <trkpt lat="41.617876" lon="1.785689">
        <ele>681.013</ele>
        <time>2017-04-29T14:43:32Z</time>
      </trkpt>
      <trkpt lat="41.617756" lon="1.785724">
        <ele>681.008</ele>
        <time>2017-04-29T14:43:34Z</time>
      </trkpt>
      <trkpt lat="41.61766" lon="1.785788">
        <ele>679.068</ele>
        <time>2017-04-29T14:43:36Z</time>
      </trkpt>
      <trkpt lat="41.617563" lon="1.78587">
        <ele>679.064</ele>
        <time>2017-04-29T14:43:38Z</time>
      </trkpt>
      <trkpt lat="41.617462" lon="1.78595">
        <ele>676.081</ele>
        <time>2017-04-29T14:43:40Z</time>
      </trkpt>
      <trkpt lat="41.617353" lon="1.786063">
        <ele>676.094</ele>
        <time>2017-04-29T14:43:42Z</time>
      </trkpt>
      <trkpt lat="41.61722" lon="1.786173">
        <ele>674.013</ele>
        <time>2017-04-29T14:43:44Z</time>
      </trkpt>
      <trkpt lat="41.617093" lon="1.786255">
        <ele>676.073</ele>
        <time>2017-04-29T14:43:46Z</time>
      </trkpt>
      <trkpt lat="41.616973" lon="1.786301">
        <ele>678.034</ele>
        <time>2017-04-29T14:43:48Z</time>
      </trkpt>
      <trkpt lat="41.616867" lon="1.786401">
        <ele>679.091</ele>
        <time>2017-04-29T14:43:50Z</time>
      </trkpt>
      <trkpt lat="41.616778" lon="1.786518">
        <ele>681.059</ele>
        <time>2017-04-29T14:43:52Z</time>
      </trkpt>
      <trkpt lat="41.616673" lon="1.786594">
        <ele>681.003</ele>
        <time>2017-04-29T14:43:54Z</time>
      </trkpt>
      <trkpt lat="41.616569" lon="1.786644">
        <ele>680.023</ele>
        <time>2017-04-29T14:43:56Z</time>
      </trkpt>
      <trkpt lat="41.61646" lon="1.786736">
        <ele>680.008</ele>
        <time>2017-04-29T14:43:59Z</time>
      </trkpt>
      <trkpt lat="41.616382" lon="1.786795">
        <ele>679.026</ele>
        <time>2017-04-29T14:44:01Z</time>
      </trkpt>
      <trkpt lat="41.616262" lon="1.786871">
        <ele>678.072</ele>
        <time>2017-04-29T14:44:04Z</time>
      </trkpt>
      <trkpt lat="41.616175" lon="1.786944">
        <ele>677.029</ele>
        <time>2017-04-29T14:44:06Z</time>
      </trkpt>
      <trkpt lat="41.616084" lon="1.786997">
        <ele>676.042</ele>
        <time>2017-04-29T14:44:08Z</time>
      </trkpt>
      <trkpt lat="41.615991" lon="1.787061">
        <ele>675.081</ele>
        <time>2017-04-29T14:44:10Z</time>
      </trkpt>
      <trkpt lat="41.615895" lon="1.787123">
        <ele>675.041</ele>
        <time>2017-04-29T14:44:12Z</time>
      </trkpt>
      <trkpt lat="41.615793" lon="1.787181">
        <ele>674.012</ele>
        <time>2017-04-29T14:44:14Z</time>
      </trkpt>
      <trkpt lat="41.615694" lon="1.787236">
        <ele>674.039</ele>
        <time>2017-04-29T14:44:16Z</time>
      </trkpt>
      <trkpt lat="41.6156" lon="1.78729">
        <ele>674.028</ele>
        <time>2017-04-29T14:44:18Z</time>
      </trkpt>
      <trkpt lat="41.615509" lon="1.787341">
        <ele>674.089</ele>
        <time>2017-04-29T14:44:20Z</time>
      </trkpt>
      <trkpt lat="41.615399" lon="1.787422">
        <ele>675.017</ele>
        <time>2017-04-29T14:44:23Z</time>
      </trkpt>
      <trkpt lat="41.615321" lon="1.787527">
        <ele>677.008</ele>
        <time>2017-04-29T14:44:26Z</time>
      </trkpt>
      <trkpt lat="41.615265" lon="1.787636">
        <ele>679.083</ele>
        <time>2017-04-29T14:44:29Z</time>
      </trkpt>
      <trkpt lat="41.615204" lon="1.78773">
        <ele>680.049</ele>
        <time>2017-04-29T14:44:32Z</time>
      </trkpt>
      <trkpt lat="41.615136" lon="1.787813">
        <ele>680.036</ele>
        <time>2017-04-29T14:44:35Z</time>
      </trkpt>
      <trkpt lat="41.615066" lon="1.787893">
        <ele>679.049</ele>
        <time>2017-04-29T14:44:38Z</time>
      </trkpt>
      <trkpt lat="41.614963" lon="1.787954">
        <ele>679.068</ele>
        <time>2017-04-29T14:44:42Z</time>
      </trkpt>
      <trkpt lat="41.614879" lon="1.788001">
        <ele>681.088</ele>
        <time>2017-04-29T14:44:46Z</time>
      </trkpt>
      <trkpt lat="41.614797" lon="1.788056">
        <ele>682.049</ele>
        <time>2017-04-29T14:44:50Z</time>
      </trkpt>
      <trkpt lat="41.614713" lon="1.788124">
        <ele>684.016</ele>
        <time>2017-04-29T14:44:54Z</time>
      </trkpt>
      <trkpt lat="41.614629" lon="1.788186">
        <ele>684.047</ele>
        <time>2017-04-29T14:44:59Z</time>
      </trkpt>
      <trkpt lat="41.614543" lon="1.788244">
        <ele>683.029</ele>
        <time>2017-04-29T14:45:04Z</time>
      </trkpt>
      <trkpt lat="41.614464" lon="1.788343">
        <ele>681.021</ele>
        <time>2017-04-29T14:45:09Z</time>
      </trkpt>
      <trkpt lat="41.614398" lon="1.788438">
        <ele>684.008</ele>
        <time>2017-04-29T14:45:14Z</time>
      </trkpt>
      <trkpt lat="41.614332" lon="1.788548">
        <ele>684.025</ele>
        <time>2017-04-29T14:45:19Z</time>
      </trkpt>
      <trkpt lat="41.614283" lon="1.788651">
        <ele>686.071</ele>
        <time>2017-04-29T14:45:24Z</time>
      </trkpt>
      <trkpt lat="41.614234" lon="1.788773">
        <ele>687.098</ele>
        <time>2017-04-29T14:45:31Z</time>
      </trkpt>
      <trkpt lat="41.614208" lon="1.788893">
        <ele>691.011</ele>
        <time>2017-04-29T14:45:36Z</time>
      </trkpt>
      <trkpt lat="41.614206" lon="1.789013">
        <ele>691.05</ele>
        <time>2017-04-29T14:45:41Z</time>
      </trkpt>
      <trkpt lat="41.614282" lon="1.789118">
        <ele>698.05</ele>
        <time>2017-04-29T14:45:46Z</time>
      </trkpt>
      <trkpt lat="41.614334" lon="1.789248">
        <ele>702.021</ele>
        <time>2017-04-29T14:45:51Z</time>
      </trkpt>
      <trkpt lat="41.614338" lon="1.789401">
        <ele>701.018</ele>
        <time>2017-04-29T14:45:56Z</time>
      </trkpt>
      <trkpt lat="41.614342" lon="1.789529">
        <ele>699.029</ele>
        <time>2017-04-29T14:46:00Z</time>
      </trkpt>
      <trkpt lat="41.614352" lon="1.789655">
        <ele>698.0</ele>
        <time>2017-04-29T14:46:04Z</time>
      </trkpt>
      <trkpt lat="41.614376" lon="1.78978">
        <ele>699.02</ele>
        <time>2017-04-29T14:46:08Z</time>
      </trkpt>
      <trkpt lat="41.614414" lon="1.789899">
        <ele>700.008</ele>
        <time>2017-04-29T14:46:12Z</time>
      </trkpt>
      <trkpt lat="41.614483" lon="1.790017">
        <ele>703.023</ele>
        <time>2017-04-29T14:46:17Z</time>
      </trkpt>
      <trkpt lat="41.61457" lon="1.790122">
        <ele>699.079</ele>
        <time>2017-04-29T14:46:20Z</time>
      </trkpt>
      <trkpt lat="41.614643" lon="1.79025">
        <ele>697.046</ele>
        <time>2017-04-29T14:46:23Z</time>
      </trkpt>
      <trkpt lat="41.614712" lon="1.790386">
        <ele>695.099</ele>
        <time>2017-04-29T14:46:26Z</time>
      </trkpt>
      <trkpt lat="41.614765" lon="1.790496">
        <ele>694.018</ele>
        <time>2017-04-29T14:46:28Z</time>
      </trkpt>
      <trkpt lat="41.614814" lon="1.790612">
        <ele>694.048</ele>
        <time>2017-04-29T14:46:30Z</time>
      </trkpt>
      <trkpt lat="41.614856" lon="1.79076">
        <ele>692.079</ele>
        <time>2017-04-29T14:46:32Z</time>
      </trkpt>
      <trkpt lat="41.614879" lon="1.790902">
        <ele>692.076</ele>
        <time>2017-04-29T14:46:34Z</time>
      </trkpt>
      <trkpt lat="41.614897" lon="1.791036">
        <ele>690.035</ele>
        <time>2017-04-29T14:46:36Z</time>
      </trkpt>
      <trkpt lat="41.614915" lon="1.791185">
        <ele>690.086</ele>
        <time>2017-04-29T14:46:39Z</time>
      </trkpt>
      <trkpt lat="41.61497" lon="1.791316">
        <ele>691.014</ele>
        <time>2017-04-29T14:46:43Z</time>
      </trkpt>
      <trkpt lat="41.61502" lon="1.791417">
        <ele>689.008</ele>
        <time>2017-04-29T14:46:47Z</time>
      </trkpt>
      <trkpt lat="41.61508" lon="1.791509">
        <ele>690.044</ele>
        <time>2017-04-29T14:46:51Z</time>
      </trkpt>
      <trkpt lat="41.615146" lon="1.791623">
        <ele>693.03</ele>
        <time>2017-04-29T14:46:56Z</time>
      </trkpt>
      <trkpt lat="41.61521" lon="1.791725">
        <ele>692.077</ele>
        <time>2017-04-29T14:47:00Z</time>
      </trkpt>
      <trkpt lat="41.615276" lon="1.791812">
        <ele>692.05</ele>
        <time>2017-04-29T14:47:04Z</time>
      </trkpt>
      <trkpt lat="41.615338" lon="1.791916">
        <ele>690.089</ele>
        <time>2017-04-29T14:47:08Z</time>
      </trkpt>
      <trkpt lat="41.615388" lon="1.79204">
        <ele>689.019</ele>
        <time>2017-04-29T14:47:13Z</time>
      </trkpt>
      <trkpt lat="41.615429" lon="1.792156">
        <ele>689.02</ele>
        <time>2017-04-29T14:47:18Z</time>
      </trkpt>
      <trkpt lat="41.615465" lon="1.79228">
        <ele>691.067</ele>
        <time>2017-04-29T14:47:22Z</time>
      </trkpt>
      <trkpt lat="41.615521" lon="1.792425">
        <ele>697.043</ele>
        <time>2017-04-29T14:47:28Z</time>
      </trkpt>
      <trkpt lat="41.615504" lon="1.792571">
        <ele>698.064</ele>
        <time>2017-04-29T14:47:33Z</time>
      </trkpt>
      <trkpt lat="41.615449" lon="1.79267">
        <ele>702.01</ele>
        <time>2017-04-29T14:47:39Z</time>
      </trkpt>
      <trkpt lat="41.615363" lon="1.792761">
        <ele>699.008</ele>
        <time>2017-04-29T14:47:44Z</time>
      </trkpt>
      <trkpt lat="41.615277" lon="1.79283">
        <ele>703.075</ele>
        <time>2017-04-29T14:47:49Z</time>
      </trkpt>
      <trkpt lat="41.615213" lon="1.792915">
        <ele>704.011</ele>
        <time>2017-04-29T14:47:55Z</time>
      </trkpt>
      <trkpt lat="41.615133" lon="1.792988">
        <ele>705.028</ele>
        <time>2017-04-29T14:47:59Z</time>
      </trkpt>
      <trkpt lat="41.615049" lon="1.79309">
        <ele>703.021</ele>
        <time>2017-04-29T14:48:04Z</time>
      </trkpt>
      <trkpt lat="41.615007" lon="1.793214">
        <ele>703.05</ele>
        <time>2017-04-29T14:48:09Z</time>
      </trkpt>
      <trkpt lat="41.614966" lon="1.793345">
        <ele>703.07</ele>
        <time>2017-04-29T14:48:14Z</time>
      </trkpt>
      <trkpt lat="41.614949" lon="1.793472">
        <ele>705.051</ele>
        <time>2017-04-29T14:48:18Z</time>
      </trkpt>
      <trkpt lat="41.614933" lon="1.793608">
        <ele>707.078</ele>
        <time>2017-04-29T14:48:22Z</time>
      </trkpt>
      <trkpt lat="41.614943" lon="1.793739">
        <ele>704.034</ele>
        <time>2017-04-29T14:48:26Z</time>
      </trkpt>
      <trkpt lat="41.614967" lon="1.793882">
        <ele>705.055</ele>
        <time>2017-04-29T14:48:31Z</time>
      </trkpt>
      <trkpt lat="41.614979" lon="1.794006">
        <ele>707.01</ele>
        <time>2017-04-29T14:48:35Z</time>
      </trkpt>
      <trkpt lat="41.614985" lon="1.794158">
        <ele>706.008</ele>
        <time>2017-04-29T14:48:40Z</time>
      </trkpt>
      <trkpt lat="41.61496" lon="1.794276">
        <ele>706.074</ele>
        <time>2017-04-29T14:48:44Z</time>
      </trkpt>
      <trkpt lat="41.614939" lon="1.794398">
        <ele>711.08</ele>
        <time>2017-04-29T14:48:50Z</time>
      </trkpt>
      <trkpt lat="41.61487" lon="1.794489">
        <ele>712.097</ele>
        <time>2017-04-29T14:48:55Z</time>
      </trkpt>
      <trkpt lat="41.614791" lon="1.794555">
        <ele>711.09</ele>
        <time>2017-04-29T14:48:59Z</time>
      </trkpt>
      <trkpt lat="41.614712" lon="1.794639">
        <ele>715.089</ele>
        <time>2017-04-29T14:49:05Z</time>
      </trkpt>
      <trkpt lat="41.614608" lon="1.794639">
        <ele>714.079</ele>
        <time>2017-04-29T14:49:10Z</time>
      </trkpt>
      <trkpt lat="41.614509" lon="1.794619">
        <ele>716.01</ele>
        <time>2017-04-29T14:49:16Z</time>
      </trkpt>
      <trkpt lat="41.614402" lon="1.794605">
        <ele>719.077</ele>
        <time>2017-04-29T14:49:22Z</time>
      </trkpt>
      <trkpt lat="41.614296" lon="1.794605">
        <ele>721.053</ele>
        <time>2017-04-29T14:49:28Z</time>
      </trkpt>
      <trkpt lat="41.614197" lon="1.794653">
        <ele>724.004</ele>
        <time>2017-04-29T14:49:34Z</time>
      </trkpt>
      <trkpt lat="41.614121" lon="1.794726">
        <ele>727.014</ele>
        <time>2017-04-29T14:49:40Z</time>
      </trkpt>
      <trkpt lat="41.614033" lon="1.794815">
        <ele>728.008</ele>
        <time>2017-04-29T14:49:45Z</time>
      </trkpt>
      <trkpt lat="41.613947" lon="1.794907">
        <ele>729.096</ele>
        <time>2017-04-29T14:49:50Z</time>
      </trkpt>
      <trkpt lat="41.613869" lon="1.794968">
        <ele>728.032</ele>
        <time>2017-04-29T14:49:53Z</time>
      </trkpt>
      <trkpt lat="41.613787" lon="1.79505">
        <ele>729.049</ele>
        <time>2017-04-29T14:49:58Z</time>
      </trkpt>
      <trkpt lat="41.613699" lon="1.795113">
        <ele>728.042</ele>
        <time>2017-04-29T14:50:03Z</time>
      </trkpt>
      <trkpt lat="41.613606" lon="1.795201">
        <ele>728.021</ele>
        <time>2017-04-29T14:50:09Z</time>
      </trkpt>
      <trkpt lat="41.613531" lon="1.79527">
        <ele>730.061</ele>
        <time>2017-04-29T14:50:13Z</time>
      </trkpt>
      <trkpt lat="41.613446" lon="1.795361">
        <ele>732.062</ele>
        <time>2017-04-29T14:50:20Z</time>
      </trkpt>
      <trkpt lat="41.613379" lon="1.795482">
        <ele>734.059</ele>
        <time>2017-04-29T14:50:26Z</time>
      </trkpt>
      <trkpt lat="41.613291" lon="1.795564">
        <ele>735.015</ele>
        <time>2017-04-29T14:50:31Z</time>
      </trkpt>
      <trkpt lat="41.613205" lon="1.795664">
        <ele>734.065</ele>
        <time>2017-04-29T14:50:35Z</time>
      </trkpt>
      <trkpt lat="41.613135" lon="1.795773">
        <ele>736.011</ele>
        <time>2017-04-29T14:50:41Z</time>
      </trkpt>
      <trkpt lat="41.613058" lon="1.795845">
        <ele>736.008</ele>
        <time>2017-04-29T14:50:45Z</time>
      </trkpt>
      <trkpt lat="41.612971" lon="1.795945">
        <ele>736.032</ele>
        <time>2017-04-29T14:50:50Z</time>
      </trkpt>
      <trkpt lat="41.612883" lon="1.796032">
        <ele>738.028</ele>
        <time>2017-04-29T14:50:55Z</time>
      </trkpt>
      <trkpt lat="41.612797" lon="1.796079">
        <ele>737.045</ele>
        <time>2017-04-29T14:50:59Z</time>
      </trkpt>
      <trkpt lat="41.612704" lon="1.796104">
        <ele>737.088</ele>
        <time>2017-04-29T14:51:03Z</time>
      </trkpt>
      <trkpt lat="41.61261" lon="1.796118">
        <ele>737.057</ele>
        <time>2017-04-29T14:51:08Z</time>
      </trkpt>
      <trkpt lat="41.61252" lon="1.796163">
        <ele>741.027</ele>
        <time>2017-04-29T14:51:15Z</time>
      </trkpt>
      <trkpt lat="41.612448" lon="1.796239">
        <ele>745.048</ele>
        <time>2017-04-29T14:51:20Z</time>
      </trkpt>
      <trkpt lat="41.612376" lon="1.796322">
        <ele>745.065</ele>
        <time>2017-04-29T14:51:25Z</time>
      </trkpt>
      <trkpt lat="41.612325" lon="1.79644">
        <ele>746.035</ele>
        <time>2017-04-29T14:51:30Z</time>
      </trkpt>
      <trkpt lat="41.612284" lon="1.796552">
        <ele>747.086</ele>
        <time>2017-04-29T14:51:35Z</time>
      </trkpt>
      <trkpt lat="41.612227" lon="1.796667">
        <ele>744.014</ele>
        <time>2017-04-29T14:51:40Z</time>
      </trkpt>
      <trkpt lat="41.612221" lon="1.796803">
        <ele>746.008</ele>
        <time>2017-04-29T14:51:46Z</time>
      </trkpt>
      <trkpt lat="41.6122" lon="1.796936">
        <ele>749.044</ele>
        <time>2017-04-29T14:51:51Z</time>
      </trkpt>
      <trkpt lat="41.612139" lon="1.797051">
        <ele>751.06</ele>
        <time>2017-04-29T14:51:57Z</time>
      </trkpt>
      <trkpt lat="41.6121" lon="1.797197">
        <ele>749.027</ele>
        <time>2017-04-29T14:52:03Z</time>
      </trkpt>
      <trkpt lat="41.612055" lon="1.797325">
        <ele>745.02</ele>
        <time>2017-04-29T14:52:07Z</time>
      </trkpt>
      <trkpt lat="41.612012" lon="1.797437">
        <ele>744.089</ele>
        <time>2017-04-29T14:52:12Z</time>
      </trkpt>
      <trkpt lat="41.611956" lon="1.79756">
        <ele>743.089</ele>
        <time>2017-04-29T14:52:16Z</time>
      </trkpt>
      <trkpt lat="41.611923" lon="1.797681">
        <ele>744.09</ele>
        <time>2017-04-29T14:52:20Z</time>
      </trkpt>
      <trkpt lat="41.611868" lon="1.797801">
        <ele>747.087</ele>
        <time>2017-04-29T14:52:26Z</time>
      </trkpt>
      <trkpt lat="41.611844" lon="1.79792">
        <ele>748.063</ele>
        <time>2017-04-29T14:52:30Z</time>
      </trkpt>
      <trkpt lat="41.611818" lon="1.798047">
        <ele>745.044</ele>
        <time>2017-04-29T14:52:35Z</time>
      </trkpt>
      <trkpt lat="41.611793" lon="1.798168">
        <ele>743.018</ele>
        <time>2017-04-29T14:52:39Z</time>
      </trkpt>
      <trkpt lat="41.611774" lon="1.798313">
        <ele>745.008</ele>
        <time>2017-04-29T14:52:43Z</time>
      </trkpt>
      <trkpt lat="41.611778" lon="1.798452">
        <ele>742.027</ele>
        <time>2017-04-29T14:52:46Z</time>
      </trkpt>
      <trkpt lat="41.611754" lon="1.798604">
        <ele>742.033</ele>
        <time>2017-04-29T14:52:49Z</time>
      </trkpt>
      <trkpt lat="41.611726" lon="1.798748">
        <ele>743.09</ele>
        <time>2017-04-29T14:52:52Z</time>
      </trkpt>
      <trkpt lat="41.611697" lon="1.798895">
        <ele>744.053</ele>
        <time>2017-04-29T14:52:55Z</time>
      </trkpt>
      <trkpt lat="41.611672" lon="1.79904">
        <ele>743.082</ele>
        <time>2017-04-29T14:52:58Z</time>
      </trkpt>
      <trkpt lat="41.61167" lon="1.799172">
        <ele>740.072</ele>
        <time>2017-04-29T14:53:01Z</time>
      </trkpt>
      <trkpt lat="41.611667" lon="1.799325">
        <ele>740.073</ele>
        <time>2017-04-29T14:53:04Z</time>
      </trkpt>
      <trkpt lat="41.611636" lon="1.799495">
        <ele>738.09</ele>
        <time>2017-04-29T14:53:07Z</time>
      </trkpt>
      <trkpt lat="41.6116" lon="1.799654">
        <ele>740.038</ele>
        <time>2017-04-29T14:53:10Z</time>
      </trkpt>
      <trkpt lat="41.611549" lon="1.799753">
        <ele>741.07</ele>
        <time>2017-04-29T14:53:12Z</time>
      </trkpt>
      <trkpt lat="41.611454" lon="1.79985">
        <ele>741.017</ele>
        <time>2017-04-29T14:53:15Z</time>
      </trkpt>
      <trkpt lat="41.611368" lon="1.79997">
        <ele>742.008</ele>
        <time>2017-04-29T14:53:18Z</time>
      </trkpt>
      <trkpt lat="41.611285" lon="1.80013">
        <ele>742.094</ele>
        <time>2017-04-29T14:53:21Z</time>
      </trkpt>
      <trkpt lat="41.611245" lon="1.800256">
        <ele>741.08</ele>
        <time>2017-04-29T14:53:23Z</time>
      </trkpt>
      <trkpt lat="41.611194" lon="1.800373">
        <ele>741.047</ele>
        <time>2017-04-29T14:53:25Z</time>
      </trkpt>
      <trkpt lat="41.611175" lon="1.800505">
        <ele>742.09</ele>
        <time>2017-04-29T14:53:27Z</time>
      </trkpt>
      <trkpt lat="41.611198" lon="1.800648">
        <ele>742.039</ele>
        <time>2017-04-29T14:53:29Z</time>
      </trkpt>
      <trkpt lat="41.611207" lon="1.800803">
        <ele>742.029</ele>
        <time>2017-04-29T14:53:31Z</time>
      </trkpt>
      <trkpt lat="41.611218" lon="1.800962">
        <ele>741.08</ele>
        <time>2017-04-29T14:53:33Z</time>
      </trkpt>
      <trkpt lat="41.611169" lon="1.801085">
        <ele>740.027</ele>
        <time>2017-04-29T14:53:35Z</time>
      </trkpt>
      <trkpt lat="41.6111" lon="1.801203">
        <ele>740.068</ele>
        <time>2017-04-29T14:53:38Z</time>
      </trkpt>
      <trkpt lat="41.611048" lon="1.801322">
        <ele>744.042</ele>
        <time>2017-04-29T14:53:43Z</time>
      </trkpt>
      <trkpt lat="41.610966" lon="1.801402">
        <ele>744.026</ele>
        <time>2017-04-29T14:53:47Z</time>
      </trkpt>
      <trkpt lat="41.610879" lon="1.801469">
        <ele>745.008</ele>
        <time>2017-04-29T14:53:51Z</time>
      </trkpt>
      <trkpt lat="41.610802" lon="1.801534">
        <ele>745.047</ele>
        <time>2017-04-29T14:53:55Z</time>
      </trkpt>
      <trkpt lat="41.610709" lon="1.801611">
        <ele>747.033</ele>
        <time>2017-04-29T14:54:00Z</time>
      </trkpt>
      <trkpt lat="41.610642" lon="1.801724">
        <ele>747.08</ele>
        <time>2017-04-29T14:54:05Z</time>
      </trkpt>
      <trkpt lat="41.610606" lon="1.801848">
        <ele>750.033</ele>
        <time>2017-04-29T14:54:09Z</time>
      </trkpt>
      <trkpt lat="41.610569" lon="1.801992">
        <ele>750.022</ele>
        <time>2017-04-29T14:54:13Z</time>
      </trkpt>
      <trkpt lat="41.610525" lon="1.802105">
        <ele>749.052</ele>
        <time>2017-04-29T14:54:16Z</time>
      </trkpt>
      <trkpt lat="41.610471" lon="1.802245">
        <ele>750.093</ele>
        <time>2017-04-29T14:54:21Z</time>
      </trkpt>
      <trkpt lat="41.610434" lon="1.802361">
        <ele>751.01</ele>
        <time>2017-04-29T14:54:25Z</time>
      </trkpt>
      <trkpt lat="41.610382" lon="1.802507">
        <ele>754.055</ele>
        <time>2017-04-29T14:54:30Z</time>
      </trkpt>
      <trkpt lat="41.610325" lon="1.802609">
        <ele>755.007</ele>
        <time>2017-04-29T14:54:33Z</time>
      </trkpt>
      <trkpt lat="41.610286" lon="1.802724">
        <ele>753.017</ele>
        <time>2017-04-29T14:54:36Z</time>
      </trkpt>
      <trkpt lat="41.61026" lon="1.802858">
        <ele>752.008</ele>
        <time>2017-04-29T14:54:40Z</time>
      </trkpt>
      <trkpt lat="41.610238" lon="1.802975">
        <ele>751.056</ele>
        <time>2017-04-29T14:54:43Z</time>
      </trkpt>
      <trkpt lat="41.610208" lon="1.803094">
        <ele>749.072</ele>
        <time>2017-04-29T14:54:46Z</time>
      </trkpt>
      <trkpt lat="41.610195" lon="1.803236">
        <ele>749.059</ele>
        <time>2017-04-29T14:54:50Z</time>
      </trkpt>
      <trkpt lat="41.610192" lon="1.803358">
        <ele>751.052</ele>
        <time>2017-04-29T14:54:53Z</time>
      </trkpt>
      <trkpt lat="41.610183" lon="1.803495">
        <ele>751.021</ele>
        <time>2017-04-29T14:54:56Z</time>
      </trkpt>
      <trkpt lat="41.610156" lon="1.803649">
        <ele>731.091</ele>
        <time>2017-04-29T14:54:59Z</time>
      </trkpt>
      <trkpt lat="41.610146" lon="1.803815">
        <ele>743.072</ele>
        <time>2017-04-29T14:55:03Z</time>
      </trkpt>
      <trkpt lat="41.61013" lon="1.803972">
        <ele>744.099</ele>
        <time>2017-04-29T14:55:06Z</time>
      </trkpt>
      <trkpt lat="41.610096" lon="1.804102">
        <ele>746.096</ele>
        <time>2017-04-29T14:55:09Z</time>
      </trkpt>
      <trkpt lat="41.610071" lon="1.804239">
        <ele>746.031</ele>
        <time>2017-04-29T14:55:12Z</time>
      </trkpt>
      <trkpt lat="41.610023" lon="1.804372">
        <ele>747.024</ele>
        <time>2017-04-29T14:55:15Z</time>
      </trkpt>
      <trkpt lat="41.610008" lon="1.80451">
        <ele>747.008</ele>
        <time>2017-04-29T14:55:18Z</time>
      </trkpt>
      <trkpt lat="41.609999" lon="1.804661">
        <ele>748.03</ele>
        <time>2017-04-29T14:55:21Z</time>
      </trkpt>
      <trkpt lat="41.610022" lon="1.804838">
        <ele>745.026</ele>
        <time>2017-04-29T14:55:24Z</time>
      </trkpt>
      <trkpt lat="41.610031" lon="1.804984">
        <ele>745.033</ele>
        <time>2017-04-29T14:55:26Z</time>
      </trkpt>
      <trkpt lat="41.610047" lon="1.805159">
        <ele>743.066</ele>
        <time>2017-04-29T14:55:28Z</time>
      </trkpt>
      <trkpt lat="41.610069" lon="1.805356">
        <ele>741.055</ele>
        <time>2017-04-29T14:55:30Z</time>
      </trkpt>
      <trkpt lat="41.610091" lon="1.805559">
        <ele>739.055</ele>
        <time>2017-04-29T14:55:32Z</time>
      </trkpt>
      <trkpt lat="41.610109" lon="1.805763">
        <ele>737.076</ele>
        <time>2017-04-29T14:55:34Z</time>
      </trkpt>
      <trkpt lat="41.610118" lon="1.805982">
        <ele>735.033</ele>
        <time>2017-04-29T14:55:36Z</time>
      </trkpt>
      <trkpt lat="41.610096" lon="1.806171">
        <ele>734.099</ele>
        <time>2017-04-29T14:55:38Z</time>
      </trkpt>
      <trkpt lat="41.610033" lon="1.80636">
        <ele>733.007</ele>
        <time>2017-04-29T14:55:40Z</time>
      </trkpt>
      <trkpt lat="41.609968" lon="1.806555">
        <ele>734.027</ele>
        <time>2017-04-29T14:55:42Z</time>
      </trkpt>
      <trkpt lat="41.609888" lon="1.806728">
        <ele>732.008</ele>
        <time>2017-04-29T14:55:44Z</time>
      </trkpt>
      <trkpt lat="41.609823" lon="1.806904">
        <ele>730.09</ele>
        <time>2017-04-29T14:55:46Z</time>
      </trkpt>
      <trkpt lat="41.609758" lon="1.80708">
        <ele>730.016</ele>
        <time>2017-04-29T14:55:48Z</time>
      </trkpt>
      <trkpt lat="41.609676" lon="1.807223">
        <ele>730.013</ele>
        <time>2017-04-29T14:55:50Z</time>
      </trkpt>
      <trkpt lat="41.60961" lon="1.807334">
        <ele>730.096</ele>
        <time>2017-04-29T14:55:52Z</time>
      </trkpt>
      <trkpt lat="41.60954" lon="1.807448">
        <ele>730.075</ele>
        <time>2017-04-29T14:55:55Z</time>
      </trkpt>
      <trkpt lat="41.609496" lon="1.807553">
        <ele>729.035</ele>
        <time>2017-04-29T14:55:58Z</time>
      </trkpt>
      <trkpt lat="41.609464" lon="1.807681">
        <ele>728.066</ele>
        <time>2017-04-29T14:56:01Z</time>
      </trkpt>
      <trkpt lat="41.609477" lon="1.807834">
        <ele>730.083</ele>
        <time>2017-04-29T14:56:05Z</time>
      </trkpt>
      <trkpt lat="41.609488" lon="1.807966">
        <ele>729.023</ele>
        <time>2017-04-29T14:56:08Z</time>
      </trkpt>
      <trkpt lat="41.609521" lon="1.808106">
        <ele>728.083</ele>
        <time>2017-04-29T14:56:11Z</time>
      </trkpt>
      <trkpt lat="41.60952" lon="1.808264">
        <ele>727.011</ele>
        <time>2017-04-29T14:56:14Z</time>
      </trkpt>
      <trkpt lat="41.609508" lon="1.808387">
        <ele>727.008</ele>
        <time>2017-04-29T14:56:16Z</time>
      </trkpt>
      <trkpt lat="41.609477" lon="1.808529">
        <ele>726.093</ele>
        <time>2017-04-29T14:56:18Z</time>
      </trkpt>
      <trkpt lat="41.609447" lon="1.808681">
        <ele>725.089</ele>
        <time>2017-04-29T14:56:20Z</time>
      </trkpt>
      <trkpt lat="41.609417" lon="1.808852">
        <ele>723.056</ele>
        <time>2017-04-29T14:56:22Z</time>
      </trkpt>
      <trkpt lat="41.609387" lon="1.80906">
        <ele>721.049</ele>
        <time>2017-04-29T14:56:24Z</time>
      </trkpt>
      <trkpt lat="41.609388" lon="1.809256">
        <ele>721.058</ele>
        <time>2017-04-29T14:56:26Z</time>
      </trkpt>
      <trkpt lat="41.609443" lon="1.809451">
        <ele>719.068</ele>
        <time>2017-04-29T14:56:28Z</time>
      </trkpt>
      <trkpt lat="41.609522" lon="1.809641">
        <ele>718.089</ele>
        <time>2017-04-29T14:56:30Z</time>
      </trkpt>
      <trkpt lat="41.609613" lon="1.809827">
        <ele>717.096</ele>
        <time>2017-04-29T14:56:32Z</time>
      </trkpt>
      <trkpt lat="41.609691" lon="1.81002">
        <ele>716.069</ele>
        <time>2017-04-29T14:56:34Z</time>
      </trkpt>
      <trkpt lat="41.609751" lon="1.810117">
        <ele>716.004</ele>
        <time>2017-04-29T14:56:35Z</time>
      </trkpt>
      <trkpt lat="41.609815" lon="1.810207">
        <ele>715.024</ele>
        <time>2017-04-29T14:56:36Z</time>
      </trkpt>
      <trkpt lat="41.609889" lon="1.8103">
        <ele>715.008</ele>
        <time>2017-04-29T14:56:37Z</time>
      </trkpt>
      <trkpt lat="41.609962" lon="1.810382">
        <ele>715.037</ele>
        <time>2017-04-29T14:56:38Z</time>
      </trkpt>
      <trkpt lat="41.610104" lon="1.810499">
        <ele>716.013</ele>
        <time>2017-04-29T14:56:40Z</time>
      </trkpt>
      <trkpt lat="41.610194" lon="1.810577">
        <ele>716.08</ele>
        <time>2017-04-29T14:56:41Z</time>
      </trkpt>
      <trkpt lat="41.61033" lon="1.810689">
        <ele>716.063</ele>
        <time>2017-04-29T14:56:43Z</time>
      </trkpt>
      <trkpt lat="41.610433" lon="1.810805">
        <ele>716.012</ele>
        <time>2017-04-29T14:56:45Z</time>
      </trkpt>
      <trkpt lat="41.610506" lon="1.810884">
        <ele>715.062</ele>
        <time>2017-04-29T14:56:47Z</time>
      </trkpt>
      <trkpt lat="41.61059" lon="1.811008">
        <ele>715.033</ele>
        <time>2017-04-29T14:56:50Z</time>
      </trkpt>
      <trkpt lat="41.610646" lon="1.81114">
        <ele>715.03</ele>
        <time>2017-04-29T14:56:53Z</time>
      </trkpt>
      <trkpt lat="41.610725" lon="1.811231">
        <ele>715.093</ele>
        <time>2017-04-29T14:56:57Z</time>
      </trkpt>
      <trkpt lat="41.610783" lon="1.811353">
        <ele>714.065</ele>
        <time>2017-04-29T14:57:02Z</time>
      </trkpt>
      <trkpt lat="41.610838" lon="1.81146">
        <ele>714.021</ele>
        <time>2017-04-29T14:57:08Z</time>
      </trkpt>
      <trkpt lat="41.610899" lon="1.81156">
        <ele>714.008</ele>
        <time>2017-04-29T14:57:13Z</time>
      </trkpt>
      <trkpt lat="41.610965" lon="1.811669">
        <ele>714.06</ele>
        <time>2017-04-29T14:57:17Z</time>
      </trkpt>
      <trkpt lat="41.611025" lon="1.81176">
        <ele>715.036</ele>
        <time>2017-04-29T14:57:21Z</time>
      </trkpt>
      <trkpt lat="41.61109" lon="1.811863">
        <ele>718.043</ele>
        <time>2017-04-29T14:57:26Z</time>
      </trkpt>
      <trkpt lat="41.611156" lon="1.811973">
        <ele>719.026</ele>
        <time>2017-04-29T14:57:30Z</time>
      </trkpt>
      <trkpt lat="41.611214" lon="1.812096">
        <ele>721.035</ele>
        <time>2017-04-29T14:57:35Z</time>
      </trkpt>
      <trkpt lat="41.611243" lon="1.812229">
        <ele>720.015</ele>
        <time>2017-04-29T14:57:40Z</time>
      </trkpt>
      <trkpt lat="41.611271" lon="1.812359">
        <ele>724.046</ele>
        <time>2017-04-29T14:57:45Z</time>
      </trkpt>
      <trkpt lat="41.61127" lon="1.812507">
        <ele>726.053</ele>
        <time>2017-04-29T14:57:50Z</time>
      </trkpt>
      <trkpt lat="41.611255" lon="1.812629">
        <ele>729.046</ele>
        <time>2017-04-29T14:57:55Z</time>
      </trkpt>
      <trkpt lat="41.611223" lon="1.812752">
        <ele>731.088</ele>
        <time>2017-04-29T14:58:00Z</time>
      </trkpt>
      <trkpt lat="41.611166" lon="1.812878">
        <ele>733.016</ele>
        <time>2017-04-29T14:58:04Z</time>
      </trkpt>
      <trkpt lat="41.611109" lon="1.813002">
        <ele>734.008</ele>
        <time>2017-04-29T14:58:08Z</time>
      </trkpt>
      <trkpt lat="41.611046" lon="1.813128">
        <ele>735.025</ele>
        <time>2017-04-29T14:58:13Z</time>
      </trkpt>
      <trkpt lat="41.611015" lon="1.813245">
        <ele>735.091</ele>
        <time>2017-04-29T14:58:16Z</time>
      </trkpt>
      <trkpt lat="41.610963" lon="1.813345">
        <ele>737.068</ele>
        <time>2017-04-29T14:58:19Z</time>
      </trkpt>
      <trkpt lat="41.610888" lon="1.81346">
        <ele>736.071</ele>
        <time>2017-04-29T14:58:22Z</time>
      </trkpt>
      <trkpt lat="41.61082" lon="1.8136">
        <ele>737.04</ele>
        <time>2017-04-29T14:58:25Z</time>
      </trkpt>
      <trkpt lat="41.610772" lon="1.81371">
        <ele>737.05</ele>
        <time>2017-04-29T14:58:27Z</time>
      </trkpt>
      <trkpt lat="41.610718" lon="1.81386">
        <ele>736.041</ele>
        <time>2017-04-29T14:58:29Z</time>
      </trkpt>
      <trkpt lat="41.610716" lon="1.814042">
        <ele>732.048</ele>
        <time>2017-04-29T14:58:31Z</time>
      </trkpt>
      <trkpt lat="41.610748" lon="1.814244">
        <ele>732.089</ele>
        <time>2017-04-29T14:58:33Z</time>
      </trkpt>
      <trkpt lat="41.610804" lon="1.814448">
        <ele>730.006</ele>
        <time>2017-04-29T14:58:37Z</time>
      </trkpt>
      <trkpt lat="41.610867" lon="1.814657">
        <ele>724.026</ele>
        <time>2017-04-29T14:58:39Z</time>
      </trkpt>
      <trkpt lat="41.610917" lon="1.814874">
        <ele>723.008</ele>
        <time>2017-04-29T14:58:41Z</time>
      </trkpt>
      <trkpt lat="41.610937" lon="1.815103">
        <ele>731.079</ele>
        <time>2017-04-29T14:58:43Z</time>
      </trkpt>
      <trkpt lat="41.610917" lon="1.815327">
        <ele>727.085</ele>
        <time>2017-04-29T14:58:45Z</time>
      </trkpt>
      <trkpt lat="41.610889" lon="1.815542">
        <ele>725.062</ele>
        <time>2017-04-29T14:58:47Z</time>
      </trkpt>
      <trkpt lat="41.610867" lon="1.815732">
        <ele>724.065</ele>
        <time>2017-04-29T14:58:49Z</time>
      </trkpt>
      <trkpt lat="41.610872" lon="1.81592">
        <ele>723.054</ele>
        <time>2017-04-29T14:58:51Z</time>
      </trkpt>
      <trkpt lat="41.610842" lon="1.816069">
        <ele>722.034</ele>
        <time>2017-04-29T14:58:53Z</time>
      </trkpt>
      <trkpt lat="41.610839" lon="1.816235">
        <ele>723.055</ele>
        <time>2017-04-29T14:58:57Z</time>
      </trkpt>
      <trkpt lat="41.610895" lon="1.816339">
        <ele>724.012</ele>
        <time>2017-04-29T14:59:00Z</time>
      </trkpt>
      <trkpt lat="41.610947" lon="1.816457">
        <ele>725.031</ele>
        <time>2017-04-29T14:59:04Z</time>
      </trkpt>
      <trkpt lat="41.611024" lon="1.816573">
        <ele>726.061</ele>
        <time>2017-04-29T14:59:09Z</time>
      </trkpt>
      <trkpt lat="41.611067" lon="1.816682">
        <ele>728.007</ele>
        <time>2017-04-29T14:59:13Z</time>
      </trkpt>
      <trkpt lat="41.611097" lon="1.8168">
        <ele>730.008</ele>
        <time>2017-04-29T14:59:18Z</time>
      </trkpt>
      <trkpt lat="41.611077" lon="1.816941">
        <ele>730.024</ele>
        <time>2017-04-29T14:59:23Z</time>
      </trkpt>
      <trkpt lat="41.611049" lon="1.817077">
        <ele>730.06</ele>
        <time>2017-04-29T14:59:27Z</time>
      </trkpt>
      <trkpt lat="41.611009" lon="1.817233">
        <ele>729.047</ele>
        <time>2017-04-29T14:59:31Z</time>
      </trkpt>
      <trkpt lat="41.61099" lon="1.817359">
        <ele>730.09</ele>
        <time>2017-04-29T14:59:34Z</time>
      </trkpt>
      <trkpt lat="41.61094" lon="1.817476">
        <ele>731.059</ele>
        <time>2017-04-29T14:59:37Z</time>
      </trkpt>
      <trkpt lat="41.610883" lon="1.817595">
        <ele>731.069</ele>
        <time>2017-04-29T14:59:40Z</time>
      </trkpt>
      <trkpt lat="41.610798" lon="1.817707">
        <ele>730.03</ele>
        <time>2017-04-29T14:59:43Z</time>
      </trkpt>
      <trkpt lat="41.61072" lon="1.817771">
        <ele>729.037</ele>
        <time>2017-04-29T14:59:45Z</time>
      </trkpt>
      <trkpt lat="41.610641" lon="1.817838">
        <ele>729.093</ele>
        <time>2017-04-29T14:59:47Z</time>
      </trkpt>
      <trkpt lat="41.610537" lon="1.81794">
        <ele>728.065</ele>
        <time>2017-04-29T14:59:50Z</time>
      </trkpt>
      <trkpt lat="41.610431" lon="1.818039">
        <ele>729.021</ele>
        <time>2017-04-29T14:59:53Z</time>
      </trkpt>
      <trkpt lat="41.610328" lon="1.81812">
        <ele>731.008</ele>
        <time>2017-04-29T14:59:56Z</time>
      </trkpt>
      <trkpt lat="41.610228" lon="1.818236">
        <ele>731.04</ele>
        <time>2017-04-29T14:59:59Z</time>
      </trkpt>
      <trkpt lat="41.61013" lon="1.818306">
        <ele>731.046</ele>
        <time>2017-04-29T15:00:01Z</time>
      </trkpt>
      <trkpt lat="41.610036" lon="1.81839">
        <ele>732.033</ele>
        <time>2017-04-29T15:00:03Z</time>
      </trkpt>
      <trkpt lat="41.609933" lon="1.818483">
        <ele>732.096</ele>
        <time>2017-04-29T15:00:05Z</time>
      </trkpt>
      <trkpt lat="41.609831" lon="1.818579">
        <ele>732.035</ele>
        <time>2017-04-29T15:00:07Z</time>
      </trkpt>
      <trkpt lat="41.609718" lon="1.818673">
        <ele>731.075</ele>
        <time>2017-04-29T15:00:09Z</time>
      </trkpt>
      <trkpt lat="41.60957" lon="1.818758">
        <ele>731.016</ele>
        <time>2017-04-29T15:00:11Z</time>
      </trkpt>
      <trkpt lat="41.609418" lon="1.818827">
        <ele>731.033</ele>
        <time>2017-04-29T15:00:13Z</time>
      </trkpt>
      <trkpt lat="41.609228" lon="1.818857">
        <ele>729.045</ele>
        <time>2017-04-29T15:00:15Z</time>
      </trkpt>
      <trkpt lat="41.609127" lon="1.818864">
        <ele>728.047</ele>
        <time>2017-04-29T15:00:16Z</time>
      </trkpt>
      <trkpt lat="41.609025" lon="1.818852">
        <ele>727.011</ele>
        <time>2017-04-29T15:00:17Z</time>
      </trkpt>
      <trkpt lat="41.608918" lon="1.818862">
        <ele>726.008</ele>
        <time>2017-04-29T15:00:18Z</time>
      </trkpt>
      <trkpt lat="41.608814" lon="1.818882">
        <ele>724.095</ele>
        <time>2017-04-29T15:00:19Z</time>
      </trkpt>
      <trkpt lat="41.608715" lon="1.818905">
        <ele>722.081</ele>
        <time>2017-04-29T15:00:20Z</time>
      </trkpt>
      <trkpt lat="41.608615" lon="1.818922">
        <ele>722.058</ele>
        <time>2017-04-29T15:00:21Z</time>
      </trkpt>
      <trkpt lat="41.608509" lon="1.818961">
        <ele>721.091</ele>
        <time>2017-04-29T15:00:22Z</time>
      </trkpt>
      <trkpt lat="41.608398" lon="1.819005">
        <ele>719.05</ele>
        <time>2017-04-29T15:00:23Z</time>
      </trkpt>
      <trkpt lat="41.608293" lon="1.81905">
        <ele>718.04</ele>
        <time>2017-04-29T15:00:24Z</time>
      </trkpt>
      <trkpt lat="41.608195" lon="1.819108">
        <ele>716.081</ele>
        <time>2017-04-29T15:00:25Z</time>
      </trkpt>
      <trkpt lat="41.608083" lon="1.81915">
        <ele>715.038</ele>
        <time>2017-04-29T15:00:26Z</time>
      </trkpt>
      <trkpt lat="41.607972" lon="1.819198">
        <ele>715.015</ele>
        <time>2017-04-29T15:00:27Z</time>
      </trkpt>
      <trkpt lat="41.607867" lon="1.81925">
        <ele>714.065</ele>
        <time>2017-04-29T15:00:28Z</time>
      </trkpt>
      <trkpt lat="41.607764" lon="1.819298">
        <ele>714.011</ele>
        <time>2017-04-29T15:00:29Z</time>
      </trkpt>
      <trkpt lat="41.607665" lon="1.819344">
        <ele>712.008</ele>
        <time>2017-04-29T15:00:30Z</time>
      </trkpt>
      <trkpt lat="41.607572" lon="1.819398">
        <ele>712.062</ele>
        <time>2017-04-29T15:00:31Z</time>
      </trkpt>
      <trkpt lat="41.607488" lon="1.819447">
        <ele>712.048</ele>
        <time>2017-04-29T15:00:32Z</time>
      </trkpt>
      <trkpt lat="41.607411" lon="1.819512">
        <ele>711.085</ele>
        <time>2017-04-29T15:00:33Z</time>
      </trkpt>
      <trkpt lat="41.607292" lon="1.81966">
        <ele>710.068</ele>
        <time>2017-04-29T15:00:35Z</time>
      </trkpt>
      <trkpt lat="41.607217" lon="1.819827">
        <ele>709.027</ele>
        <time>2017-04-29T15:00:37Z</time>
      </trkpt>
      <trkpt lat="41.607177" lon="1.820019">
        <ele>708.097</ele>
        <time>2017-04-29T15:00:39Z</time>
      </trkpt>
      <trkpt lat="41.60713" lon="1.820209">
        <ele>708.038</ele>
        <time>2017-04-29T15:00:41Z</time>
      </trkpt>
      <trkpt lat="41.607073" lon="1.82038">
        <ele>708.065</ele>
        <time>2017-04-29T15:00:43Z</time>
      </trkpt>
      <trkpt lat="41.607015" lon="1.820552">
        <ele>707.066</ele>
        <time>2017-04-29T15:00:45Z</time>
      </trkpt>
      <trkpt lat="41.606986" lon="1.82069">
        <ele>707.029</ele>
        <time>2017-04-29T15:00:47Z</time>
      </trkpt>
      <trkpt lat="41.606916" lon="1.820803">
        <ele>705.021</ele>
        <time>2017-04-29T15:00:50Z</time>
      </trkpt>
      <trkpt lat="41.606926" lon="1.820923">
        <ele>712.008</ele>
        <time>2017-04-29T15:00:52Z</time>
      </trkpt>
      <trkpt lat="41.606806" lon="1.820907">
        <ele>710.027</ele>
        <time>2017-04-29T15:00:54Z</time>
      </trkpt>
      <trkpt lat="41.606705" lon="1.820891">
        <ele>714.043</ele>
        <time>2017-04-29T15:00:57Z</time>
      </trkpt>
      <trkpt lat="41.606603" lon="1.82085">
        <ele>714.03</ele>
        <time>2017-04-29T15:01:00Z</time>
      </trkpt>
      <trkpt lat="41.6065" lon="1.820848">
        <ele>713.023</ele>
        <time>2017-04-29T15:01:03Z</time>
      </trkpt>
      <trkpt lat="41.60645" lon="1.820967">
        <ele>716.032</ele>
        <time>2017-04-29T15:01:05Z</time>
      </trkpt>
      <trkpt lat="41.606371" lon="1.821061">
        <ele>717.032</ele>
        <time>2017-04-29T15:01:08Z</time>
      </trkpt>
      <trkpt lat="41.606295" lon="1.82117">
        <ele>718.043</ele>
        <time>2017-04-29T15:01:11Z</time>
      </trkpt>
      <trkpt lat="41.606261" lon="1.821286">
        <ele>719.05</ele>
        <time>2017-04-29T15:01:13Z</time>
      </trkpt>
      <trkpt lat="41.606244" lon="1.821405">
        <ele>718.035</ele>
        <time>2017-04-29T15:01:15Z</time>
      </trkpt>
      <trkpt lat="41.606235" lon="1.821579">
        <ele>718.086</ele>
        <time>2017-04-29T15:01:18Z</time>
      </trkpt>
      <trkpt lat="41.606239" lon="1.821719">
        <ele>717.014</ele>
        <time>2017-04-29T15:01:20Z</time>
      </trkpt>
      <trkpt lat="41.606249" lon="1.821873">
        <ele>716.008</ele>
        <time>2017-04-29T15:01:22Z</time>
      </trkpt>
      <trkpt lat="41.606274" lon="1.822031">
        <ele>715.084</ele>
        <time>2017-04-29T15:01:24Z</time>
      </trkpt>
      <trkpt lat="41.606319" lon="1.822195">
        <ele>713.07</ele>
        <time>2017-04-29T15:01:26Z</time>
      </trkpt>
      <trkpt lat="41.606349" lon="1.822373">
        <ele>712.017</ele>
        <time>2017-04-29T15:01:28Z</time>
      </trkpt>
      <trkpt lat="41.606402" lon="1.822542">
        <ele>710.05</ele>
        <time>2017-04-29T15:01:30Z</time>
      </trkpt>
      <trkpt lat="41.606404" lon="1.822727">
        <ele>710.029</ele>
        <time>2017-04-29T15:01:32Z</time>
      </trkpt>
      <trkpt lat="41.606383" lon="1.822921">
        <ele>708.079</ele>
        <time>2017-04-29T15:01:34Z</time>
      </trkpt>
      <trkpt lat="41.606333" lon="1.823108">
        <ele>705.08</ele>
        <time>2017-04-29T15:01:36Z</time>
      </trkpt>
      <trkpt lat="41.606284" lon="1.823277">
        <ele>703.027</ele>
        <time>2017-04-29T15:01:38Z</time>
      </trkpt>
      <trkpt lat="41.606211" lon="1.823418">
        <ele>702.037</ele>
        <time>2017-04-29T15:01:40Z</time>
      </trkpt>
      <trkpt lat="41.606104" lon="1.823525">
        <ele>700.049</ele>
        <time>2017-04-29T15:01:42Z</time>
      </trkpt>
      <trkpt lat="41.605973" lon="1.823558">
        <ele>700.013</ele>
        <time>2017-04-29T15:01:44Z</time>
      </trkpt>
      <trkpt lat="41.605826" lon="1.823571">
        <ele>698.008</ele>
        <time>2017-04-29T15:01:46Z</time>
      </trkpt>
      <trkpt lat="41.605668" lon="1.823551">
        <ele>699.054</ele>
        <time>2017-04-29T15:01:48Z</time>
      </trkpt>
      <trkpt lat="41.605502" lon="1.823527">
        <ele>701.03</ele>
        <time>2017-04-29T15:01:50Z</time>
      </trkpt>
      <trkpt lat="41.605339" lon="1.823514">
        <ele>699.097</ele>
        <time>2017-04-29T15:01:52Z</time>
      </trkpt>
      <trkpt lat="41.605186" lon="1.823537">
        <ele>698.02</ele>
        <time>2017-04-29T15:01:54Z</time>
      </trkpt>
      <trkpt lat="41.605031" lon="1.823609">
        <ele>698.039</ele>
        <time>2017-04-29T15:01:56Z</time>
      </trkpt>
      <trkpt lat="41.604871" lon="1.823684">
        <ele>696.069</ele>
        <time>2017-04-29T15:01:58Z</time>
      </trkpt>
      <trkpt lat="41.604707" lon="1.823782">
        <ele>694.04</ele>
        <time>2017-04-29T15:02:00Z</time>
      </trkpt>
      <trkpt lat="41.604625" lon="1.82384">
        <ele>694.097</ele>
        <time>2017-04-29T15:02:01Z</time>
      </trkpt>
      <trkpt lat="41.604537" lon="1.823896">
        <ele>693.061</ele>
        <time>2017-04-29T15:02:02Z</time>
      </trkpt>
      <trkpt lat="41.604446" lon="1.82394">
        <ele>692.021</ele>
        <time>2017-04-29T15:02:03Z</time>
      </trkpt>
      <trkpt lat="41.604355" lon="1.823985">
        <ele>691.013</ele>
        <time>2017-04-29T15:02:04Z</time>
      </trkpt>
      <trkpt lat="41.60426" lon="1.824021">
        <ele>691.008</ele>
        <time>2017-04-29T15:02:05Z</time>
      </trkpt>
      <trkpt lat="41.604166" lon="1.824047">
        <ele>691.097</ele>
        <time>2017-04-29T15:02:06Z</time>
      </trkpt>
      <trkpt lat="41.604072" lon="1.824062">
        <ele>691.023</ele>
        <time>2017-04-29T15:02:07Z</time>
      </trkpt>
      <trkpt lat="41.603979" lon="1.824074">
        <ele>691.06</ele>
        <time>2017-04-29T15:02:08Z</time>
      </trkpt>
      <trkpt lat="41.603889" lon="1.824087">
        <ele>690.043</ele>
        <time>2017-04-29T15:02:09Z</time>
      </trkpt>
      <trkpt lat="41.603799" lon="1.824123">
        <ele>690.022</ele>
        <time>2017-04-29T15:02:10Z</time>
      </trkpt>
      <trkpt lat="41.603642" lon="1.824224">
        <ele>690.082</ele>
        <time>2017-04-29T15:02:12Z</time>
      </trkpt>
      <trkpt lat="41.603495" lon="1.824358">
        <ele>690.033</ele>
        <time>2017-04-29T15:02:14Z</time>
      </trkpt>
      <trkpt lat="41.603416" lon="1.824425">
        <ele>690.04</ele>
        <time>2017-04-29T15:02:15Z</time>
      </trkpt>
      <trkpt lat="41.603367" lon="1.824541">
        <ele>690.037</ele>
        <time>2017-04-29T15:02:16Z</time>
      </trkpt>
      <trkpt lat="41.603341" lon="1.824657">
        <ele>689.049</ele>
        <time>2017-04-29T15:02:17Z</time>
      </trkpt>
      <trkpt lat="41.603297" lon="1.824769">
        <ele>689.013</ele>
        <time>2017-04-29T15:02:18Z</time>
      </trkpt>
      <trkpt lat="41.603257" lon="1.824879">
        <ele>688.008</ele>
        <time>2017-04-29T15:02:19Z</time>
      </trkpt>
      <trkpt lat="41.603182" lon="1.825068">
        <ele>687.064</ele>
        <time>2017-04-29T15:02:21Z</time>
      </trkpt>
      <trkpt lat="41.60311" lon="1.825232">
        <ele>686.01</ele>
        <time>2017-04-29T15:02:23Z</time>
      </trkpt>
      <trkpt lat="41.603035" lon="1.825352">
        <ele>687.057</ele>
        <time>2017-04-29T15:02:25Z</time>
      </trkpt>
      <trkpt lat="41.602979" lon="1.825448">
        <ele>688.03</ele>
        <time>2017-04-29T15:02:27Z</time>
      </trkpt>
      <trkpt lat="41.602904" lon="1.825553">
        <ele>691.019</ele>
        <time>2017-04-29T15:02:32Z</time>
      </trkpt>
      <trkpt lat="41.602866" lon="1.82567">
        <ele>689.039</ele>
        <time>2017-04-29T15:02:36Z</time>
      </trkpt>
      <trkpt lat="41.602806" lon="1.825759">
        <ele>690.07</ele>
        <time>2017-04-29T15:02:42Z</time>
      </trkpt>
      <trkpt lat="41.602733" lon="1.825858">
        <ele>690.017</ele>
        <time>2017-04-29T15:02:46Z</time>
      </trkpt>
      <trkpt lat="41.602653" lon="1.825925">
        <ele>691.075</ele>
        <time>2017-04-29T15:02:50Z</time>
      </trkpt>
      <trkpt lat="41.602585" lon="1.826026">
        <ele>691.028</ele>
        <time>2017-04-29T15:02:54Z</time>
      </trkpt>
      <trkpt lat="41.602524" lon="1.826142">
        <ele>690.02</ele>
        <time>2017-04-29T15:02:58Z</time>
      </trkpt>
      <trkpt lat="41.602488" lon="1.826263">
        <ele>692.008</ele>
        <time>2017-04-29T15:03:03Z</time>
      </trkpt>
      <trkpt lat="41.602474" lon="1.826388">
        <ele>697.088</ele>
        <time>2017-04-29T15:03:07Z</time>
      </trkpt>
      <trkpt lat="41.602474" lon="1.826525">
        <ele>697.014</ele>
        <time>2017-04-29T15:03:11Z</time>
      </trkpt>
      <trkpt lat="41.602481" lon="1.826678">
        <ele>694.091</ele>
        <time>2017-04-29T15:03:15Z</time>
      </trkpt>
      <trkpt lat="41.60252" lon="1.826797">
        <ele>697.064</ele>
        <time>2017-04-29T15:03:19Z</time>
      </trkpt>
      <trkpt lat="41.602569" lon="1.826937">
        <ele>700.073</ele>
        <time>2017-04-29T15:03:23Z</time>
      </trkpt>
      <trkpt lat="41.602593" lon="1.827082">
        <ele>700.013</ele>
        <time>2017-04-29T15:03:27Z</time>
      </trkpt>
      <trkpt lat="41.602653" lon="1.827213">
        <ele>702.054</ele>
        <time>2017-04-29T15:03:31Z</time>
      </trkpt>
      <trkpt lat="41.602694" lon="1.827347">
        <ele>704.091</ele>
        <time>2017-04-29T15:03:35Z</time>
      </trkpt>
      <trkpt lat="41.602717" lon="1.827464">
        <ele>705.071</ele>
        <time>2017-04-29T15:03:39Z</time>
      </trkpt>
      <trkpt lat="41.602741" lon="1.827596">
        <ele>705.041</ele>
        <time>2017-04-29T15:03:43Z</time>
      </trkpt>
      <trkpt lat="41.602713" lon="1.827718">
        <ele>703.015</ele>
        <time>2017-04-29T15:03:46Z</time>
      </trkpt>
      <trkpt lat="41.602707" lon="1.827873">
        <ele>702.008</ele>
        <time>2017-04-29T15:03:50Z</time>
      </trkpt>
      <trkpt lat="41.602738" lon="1.82801">
        <ele>697.048</ele>
        <time>2017-04-29T15:03:53Z</time>
      </trkpt>
      <trkpt lat="41.602748" lon="1.828132">
        <ele>696.024</ele>
        <time>2017-04-29T15:03:57Z</time>
      </trkpt>
      <trkpt lat="41.602756" lon="1.828267">
        <ele>697.061</ele>
        <time>2017-04-29T15:04:01Z</time>
      </trkpt>
      <trkpt lat="41.602779" lon="1.828401">
        <ele>696.034</ele>
        <time>2017-04-29T15:04:05Z</time>
      </trkpt>
      <trkpt lat="41.60279" lon="1.828527">
        <ele>695.053</ele>
        <time>2017-04-29T15:04:08Z</time>
      </trkpt>
      <trkpt lat="41.60282" lon="1.828654">
        <ele>693.053</ele>
        <time>2017-04-29T15:04:12Z</time>
      </trkpt>
      <trkpt lat="41.602823" lon="1.828802">
        <ele>692.064</ele>
        <time>2017-04-29T15:04:16Z</time>
      </trkpt>
      <trkpt lat="41.60283" lon="1.828939">
        <ele>694.061</ele>
        <time>2017-04-29T15:04:20Z</time>
      </trkpt>
      <trkpt lat="41.602848" lon="1.829073">
        <ele>692.075</ele>
        <time>2017-04-29T15:04:24Z</time>
      </trkpt>
      <trkpt lat="41.602834" lon="1.829204">
        <ele>693.028</ele>
        <time>2017-04-29T15:04:28Z</time>
      </trkpt>
      <trkpt lat="41.602772" lon="1.829318">
        <ele>693.02</ele>
        <time>2017-04-29T15:04:32Z</time>
      </trkpt>
      <trkpt lat="41.602716" lon="1.829423">
        <ele>693.008</ele>
        <time>2017-04-29T15:04:36Z</time>
      </trkpt>
      <trkpt lat="41.60265" lon="1.829522">
        <ele>693.068</ele>
        <time>2017-04-29T15:04:40Z</time>
      </trkpt>
      <trkpt lat="41.602557" lon="1.829616">
        <ele>697.064</ele>
        <time>2017-04-29T15:04:45Z</time>
      </trkpt>
      <trkpt lat="41.602466" lon="1.829699">
        <ele>697.011</ele>
        <time>2017-04-29T15:04:49Z</time>
      </trkpt>
      <trkpt lat="41.602402" lon="1.829788">
        <ele>700.054</ele>
        <time>2017-04-29T15:04:53Z</time>
      </trkpt>
      <trkpt lat="41.602323" lon="1.829855">
        <ele>701.063</ele>
        <time>2017-04-29T15:04:57Z</time>
      </trkpt>
      <trkpt lat="41.602225" lon="1.829932">
        <ele>702.023</ele>
        <time>2017-04-29T15:05:01Z</time>
      </trkpt>
      <trkpt lat="41.602153" lon="1.830009">
        <ele>703.024</ele>
        <time>2017-04-29T15:05:05Z</time>
      </trkpt>
      <trkpt lat="41.602088" lon="1.830092">
        <ele>705.051</ele>
        <time>2017-04-29T15:05:09Z</time>
      </trkpt>
      <trkpt lat="41.602025" lon="1.830194">
        <ele>704.082</ele>
        <time>2017-04-29T15:05:13Z</time>
      </trkpt>
      <trkpt lat="41.601974" lon="1.830299">
        <ele>703.043</ele>
        <time>2017-04-29T15:05:17Z</time>
      </trkpt>
      <trkpt lat="41.601934" lon="1.830407">
        <ele>705.017</ele>
        <time>2017-04-29T15:05:20Z</time>
      </trkpt>
      <trkpt lat="41.601923" lon="1.83054">
        <ele>704.008</ele>
        <time>2017-04-29T15:05:24Z</time>
      </trkpt>
      <trkpt lat="41.601925" lon="1.830687">
        <ele>701.079</ele>
        <time>2017-04-29T15:05:28Z</time>
      </trkpt>
      <trkpt lat="41.601971" lon="1.830819">
        <ele>700.025</ele>
        <time>2017-04-29T15:05:32Z</time>
      </trkpt>
      <trkpt lat="41.602001" lon="1.830958">
        <ele>700.032</ele>
        <time>2017-04-29T15:05:36Z</time>
      </trkpt>
      <trkpt lat="41.602041" lon="1.831107">
        <ele>700.075</ele>
        <time>2017-04-29T15:05:40Z</time>
      </trkpt>
      <trkpt lat="41.60207" lon="1.831233">
        <ele>700.094</ele>
        <time>2017-04-29T15:05:43Z</time>
      </trkpt>
      <trkpt lat="41.602096" lon="1.831354">
        <ele>698.024</ele>
        <time>2017-04-29T15:05:45Z</time>
      </trkpt>
      <trkpt lat="41.602123" lon="1.831484">
        <ele>696.065</ele>
        <time>2017-04-29T15:05:48Z</time>
      </trkpt>
      <trkpt lat="41.602139" lon="1.831608">
        <ele>695.042</ele>
        <time>2017-04-29T15:05:51Z</time>
      </trkpt>
      <trkpt lat="41.602131" lon="1.83177">
        <ele>692.089</ele>
        <time>2017-04-29T15:05:54Z</time>
      </trkpt>
      <trkpt lat="41.602095" lon="1.831888">
        <ele>693.006</ele>
        <time>2017-04-29T15:05:56Z</time>
      </trkpt>
      <trkpt lat="41.602027" lon="1.831989">
        <ele>694.026</ele>
        <time>2017-04-29T15:05:58Z</time>
      </trkpt>
      <trkpt lat="41.601918" lon="1.832092">
        <ele>693.008</ele>
        <time>2017-04-29T15:06:00Z</time>
      </trkpt>
      <trkpt lat="41.601821" lon="1.832218">
        <ele>692.089</ele>
        <time>2017-04-29T15:06:02Z</time>
      </trkpt>
      <trkpt lat="41.601709" lon="1.832374">
        <ele>691.015</ele>
        <time>2017-04-29T15:06:04Z</time>
      </trkpt>
      <trkpt lat="41.601591" lon="1.832541">
        <ele>690.012</ele>
        <time>2017-04-29T15:06:06Z</time>
      </trkpt>
      <trkpt lat="41.601478" lon="1.832712">
        <ele>691.045</ele>
        <time>2017-04-29T15:06:08Z</time>
      </trkpt>
      <trkpt lat="41.601429" lon="1.832818">
        <ele>691.014</ele>
        <time>2017-04-29T15:06:09Z</time>
      </trkpt>
      <trkpt lat="41.60137" lon="1.832918">
        <ele>690.094</ele>
        <time>2017-04-29T15:06:10Z</time>
      </trkpt>
      <trkpt lat="41.601287" lon="1.83309">
        <ele>688.095</ele>
        <time>2017-04-29T15:06:12Z</time>
      </trkpt>
      <trkpt lat="41.601237" lon="1.833256">
        <ele>687.052</ele>
        <time>2017-04-29T15:06:14Z</time>
      </trkpt>
      <trkpt lat="41.601212" lon="1.833421">
        <ele>685.059</ele>
        <time>2017-04-29T15:06:16Z</time>
      </trkpt>
      <trkpt lat="41.601194" lon="1.83355">
        <ele>684.003</ele>
        <time>2017-04-29T15:06:18Z</time>
      </trkpt>
      <trkpt lat="41.601193" lon="1.833701">
        <ele>683.023</ele>
        <time>2017-04-29T15:06:21Z</time>
      </trkpt>
      <trkpt lat="41.601146" lon="1.83384">
        <ele>683.008</ele>
        <time>2017-04-29T15:06:25Z</time>
      </trkpt>
      <trkpt lat="41.601153" lon="1.833963">
        <ele>685.046</ele>
        <time>2017-04-29T15:06:29Z</time>
      </trkpt>
      <trkpt lat="41.601142" lon="1.834118">
        <ele>685.022</ele>
        <time>2017-04-29T15:06:33Z</time>
      </trkpt>
      <trkpt lat="41.601129" lon="1.83426">
        <ele>688.019</ele>
        <time>2017-04-29T15:06:37Z</time>
      </trkpt>
      <trkpt lat="41.601108" lon="1.834399">
        <ele>688.092</ele>
        <time>2017-04-29T15:06:41Z</time>
      </trkpt>
      <trkpt lat="41.601033" lon="1.834492">
        <ele>689.081</ele>
        <time>2017-04-29T15:06:46Z</time>
      </trkpt>
      <trkpt lat="41.600963" lon="1.834611">
        <ele>690.071</ele>
        <time>2017-04-29T15:06:52Z</time>
      </trkpt>
      <trkpt lat="41.60089" lon="1.834705">
        <ele>693.022</ele>
        <time>2017-04-29T15:06:59Z</time>
      </trkpt>
      <trkpt lat="41.600851" lon="1.834819">
        <ele>695.099</ele>
        <time>2017-04-29T15:07:05Z</time>
      </trkpt>
      <trkpt lat="41.600784" lon="1.834924">
        <ele>694.023</ele>
        <time>2017-04-29T15:07:11Z</time>
      </trkpt>
      <trkpt lat="41.600707" lon="1.834996">
        <ele>697.083</ele>
        <time>2017-04-29T15:07:16Z</time>
      </trkpt>
      <trkpt lat="41.600611" lon="1.835067">
        <ele>698.011</ele>
        <time>2017-04-29T15:07:21Z</time>
      </trkpt>
      <trkpt lat="41.600501" lon="1.835094">
        <ele>698.008</ele>
        <time>2017-04-29T15:07:26Z</time>
      </trkpt>
      <trkpt lat="41.600403" lon="1.835094">
        <ele>699.033</ele>
        <time>2017-04-29T15:07:31Z</time>
      </trkpt>
      <trkpt lat="41.600294" lon="1.835067">
        <ele>699.029</ele>
        <time>2017-04-29T15:07:37Z</time>
      </trkpt>
      <trkpt lat="41.600188" lon="1.835074">
        <ele>701.056</ele>
        <time>2017-04-29T15:07:43Z</time>
      </trkpt>
      <trkpt lat="41.600097" lon="1.835067">
        <ele>701.089</ele>
        <time>2017-04-29T15:07:50Z</time>
      </trkpt>
      <trkpt lat="41.6" lon="1.835031">
        <ele>702.028</ele>
        <time>2017-04-29T15:07:55Z</time>
      </trkpt>
      <trkpt lat="41.599902" lon="1.835026">
        <ele>704.078</ele>
        <time>2017-04-29T15:08:01Z</time>
      </trkpt>
      <trkpt lat="41.599812" lon="1.835011">
        <ele>706.069</ele>
        <time>2017-04-29T15:08:07Z</time>
      </trkpt>
      <trkpt lat="41.59971" lon="1.835004">
        <ele>708.096</ele>
        <time>2017-04-29T15:08:14Z</time>
      </trkpt>
      <trkpt lat="41.599615" lon="1.834992">
        <ele>711.037</ele>
        <time>2017-04-29T15:08:21Z</time>
      </trkpt>
      <trkpt lat="41.59952" lon="1.835002">
        <ele>715.049</ele>
        <time>2017-04-29T15:08:28Z</time>
      </trkpt>
      <trkpt lat="41.599419" lon="1.834999">
        <ele>717.013</ele>
        <time>2017-04-29T15:08:35Z</time>
      </trkpt>
      <trkpt lat="41.599324" lon="1.835006">
        <ele>715.008</ele>
        <time>2017-04-29T15:08:40Z</time>
      </trkpt>
      <trkpt lat="41.599226" lon="1.835031">
        <ele>719.064</ele>
        <time>2017-04-29T15:08:50Z</time>
      </trkpt>
      <trkpt lat="41.599131" lon="1.835056">
        <ele>725.01</ele>
        <time>2017-04-29T15:08:59Z</time>
      </trkpt>
      <trkpt lat="41.59905" lon="1.835112">
        <ele>729.087</ele>
        <time>2017-04-29T15:09:07Z</time>
      </trkpt>
      <trkpt lat="41.59898" lon="1.835192">
        <ele>733.04</ele>
        <time>2017-04-29T15:09:14Z</time>
      </trkpt>
      <trkpt lat="41.598881" lon="1.835265">
        <ele>732.069</ele>
        <time>2017-04-29T15:09:22Z</time>
      </trkpt>
      <trkpt lat="41.598807" lon="1.835336">
        <ele>730.079</ele>
        <time>2017-04-29T15:09:27Z</time>
      </trkpt>
      <trkpt lat="41.598744" lon="1.835456">
        <ele>734.05</ele>
        <time>2017-04-29T15:09:35Z</time>
      </trkpt>
      <trkpt lat="41.598658" lon="1.835554">
        <ele>738.077</ele>
        <time>2017-04-29T15:09:42Z</time>
      </trkpt>
      <trkpt lat="41.598614" lon="1.835688">
        <ele>741.058</ele>
        <time>2017-04-29T15:09:50Z</time>
      </trkpt>
      <trkpt lat="41.598547" lon="1.835784">
        <ele>737.052</ele>
        <time>2017-04-29T15:09:55Z</time>
      </trkpt>
      <trkpt lat="41.598514" lon="1.835898">
        <ele>736.017</ele>
        <time>2017-04-29T15:09:59Z</time>
      </trkpt>
      <trkpt lat="41.598455" lon="1.835995">
        <ele>735.008</ele>
        <time>2017-04-29T15:10:03Z</time>
      </trkpt>
      <trkpt lat="41.598402" lon="1.836106">
        <ele>732.096</ele>
        <time>2017-04-29T15:10:07Z</time>
      </trkpt>
      <trkpt lat="41.59839" lon="1.836231">
        <ele>732.092</ele>
        <time>2017-04-29T15:10:12Z</time>
      </trkpt>
      <trkpt lat="41.598324" lon="1.836336">
        <ele>729.099</ele>
        <time>2017-04-29T15:10:19Z</time>
      </trkpt>
      <trkpt lat="41.598236" lon="1.836387">
        <ele>728.082</ele>
        <time>2017-04-29T15:10:25Z</time>
      </trkpt>
      <trkpt lat="41.598141" lon="1.836441">
        <ele>731.011</ele>
        <time>2017-04-29T15:10:31Z</time>
      </trkpt>
      <trkpt lat="41.598039" lon="1.836475">
        <ele>730.071</ele>
        <time>2017-04-29T15:10:37Z</time>
      </trkpt>
      <trkpt lat="41.597936" lon="1.836509">
        <ele>729.072</ele>
        <time>2017-04-29T15:10:42Z</time>
      </trkpt>
      <trkpt lat="41.597846" lon="1.836562">
        <ele>729.019</ele>
        <time>2017-04-29T15:10:47Z</time>
      </trkpt>
      <trkpt lat="41.597745" lon="1.836637">
        <ele>729.088</ele>
        <time>2017-04-29T15:10:53Z</time>
      </trkpt>
      <trkpt lat="41.597669" lon="1.836733">
        <ele>732.024</ele>
        <time>2017-04-29T15:11:00Z</time>
      </trkpt>
      <trkpt lat="41.597578" lon="1.836809">
        <ele>732.026</ele>
        <time>2017-04-29T15:11:05Z</time>
      </trkpt>
      <trkpt lat="41.597504" lon="1.836891">
        <ele>733.008</ele>
        <time>2017-04-29T15:11:12Z</time>
      </trkpt>
      <trkpt lat="41.59743" lon="1.836981">
        <ele>735.069</ele>
        <time>2017-04-29T15:11:17Z</time>
      </trkpt>
      <trkpt lat="41.597342" lon="1.837073">
        <ele>738.035</ele>
        <time>2017-04-29T15:11:24Z</time>
      </trkpt>
      <trkpt lat="41.597273" lon="1.83716">
        <ele>739.072</ele>
        <time>2017-04-29T15:11:30Z</time>
      </trkpt>
      <trkpt lat="41.597189" lon="1.837238">
        <ele>740.025</ele>
        <time>2017-04-29T15:11:36Z</time>
      </trkpt>
      <trkpt lat="41.597103" lon="1.837324">
        <ele>743.064</ele>
        <time>2017-04-29T15:11:42Z</time>
      </trkpt>
      <trkpt lat="41.597024" lon="1.837417">
        <ele>743.024</ele>
        <time>2017-04-29T15:11:49Z</time>
      </trkpt>
      <trkpt lat="41.596936" lon="1.837487">
        <ele>743.045</ele>
        <time>2017-04-29T15:11:54Z</time>
      </trkpt>
      <trkpt lat="41.596856" lon="1.837562">
        <ele>744.062</ele>
        <time>2017-04-29T15:11:59Z</time>
      </trkpt>
      <trkpt lat="41.596782" lon="1.837648">
        <ele>744.087</ele>
        <time>2017-04-29T15:12:04Z</time>
      </trkpt>
      <trkpt lat="41.596699" lon="1.837746">
        <ele>743.042</ele>
        <time>2017-04-29T15:12:11Z</time>
      </trkpt>
      <trkpt lat="41.596709" lon="1.837886">
        <ele>745.026</ele>
        <time>2017-04-29T15:12:15Z</time>
      </trkpt>
      <trkpt lat="41.596667" lon="1.838005">
        <ele>745.008</ele>
        <time>2017-04-29T15:12:20Z</time>
      </trkpt>
      <trkpt lat="41.596628" lon="1.83814">
        <ele>743.089</ele>
        <time>2017-04-29T15:12:25Z</time>
      </trkpt>
      <trkpt lat="41.596583" lon="1.838245">
        <ele>745.075</ele>
        <time>2017-04-29T15:12:30Z</time>
      </trkpt>
      <trkpt lat="41.596524" lon="1.838347">
        <ele>753.042</ele>
        <time>2017-04-29T15:12:37Z</time>
      </trkpt>
      <trkpt lat="41.596458" lon="1.838439">
        <ele>751.075</ele>
        <time>2017-04-29T15:12:41Z</time>
      </trkpt>
      <trkpt lat="41.596387" lon="1.838537">
        <ele>751.054</ele>
        <time>2017-04-29T15:12:46Z</time>
      </trkpt>
      <trkpt lat="41.596321" lon="1.838624">
        <ele>756.034</ele>
        <time>2017-04-29T15:12:52Z</time>
      </trkpt>
      <trkpt lat="41.596246" lon="1.838706">
        <ele>758.045</ele>
        <time>2017-04-29T15:12:58Z</time>
      </trkpt>
      <trkpt lat="41.596191" lon="1.838817">
        <ele>761.082</ele>
        <time>2017-04-29T15:13:04Z</time>
      </trkpt>
      <trkpt lat="41.596122" lon="1.838921">
        <ele>761.057</ele>
        <time>2017-04-29T15:13:09Z</time>
      </trkpt>
      <trkpt lat="41.596046" lon="1.839006">
        <ele>763.0</ele>
        <time>2017-04-29T15:13:14Z</time>
      </trkpt>
      <trkpt lat="41.595985" lon="1.839108">
        <ele>760.02</ele>
        <time>2017-04-29T15:13:19Z</time>
      </trkpt>
      <trkpt lat="41.595909" lon="1.839182">
        <ele>762.008</ele>
        <time>2017-04-29T15:13:24Z</time>
      </trkpt>
      <trkpt lat="41.595826" lon="1.839249">
        <ele>761.096</ele>
        <time>2017-04-29T15:13:29Z</time>
      </trkpt>
      <trkpt lat="41.595737" lon="1.839291">
        <ele>762.022</ele>
        <time>2017-04-29T15:13:34Z</time>
      </trkpt>
      <trkpt lat="41.595641" lon="1.839341">
        <ele>764.059</ele>
        <time>2017-04-29T15:13:39Z</time>
      </trkpt>
      <trkpt lat="41.595532" lon="1.839379">
        <ele>766.022</ele>
        <time>2017-04-29T15:13:46Z</time>
      </trkpt>
      <trkpt lat="41.59543" lon="1.839413">
        <ele>767.051</ele>
        <time>2017-04-29T15:13:51Z</time>
      </trkpt>
      <trkpt lat="41.595327" lon="1.839446">
        <ele>770.021</ele>
        <time>2017-04-29T15:13:57Z</time>
      </trkpt>
      <trkpt lat="41.595225" lon="1.839473">
        <ele>770.022</ele>
        <time>2017-04-29T15:14:02Z</time>
      </trkpt>
      <trkpt lat="41.595124" lon="1.839522">
        <ele>771.019</ele>
        <time>2017-04-29T15:14:07Z</time>
      </trkpt>
      <trkpt lat="41.595038" lon="1.839594">
        <ele>778.015</ele>
        <time>2017-04-29T15:14:12Z</time>
      </trkpt>
      <trkpt lat="41.594953" lon="1.839673">
        <ele>782.065</ele>
        <time>2017-04-29T15:14:17Z</time>
      </trkpt>
      <trkpt lat="41.594913" lon="1.839793">
        <ele>780.011</ele>
        <time>2017-04-29T15:14:22Z</time>
      </trkpt>
      <trkpt lat="41.594876" lon="1.839917">
        <ele>777.008</ele>
        <time>2017-04-29T15:14:26Z</time>
      </trkpt>
      <trkpt lat="41.594871" lon="1.840048">
        <ele>776.052</ele>
        <time>2017-04-29T15:14:31Z</time>
      </trkpt>
      <trkpt lat="41.594849" lon="1.840184">
        <ele>776.018</ele>
        <time>2017-04-29T15:14:35Z</time>
      </trkpt>
      <trkpt lat="41.594816" lon="1.840347">
        <ele>771.065</ele>
        <time>2017-04-29T15:14:40Z</time>
      </trkpt>
      <trkpt lat="41.594745" lon="1.840466">
        <ele>769.058</ele>
        <time>2017-04-29T15:14:45Z</time>
      </trkpt>
      <trkpt lat="41.594653" lon="1.840524">
        <ele>767.037</ele>
        <time>2017-04-29T15:14:48Z</time>
      </trkpt>
      <trkpt lat="41.594562" lon="1.840565">
        <ele>763.077</ele>
        <time>2017-04-29T15:14:53Z</time>
      </trkpt>
      <trkpt lat="41.594468" lon="1.840551">
        <ele>763.018</ele>
        <time>2017-04-29T15:14:57Z</time>
      </trkpt>
      <trkpt lat="41.594367" lon="1.84048">
        <ele>763.095</ele>
        <time>2017-04-29T15:15:01Z</time>
      </trkpt>
      <trkpt lat="41.594286" lon="1.840365">
        <ele>764.032</ele>
        <time>2017-04-29T15:15:05Z</time>
      </trkpt>
      <trkpt lat="41.594214" lon="1.840285">
        <ele>765.092</ele>
        <time>2017-04-29T15:15:08Z</time>
      </trkpt>
      <trkpt lat="41.594155" lon="1.840166">
        <ele>765.011</ele>
        <time>2017-04-29T15:15:11Z</time>
      </trkpt>
      <trkpt lat="41.594101" lon="1.840021">
        <ele>764.008</ele>
        <time>2017-04-29T15:15:14Z</time>
      </trkpt>
      <trkpt lat="41.594083" lon="1.839866">
        <ele>764.064</ele>
        <time>2017-04-29T15:15:17Z</time>
      </trkpt>
      <trkpt lat="41.594062" lon="1.839729">
        <ele>764.03</ele>
        <time>2017-04-29T15:15:20Z</time>
      </trkpt>
      <trkpt lat="41.594031" lon="1.839599">
        <ele>764.047</ele>
        <time>2017-04-29T15:15:23Z</time>
      </trkpt>
      <trkpt lat="41.593946" lon="1.839499">
        <ele>764.03</ele>
        <time>2017-04-29T15:15:27Z</time>
      </trkpt>
      <trkpt lat="41.593873" lon="1.839413">
        <ele>763.069</ele>
        <time>2017-04-29T15:15:30Z</time>
      </trkpt>
      <trkpt lat="41.593774" lon="1.839338">
        <ele>764.029</ele>
        <time>2017-04-29T15:15:33Z</time>
      </trkpt>
      <trkpt lat="41.59369" lon="1.839205">
        <ele>763.01</ele>
        <time>2017-04-29T15:15:36Z</time>
      </trkpt>
      <trkpt lat="41.59363" lon="1.839097">
        <ele>763.087</ele>
        <time>2017-04-29T15:15:38Z</time>
      </trkpt>
      <trkpt lat="41.593571" lon="1.838975">
        <ele>762.068</ele>
        <time>2017-04-29T15:15:40Z</time>
      </trkpt>
      <trkpt lat="41.593508" lon="1.838855">
        <ele>762.042</ele>
        <time>2017-04-29T15:15:42Z</time>
      </trkpt>
      <trkpt lat="41.593444" lon="1.838735">
        <ele>762.026</ele>
        <time>2017-04-29T15:15:44Z</time>
      </trkpt>
      <trkpt lat="41.59338" lon="1.838604">
        <ele>761.008</ele>
        <time>2017-04-29T15:15:46Z</time>
      </trkpt>
      <trkpt lat="41.593307" lon="1.838485">
        <ele>761.087</ele>
        <time>2017-04-29T15:15:48Z</time>
      </trkpt>
      <trkpt lat="41.593252" lon="1.838371">
        <ele>761.053</ele>
        <time>2017-04-29T15:15:50Z</time>
      </trkpt>
      <trkpt lat="41.593199" lon="1.838247">
        <ele>760.06</ele>
        <time>2017-04-29T15:15:52Z</time>
      </trkpt>
      <trkpt lat="41.593152" lon="1.838123">
        <ele>760.053</ele>
        <time>2017-04-29T15:15:54Z</time>
      </trkpt>
      <trkpt lat="41.593109" lon="1.837991">
        <ele>759.072</ele>
        <time>2017-04-29T15:15:56Z</time>
      </trkpt>
      <trkpt lat="41.593064" lon="1.83786">
        <ele>759.092</ele>
        <time>2017-04-29T15:15:58Z</time>
      </trkpt>
      <trkpt lat="41.593023" lon="1.837732">
        <ele>759.013</ele>
        <time>2017-04-29T15:16:00Z</time>
      </trkpt>
      <trkpt lat="41.59299" lon="1.83761">
        <ele>759.01</ele>
        <time>2017-04-29T15:16:02Z</time>
      </trkpt>
      <trkpt lat="41.592949" lon="1.837499">
        <ele>760.064</ele>
        <time>2017-04-29T15:16:04Z</time>
      </trkpt>
      <trkpt lat="41.592922" lon="1.837383">
        <ele>760.006</ele>
        <time>2017-04-29T15:16:06Z</time>
      </trkpt>
      <trkpt lat="41.592859" lon="1.837225">
        <ele>761.016</ele>
        <time>2017-04-29T15:16:09Z</time>
      </trkpt>
      <trkpt lat="41.592815" lon="1.83712">
        <ele>763.008</ele>
        <time>2017-04-29T15:16:12Z</time>
      </trkpt>
      <trkpt lat="41.592774" lon="1.837009">
        <ele>764.097</ele>
        <time>2017-04-29T15:16:14Z</time>
      </trkpt>
      <trkpt lat="41.592682" lon="1.836883">
        <ele>768.093</ele>
        <time>2017-04-29T15:16:17Z</time>
      </trkpt>
      <trkpt lat="41.592602" lon="1.836765">
        <ele>769.02</ele>
        <time>2017-04-29T15:16:20Z</time>
      </trkpt>
      <trkpt lat="41.592522" lon="1.836638">
        <ele>770.063</ele>
        <time>2017-04-29T15:16:23Z</time>
      </trkpt>
      <trkpt lat="41.592449" lon="1.836553">
        <ele>772.012</ele>
        <time>2017-04-29T15:16:26Z</time>
      </trkpt>
      <trkpt lat="41.592394" lon="1.836443">
        <ele>772.082</ele>
        <time>2017-04-29T15:16:29Z</time>
      </trkpt>
      <trkpt lat="41.592346" lon="1.83634">
        <ele>771.073</ele>
        <time>2017-04-29T15:16:33Z</time>
      </trkpt>
      <trkpt lat="41.592317" lon="1.836218">
        <ele>772.04</ele>
        <time>2017-04-29T15:16:37Z</time>
      </trkpt>
      <trkpt lat="41.592258" lon="1.836108">
        <ele>772.036</ele>
        <time>2017-04-29T15:16:41Z</time>
      </trkpt>
      <trkpt lat="41.592213" lon="1.83599">
        <ele>774.017</ele>
        <time>2017-04-29T15:16:45Z</time>
      </trkpt>
      <trkpt lat="41.592159" lon="1.835844">
        <ele>774.018</ele>
        <time>2017-04-29T15:16:50Z</time>
      </trkpt>
      <trkpt lat="41.592127" lon="1.835693">
        <ele>772.008</ele>
        <time>2017-04-29T15:16:54Z</time>
      </trkpt>
    </trkseg>
  </trk>
</gpx>
